<?xml version="1.0" encoding="UTF-8" standalone="no" ?>
<gpx xmlns="http://www.topografix.com/GPX/1/1" xmlns:xsi="http://www.w3.org/2001/XMLSchema-instance" xsi:schemaLocation="http://www.topografix.com/GPX/1/1 http://www.topografix.com/GPX/1/1/gpx.xsd" version="1.1" creator="VisuGPX - https://www.visugpx.com">
  <metadata>
    <name>Plus loin vers le Nord , V2, Sucé sur Erdre</name>
    <desc><![CDATA[Rezé > Sucé sur Erdre via l\'Erdre, Rive Nord puis Rive Sud. Parcours quasi aboutit. ]]></desc>
  </metadata>
  <trk>
    <name><![CDATA[Plus loin vers le Nord , V2, Sucé sur Erdre_1]]></name>
    <trkseg>
      <trkpt lat="47.16654" lon="-1.54805">
        <ele>36.5</ele>
        <time>2015-01-04T07:26:10Z</time>
      </trkpt>
      <trkpt lat="47.16654" lon="-1.54805">
        <ele>45.4</ele>
        <time>2015-01-04T07:26:11Z</time>
      </trkpt>
      <trkpt lat="47.16665" lon="-1.54824">
        <ele>45.4</ele>
        <time>2015-01-04T07:26:12Z</time>
      </trkpt>
      <trkpt lat="47.16665" lon="-1.54824">
        <ele>54.2</ele>
        <time>2015-01-04T07:26:16Z</time>
      </trkpt>
      <trkpt lat="47.16665" lon="-1.54824">
        <ele>36.3</ele>
        <time>2015-01-04T07:26:16Z</time>
      </trkpt>
      <trkpt lat="47.16665" lon="-1.54824">
        <ele>36.3</ele>
        <time>2015-01-04T07:28:01Z</time>
      </trkpt>
      <trkpt lat="47.16654" lon="-1.54802">
        <ele>41.5</ele>
        <time>2015-01-04T07:28:02Z</time>
      </trkpt>
      <trkpt lat="47.16654" lon="-1.54802">
        <ele>41.5</ele>
        <time>2015-01-04T07:28:03Z</time>
      </trkpt>
      <trkpt lat="47.16654" lon="-1.54801">
        <ele>39.7</ele>
        <time>2015-01-04T07:28:06Z</time>
      </trkpt>
      <trkpt lat="47.16654" lon="-1.54801">
        <ele>36.5</ele>
        <time>2015-01-04T07:28:06Z</time>
      </trkpt>
      <trkpt lat="47.16654" lon="-1.54801">
        <ele>36.5</ele>
        <time>2015-01-04T07:28:41Z</time>
      </trkpt>
      <trkpt lat="47.1666" lon="-1.54819">
        <ele>44.3</ele>
        <time>2015-01-04T07:28:42Z</time>
      </trkpt>
      <trkpt lat="47.16662" lon="-1.54826">
        <ele>44.6</ele>
        <time>2015-01-04T07:28:44Z</time>
      </trkpt>
      <trkpt lat="47.16666" lon="-1.54828">
        <ele>44.6</ele>
        <time>2015-01-04T07:28:46Z</time>
      </trkpt>
      <trkpt lat="47.16676" lon="-1.54824">
        <ele>44.6</ele>
        <time>2015-01-04T07:28:50Z</time>
      </trkpt>
      <trkpt lat="47.16686" lon="-1.54816">
        <ele>44.7</ele>
        <time>2015-01-04T07:28:53Z</time>
      </trkpt>
      <trkpt lat="47.16698" lon="-1.54807">
        <ele>44.6</ele>
        <time>2015-01-04T07:28:57Z</time>
      </trkpt>
      <trkpt lat="47.16707" lon="-1.54801">
        <ele>44.6</ele>
        <time>2015-01-04T07:29:00Z</time>
      </trkpt>
      <trkpt lat="47.16711" lon="-1.54796">
        <ele>44.5</ele>
        <time>2015-01-04T07:29:02Z</time>
      </trkpt>
      <trkpt lat="47.16711" lon="-1.54787">
        <ele>44.5</ele>
        <time>2015-01-04T07:29:04Z</time>
      </trkpt>
      <trkpt lat="47.16707" lon="-1.54767">
        <ele>44.5</ele>
        <time>2015-01-04T07:29:08Z</time>
      </trkpt>
      <trkpt lat="47.16702" lon="-1.54761">
        <ele>44.5</ele>
        <time>2015-01-04T07:29:10Z</time>
      </trkpt>
      <trkpt lat="47.16694" lon="-1.54761">
        <ele>44.5</ele>
        <time>2015-01-04T07:29:12Z</time>
      </trkpt>
      <trkpt lat="47.16682" lon="-1.54766">
        <ele>44.5</ele>
        <time>2015-01-04T07:29:15Z</time>
      </trkpt>
      <trkpt lat="47.16672" lon="-1.54768">
        <ele>44.5</ele>
        <time>2015-01-04T07:29:17Z</time>
      </trkpt>
      <trkpt lat="47.16662" lon="-1.54771">
        <ele>44.4</ele>
        <time>2015-01-04T07:29:19Z</time>
      </trkpt>
      <trkpt lat="47.16653" lon="-1.54773">
        <ele>43.9</ele>
        <time>2015-01-04T07:29:21Z</time>
      </trkpt>
      <trkpt lat="47.16643" lon="-1.54776">
        <ele>42.4</ele>
        <time>2015-01-04T07:29:23Z</time>
      </trkpt>
      <trkpt lat="47.16638" lon="-1.54777">
        <ele>42.4</ele>
        <time>2015-01-04T07:29:24Z</time>
      </trkpt>
      <trkpt lat="47.1663" lon="-1.54777">
        <ele>42.4</ele>
        <time>2015-01-04T07:29:26Z</time>
      </trkpt>
      <trkpt lat="47.16626" lon="-1.5477">
        <ele>42.4</ele>
        <time>2015-01-04T07:29:27Z</time>
      </trkpt>
      <trkpt lat="47.16622" lon="-1.54751">
        <ele>42.1</ele>
        <time>2015-01-04T07:29:30Z</time>
      </trkpt>
      <trkpt lat="47.16618" lon="-1.5473">
        <ele>41.6</ele>
        <time>2015-01-04T07:29:33Z</time>
      </trkpt>
      <trkpt lat="47.16613" lon="-1.5471">
        <ele>41.1</ele>
        <time>2015-01-04T07:29:36Z</time>
      </trkpt>
      <trkpt lat="47.1661" lon="-1.54689">
        <ele>40.9</ele>
        <time>2015-01-04T07:29:39Z</time>
      </trkpt>
      <trkpt lat="47.16606" lon="-1.54669">
        <ele>40.6</ele>
        <time>2015-01-04T07:29:42Z</time>
      </trkpt>
      <trkpt lat="47.16602" lon="-1.54648">
        <ele>40.2</ele>
        <time>2015-01-04T07:29:45Z</time>
      </trkpt>
      <trkpt lat="47.16598" lon="-1.54627">
        <ele>39.9</ele>
        <time>2015-01-04T07:29:48Z</time>
      </trkpt>
      <trkpt lat="47.16595" lon="-1.54607">
        <ele>39.3</ele>
        <time>2015-01-04T07:29:51Z</time>
      </trkpt>
      <trkpt lat="47.16581" lon="-1.54596">
        <ele>39</ele>
        <time>2015-01-04T07:29:53Z</time>
      </trkpt>
      <trkpt lat="47.16575" lon="-1.54565">
        <ele>38.4</ele>
        <time>2015-01-04T07:29:57Z</time>
      </trkpt>
      <trkpt lat="47.16574" lon="-1.54545">
        <ele>38.1</ele>
        <time>2015-01-04T07:30:00Z</time>
      </trkpt>
      <trkpt lat="47.16574" lon="-1.54521">
        <ele>38</ele>
        <time>2015-01-04T07:30:02Z</time>
      </trkpt>
      <trkpt lat="47.1658" lon="-1.54485">
        <ele>37.8</ele>
        <time>2015-01-04T07:30:06Z</time>
      </trkpt>
      <trkpt lat="47.16583" lon="-1.54459">
        <ele>37.7</ele>
        <time>2015-01-04T07:30:09Z</time>
      </trkpt>
      <trkpt lat="47.16586" lon="-1.54433">
        <ele>37.6</ele>
        <time>2015-01-04T07:30:12Z</time>
      </trkpt>
      <trkpt lat="47.16587" lon="-1.54426">
        <ele>37.5</ele>
        <time>2015-01-04T07:30:13Z</time>
      </trkpt>
      <trkpt lat="47.16578" lon="-1.54403">
        <ele>37.5</ele>
        <time>2015-01-04T07:30:17Z</time>
      </trkpt>
      <trkpt lat="47.16576" lon="-1.54401">
        <ele>37.1</ele>
        <time>2015-01-04T07:30:20Z</time>
      </trkpt>
      <trkpt lat="47.16575" lon="-1.54399">
        <ele>32.7</ele>
        <time>2015-01-04T07:30:24Z</time>
      </trkpt>
      <trkpt lat="47.16575" lon="-1.54399">
        <ele>37</ele>
        <time>2015-01-04T07:30:24Z</time>
      </trkpt>
      <trkpt lat="47.16575" lon="-1.54399">
        <ele>37</ele>
        <time>2015-01-04T07:37:32Z</time>
      </trkpt>
      <trkpt lat="47.16572" lon="-1.54389">
        <ele>39.5</ele>
        <time>2015-01-04T07:37:34Z</time>
      </trkpt>
      <trkpt lat="47.16576" lon="-1.54376">
        <ele>39.5</ele>
        <time>2015-01-04T07:37:37Z</time>
      </trkpt>
      <trkpt lat="47.16576" lon="-1.54369">
        <ele>39.5</ele>
        <time>2015-01-04T07:37:40Z</time>
      </trkpt>
      <trkpt lat="47.1657" lon="-1.54369">
        <ele>39.5</ele>
        <time>2015-01-04T07:37:42Z</time>
      </trkpt>
      <trkpt lat="47.16568" lon="-1.54369">
        <ele>39.5</ele>
        <time>2015-01-04T07:37:43Z</time>
      </trkpt>
      <trkpt lat="47.16568" lon="-1.54368">
        <ele>40.8</ele>
        <time>2015-01-04T07:37:47Z</time>
      </trkpt>
      <trkpt lat="47.16568" lon="-1.54368">
        <ele>37</ele>
        <time>2015-01-04T07:37:47Z</time>
      </trkpt>
      <trkpt lat="47.16568" lon="-1.54368">
        <ele>37</ele>
        <time>2015-01-04T07:39:23Z</time>
      </trkpt>
      <trkpt lat="47.1658" lon="-1.54373">
        <ele>38.1</ele>
        <time>2015-01-04T07:39:24Z</time>
      </trkpt>
      <trkpt lat="47.16586" lon="-1.54369">
        <ele>38.1</ele>
        <time>2015-01-04T07:39:27Z</time>
      </trkpt>
      <trkpt lat="47.16587" lon="-1.54363">
        <ele>38.1</ele>
        <time>2015-01-04T07:39:29Z</time>
      </trkpt>
      <trkpt lat="47.16588" lon="-1.54356">
        <ele>38.1</ele>
        <time>2015-01-04T07:39:31Z</time>
      </trkpt>
      <trkpt lat="47.1659" lon="-1.54335">
        <ele>38.1</ele>
        <time>2015-01-04T07:39:36Z</time>
      </trkpt>
      <trkpt lat="47.16592" lon="-1.54314">
        <ele>38.2</ele>
        <time>2015-01-04T07:39:42Z</time>
      </trkpt>
      <trkpt lat="47.16589" lon="-1.54294">
        <ele>38.6</ele>
        <time>2015-01-04T07:39:47Z</time>
      </trkpt>
      <trkpt lat="47.16587" lon="-1.54285">
        <ele>39.5</ele>
        <time>2015-01-04T07:39:49Z</time>
      </trkpt>
      <trkpt lat="47.16588" lon="-1.54276">
        <ele>39.5</ele>
        <time>2015-01-04T07:39:51Z</time>
      </trkpt>
      <trkpt lat="47.16592" lon="-1.54268">
        <ele>39.5</ele>
        <time>2015-01-04T07:39:53Z</time>
      </trkpt>
      <trkpt lat="47.16603" lon="-1.54257">
        <ele>40.4</ele>
        <time>2015-01-04T07:39:57Z</time>
      </trkpt>
      <trkpt lat="47.16614" lon="-1.54261">
        <ele>40.9</ele>
        <time>2015-01-04T07:40:00Z</time>
      </trkpt>
      <trkpt lat="47.16628" lon="-1.54271">
        <ele>41.1</ele>
        <time>2015-01-04T07:40:04Z</time>
      </trkpt>
      <trkpt lat="47.16639" lon="-1.54271">
        <ele>41.1</ele>
        <time>2015-01-04T07:40:07Z</time>
      </trkpt>
      <trkpt lat="47.16651" lon="-1.54268">
        <ele>41.1</ele>
        <time>2015-01-04T07:40:10Z</time>
      </trkpt>
      <trkpt lat="47.1666" lon="-1.54268">
        <ele>41.1</ele>
        <time>2015-01-04T07:40:12Z</time>
      </trkpt>
      <trkpt lat="47.16673" lon="-1.54269">
        <ele>41.1</ele>
        <time>2015-01-04T07:40:15Z</time>
      </trkpt>
      <trkpt lat="47.16682" lon="-1.54269">
        <ele>41.1</ele>
        <time>2015-01-04T07:40:17Z</time>
      </trkpt>
      <trkpt lat="47.16698" lon="-1.54271">
        <ele>41.5</ele>
        <time>2015-01-04T07:40:21Z</time>
      </trkpt>
      <trkpt lat="47.1671" lon="-1.54274">
        <ele>41.6</ele>
        <time>2015-01-04T07:40:24Z</time>
      </trkpt>
      <trkpt lat="47.16723" lon="-1.54275">
        <ele>41.7</ele>
        <time>2015-01-04T07:40:27Z</time>
      </trkpt>
      <trkpt lat="47.16736" lon="-1.54276">
        <ele>41.5</ele>
        <time>2015-01-04T07:40:30Z</time>
      </trkpt>
      <trkpt lat="47.16753" lon="-1.54278">
        <ele>41.5</ele>
        <time>2015-01-04T07:40:34Z</time>
      </trkpt>
      <trkpt lat="47.16765" lon="-1.5428">
        <ele>41.5</ele>
        <time>2015-01-04T07:40:37Z</time>
      </trkpt>
      <trkpt lat="47.16778" lon="-1.54282">
        <ele>41.4</ele>
        <time>2015-01-04T07:40:40Z</time>
      </trkpt>
      <trkpt lat="47.16786" lon="-1.54282">
        <ele>41.4</ele>
        <time>2015-01-04T07:40:42Z</time>
      </trkpt>
      <trkpt lat="47.16803" lon="-1.54287">
        <ele>41.3</ele>
        <time>2015-01-04T07:40:46Z</time>
      </trkpt>
      <trkpt lat="47.1682" lon="-1.54289">
        <ele>41.2</ele>
        <time>2015-01-04T07:40:50Z</time>
      </trkpt>
      <trkpt lat="47.16829" lon="-1.54286">
        <ele>41.2</ele>
        <time>2015-01-04T07:40:52Z</time>
      </trkpt>
      <trkpt lat="47.16847" lon="-1.54279">
        <ele>41.2</ele>
        <time>2015-01-04T07:40:56Z</time>
      </trkpt>
      <trkpt lat="47.16863" lon="-1.54289">
        <ele>41.2</ele>
        <time>2015-01-04T07:40:59Z</time>
      </trkpt>
      <trkpt lat="47.16849" lon="-1.54261">
        <ele>41.3</ele>
        <time>2015-01-04T07:41:02Z</time>
      </trkpt>
      <trkpt lat="47.16879" lon="-1.54294">
        <ele>41.3</ele>
        <time>2015-01-04T07:41:03Z</time>
      </trkpt>
      <trkpt lat="47.16898" lon="-1.54296">
        <ele>41.3</ele>
        <time>2015-01-04T07:41:07Z</time>
      </trkpt>
      <trkpt lat="47.16908" lon="-1.54295">
        <ele>41.3</ele>
        <time>2015-01-04T07:41:09Z</time>
      </trkpt>
      <trkpt lat="47.16917" lon="-1.54298">
        <ele>41.3</ele>
        <time>2015-01-04T07:41:11Z</time>
      </trkpt>
      <trkpt lat="47.16927" lon="-1.543">
        <ele>41.3</ele>
        <time>2015-01-04T07:41:13Z</time>
      </trkpt>
      <trkpt lat="47.16942" lon="-1.54301">
        <ele>41.3</ele>
        <time>2015-01-04T07:41:16Z</time>
      </trkpt>
      <trkpt lat="47.16953" lon="-1.54302">
        <ele>41.3</ele>
        <time>2015-01-04T07:41:18Z</time>
      </trkpt>
      <trkpt lat="47.1697" lon="-1.54305">
        <ele>41.2</ele>
        <time>2015-01-04T07:41:21Z</time>
      </trkpt>
      <trkpt lat="47.16987" lon="-1.54308">
        <ele>41.2</ele>
        <time>2015-01-04T07:41:24Z</time>
      </trkpt>
      <trkpt lat="47.16996" lon="-1.54307">
        <ele>41.1</ele>
        <time>2015-01-04T07:41:26Z</time>
      </trkpt>
      <trkpt lat="47.1701" lon="-1.54308">
        <ele>41</ele>
        <time>2015-01-04T07:41:29Z</time>
      </trkpt>
      <trkpt lat="47.17021" lon="-1.54308">
        <ele>41</ele>
        <time>2015-01-04T07:41:31Z</time>
      </trkpt>
      <trkpt lat="47.1703" lon="-1.54309">
        <ele>41</ele>
        <time>2015-01-04T07:41:33Z</time>
      </trkpt>
      <trkpt lat="47.1704" lon="-1.54311">
        <ele>41</ele>
        <time>2015-01-04T07:41:35Z</time>
      </trkpt>
      <trkpt lat="47.17051" lon="-1.54314">
        <ele>41</ele>
        <time>2015-01-04T07:41:37Z</time>
      </trkpt>
      <trkpt lat="47.17064" lon="-1.54316">
        <ele>41</ele>
        <time>2015-01-04T07:41:40Z</time>
      </trkpt>
      <trkpt lat="47.17075" lon="-1.54318">
        <ele>41</ele>
        <time>2015-01-04T07:41:42Z</time>
      </trkpt>
      <trkpt lat="47.17085" lon="-1.54317">
        <ele>41</ele>
        <time>2015-01-04T07:41:44Z</time>
      </trkpt>
      <trkpt lat="47.17101" lon="-1.54316">
        <ele>41</ele>
        <time>2015-01-04T07:41:47Z</time>
      </trkpt>
      <trkpt lat="47.17119" lon="-1.54319">
        <ele>41</ele>
        <time>2015-01-04T07:41:51Z</time>
      </trkpt>
      <trkpt lat="47.17137" lon="-1.54319">
        <ele>41</ele>
        <time>2015-01-04T07:41:55Z</time>
      </trkpt>
      <trkpt lat="47.17158" lon="-1.54322">
        <ele>41</ele>
        <time>2015-01-04T07:42:00Z</time>
      </trkpt>
      <trkpt lat="47.17168" lon="-1.54324">
        <ele>41</ele>
        <time>2015-01-04T07:42:02Z</time>
      </trkpt>
      <trkpt lat="47.17183" lon="-1.54327">
        <ele>41</ele>
        <time>2015-01-04T07:42:05Z</time>
      </trkpt>
      <trkpt lat="47.17197" lon="-1.54329">
        <ele>41</ele>
        <time>2015-01-04T07:42:08Z</time>
      </trkpt>
      <trkpt lat="47.17216" lon="-1.54335">
        <ele>41</ele>
        <time>2015-01-04T07:42:12Z</time>
      </trkpt>
      <trkpt lat="47.17222" lon="-1.54337">
        <ele>41</ele>
        <time>2015-01-04T07:42:13Z</time>
      </trkpt>
      <trkpt lat="47.17227" lon="-1.54337">
        <ele>41</ele>
        <time>2015-01-04T07:42:14Z</time>
      </trkpt>
      <trkpt lat="47.17242" lon="-1.54338">
        <ele>41</ele>
        <time>2015-01-04T07:42:17Z</time>
      </trkpt>
      <trkpt lat="47.17256" lon="-1.54341">
        <ele>41</ele>
        <time>2015-01-04T07:42:20Z</time>
      </trkpt>
      <trkpt lat="47.17268" lon="-1.54336">
        <ele>41</ele>
        <time>2015-01-04T07:42:22Z</time>
      </trkpt>
      <trkpt lat="47.17273" lon="-1.54339">
        <ele>41</ele>
        <time>2015-01-04T07:42:23Z</time>
      </trkpt>
      <trkpt lat="47.17278" lon="-1.54342">
        <ele>41</ele>
        <time>2015-01-04T07:42:24Z</time>
      </trkpt>
      <trkpt lat="47.17289" lon="-1.54343">
        <ele>41</ele>
        <time>2015-01-04T07:42:26Z</time>
      </trkpt>
      <trkpt lat="47.17313" lon="-1.54346">
        <ele>41</ele>
        <time>2015-01-04T07:42:31Z</time>
      </trkpt>
      <trkpt lat="47.17322" lon="-1.54347">
        <ele>41</ele>
        <time>2015-01-04T07:42:33Z</time>
      </trkpt>
      <trkpt lat="47.17338" lon="-1.54349">
        <ele>40.8</ele>
        <time>2015-01-04T07:42:36Z</time>
      </trkpt>
      <trkpt lat="47.17358" lon="-1.54352">
        <ele>40.4</ele>
        <time>2015-01-04T07:42:40Z</time>
      </trkpt>
      <trkpt lat="47.17376" lon="-1.54355">
        <ele>40.2</ele>
        <time>2015-01-04T07:42:43Z</time>
      </trkpt>
      <trkpt lat="47.17392" lon="-1.54356">
        <ele>40.2</ele>
        <time>2015-01-04T07:42:46Z</time>
      </trkpt>
      <trkpt lat="47.17403" lon="-1.54355">
        <ele>40.2</ele>
        <time>2015-01-04T07:42:48Z</time>
      </trkpt>
      <trkpt lat="47.17419" lon="-1.54356">
        <ele>40</ele>
        <time>2015-01-04T07:42:51Z</time>
      </trkpt>
      <trkpt lat="47.17429" lon="-1.54358">
        <ele>39.9</ele>
        <time>2015-01-04T07:42:53Z</time>
      </trkpt>
      <trkpt lat="47.17446" lon="-1.54362">
        <ele>39.5</ele>
        <time>2015-01-04T07:42:56Z</time>
      </trkpt>
      <trkpt lat="47.17466" lon="-1.54363">
        <ele>38.7</ele>
        <time>2015-01-04T07:43:00Z</time>
      </trkpt>
      <trkpt lat="47.1747" lon="-1.54366">
        <ele>38.3</ele>
        <time>2015-01-04T07:43:02Z</time>
      </trkpt>
      <trkpt lat="47.17476" lon="-1.54367">
        <ele>38.3</ele>
        <time>2015-01-04T07:43:04Z</time>
      </trkpt>
      <trkpt lat="47.17489" lon="-1.54368">
        <ele>38</ele>
        <time>2015-01-04T07:43:08Z</time>
      </trkpt>
      <trkpt lat="47.17502" lon="-1.54372">
        <ele>37.9</ele>
        <time>2015-01-04T07:43:11Z</time>
      </trkpt>
      <trkpt lat="47.17516" lon="-1.54373">
        <ele>37.7</ele>
        <time>2015-01-04T07:43:14Z</time>
      </trkpt>
      <trkpt lat="47.17525" lon="-1.54374">
        <ele>37.7</ele>
        <time>2015-01-04T07:43:16Z</time>
      </trkpt>
      <trkpt lat="47.1754" lon="-1.54375">
        <ele>37.7</ele>
        <time>2015-01-04T07:43:19Z</time>
      </trkpt>
      <trkpt lat="47.17559" lon="-1.54378">
        <ele>37.7</ele>
        <time>2015-01-04T07:43:23Z</time>
      </trkpt>
      <trkpt lat="47.17568" lon="-1.54379">
        <ele>37.7</ele>
        <time>2015-01-04T07:43:25Z</time>
      </trkpt>
      <trkpt lat="47.17584" lon="-1.54376">
        <ele>37.7</ele>
        <time>2015-01-04T07:43:28Z</time>
      </trkpt>
      <trkpt lat="47.17594" lon="-1.54372">
        <ele>37.7</ele>
        <time>2015-01-04T07:43:30Z</time>
      </trkpt>
      <trkpt lat="47.17604" lon="-1.54372">
        <ele>37.7</ele>
        <time>2015-01-04T07:43:32Z</time>
      </trkpt>
      <trkpt lat="47.17617" lon="-1.54374">
        <ele>37.8</ele>
        <time>2015-01-04T07:43:35Z</time>
      </trkpt>
      <trkpt lat="47.17631" lon="-1.54379">
        <ele>37.9</ele>
        <time>2015-01-04T07:43:38Z</time>
      </trkpt>
      <trkpt lat="47.1764" lon="-1.54381">
        <ele>38</ele>
        <time>2015-01-04T07:43:40Z</time>
      </trkpt>
      <trkpt lat="47.17647" lon="-1.5438">
        <ele>38</ele>
        <time>2015-01-04T07:43:41Z</time>
      </trkpt>
      <trkpt lat="47.17657" lon="-1.5438">
        <ele>38</ele>
        <time>2015-01-04T07:43:43Z</time>
      </trkpt>
      <trkpt lat="47.17674" lon="-1.54384">
        <ele>38.2</ele>
        <time>2015-01-04T07:43:47Z</time>
      </trkpt>
      <trkpt lat="47.17685" lon="-1.54387">
        <ele>38.2</ele>
        <time>2015-01-04T07:43:50Z</time>
      </trkpt>
      <trkpt lat="47.17697" lon="-1.54391">
        <ele>38.3</ele>
        <time>2015-01-04T07:43:53Z</time>
      </trkpt>
      <trkpt lat="47.17709" lon="-1.54395">
        <ele>38.4</ele>
        <time>2015-01-04T07:43:56Z</time>
      </trkpt>
      <trkpt lat="47.17718" lon="-1.54399">
        <ele>38.5</ele>
        <time>2015-01-04T07:43:58Z</time>
      </trkpt>
      <trkpt lat="47.17731" lon="-1.54402">
        <ele>38.7</ele>
        <time>2015-01-04T07:44:01Z</time>
      </trkpt>
      <trkpt lat="47.17746" lon="-1.54404">
        <ele>39</ele>
        <time>2015-01-04T07:44:04Z</time>
      </trkpt>
      <trkpt lat="47.17756" lon="-1.54406">
        <ele>39.1</ele>
        <time>2015-01-04T07:44:06Z</time>
      </trkpt>
      <trkpt lat="47.17765" lon="-1.54409">
        <ele>39.2</ele>
        <time>2015-01-04T07:44:08Z</time>
      </trkpt>
      <trkpt lat="47.17771" lon="-1.54411">
        <ele>39.6</ele>
        <time>2015-01-04T07:44:09Z</time>
      </trkpt>
      <trkpt lat="47.17775" lon="-1.54412">
        <ele>39.6</ele>
        <time>2015-01-04T07:44:10Z</time>
      </trkpt>
      <trkpt lat="47.17788" lon="-1.54415">
        <ele>39.6</ele>
        <time>2015-01-04T07:44:13Z</time>
      </trkpt>
      <trkpt lat="47.17804" lon="-1.54419">
        <ele>39.9</ele>
        <time>2015-01-04T07:44:17Z</time>
      </trkpt>
      <trkpt lat="47.17819" lon="-1.54421">
        <ele>40</ele>
        <time>2015-01-04T07:44:22Z</time>
      </trkpt>
      <trkpt lat="47.1783" lon="-1.54426">
        <ele>40.1</ele>
        <time>2015-01-04T07:44:25Z</time>
      </trkpt>
      <trkpt lat="47.1785" lon="-1.54432">
        <ele>40.1</ele>
        <time>2015-01-04T07:44:29Z</time>
      </trkpt>
      <trkpt lat="47.17864" lon="-1.54435">
        <ele>40.1</ele>
        <time>2015-01-04T07:44:32Z</time>
      </trkpt>
      <trkpt lat="47.17874" lon="-1.54438">
        <ele>40.1</ele>
        <time>2015-01-04T07:44:34Z</time>
      </trkpt>
      <trkpt lat="47.17887" lon="-1.54443">
        <ele>40.1</ele>
        <time>2015-01-04T07:44:37Z</time>
      </trkpt>
      <trkpt lat="47.17907" lon="-1.54451">
        <ele>40.1</ele>
        <time>2015-01-04T07:44:41Z</time>
      </trkpt>
      <trkpt lat="47.17916" lon="-1.54455">
        <ele>40</ele>
        <time>2015-01-04T07:44:43Z</time>
      </trkpt>
      <trkpt lat="47.17932" lon="-1.54456">
        <ele>40.1</ele>
        <time>2015-01-04T07:44:46Z</time>
      </trkpt>
      <trkpt lat="47.17944" lon="-1.54459">
        <ele>40</ele>
        <time>2015-01-04T07:44:48Z</time>
      </trkpt>
      <trkpt lat="47.17953" lon="-1.54463">
        <ele>40</ele>
        <time>2015-01-04T07:44:50Z</time>
      </trkpt>
      <trkpt lat="47.17963" lon="-1.54467">
        <ele>40</ele>
        <time>2015-01-04T07:44:52Z</time>
      </trkpt>
      <trkpt lat="47.17974" lon="-1.54469">
        <ele>39.7</ele>
        <time>2015-01-04T07:44:54Z</time>
      </trkpt>
      <trkpt lat="47.17978" lon="-1.54472">
        <ele>39.3</ele>
        <time>2015-01-04T07:44:55Z</time>
      </trkpt>
      <trkpt lat="47.17984" lon="-1.54474">
        <ele>39.3</ele>
        <time>2015-01-04T07:44:56Z</time>
      </trkpt>
      <trkpt lat="47.17989" lon="-1.54475">
        <ele>39.3</ele>
        <time>2015-01-04T07:44:57Z</time>
      </trkpt>
      <trkpt lat="47.18" lon="-1.54478">
        <ele>39.3</ele>
        <time>2015-01-04T07:44:59Z</time>
      </trkpt>
      <trkpt lat="47.18015" lon="-1.5448">
        <ele>39.1</ele>
        <time>2015-01-04T07:45:02Z</time>
      </trkpt>
      <trkpt lat="47.18029" lon="-1.54485">
        <ele>38.6</ele>
        <time>2015-01-04T07:45:05Z</time>
      </trkpt>
      <trkpt lat="47.18053" lon="-1.5449">
        <ele>37.9</ele>
        <time>2015-01-04T07:45:09Z</time>
      </trkpt>
      <trkpt lat="47.18063" lon="-1.54493">
        <ele>37.8</ele>
        <time>2015-01-04T07:45:11Z</time>
      </trkpt>
      <trkpt lat="47.18079" lon="-1.54499">
        <ele>37.6</ele>
        <time>2015-01-04T07:45:14Z</time>
      </trkpt>
      <trkpt lat="47.18094" lon="-1.54506">
        <ele>37.4</ele>
        <time>2015-01-04T07:45:17Z</time>
      </trkpt>
      <trkpt lat="47.1811" lon="-1.54511">
        <ele>37.3</ele>
        <time>2015-01-04T07:45:20Z</time>
      </trkpt>
      <trkpt lat="47.18126" lon="-1.54514">
        <ele>37</ele>
        <time>2015-01-04T07:45:23Z</time>
      </trkpt>
      <trkpt lat="47.18138" lon="-1.54517">
        <ele>36.9</ele>
        <time>2015-01-04T07:45:25Z</time>
      </trkpt>
      <trkpt lat="47.18149" lon="-1.5452">
        <ele>36.7</ele>
        <time>2015-01-04T07:45:27Z</time>
      </trkpt>
      <trkpt lat="47.18165" lon="-1.54524">
        <ele>36.6</ele>
        <time>2015-01-04T07:45:30Z</time>
      </trkpt>
      <trkpt lat="47.18174" lon="-1.54527">
        <ele>36.3</ele>
        <time>2015-01-04T07:45:32Z</time>
      </trkpt>
      <trkpt lat="47.18185" lon="-1.5453">
        <ele>36.3</ele>
        <time>2015-01-04T07:45:34Z</time>
      </trkpt>
      <trkpt lat="47.18203" lon="-1.54538">
        <ele>36.1</ele>
        <time>2015-01-04T07:45:37Z</time>
      </trkpt>
      <trkpt lat="47.18213" lon="-1.54542">
        <ele>35.8</ele>
        <time>2015-01-04T07:45:39Z</time>
      </trkpt>
      <trkpt lat="47.18225" lon="-1.54546">
        <ele>35.5</ele>
        <time>2015-01-04T07:45:41Z</time>
      </trkpt>
      <trkpt lat="47.1824" lon="-1.54548">
        <ele>35.1</ele>
        <time>2015-01-04T07:45:44Z</time>
      </trkpt>
      <trkpt lat="47.1825" lon="-1.5455">
        <ele>34.7</ele>
        <time>2015-01-04T07:45:46Z</time>
      </trkpt>
      <trkpt lat="47.1826" lon="-1.54557">
        <ele>34.3</ele>
        <time>2015-01-04T07:45:48Z</time>
      </trkpt>
      <trkpt lat="47.18274" lon="-1.54559">
        <ele>33.7</ele>
        <time>2015-01-04T07:45:51Z</time>
      </trkpt>
      <trkpt lat="47.1829" lon="-1.54563">
        <ele>33.2</ele>
        <time>2015-01-04T07:45:54Z</time>
      </trkpt>
      <trkpt lat="47.18304" lon="-1.54568">
        <ele>32.4</ele>
        <time>2015-01-04T07:45:57Z</time>
      </trkpt>
      <trkpt lat="47.18322" lon="-1.54575">
        <ele>30.8</ele>
        <time>2015-01-04T07:46:01Z</time>
      </trkpt>
      <trkpt lat="47.18332" lon="-1.54578">
        <ele>29.8</ele>
        <time>2015-01-04T07:46:03Z</time>
      </trkpt>
      <trkpt lat="47.18348" lon="-1.54582">
        <ele>29.4</ele>
        <time>2015-01-04T07:46:06Z</time>
      </trkpt>
      <trkpt lat="47.1836" lon="-1.54585">
        <ele>29.4</ele>
        <time>2015-01-04T07:46:08Z</time>
      </trkpt>
      <trkpt lat="47.18369" lon="-1.54588">
        <ele>29.4</ele>
        <time>2015-01-04T07:46:10Z</time>
      </trkpt>
      <trkpt lat="47.1838" lon="-1.54591">
        <ele>29.4</ele>
        <time>2015-01-04T07:46:12Z</time>
      </trkpt>
      <trkpt lat="47.18396" lon="-1.54596">
        <ele>29.4</ele>
        <time>2015-01-04T07:46:15Z</time>
      </trkpt>
      <trkpt lat="47.18402" lon="-1.54598">
        <ele>29.4</ele>
        <time>2015-01-04T07:46:16Z</time>
      </trkpt>
      <trkpt lat="47.18406" lon="-1.54599">
        <ele>29.4</ele>
        <time>2015-01-04T07:46:17Z</time>
      </trkpt>
      <trkpt lat="47.18412" lon="-1.54601">
        <ele>29.4</ele>
        <time>2015-01-04T07:46:18Z</time>
      </trkpt>
      <trkpt lat="47.18418" lon="-1.54601">
        <ele>29.4</ele>
        <time>2015-01-04T07:46:19Z</time>
      </trkpt>
      <trkpt lat="47.18423" lon="-1.54601">
        <ele>29.4</ele>
        <time>2015-01-04T07:46:20Z</time>
      </trkpt>
      <trkpt lat="47.18435" lon="-1.54603">
        <ele>29.4</ele>
        <time>2015-01-04T07:46:22Z</time>
      </trkpt>
      <trkpt lat="47.18445" lon="-1.54605">
        <ele>29.4</ele>
        <time>2015-01-04T07:46:24Z</time>
      </trkpt>
      <trkpt lat="47.18464" lon="-1.54611">
        <ele>29.4</ele>
        <time>2015-01-04T07:46:28Z</time>
      </trkpt>
      <trkpt lat="47.18478" lon="-1.54613">
        <ele>29.4</ele>
        <time>2015-01-04T07:46:32Z</time>
      </trkpt>
      <trkpt lat="47.18492" lon="-1.54615">
        <ele>29.9</ele>
        <time>2015-01-04T07:46:35Z</time>
      </trkpt>
      <trkpt lat="47.18501" lon="-1.54618">
        <ele>30.1</ele>
        <time>2015-01-04T07:46:37Z</time>
      </trkpt>
      <trkpt lat="47.18521" lon="-1.54627">
        <ele>30.2</ele>
        <time>2015-01-04T07:46:41Z</time>
      </trkpt>
      <trkpt lat="47.18542" lon="-1.54633">
        <ele>30.2</ele>
        <time>2015-01-04T07:46:45Z</time>
      </trkpt>
      <trkpt lat="47.18554" lon="-1.54639">
        <ele>30.2</ele>
        <time>2015-01-04T07:46:47Z</time>
      </trkpt>
      <trkpt lat="47.1856" lon="-1.54641">
        <ele>30.2</ele>
        <time>2015-01-04T07:46:48Z</time>
      </trkpt>
      <trkpt lat="47.18568" lon="-1.54643">
        <ele>30.2</ele>
        <time>2015-01-04T07:46:49Z</time>
      </trkpt>
      <trkpt lat="47.18573" lon="-1.54643">
        <ele>30.2</ele>
        <time>2015-01-04T07:46:50Z</time>
      </trkpt>
      <trkpt lat="47.18579" lon="-1.54644">
        <ele>30.2</ele>
        <time>2015-01-04T07:46:51Z</time>
      </trkpt>
      <trkpt lat="47.18585" lon="-1.54644">
        <ele>30.2</ele>
        <time>2015-01-04T07:46:52Z</time>
      </trkpt>
      <trkpt lat="47.1859" lon="-1.54647">
        <ele>30.2</ele>
        <time>2015-01-04T07:46:53Z</time>
      </trkpt>
      <trkpt lat="47.18597" lon="-1.54648">
        <ele>30.2</ele>
        <time>2015-01-04T07:46:54Z</time>
      </trkpt>
      <trkpt lat="47.18603" lon="-1.5465">
        <ele>30.2</ele>
        <time>2015-01-04T07:46:55Z</time>
      </trkpt>
      <trkpt lat="47.18608" lon="-1.54651">
        <ele>30.2</ele>
        <time>2015-01-04T07:46:56Z</time>
      </trkpt>
      <trkpt lat="47.18614" lon="-1.54652">
        <ele>30.2</ele>
        <time>2015-01-04T07:46:57Z</time>
      </trkpt>
      <trkpt lat="47.18628" lon="-1.54657">
        <ele>30.2</ele>
        <time>2015-01-04T07:46:59Z</time>
      </trkpt>
      <trkpt lat="47.18656" lon="-1.54664">
        <ele>30.2</ele>
        <time>2015-01-04T07:47:03Z</time>
      </trkpt>
      <trkpt lat="47.18671" lon="-1.54671">
        <ele>30.2</ele>
        <time>2015-01-04T07:47:05Z</time>
      </trkpt>
      <trkpt lat="47.18684" lon="-1.54675">
        <ele>29.4</ele>
        <time>2015-01-04T07:47:07Z</time>
      </trkpt>
      <trkpt lat="47.18706" lon="-1.54679">
        <ele>28.9</ele>
        <time>2015-01-04T07:47:10Z</time>
      </trkpt>
      <trkpt lat="47.18721" lon="-1.54682">
        <ele>28.7</ele>
        <time>2015-01-04T07:47:12Z</time>
      </trkpt>
      <trkpt lat="47.18736" lon="-1.54687">
        <ele>27.3</ele>
        <time>2015-01-04T07:47:14Z</time>
      </trkpt>
      <trkpt lat="47.1875" lon="-1.54691">
        <ele>26.6</ele>
        <time>2015-01-04T07:47:16Z</time>
      </trkpt>
      <trkpt lat="47.18764" lon="-1.54695">
        <ele>26.6</ele>
        <time>2015-01-04T07:47:18Z</time>
      </trkpt>
      <trkpt lat="47.18793" lon="-1.54705">
        <ele>23.8</ele>
        <time>2015-01-04T07:47:22Z</time>
      </trkpt>
      <trkpt lat="47.18822" lon="-1.54711">
        <ele>22.5</ele>
        <time>2015-01-04T07:47:26Z</time>
      </trkpt>
      <trkpt lat="47.18835" lon="-1.54717">
        <ele>21.7</ele>
        <time>2015-01-04T07:47:28Z</time>
      </trkpt>
      <trkpt lat="47.18851" lon="-1.54723">
        <ele>21.7</ele>
        <time>2015-01-04T07:47:30Z</time>
      </trkpt>
      <trkpt lat="47.18863" lon="-1.54725">
        <ele>21.4</ele>
        <time>2015-01-04T07:47:32Z</time>
      </trkpt>
      <trkpt lat="47.18891" lon="-1.54733">
        <ele>20.8</ele>
        <time>2015-01-04T07:47:36Z</time>
      </trkpt>
      <trkpt lat="47.18906" lon="-1.54735">
        <ele>20.5</ele>
        <time>2015-01-04T07:47:38Z</time>
      </trkpt>
      <trkpt lat="47.18913" lon="-1.54738">
        <ele>20</ele>
        <time>2015-01-04T07:47:39Z</time>
      </trkpt>
      <trkpt lat="47.1892" lon="-1.5474">
        <ele>20</ele>
        <time>2015-01-04T07:47:40Z</time>
      </trkpt>
      <trkpt lat="47.18927" lon="-1.5474">
        <ele>20</ele>
        <time>2015-01-04T07:47:41Z</time>
      </trkpt>
      <trkpt lat="47.18942" lon="-1.54743">
        <ele>20</ele>
        <time>2015-01-04T07:47:43Z</time>
      </trkpt>
      <trkpt lat="47.18956" lon="-1.54747">
        <ele>19.9</ele>
        <time>2015-01-04T07:47:45Z</time>
      </trkpt>
      <trkpt lat="47.18976" lon="-1.54751">
        <ele>19.6</ele>
        <time>2015-01-04T07:47:48Z</time>
      </trkpt>
      <trkpt lat="47.18989" lon="-1.54753">
        <ele>19.3</ele>
        <time>2015-01-04T07:47:50Z</time>
      </trkpt>
      <trkpt lat="47.19001" lon="-1.54755">
        <ele>19.2</ele>
        <time>2015-01-04T07:47:52Z</time>
      </trkpt>
      <trkpt lat="47.19018" lon="-1.54757">
        <ele>19</ele>
        <time>2015-01-04T07:47:55Z</time>
      </trkpt>
      <trkpt lat="47.19029" lon="-1.54745">
        <ele>19</ele>
        <time>2015-01-04T07:47:58Z</time>
      </trkpt>
      <trkpt lat="47.19029" lon="-1.5472">
        <ele>18.9</ele>
        <time>2015-01-04T07:48:01Z</time>
      </trkpt>
      <trkpt lat="47.19041" lon="-1.54715">
        <ele>18.6</ele>
        <time>2015-01-04T07:48:03Z</time>
      </trkpt>
      <trkpt lat="47.19054" lon="-1.54708">
        <ele>18.4</ele>
        <time>2015-01-04T07:48:06Z</time>
      </trkpt>
      <trkpt lat="47.19073" lon="-1.54695">
        <ele>18.3</ele>
        <time>2015-01-04T07:48:11Z</time>
      </trkpt>
      <trkpt lat="47.19078" lon="-1.54692">
        <ele>18.2</ele>
        <time>2015-01-04T07:48:12Z</time>
      </trkpt>
      <trkpt lat="47.19098" lon="-1.54679">
        <ele>18.2</ele>
        <time>2015-01-04T07:48:16Z</time>
      </trkpt>
      <trkpt lat="47.19114" lon="-1.54667">
        <ele>18.1</ele>
        <time>2015-01-04T07:48:19Z</time>
      </trkpt>
      <trkpt lat="47.19128" lon="-1.54658">
        <ele>18</ele>
        <time>2015-01-04T07:48:21Z</time>
      </trkpt>
      <trkpt lat="47.19145" lon="-1.54648">
        <ele>18</ele>
        <time>2015-01-04T07:48:24Z</time>
      </trkpt>
      <trkpt lat="47.19155" lon="-1.54641">
        <ele>17.8</ele>
        <time>2015-01-04T07:48:26Z</time>
      </trkpt>
      <trkpt lat="47.19166" lon="-1.54635">
        <ele>17.6</ele>
        <time>2015-01-04T07:48:30Z</time>
      </trkpt>
      <trkpt lat="47.19181" lon="-1.54623">
        <ele>17.5</ele>
        <time>2015-01-04T07:48:31Z</time>
      </trkpt>
      <trkpt lat="47.19192" lon="-1.54611">
        <ele>17</ele>
        <time>2015-01-04T07:48:34Z</time>
      </trkpt>
      <trkpt lat="47.19204" lon="-1.546">
        <ele>16</ele>
        <time>2015-01-04T07:48:37Z</time>
      </trkpt>
      <trkpt lat="47.19219" lon="-1.54591">
        <ele>15.8</ele>
        <time>2015-01-04T07:48:39Z</time>
      </trkpt>
      <trkpt lat="47.19247" lon="-1.54575">
        <ele>15.7</ele>
        <time>2015-01-04T07:48:44Z</time>
      </trkpt>
      <trkpt lat="47.19262" lon="-1.54566">
        <ele>15.6</ele>
        <time>2015-01-04T07:48:47Z</time>
      </trkpt>
      <trkpt lat="47.19286" lon="-1.54552">
        <ele>15.4</ele>
        <time>2015-01-04T07:48:51Z</time>
      </trkpt>
      <trkpt lat="47.19295" lon="-1.54546">
        <ele>15.2</ele>
        <time>2015-01-04T07:48:53Z</time>
      </trkpt>
      <trkpt lat="47.19316" lon="-1.54533">
        <ele>15</ele>
        <time>2015-01-04T07:48:57Z</time>
      </trkpt>
      <trkpt lat="47.19339" lon="-1.5452">
        <ele>14.9</ele>
        <time>2015-01-04T07:49:01Z</time>
      </trkpt>
      <trkpt lat="47.19351" lon="-1.54513">
        <ele>14.9</ele>
        <time>2015-01-04T07:49:04Z</time>
      </trkpt>
      <trkpt lat="47.19364" lon="-1.54505">
        <ele>14.9</ele>
        <time>2015-01-04T07:49:06Z</time>
      </trkpt>
      <trkpt lat="47.19373" lon="-1.545">
        <ele>14.9</ele>
        <time>2015-01-04T07:49:08Z</time>
      </trkpt>
      <trkpt lat="47.19385" lon="-1.54493">
        <ele>15</ele>
        <time>2015-01-04T07:49:10Z</time>
      </trkpt>
      <trkpt lat="47.19394" lon="-1.54488">
        <ele>15</ele>
        <time>2015-01-04T07:49:12Z</time>
      </trkpt>
      <trkpt lat="47.19405" lon="-1.54482">
        <ele>14.6</ele>
        <time>2015-01-04T07:49:14Z</time>
      </trkpt>
      <trkpt lat="47.19418" lon="-1.54474">
        <ele>14.4</ele>
        <time>2015-01-04T07:49:16Z</time>
      </trkpt>
      <trkpt lat="47.19437" lon="-1.54464">
        <ele>13.5</ele>
        <time>2015-01-04T07:49:20Z</time>
      </trkpt>
      <trkpt lat="47.19446" lon="-1.5446">
        <ele>13.1</ele>
        <time>2015-01-04T07:49:22Z</time>
      </trkpt>
      <trkpt lat="47.19456" lon="-1.54455">
        <ele>12.6</ele>
        <time>2015-01-04T07:49:26Z</time>
      </trkpt>
      <trkpt lat="47.19489" lon="-1.54457">
        <ele>12.6</ele>
        <time>2015-01-04T07:49:33Z</time>
      </trkpt>
      <trkpt lat="47.19503" lon="-1.54446">
        <ele>12.6</ele>
        <time>2015-01-04T07:49:36Z</time>
      </trkpt>
      <trkpt lat="47.19514" lon="-1.5444">
        <ele>12.5</ele>
        <time>2015-01-04T07:49:38Z</time>
      </trkpt>
      <trkpt lat="47.19525" lon="-1.54434">
        <ele>12.3</ele>
        <time>2015-01-04T07:49:41Z</time>
      </trkpt>
      <trkpt lat="47.19544" lon="-1.54418">
        <ele>11.7</ele>
        <time>2015-01-04T07:49:45Z</time>
      </trkpt>
      <trkpt lat="47.19555" lon="-1.54409">
        <ele>8.4</ele>
        <time>2015-01-04T07:49:48Z</time>
      </trkpt>
      <trkpt lat="47.19564" lon="-1.54402">
        <ele>7.1</ele>
        <time>2015-01-04T07:49:51Z</time>
      </trkpt>
      <trkpt lat="47.1958" lon="-1.54389">
        <ele>6.5</ele>
        <time>2015-01-04T07:49:56Z</time>
      </trkpt>
      <trkpt lat="47.19593" lon="-1.54377">
        <ele>6.4</ele>
        <time>2015-01-04T07:49:59Z</time>
      </trkpt>
      <trkpt lat="47.19606" lon="-1.54365">
        <ele>6.4</ele>
        <time>2015-01-04T07:50:02Z</time>
      </trkpt>
      <trkpt lat="47.19619" lon="-1.54351">
        <ele>6.4</ele>
        <time>2015-01-04T07:50:05Z</time>
      </trkpt>
      <trkpt lat="47.1963" lon="-1.54334">
        <ele>6.4</ele>
        <time>2015-01-04T07:50:08Z</time>
      </trkpt>
      <trkpt lat="47.19642" lon="-1.54318">
        <ele>6.4</ele>
        <time>2015-01-04T07:50:11Z</time>
      </trkpt>
      <trkpt lat="47.19658" lon="-1.54304">
        <ele>6.4</ele>
        <time>2015-01-04T07:50:14Z</time>
      </trkpt>
      <trkpt lat="47.1967" lon="-1.54293">
        <ele>6.4</ele>
        <time>2015-01-04T07:50:16Z</time>
      </trkpt>
      <trkpt lat="47.19675" lon="-1.5429">
        <ele>6.8</ele>
        <time>2015-01-04T07:50:17Z</time>
      </trkpt>
      <trkpt lat="47.19681" lon="-1.54286">
        <ele>6.8</ele>
        <time>2015-01-04T07:50:18Z</time>
      </trkpt>
      <trkpt lat="47.19687" lon="-1.54282">
        <ele>6.8</ele>
        <time>2015-01-04T07:50:19Z</time>
      </trkpt>
      <trkpt lat="47.19692" lon="-1.54278">
        <ele>6.8</ele>
        <time>2015-01-04T07:50:20Z</time>
      </trkpt>
      <trkpt lat="47.19698" lon="-1.54272">
        <ele>6.8</ele>
        <time>2015-01-04T07:50:21Z</time>
      </trkpt>
      <trkpt lat="47.19711" lon="-1.54261">
        <ele>7.2</ele>
        <time>2015-01-04T07:50:24Z</time>
      </trkpt>
      <trkpt lat="47.19726" lon="-1.5425">
        <ele>7.4</ele>
        <time>2015-01-04T07:50:28Z</time>
      </trkpt>
      <trkpt lat="47.19748" lon="-1.54228">
        <ele>7.5</ele>
        <time>2015-01-04T07:50:35Z</time>
      </trkpt>
      <trkpt lat="47.19758" lon="-1.54222">
        <ele>7.5</ele>
        <time>2015-01-04T07:50:38Z</time>
      </trkpt>
      <trkpt lat="47.19767" lon="-1.54212">
        <ele>7.5</ele>
        <time>2015-01-04T07:50:40Z</time>
      </trkpt>
      <trkpt lat="47.19779" lon="-1.54223">
        <ele>7.5</ele>
        <time>2015-01-04T07:50:45Z</time>
      </trkpt>
      <trkpt lat="47.19792" lon="-1.54233">
        <ele>7.4</ele>
        <time>2015-01-04T07:50:50Z</time>
      </trkpt>
      <trkpt lat="47.19807" lon="-1.54246">
        <ele>7.3</ele>
        <time>2015-01-04T07:50:53Z</time>
      </trkpt>
      <trkpt lat="47.19826" lon="-1.54259">
        <ele>7.3</ele>
        <time>2015-01-04T07:50:57Z</time>
      </trkpt>
      <trkpt lat="47.19837" lon="-1.54267">
        <ele>7.3</ele>
        <time>2015-01-04T07:50:59Z</time>
      </trkpt>
      <trkpt lat="47.19846" lon="-1.54274">
        <ele>7.2</ele>
        <time>2015-01-04T07:51:01Z</time>
      </trkpt>
      <trkpt lat="47.19857" lon="-1.54282">
        <ele>7.2</ele>
        <time>2015-01-04T07:51:03Z</time>
      </trkpt>
      <trkpt lat="47.19865" lon="-1.54288">
        <ele>7.2</ele>
        <time>2015-01-04T07:51:05Z</time>
      </trkpt>
      <trkpt lat="47.1987" lon="-1.54291">
        <ele>7.2</ele>
        <time>2015-01-04T07:51:06Z</time>
      </trkpt>
      <trkpt lat="47.1989" lon="-1.54305">
        <ele>7.2</ele>
        <time>2015-01-04T07:51:10Z</time>
      </trkpt>
      <trkpt lat="47.19898" lon="-1.54311">
        <ele>7.2</ele>
        <time>2015-01-04T07:51:12Z</time>
      </trkpt>
      <trkpt lat="47.19913" lon="-1.54322">
        <ele>7.2</ele>
        <time>2015-01-04T07:51:15Z</time>
      </trkpt>
      <trkpt lat="47.19918" lon="-1.54325">
        <ele>7.2</ele>
        <time>2015-01-04T07:51:16Z</time>
      </trkpt>
      <trkpt lat="47.19937" lon="-1.54338">
        <ele>7.2</ele>
        <time>2015-01-04T07:51:20Z</time>
      </trkpt>
      <trkpt lat="47.19949" lon="-1.54347">
        <ele>7.4</ele>
        <time>2015-01-04T07:51:23Z</time>
      </trkpt>
      <trkpt lat="47.19959" lon="-1.54353">
        <ele>7.5</ele>
        <time>2015-01-04T07:51:25Z</time>
      </trkpt>
      <trkpt lat="47.19968" lon="-1.54359">
        <ele>7.7</ele>
        <time>2015-01-04T07:51:27Z</time>
      </trkpt>
      <trkpt lat="47.19977" lon="-1.54365">
        <ele>8.1</ele>
        <time>2015-01-04T07:51:29Z</time>
      </trkpt>
      <trkpt lat="47.19992" lon="-1.54375">
        <ele>8.6</ele>
        <time>2015-01-04T07:51:32Z</time>
      </trkpt>
      <trkpt lat="47.20001" lon="-1.54383">
        <ele>8.8</ele>
        <time>2015-01-04T07:51:34Z</time>
      </trkpt>
      <trkpt lat="47.20011" lon="-1.5439">
        <ele>8.9</ele>
        <time>2015-01-04T07:51:36Z</time>
      </trkpt>
      <trkpt lat="47.20026" lon="-1.54404">
        <ele>9</ele>
        <time>2015-01-04T07:51:39Z</time>
      </trkpt>
      <trkpt lat="47.20034" lon="-1.5441">
        <ele>9.3</ele>
        <time>2015-01-04T07:51:42Z</time>
      </trkpt>
      <trkpt lat="47.20054" lon="-1.5442">
        <ele>9.8</ele>
        <time>2015-01-04T07:51:43Z</time>
      </trkpt>
      <trkpt lat="47.20077" lon="-1.5443">
        <ele>9.8</ele>
        <time>2015-01-04T07:51:47Z</time>
      </trkpt>
      <trkpt lat="47.2009" lon="-1.54434">
        <ele>10.5</ele>
        <time>2015-01-04T07:51:49Z</time>
      </trkpt>
      <trkpt lat="47.201" lon="-1.54435">
        <ele>10.7</ele>
        <time>2015-01-04T07:51:51Z</time>
      </trkpt>
      <trkpt lat="47.2011" lon="-1.54448">
        <ele>11</ele>
        <time>2015-01-04T07:51:54Z</time>
      </trkpt>
      <trkpt lat="47.20123" lon="-1.54458">
        <ele>11.3</ele>
        <time>2015-01-04T07:51:58Z</time>
      </trkpt>
      <trkpt lat="47.20141" lon="-1.54469">
        <ele>11.4</ele>
        <time>2015-01-04T07:52:02Z</time>
      </trkpt>
      <trkpt lat="47.20149" lon="-1.54474">
        <ele>11.4</ele>
        <time>2015-01-04T07:52:04Z</time>
      </trkpt>
      <trkpt lat="47.20165" lon="-1.54487">
        <ele>11.3</ele>
        <time>2015-01-04T07:52:10Z</time>
      </trkpt>
      <trkpt lat="47.2018" lon="-1.545">
        <ele>11.1</ele>
        <time>2015-01-04T07:52:14Z</time>
      </trkpt>
      <trkpt lat="47.20201" lon="-1.54513">
        <ele>10.8</ele>
        <time>2015-01-04T07:52:19Z</time>
      </trkpt>
      <trkpt lat="47.20205" lon="-1.54516">
        <ele>10.7</ele>
        <time>2015-01-04T07:52:20Z</time>
      </trkpt>
      <trkpt lat="47.20209" lon="-1.5452">
        <ele>10.7</ele>
        <time>2015-01-04T07:52:21Z</time>
      </trkpt>
      <trkpt lat="47.20215" lon="-1.54523">
        <ele>10.7</ele>
        <time>2015-01-04T07:52:23Z</time>
      </trkpt>
      <trkpt lat="47.2022" lon="-1.54525">
        <ele>10.7</ele>
        <time>2015-01-04T07:52:24Z</time>
      </trkpt>
      <trkpt lat="47.20236" lon="-1.54536">
        <ele>10.7</ele>
        <time>2015-01-04T07:52:27Z</time>
      </trkpt>
      <trkpt lat="47.20251" lon="-1.54547">
        <ele>10.7</ele>
        <time>2015-01-04T07:52:30Z</time>
      </trkpt>
      <trkpt lat="47.20262" lon="-1.54553">
        <ele>10.7</ele>
        <time>2015-01-04T07:52:32Z</time>
      </trkpt>
      <trkpt lat="47.20277" lon="-1.54565">
        <ele>10.7</ele>
        <time>2015-01-04T07:52:35Z</time>
      </trkpt>
      <trkpt lat="47.20291" lon="-1.54575">
        <ele>10.7</ele>
        <time>2015-01-04T07:52:38Z</time>
      </trkpt>
      <trkpt lat="47.20305" lon="-1.54585">
        <ele>10.5</ele>
        <time>2015-01-04T07:52:41Z</time>
      </trkpt>
      <trkpt lat="47.20325" lon="-1.54597">
        <ele>10.4</ele>
        <time>2015-01-04T07:52:45Z</time>
      </trkpt>
      <trkpt lat="47.20337" lon="-1.54603">
        <ele>10.4</ele>
        <time>2015-01-04T07:52:47Z</time>
      </trkpt>
      <trkpt lat="47.20349" lon="-1.5461">
        <ele>10.3</ele>
        <time>2015-01-04T07:52:49Z</time>
      </trkpt>
      <trkpt lat="47.20365" lon="-1.5462">
        <ele>10.3</ele>
        <time>2015-01-04T07:52:52Z</time>
      </trkpt>
      <trkpt lat="47.20377" lon="-1.54627">
        <ele>10.2</ele>
        <time>2015-01-04T07:52:54Z</time>
      </trkpt>
      <trkpt lat="47.20388" lon="-1.54632">
        <ele>10.2</ele>
        <time>2015-01-04T07:52:56Z</time>
      </trkpt>
      <trkpt lat="47.20403" lon="-1.54641">
        <ele>10.1</ele>
        <time>2015-01-04T07:52:59Z</time>
      </trkpt>
      <trkpt lat="47.20413" lon="-1.54648">
        <ele>10.1</ele>
        <time>2015-01-04T07:53:01Z</time>
      </trkpt>
      <trkpt lat="47.20425" lon="-1.54656">
        <ele>10</ele>
        <time>2015-01-04T07:53:03Z</time>
      </trkpt>
      <trkpt lat="47.20434" lon="-1.54663">
        <ele>10</ele>
        <time>2015-01-04T07:53:05Z</time>
      </trkpt>
      <trkpt lat="47.20445" lon="-1.54672">
        <ele>9.9</ele>
        <time>2015-01-04T07:53:07Z</time>
      </trkpt>
      <trkpt lat="47.20455" lon="-1.54678">
        <ele>9.6</ele>
        <time>2015-01-04T07:53:09Z</time>
      </trkpt>
      <trkpt lat="47.20468" lon="-1.54686">
        <ele>9.4</ele>
        <time>2015-01-04T07:53:12Z</time>
      </trkpt>
      <trkpt lat="47.20477" lon="-1.54692">
        <ele>9.3</ele>
        <time>2015-01-04T07:53:14Z</time>
      </trkpt>
      <trkpt lat="47.20495" lon="-1.54701">
        <ele>9.2</ele>
        <time>2015-01-04T07:53:18Z</time>
      </trkpt>
      <trkpt lat="47.20508" lon="-1.54707">
        <ele>9</ele>
        <time>2015-01-04T07:53:21Z</time>
      </trkpt>
      <trkpt lat="47.20518" lon="-1.54714">
        <ele>8.8</ele>
        <time>2015-01-04T07:53:23Z</time>
      </trkpt>
      <trkpt lat="47.20526" lon="-1.54722">
        <ele>8.7</ele>
        <time>2015-01-04T07:53:25Z</time>
      </trkpt>
      <trkpt lat="47.20539" lon="-1.54732">
        <ele>8.4</ele>
        <time>2015-01-04T07:53:28Z</time>
      </trkpt>
      <trkpt lat="47.2055" lon="-1.54739">
        <ele>8.2</ele>
        <time>2015-01-04T07:53:30Z</time>
      </trkpt>
      <trkpt lat="47.20558" lon="-1.54746">
        <ele>8.1</ele>
        <time>2015-01-04T07:53:32Z</time>
      </trkpt>
      <trkpt lat="47.20573" lon="-1.54757">
        <ele>8</ele>
        <time>2015-01-04T07:53:35Z</time>
      </trkpt>
      <trkpt lat="47.20587" lon="-1.54768">
        <ele>8</ele>
        <time>2015-01-04T07:53:38Z</time>
      </trkpt>
      <trkpt lat="47.206" lon="-1.54774">
        <ele>8</ele>
        <time>2015-01-04T07:53:41Z</time>
      </trkpt>
      <trkpt lat="47.20613" lon="-1.54782">
        <ele>8</ele>
        <time>2015-01-04T07:53:44Z</time>
      </trkpt>
      <trkpt lat="47.20625" lon="-1.5479">
        <ele>8</ele>
        <time>2015-01-04T07:53:46Z</time>
      </trkpt>
      <trkpt lat="47.20637" lon="-1.54802">
        <ele>8</ele>
        <time>2015-01-04T07:53:49Z</time>
      </trkpt>
      <trkpt lat="47.2065" lon="-1.54815">
        <ele>8</ele>
        <time>2015-01-04T07:53:52Z</time>
      </trkpt>
      <trkpt lat="47.20665" lon="-1.54826">
        <ele>8</ele>
        <time>2015-01-04T07:53:55Z</time>
      </trkpt>
      <trkpt lat="47.20676" lon="-1.5483">
        <ele>8.2</ele>
        <time>2015-01-04T07:53:57Z</time>
      </trkpt>
      <trkpt lat="47.20687" lon="-1.54834">
        <ele>8.3</ele>
        <time>2015-01-04T07:53:59Z</time>
      </trkpt>
      <trkpt lat="47.20697" lon="-1.54845">
        <ele>8.4</ele>
        <time>2015-01-04T07:54:01Z</time>
      </trkpt>
      <trkpt lat="47.20712" lon="-1.54858">
        <ele>8.4</ele>
        <time>2015-01-04T07:54:04Z</time>
      </trkpt>
      <trkpt lat="47.20723" lon="-1.54864">
        <ele>8.3</ele>
        <time>2015-01-04T07:54:06Z</time>
      </trkpt>
      <trkpt lat="47.20733" lon="-1.54871">
        <ele>8.3</ele>
        <time>2015-01-04T07:54:08Z</time>
      </trkpt>
      <trkpt lat="47.20754" lon="-1.54883">
        <ele>8.3</ele>
        <time>2015-01-04T07:54:12Z</time>
      </trkpt>
      <trkpt lat="47.20767" lon="-1.5489">
        <ele>8.3</ele>
        <time>2015-01-04T07:54:15Z</time>
      </trkpt>
      <trkpt lat="47.20776" lon="-1.54896">
        <ele>8.3</ele>
        <time>2015-01-04T07:54:17Z</time>
      </trkpt>
      <trkpt lat="47.20789" lon="-1.54906">
        <ele>8.3</ele>
        <time>2015-01-04T07:54:20Z</time>
      </trkpt>
      <trkpt lat="47.20798" lon="-1.54913">
        <ele>8.3</ele>
        <time>2015-01-04T07:54:22Z</time>
      </trkpt>
      <trkpt lat="47.20812" lon="-1.54923">
        <ele>8.3</ele>
        <time>2015-01-04T07:54:25Z</time>
      </trkpt>
      <trkpt lat="47.20827" lon="-1.54933">
        <ele>8.3</ele>
        <time>2015-01-04T07:54:28Z</time>
      </trkpt>
      <trkpt lat="47.20837" lon="-1.5494">
        <ele>8.3</ele>
        <time>2015-01-04T07:54:30Z</time>
      </trkpt>
      <trkpt lat="47.20847" lon="-1.54947">
        <ele>8.3</ele>
        <time>2015-01-04T07:54:32Z</time>
      </trkpt>
      <trkpt lat="47.20857" lon="-1.54952">
        <ele>8.1</ele>
        <time>2015-01-04T07:54:34Z</time>
      </trkpt>
      <trkpt lat="47.20871" lon="-1.54965">
        <ele>7.7</ele>
        <time>2015-01-04T07:54:37Z</time>
      </trkpt>
      <trkpt lat="47.20885" lon="-1.54981">
        <ele>7.6</ele>
        <time>2015-01-04T07:54:40Z</time>
      </trkpt>
      <trkpt lat="47.209" lon="-1.54996">
        <ele>7.6</ele>
        <time>2015-01-04T07:54:43Z</time>
      </trkpt>
      <trkpt lat="47.20915" lon="-1.55013">
        <ele>7.5</ele>
        <time>2015-01-04T07:54:46Z</time>
      </trkpt>
      <trkpt lat="47.20923" lon="-1.55022">
        <ele>7.5</ele>
        <time>2015-01-04T07:54:48Z</time>
      </trkpt>
      <trkpt lat="47.20937" lon="-1.55038">
        <ele>7.5</ele>
        <time>2015-01-04T07:54:51Z</time>
      </trkpt>
      <trkpt lat="47.20951" lon="-1.55054">
        <ele>7.5</ele>
        <time>2015-01-04T07:54:54Z</time>
      </trkpt>
      <trkpt lat="47.20962" lon="-1.5507">
        <ele>7.5</ele>
        <time>2015-01-04T07:54:57Z</time>
      </trkpt>
      <trkpt lat="47.20976" lon="-1.55087">
        <ele>7.5</ele>
        <time>2015-01-04T07:55:00Z</time>
      </trkpt>
      <trkpt lat="47.20993" lon="-1.55101">
        <ele>7.5</ele>
        <time>2015-01-04T07:55:03Z</time>
      </trkpt>
      <trkpt lat="47.21009" lon="-1.55116">
        <ele>7.5</ele>
        <time>2015-01-04T07:55:06Z</time>
      </trkpt>
      <trkpt lat="47.21028" lon="-1.55121">
        <ele>7.6</ele>
        <time>2015-01-04T07:55:09Z</time>
      </trkpt>
      <trkpt lat="47.21048" lon="-1.55137">
        <ele>7.7</ele>
        <time>2015-01-04T07:55:13Z</time>
      </trkpt>
      <trkpt lat="47.21058" lon="-1.55145">
        <ele>7.8</ele>
        <time>2015-01-04T07:55:15Z</time>
      </trkpt>
      <trkpt lat="47.21068" lon="-1.55153">
        <ele>7.8</ele>
        <time>2015-01-04T07:55:17Z</time>
      </trkpt>
      <trkpt lat="47.21085" lon="-1.55167">
        <ele>7.9</ele>
        <time>2015-01-04T07:55:20Z</time>
      </trkpt>
      <trkpt lat="47.21105" lon="-1.55182">
        <ele>8.2</ele>
        <time>2015-01-04T07:55:24Z</time>
      </trkpt>
      <trkpt lat="47.21121" lon="-1.55195">
        <ele>8.2</ele>
        <time>2015-01-04T07:55:27Z</time>
      </trkpt>
      <trkpt lat="47.21135" lon="-1.55206">
        <ele>8.4</ele>
        <time>2015-01-04T07:55:30Z</time>
      </trkpt>
      <trkpt lat="47.2115" lon="-1.55219">
        <ele>8.5</ele>
        <time>2015-01-04T07:55:33Z</time>
      </trkpt>
      <trkpt lat="47.21173" lon="-1.55237">
        <ele>8.5</ele>
        <time>2015-01-04T07:55:37Z</time>
      </trkpt>
      <trkpt lat="47.21188" lon="-1.55252">
        <ele>8.4</ele>
        <time>2015-01-04T07:55:40Z</time>
      </trkpt>
      <trkpt lat="47.21203" lon="-1.55264">
        <ele>8.3</ele>
        <time>2015-01-04T07:55:43Z</time>
      </trkpt>
      <trkpt lat="47.21214" lon="-1.55275">
        <ele>8.3</ele>
        <time>2015-01-04T07:55:45Z</time>
      </trkpt>
      <trkpt lat="47.21224" lon="-1.55295">
        <ele>8.3</ele>
        <time>2015-01-04T07:55:48Z</time>
      </trkpt>
      <trkpt lat="47.21235" lon="-1.55331">
        <ele>8.3</ele>
        <time>2015-01-04T07:55:49Z</time>
      </trkpt>
      <trkpt lat="47.21246" lon="-1.55346">
        <ele>8.3</ele>
        <time>2015-01-04T07:55:53Z</time>
      </trkpt>
      <trkpt lat="47.21259" lon="-1.55363">
        <ele>8.4</ele>
        <time>2015-01-04T07:55:58Z</time>
      </trkpt>
      <trkpt lat="47.21268" lon="-1.55417">
        <ele>8.6</ele>
        <time>2015-01-04T07:56:06Z</time>
      </trkpt>
      <trkpt lat="47.21284" lon="-1.55429">
        <ele>8.7</ele>
        <time>2015-01-04T07:56:09Z</time>
      </trkpt>
      <trkpt lat="47.21299" lon="-1.55444">
        <ele>8.8</ele>
        <time>2015-01-04T07:56:12Z</time>
      </trkpt>
      <trkpt lat="47.21315" lon="-1.55461">
        <ele>8.8</ele>
        <time>2015-01-04T07:56:15Z</time>
      </trkpt>
      <trkpt lat="47.2133" lon="-1.55477">
        <ele>8.8</ele>
        <time>2015-01-04T07:56:18Z</time>
      </trkpt>
      <trkpt lat="47.21344" lon="-1.55493">
        <ele>8.8</ele>
        <time>2015-01-04T07:56:21Z</time>
      </trkpt>
      <trkpt lat="47.21358" lon="-1.555">
        <ele>8.8</ele>
        <time>2015-01-04T07:56:25Z</time>
      </trkpt>
      <trkpt lat="47.21364" lon="-1.55477">
        <ele>8.8</ele>
        <time>2015-01-04T07:56:26Z</time>
      </trkpt>
      <trkpt lat="47.21371" lon="-1.55495">
        <ele>9.1</ele>
        <time>2015-01-04T07:56:29Z</time>
      </trkpt>
      <trkpt lat="47.21368" lon="-1.55476">
        <ele>9.2</ele>
        <time>2015-01-04T07:56:32Z</time>
      </trkpt>
      <trkpt lat="47.21392" lon="-1.55511">
        <ele>9.2</ele>
        <time>2015-01-04T07:56:36Z</time>
      </trkpt>
      <trkpt lat="47.21411" lon="-1.5553">
        <ele>9.2</ele>
        <time>2015-01-04T07:56:41Z</time>
      </trkpt>
      <trkpt lat="47.21424" lon="-1.5554">
        <ele>9.2</ele>
        <time>2015-01-04T07:56:44Z</time>
      </trkpt>
      <trkpt lat="47.21438" lon="-1.55553">
        <ele>9.2</ele>
        <time>2015-01-04T07:56:47Z</time>
      </trkpt>
      <trkpt lat="47.21451" lon="-1.55567">
        <ele>9.2</ele>
        <time>2015-01-04T07:56:50Z</time>
      </trkpt>
      <trkpt lat="47.21466" lon="-1.55581">
        <ele>9.2</ele>
        <time>2015-01-04T07:56:53Z</time>
      </trkpt>
      <trkpt lat="47.2148" lon="-1.55595">
        <ele>9.2</ele>
        <time>2015-01-04T07:56:56Z</time>
      </trkpt>
      <trkpt lat="47.21495" lon="-1.55608">
        <ele>8.8</ele>
        <time>2015-01-04T07:56:59Z</time>
      </trkpt>
      <trkpt lat="47.21509" lon="-1.55618">
        <ele>8.4</ele>
        <time>2015-01-04T07:57:02Z</time>
      </trkpt>
      <trkpt lat="47.2152" lon="-1.55624">
        <ele>8</ele>
        <time>2015-01-04T07:57:04Z</time>
      </trkpt>
      <trkpt lat="47.21535" lon="-1.55629">
        <ele>8</ele>
        <time>2015-01-04T07:57:07Z</time>
      </trkpt>
      <trkpt lat="47.21551" lon="-1.55637">
        <ele>7.9</ele>
        <time>2015-01-04T07:57:10Z</time>
      </trkpt>
      <trkpt lat="47.21571" lon="-1.55642">
        <ele>7.9</ele>
        <time>2015-01-04T07:57:13Z</time>
      </trkpt>
      <trkpt lat="47.21582" lon="-1.55646">
        <ele>7.9</ele>
        <time>2015-01-04T07:57:15Z</time>
      </trkpt>
      <trkpt lat="47.21597" lon="-1.55652">
        <ele>7.9</ele>
        <time>2015-01-04T07:57:18Z</time>
      </trkpt>
      <trkpt lat="47.21603" lon="-1.55656">
        <ele>7.9</ele>
        <time>2015-01-04T07:57:19Z</time>
      </trkpt>
      <trkpt lat="47.2161" lon="-1.55659">
        <ele>7.9</ele>
        <time>2015-01-04T07:57:20Z</time>
      </trkpt>
      <trkpt lat="47.21616" lon="-1.55662">
        <ele>7.9</ele>
        <time>2015-01-04T07:57:21Z</time>
      </trkpt>
      <trkpt lat="47.21622" lon="-1.55663">
        <ele>7.9</ele>
        <time>2015-01-04T07:57:22Z</time>
      </trkpt>
      <trkpt lat="47.21629" lon="-1.55665">
        <ele>7.9</ele>
        <time>2015-01-04T07:57:23Z</time>
      </trkpt>
      <trkpt lat="47.21639" lon="-1.5567">
        <ele>7.9</ele>
        <time>2015-01-04T07:57:25Z</time>
      </trkpt>
      <trkpt lat="47.2166" lon="-1.55677">
        <ele>7.9</ele>
        <time>2015-01-04T07:57:29Z</time>
      </trkpt>
      <trkpt lat="47.21678" lon="-1.55685">
        <ele>7.9</ele>
        <time>2015-01-04T07:57:32Z</time>
      </trkpt>
      <trkpt lat="47.21689" lon="-1.55692">
        <ele>7.9</ele>
        <time>2015-01-04T07:57:34Z</time>
      </trkpt>
      <trkpt lat="47.21703" lon="-1.55696">
        <ele>7.9</ele>
        <time>2015-01-04T07:57:36Z</time>
      </trkpt>
      <trkpt lat="47.21725" lon="-1.55703">
        <ele>7.9</ele>
        <time>2015-01-04T07:57:40Z</time>
      </trkpt>
      <trkpt lat="47.21737" lon="-1.55707">
        <ele>7.8</ele>
        <time>2015-01-04T07:57:42Z</time>
      </trkpt>
      <trkpt lat="47.21756" lon="-1.55703">
        <ele>7.7</ele>
        <time>2015-01-04T07:57:45Z</time>
      </trkpt>
      <trkpt lat="47.21773" lon="-1.5572">
        <ele>7.6</ele>
        <time>2015-01-04T07:57:48Z</time>
      </trkpt>
      <trkpt lat="47.21793" lon="-1.55715">
        <ele>7.6</ele>
        <time>2015-01-04T07:57:51Z</time>
      </trkpt>
      <trkpt lat="47.21798" lon="-1.55716">
        <ele>7.6</ele>
        <time>2015-01-04T07:57:52Z</time>
      </trkpt>
      <trkpt lat="47.21824" lon="-1.55718">
        <ele>7.6</ele>
        <time>2015-01-04T07:57:56Z</time>
      </trkpt>
      <trkpt lat="47.2183" lon="-1.55717">
        <ele>7.6</ele>
        <time>2015-01-04T07:57:57Z</time>
      </trkpt>
      <trkpt lat="47.21836" lon="-1.55716">
        <ele>7.6</ele>
        <time>2015-01-04T07:57:58Z</time>
      </trkpt>
      <trkpt lat="47.21843" lon="-1.55715">
        <ele>7.6</ele>
        <time>2015-01-04T07:57:59Z</time>
      </trkpt>
      <trkpt lat="47.2185" lon="-1.55712">
        <ele>7.6</ele>
        <time>2015-01-04T07:58:00Z</time>
      </trkpt>
      <trkpt lat="47.21858" lon="-1.55709">
        <ele>7.6</ele>
        <time>2015-01-04T07:58:01Z</time>
      </trkpt>
      <trkpt lat="47.21866" lon="-1.55704">
        <ele>7.6</ele>
        <time>2015-01-04T07:58:03Z</time>
      </trkpt>
      <trkpt lat="47.21871" lon="-1.55701">
        <ele>7.6</ele>
        <time>2015-01-04T07:58:04Z</time>
      </trkpt>
      <trkpt lat="47.21876" lon="-1.55696">
        <ele>7.6</ele>
        <time>2015-01-04T07:58:05Z</time>
      </trkpt>
      <trkpt lat="47.21881" lon="-1.55692">
        <ele>7.6</ele>
        <time>2015-01-04T07:58:06Z</time>
      </trkpt>
      <trkpt lat="47.21895" lon="-1.55678">
        <ele>7.5</ele>
        <time>2015-01-04T07:58:09Z</time>
      </trkpt>
      <trkpt lat="47.21904" lon="-1.55661">
        <ele>7.2</ele>
        <time>2015-01-04T07:58:12Z</time>
      </trkpt>
      <trkpt lat="47.21917" lon="-1.55639">
        <ele>6.8</ele>
        <time>2015-01-04T07:58:16Z</time>
      </trkpt>
      <trkpt lat="47.21932" lon="-1.55634">
        <ele>6.6</ele>
        <time>2015-01-04T07:58:18Z</time>
      </trkpt>
      <trkpt lat="47.21941" lon="-1.55617">
        <ele>6.2</ele>
        <time>2015-01-04T07:58:20Z</time>
      </trkpt>
      <trkpt lat="47.21953" lon="-1.55599">
        <ele>5.8</ele>
        <time>2015-01-04T07:58:23Z</time>
      </trkpt>
      <trkpt lat="47.21963" lon="-1.55582">
        <ele>5.5</ele>
        <time>2015-01-04T07:58:26Z</time>
      </trkpt>
      <trkpt lat="47.21974" lon="-1.55564">
        <ele>5.5</ele>
        <time>2015-01-04T07:58:29Z</time>
      </trkpt>
      <trkpt lat="47.21984" lon="-1.55547">
        <ele>5.5</ele>
        <time>2015-01-04T07:58:32Z</time>
      </trkpt>
      <trkpt lat="47.21993" lon="-1.55527">
        <ele>5.5</ele>
        <time>2015-01-04T07:58:36Z</time>
      </trkpt>
      <trkpt lat="47.22" lon="-1.5551">
        <ele>5.5</ele>
        <time>2015-01-04T07:58:39Z</time>
      </trkpt>
      <trkpt lat="47.22004" lon="-1.55494">
        <ele>5.5</ele>
        <time>2015-01-04T07:58:43Z</time>
      </trkpt>
      <trkpt lat="47.22008" lon="-1.55482">
        <ele>5.5</ele>
        <time>2015-01-04T07:58:50Z</time>
      </trkpt>
      <trkpt lat="47.22021" lon="-1.55472">
        <ele>5.6</ele>
        <time>2015-01-04T07:58:55Z</time>
      </trkpt>
      <trkpt lat="47.2203" lon="-1.55475">
        <ele>5.9</ele>
        <time>2015-01-04T07:58:59Z</time>
      </trkpt>
      <trkpt lat="47.22042" lon="-1.5548">
        <ele>6.5</ele>
        <time>2015-01-04T07:59:03Z</time>
      </trkpt>
      <trkpt lat="47.22054" lon="-1.55485">
        <ele>6.9</ele>
        <time>2015-01-04T07:59:09Z</time>
      </trkpt>
      <trkpt lat="47.22055" lon="-1.55485">
        <ele>7.7</ele>
        <time>2015-01-04T07:59:13Z</time>
      </trkpt>
      <trkpt lat="47.22055" lon="-1.55485">
        <ele>7.5</ele>
        <time>2015-01-04T07:59:13Z</time>
      </trkpt>
      <trkpt lat="47.22055" lon="-1.55485">
        <ele>7.5</ele>
        <time>2015-01-04T07:59:26Z</time>
      </trkpt>
      <trkpt lat="47.22068" lon="-1.5547">
        <ele>7</ele>
        <time>2015-01-04T07:59:27Z</time>
      </trkpt>
      <trkpt lat="47.22083" lon="-1.55455">
        <ele>7</ele>
        <time>2015-01-04T07:59:30Z</time>
      </trkpt>
      <trkpt lat="47.22093" lon="-1.55442">
        <ele>7</ele>
        <time>2015-01-04T07:59:32Z</time>
      </trkpt>
      <trkpt lat="47.22107" lon="-1.5543">
        <ele>7</ele>
        <time>2015-01-04T07:59:34Z</time>
      </trkpt>
      <trkpt lat="47.22119" lon="-1.5541">
        <ele>7</ele>
        <time>2015-01-04T07:59:36Z</time>
      </trkpt>
      <trkpt lat="47.22134" lon="-1.55393">
        <ele>7</ele>
        <time>2015-01-04T07:59:38Z</time>
      </trkpt>
      <trkpt lat="47.22147" lon="-1.55377">
        <ele>6.9</ele>
        <time>2015-01-04T07:59:40Z</time>
      </trkpt>
      <trkpt lat="47.22162" lon="-1.55364">
        <ele>6.9</ele>
        <time>2015-01-04T07:59:42Z</time>
      </trkpt>
      <trkpt lat="47.22178" lon="-1.5535">
        <ele>6.9</ele>
        <time>2015-01-04T07:59:44Z</time>
      </trkpt>
      <trkpt lat="47.2219" lon="-1.55339">
        <ele>6.8</ele>
        <time>2015-01-04T07:59:46Z</time>
      </trkpt>
      <trkpt lat="47.22213" lon="-1.5533">
        <ele>6.8</ele>
        <time>2015-01-04T07:59:49Z</time>
      </trkpt>
      <trkpt lat="47.22227" lon="-1.55334">
        <ele>6.7</ele>
        <time>2015-01-04T07:59:52Z</time>
      </trkpt>
      <trkpt lat="47.22252" lon="-1.55333">
        <ele>6.6</ele>
        <time>2015-01-04T07:59:55Z</time>
      </trkpt>
      <trkpt lat="47.22265" lon="-1.55336">
        <ele>6.4</ele>
        <time>2015-01-04T07:59:58Z</time>
      </trkpt>
      <trkpt lat="47.22281" lon="-1.55336">
        <ele>6.3</ele>
        <time>2015-01-04T08:00:02Z</time>
      </trkpt>
      <trkpt lat="47.22294" lon="-1.55337">
        <ele>6.2</ele>
        <time>2015-01-04T08:00:05Z</time>
      </trkpt>
      <trkpt lat="47.22314" lon="-1.55339">
        <ele>6.2</ele>
        <time>2015-01-04T08:00:08Z</time>
      </trkpt>
      <trkpt lat="47.22326" lon="-1.55341">
        <ele>6.2</ele>
        <time>2015-01-04T08:00:10Z</time>
      </trkpt>
      <trkpt lat="47.2235" lon="-1.55343">
        <ele>6.2</ele>
        <time>2015-01-04T08:00:14Z</time>
      </trkpt>
      <trkpt lat="47.22367" lon="-1.55345">
        <ele>6.2</ele>
        <time>2015-01-04T08:00:17Z</time>
      </trkpt>
      <trkpt lat="47.22382" lon="-1.55351">
        <ele>6.2</ele>
        <time>2015-01-04T08:00:20Z</time>
      </trkpt>
      <trkpt lat="47.22392" lon="-1.55355">
        <ele>6.3</ele>
        <time>2015-01-04T08:00:22Z</time>
      </trkpt>
      <trkpt lat="47.22416" lon="-1.55363">
        <ele>6.2</ele>
        <time>2015-01-04T08:00:26Z</time>
      </trkpt>
      <trkpt lat="47.22425" lon="-1.55371">
        <ele>6.2</ele>
        <time>2015-01-04T08:00:28Z</time>
      </trkpt>
      <trkpt lat="47.22441" lon="-1.55385">
        <ele>6.2</ele>
        <time>2015-01-04T08:00:31Z</time>
      </trkpt>
      <trkpt lat="47.22453" lon="-1.55397">
        <ele>6.2</ele>
        <time>2015-01-04T08:00:34Z</time>
      </trkpt>
      <trkpt lat="47.22465" lon="-1.55415">
        <ele>6.2</ele>
        <time>2015-01-04T08:00:37Z</time>
      </trkpt>
      <trkpt lat="47.22473" lon="-1.55435">
        <ele>6.2</ele>
        <time>2015-01-04T08:00:40Z</time>
      </trkpt>
      <trkpt lat="47.22483" lon="-1.55454">
        <ele>6.2</ele>
        <time>2015-01-04T08:00:43Z</time>
      </trkpt>
      <trkpt lat="47.22492" lon="-1.55477">
        <ele>6.3</ele>
        <time>2015-01-04T08:00:46Z</time>
      </trkpt>
      <trkpt lat="47.22503" lon="-1.55497">
        <ele>6.2</ele>
        <time>2015-01-04T08:00:49Z</time>
      </trkpt>
      <trkpt lat="47.22515" lon="-1.55513">
        <ele>6.2</ele>
        <time>2015-01-04T08:00:52Z</time>
      </trkpt>
      <trkpt lat="47.22527" lon="-1.55532">
        <ele>6.2</ele>
        <time>2015-01-04T08:00:55Z</time>
      </trkpt>
      <trkpt lat="47.2254" lon="-1.55548">
        <ele>6.3</ele>
        <time>2015-01-04T08:00:58Z</time>
      </trkpt>
      <trkpt lat="47.22555" lon="-1.55559">
        <ele>6.3</ele>
        <time>2015-01-04T08:01:01Z</time>
      </trkpt>
      <trkpt lat="47.22567" lon="-1.55567">
        <ele>6.3</ele>
        <time>2015-01-04T08:01:04Z</time>
      </trkpt>
      <trkpt lat="47.22573" lon="-1.55571">
        <ele>6.4</ele>
        <time>2015-01-04T08:01:05Z</time>
      </trkpt>
      <trkpt lat="47.22578" lon="-1.55571">
        <ele>6.4</ele>
        <time>2015-01-04T08:01:06Z</time>
      </trkpt>
      <trkpt lat="47.22583" lon="-1.55572">
        <ele>6.4</ele>
        <time>2015-01-04T08:01:07Z</time>
      </trkpt>
      <trkpt lat="47.22593" lon="-1.55574">
        <ele>6.4</ele>
        <time>2015-01-04T08:01:09Z</time>
      </trkpt>
      <trkpt lat="47.22606" lon="-1.55574">
        <ele>6.4</ele>
        <time>2015-01-04T08:01:11Z</time>
      </trkpt>
      <trkpt lat="47.22618" lon="-1.55573">
        <ele>6.4</ele>
        <time>2015-01-04T08:01:13Z</time>
      </trkpt>
      <trkpt lat="47.2263" lon="-1.55573">
        <ele>6.4</ele>
        <time>2015-01-04T08:01:15Z</time>
      </trkpt>
      <trkpt lat="47.22644" lon="-1.55572">
        <ele>6.4</ele>
        <time>2015-01-04T08:01:17Z</time>
      </trkpt>
      <trkpt lat="47.22662" lon="-1.55566">
        <ele>6.4</ele>
        <time>2015-01-04T08:01:20Z</time>
      </trkpt>
      <trkpt lat="47.22671" lon="-1.55563">
        <ele>6.4</ele>
        <time>2015-01-04T08:01:22Z</time>
      </trkpt>
      <trkpt lat="47.22681" lon="-1.55555">
        <ele>6.4</ele>
        <time>2015-01-04T08:01:24Z</time>
      </trkpt>
      <trkpt lat="47.22698" lon="-1.55542">
        <ele>6.4</ele>
        <time>2015-01-04T08:01:27Z</time>
      </trkpt>
      <trkpt lat="47.22712" lon="-1.55524">
        <ele>6.4</ele>
        <time>2015-01-04T08:01:30Z</time>
      </trkpt>
      <trkpt lat="47.22723" lon="-1.55502">
        <ele>6.4</ele>
        <time>2015-01-04T08:01:33Z</time>
      </trkpt>
      <trkpt lat="47.22732" lon="-1.55483">
        <ele>6.4</ele>
        <time>2015-01-04T08:01:36Z</time>
      </trkpt>
      <trkpt lat="47.22745" lon="-1.55461">
        <ele>6.4</ele>
        <time>2015-01-04T08:01:39Z</time>
      </trkpt>
      <trkpt lat="47.22756" lon="-1.55441">
        <ele>6.4</ele>
        <time>2015-01-04T08:01:42Z</time>
      </trkpt>
      <trkpt lat="47.22771" lon="-1.55422">
        <ele>6.4</ele>
        <time>2015-01-04T08:01:45Z</time>
      </trkpt>
      <trkpt lat="47.2278" lon="-1.55407">
        <ele>6.3</ele>
        <time>2015-01-04T08:01:47Z</time>
      </trkpt>
      <trkpt lat="47.22793" lon="-1.55384">
        <ele>6.3</ele>
        <time>2015-01-04T08:01:50Z</time>
      </trkpt>
      <trkpt lat="47.22805" lon="-1.55369">
        <ele>6.3</ele>
        <time>2015-01-04T08:01:53Z</time>
      </trkpt>
      <trkpt lat="47.22814" lon="-1.55361">
        <ele>6.2</ele>
        <time>2015-01-04T08:01:55Z</time>
      </trkpt>
      <trkpt lat="47.22823" lon="-1.55342">
        <ele>6.1</ele>
        <time>2015-01-04T08:01:58Z</time>
      </trkpt>
      <trkpt lat="47.22835" lon="-1.55324">
        <ele>6</ele>
        <time>2015-01-04T08:02:01Z</time>
      </trkpt>
      <trkpt lat="47.22846" lon="-1.55307">
        <ele>5.9</ele>
        <time>2015-01-04T08:02:04Z</time>
      </trkpt>
      <trkpt lat="47.22857" lon="-1.55294">
        <ele>5.9</ele>
        <time>2015-01-04T08:02:08Z</time>
      </trkpt>
      <trkpt lat="47.22868" lon="-1.55281">
        <ele>5.8</ele>
        <time>2015-01-04T08:02:11Z</time>
      </trkpt>
      <trkpt lat="47.22884" lon="-1.55284">
        <ele>5.8</ele>
        <time>2015-01-04T08:02:13Z</time>
      </trkpt>
      <trkpt lat="47.22896" lon="-1.55269">
        <ele>5.7</ele>
        <time>2015-01-04T08:02:16Z</time>
      </trkpt>
      <trkpt lat="47.22906" lon="-1.55255">
        <ele>5.7</ele>
        <time>2015-01-04T08:02:19Z</time>
      </trkpt>
      <trkpt lat="47.22919" lon="-1.55238">
        <ele>5.6</ele>
        <time>2015-01-04T08:02:22Z</time>
      </trkpt>
      <trkpt lat="47.22931" lon="-1.55223">
        <ele>5.6</ele>
        <time>2015-01-04T08:02:25Z</time>
      </trkpt>
      <trkpt lat="47.22943" lon="-1.55208">
        <ele>5.5</ele>
        <time>2015-01-04T08:02:28Z</time>
      </trkpt>
      <trkpt lat="47.22955" lon="-1.55192">
        <ele>5.4</ele>
        <time>2015-01-04T08:02:31Z</time>
      </trkpt>
      <trkpt lat="47.22969" lon="-1.55176">
        <ele>5.4</ele>
        <time>2015-01-04T08:02:34Z</time>
      </trkpt>
      <trkpt lat="47.2298" lon="-1.55162">
        <ele>5.3</ele>
        <time>2015-01-04T08:02:37Z</time>
      </trkpt>
      <trkpt lat="47.22991" lon="-1.55148">
        <ele>5.3</ele>
        <time>2015-01-04T08:02:40Z</time>
      </trkpt>
      <trkpt lat="47.23002" lon="-1.55135">
        <ele>5.4</ele>
        <time>2015-01-04T08:02:43Z</time>
      </trkpt>
      <trkpt lat="47.23014" lon="-1.55121">
        <ele>5.4</ele>
        <time>2015-01-04T08:02:46Z</time>
      </trkpt>
      <trkpt lat="47.23026" lon="-1.55106">
        <ele>5.5</ele>
        <time>2015-01-04T08:02:49Z</time>
      </trkpt>
      <trkpt lat="47.23039" lon="-1.55091">
        <ele>5.5</ele>
        <time>2015-01-04T08:02:52Z</time>
      </trkpt>
      <trkpt lat="47.23051" lon="-1.55076">
        <ele>5.6</ele>
        <time>2015-01-04T08:02:55Z</time>
      </trkpt>
      <trkpt lat="47.23064" lon="-1.55062">
        <ele>5.6</ele>
        <time>2015-01-04T08:02:58Z</time>
      </trkpt>
      <trkpt lat="47.2308" lon="-1.55044">
        <ele>5.6</ele>
        <time>2015-01-04T08:03:01Z</time>
      </trkpt>
      <trkpt lat="47.23094" lon="-1.55028">
        <ele>5.6</ele>
        <time>2015-01-04T08:03:04Z</time>
      </trkpt>
      <trkpt lat="47.23108" lon="-1.55013">
        <ele>5.6</ele>
        <time>2015-01-04T08:03:07Z</time>
      </trkpt>
      <trkpt lat="47.23123" lon="-1.54997">
        <ele>5.6</ele>
        <time>2015-01-04T08:03:10Z</time>
      </trkpt>
      <trkpt lat="47.23138" lon="-1.54981">
        <ele>5.7</ele>
        <time>2015-01-04T08:03:13Z</time>
      </trkpt>
      <trkpt lat="47.2315" lon="-1.54967">
        <ele>5.8</ele>
        <time>2015-01-04T08:03:16Z</time>
      </trkpt>
      <trkpt lat="47.23162" lon="-1.54955">
        <ele>5.8</ele>
        <time>2015-01-04T08:03:19Z</time>
      </trkpt>
      <trkpt lat="47.23187" lon="-1.5493">
        <ele>5.9</ele>
        <time>2015-01-04T08:03:24Z</time>
      </trkpt>
      <trkpt lat="47.23203" lon="-1.54917">
        <ele>5.9</ele>
        <time>2015-01-04T08:03:27Z</time>
      </trkpt>
      <trkpt lat="47.23212" lon="-1.54911">
        <ele>6</ele>
        <time>2015-01-04T08:03:29Z</time>
      </trkpt>
      <trkpt lat="47.23222" lon="-1.54905">
        <ele>6</ele>
        <time>2015-01-04T08:03:31Z</time>
      </trkpt>
      <trkpt lat="47.23237" lon="-1.54926">
        <ele>6</ele>
        <time>2015-01-04T08:03:32Z</time>
      </trkpt>
      <trkpt lat="47.23254" lon="-1.54923">
        <ele>6</ele>
        <time>2015-01-04T08:03:35Z</time>
      </trkpt>
      <trkpt lat="47.23245" lon="-1.54893">
        <ele>6.1</ele>
        <time>2015-01-04T08:03:36Z</time>
      </trkpt>
      <trkpt lat="47.23263" lon="-1.54888">
        <ele>6.1</ele>
        <time>2015-01-04T08:03:37Z</time>
      </trkpt>
      <trkpt lat="47.23276" lon="-1.54886">
        <ele>6.1</ele>
        <time>2015-01-04T08:03:39Z</time>
      </trkpt>
      <trkpt lat="47.23298" lon="-1.54887">
        <ele>6.2</ele>
        <time>2015-01-04T08:03:42Z</time>
      </trkpt>
      <trkpt lat="47.23313" lon="-1.54889">
        <ele>6.2</ele>
        <time>2015-01-04T08:03:44Z</time>
      </trkpt>
      <trkpt lat="47.23329" lon="-1.5489">
        <ele>6.2</ele>
        <time>2015-01-04T08:03:46Z</time>
      </trkpt>
      <trkpt lat="47.2334" lon="-1.54892">
        <ele>6.2</ele>
        <time>2015-01-04T08:03:48Z</time>
      </trkpt>
      <trkpt lat="47.2335" lon="-1.54893">
        <ele>6.2</ele>
        <time>2015-01-04T08:03:50Z</time>
      </trkpt>
      <trkpt lat="47.23374" lon="-1.54896">
        <ele>6.2</ele>
        <time>2015-01-04T08:03:54Z</time>
      </trkpt>
      <trkpt lat="47.23378" lon="-1.5492">
        <ele>6.2</ele>
        <time>2015-01-04T08:03:55Z</time>
      </trkpt>
      <trkpt lat="47.23391" lon="-1.54917">
        <ele>6.2</ele>
        <time>2015-01-04T08:03:57Z</time>
      </trkpt>
      <trkpt lat="47.23408" lon="-1.54919">
        <ele>6.2</ele>
        <time>2015-01-04T08:04:00Z</time>
      </trkpt>
      <trkpt lat="47.23421" lon="-1.54922">
        <ele>6.2</ele>
        <time>2015-01-04T08:04:02Z</time>
      </trkpt>
      <trkpt lat="47.2344" lon="-1.54923">
        <ele>6.1</ele>
        <time>2015-01-04T08:04:05Z</time>
      </trkpt>
      <trkpt lat="47.23446" lon="-1.54922">
        <ele>6.1</ele>
        <time>2015-01-04T08:04:06Z</time>
      </trkpt>
      <trkpt lat="47.23454" lon="-1.54928">
        <ele>6.1</ele>
        <time>2015-01-04T08:04:08Z</time>
      </trkpt>
      <trkpt lat="47.23459" lon="-1.54929">
        <ele>6.1</ele>
        <time>2015-01-04T08:04:09Z</time>
      </trkpt>
      <trkpt lat="47.23464" lon="-1.54929">
        <ele>6.1</ele>
        <time>2015-01-04T08:04:10Z</time>
      </trkpt>
      <trkpt lat="47.2348" lon="-1.54933">
        <ele>6.1</ele>
        <time>2015-01-04T08:04:13Z</time>
      </trkpt>
      <trkpt lat="47.23495" lon="-1.54935">
        <ele>6.1</ele>
        <time>2015-01-04T08:04:16Z</time>
      </trkpt>
      <trkpt lat="47.23507" lon="-1.54938">
        <ele>6.1</ele>
        <time>2015-01-04T08:04:18Z</time>
      </trkpt>
      <trkpt lat="47.23516" lon="-1.5494">
        <ele>6.1</ele>
        <time>2015-01-04T08:04:20Z</time>
      </trkpt>
      <trkpt lat="47.23526" lon="-1.54921">
        <ele>6.1</ele>
        <time>2015-01-04T08:04:21Z</time>
      </trkpt>
      <trkpt lat="47.23548" lon="-1.54959">
        <ele>6</ele>
        <time>2015-01-04T08:04:25Z</time>
      </trkpt>
      <trkpt lat="47.23558" lon="-1.54976">
        <ele>5.9</ele>
        <time>2015-01-04T08:04:32Z</time>
      </trkpt>
      <trkpt lat="47.23565" lon="-1.5499">
        <ele>5.8</ele>
        <time>2015-01-04T08:04:36Z</time>
      </trkpt>
      <trkpt lat="47.23572" lon="-1.55009">
        <ele>5.7</ele>
        <time>2015-01-04T08:04:40Z</time>
      </trkpt>
      <trkpt lat="47.23582" lon="-1.55029">
        <ele>5.5</ele>
        <time>2015-01-04T08:04:44Z</time>
      </trkpt>
      <trkpt lat="47.23592" lon="-1.55045">
        <ele>5.4</ele>
        <time>2015-01-04T08:04:47Z</time>
      </trkpt>
      <trkpt lat="47.23594" lon="-1.55051">
        <ele>5.3</ele>
        <time>2015-01-04T08:04:49Z</time>
      </trkpt>
      <trkpt lat="47.236" lon="-1.55058">
        <ele>5.3</ele>
        <time>2015-01-04T08:04:51Z</time>
      </trkpt>
      <trkpt lat="47.23611" lon="-1.55065">
        <ele>5.2</ele>
        <time>2015-01-04T08:04:54Z</time>
      </trkpt>
      <trkpt lat="47.23623" lon="-1.55068">
        <ele>5.1</ele>
        <time>2015-01-04T08:04:57Z</time>
      </trkpt>
      <trkpt lat="47.23633" lon="-1.55071">
        <ele>5.1</ele>
        <time>2015-01-04T08:04:59Z</time>
      </trkpt>
      <trkpt lat="47.23647" lon="-1.55075">
        <ele>5.1</ele>
        <time>2015-01-04T08:05:02Z</time>
      </trkpt>
      <trkpt lat="47.23656" lon="-1.55085">
        <ele>5.1</ele>
        <time>2015-01-04T08:05:04Z</time>
      </trkpt>
      <trkpt lat="47.2367" lon="-1.55102">
        <ele>5.1</ele>
        <time>2015-01-04T08:05:06Z</time>
      </trkpt>
      <trkpt lat="47.23687" lon="-1.55108">
        <ele>5</ele>
        <time>2015-01-04T08:05:10Z</time>
      </trkpt>
      <trkpt lat="47.23701" lon="-1.55123">
        <ele>4.8</ele>
        <time>2015-01-04T08:05:14Z</time>
      </trkpt>
      <trkpt lat="47.23705" lon="-1.55142">
        <ele>4.7</ele>
        <time>2015-01-04T08:05:17Z</time>
      </trkpt>
      <trkpt lat="47.23711" lon="-1.55166">
        <ele>4.7</ele>
        <time>2015-01-04T08:05:21Z</time>
      </trkpt>
      <trkpt lat="47.2372" lon="-1.55182">
        <ele>4.8</ele>
        <time>2015-01-04T08:05:25Z</time>
      </trkpt>
      <trkpt lat="47.23731" lon="-1.55187">
        <ele>4.8</ele>
        <time>2015-01-04T08:05:28Z</time>
      </trkpt>
      <trkpt lat="47.23741" lon="-1.5519">
        <ele>4.8</ele>
        <time>2015-01-04T08:05:30Z</time>
      </trkpt>
      <trkpt lat="47.23757" lon="-1.55195">
        <ele>4.8</ele>
        <time>2015-01-04T08:05:34Z</time>
      </trkpt>
      <trkpt lat="47.23772" lon="-1.55202">
        <ele>4.8</ele>
        <time>2015-01-04T08:05:38Z</time>
      </trkpt>
      <trkpt lat="47.23783" lon="-1.55209">
        <ele>4.8</ele>
        <time>2015-01-04T08:05:41Z</time>
      </trkpt>
      <trkpt lat="47.23791" lon="-1.55216">
        <ele>5</ele>
        <time>2015-01-04T08:05:43Z</time>
      </trkpt>
      <trkpt lat="47.23801" lon="-1.55232">
        <ele>5.3</ele>
        <time>2015-01-04T08:05:46Z</time>
      </trkpt>
      <trkpt lat="47.2381" lon="-1.55247">
        <ele>6.7</ele>
        <time>2015-01-04T08:05:49Z</time>
      </trkpt>
      <trkpt lat="47.23819" lon="-1.55263">
        <ele>8.2</ele>
        <time>2015-01-04T08:05:52Z</time>
      </trkpt>
      <trkpt lat="47.23831" lon="-1.55283">
        <ele>8.9</ele>
        <time>2015-01-04T08:05:55Z</time>
      </trkpt>
      <trkpt lat="47.2384" lon="-1.55298">
        <ele>9.1</ele>
        <time>2015-01-04T08:05:58Z</time>
      </trkpt>
      <trkpt lat="47.2385" lon="-1.55318">
        <ele>9.2</ele>
        <time>2015-01-04T08:06:01Z</time>
      </trkpt>
      <trkpt lat="47.23861" lon="-1.55337">
        <ele>9.2</ele>
        <time>2015-01-04T08:06:04Z</time>
      </trkpt>
      <trkpt lat="47.23872" lon="-1.55352">
        <ele>9.2</ele>
        <time>2015-01-04T08:06:07Z</time>
      </trkpt>
      <trkpt lat="47.23883" lon="-1.55367">
        <ele>9.2</ele>
        <time>2015-01-04T08:06:10Z</time>
      </trkpt>
      <trkpt lat="47.23895" lon="-1.55384">
        <ele>9.3</ele>
        <time>2015-01-04T08:06:13Z</time>
      </trkpt>
      <trkpt lat="47.23907" lon="-1.55401">
        <ele>9.4</ele>
        <time>2015-01-04T08:06:17Z</time>
      </trkpt>
      <trkpt lat="47.23919" lon="-1.55415">
        <ele>9.4</ele>
        <time>2015-01-04T08:06:20Z</time>
      </trkpt>
      <trkpt lat="47.23929" lon="-1.55429">
        <ele>9.5</ele>
        <time>2015-01-04T08:06:23Z</time>
      </trkpt>
      <trkpt lat="47.23939" lon="-1.55453">
        <ele>9.6</ele>
        <time>2015-01-04T08:06:27Z</time>
      </trkpt>
      <trkpt lat="47.23937" lon="-1.55477">
        <ele>9.6</ele>
        <time>2015-01-04T08:06:31Z</time>
      </trkpt>
      <trkpt lat="47.23934" lon="-1.555">
        <ele>9.6</ele>
        <time>2015-01-04T08:06:35Z</time>
      </trkpt>
      <trkpt lat="47.2394" lon="-1.55518">
        <ele>9.6</ele>
        <time>2015-01-04T08:06:39Z</time>
      </trkpt>
      <trkpt lat="47.23952" lon="-1.55535">
        <ele>9.6</ele>
        <time>2015-01-04T08:06:43Z</time>
      </trkpt>
      <trkpt lat="47.23968" lon="-1.55551">
        <ele>9.8</ele>
        <time>2015-01-04T08:06:47Z</time>
      </trkpt>
      <trkpt lat="47.2398" lon="-1.55566">
        <ele>10.1</ele>
        <time>2015-01-04T08:06:51Z</time>
      </trkpt>
      <trkpt lat="47.23992" lon="-1.55577">
        <ele>10.5</ele>
        <time>2015-01-04T08:06:54Z</time>
      </trkpt>
      <trkpt lat="47.24005" lon="-1.55591">
        <ele>11.2</ele>
        <time>2015-01-04T08:06:57Z</time>
      </trkpt>
      <trkpt lat="47.24018" lon="-1.55608">
        <ele>12.4</ele>
        <time>2015-01-04T08:07:02Z</time>
      </trkpt>
      <trkpt lat="47.24034" lon="-1.55627">
        <ele>13</ele>
        <time>2015-01-04T08:07:06Z</time>
      </trkpt>
      <trkpt lat="47.24043" lon="-1.55639">
        <ele>13.2</ele>
        <time>2015-01-04T08:07:09Z</time>
      </trkpt>
      <trkpt lat="47.24054" lon="-1.55656">
        <ele>13.2</ele>
        <time>2015-01-04T08:07:13Z</time>
      </trkpt>
      <trkpt lat="47.24069" lon="-1.55663">
        <ele>13.3</ele>
        <time>2015-01-04T08:07:16Z</time>
      </trkpt>
      <trkpt lat="47.24082" lon="-1.55668">
        <ele>13.4</ele>
        <time>2015-01-04T08:07:20Z</time>
      </trkpt>
      <trkpt lat="47.24102" lon="-1.55666">
        <ele>13.4</ele>
        <time>2015-01-04T08:07:21Z</time>
      </trkpt>
      <trkpt lat="47.24128" lon="-1.55665">
        <ele>13.6</ele>
        <time>2015-01-04T08:07:28Z</time>
      </trkpt>
      <trkpt lat="47.24134" lon="-1.55666">
        <ele>13.6</ele>
        <time>2015-01-04T08:07:29Z</time>
      </trkpt>
      <trkpt lat="47.24141" lon="-1.55668">
        <ele>13.6</ele>
        <time>2015-01-04T08:07:30Z</time>
      </trkpt>
      <trkpt lat="47.24149" lon="-1.55667">
        <ele>13.6</ele>
        <time>2015-01-04T08:07:31Z</time>
      </trkpt>
      <trkpt lat="47.24155" lon="-1.55667">
        <ele>13.6</ele>
        <time>2015-01-04T08:07:32Z</time>
      </trkpt>
      <trkpt lat="47.24161" lon="-1.55666">
        <ele>13.6</ele>
        <time>2015-01-04T08:07:33Z</time>
      </trkpt>
      <trkpt lat="47.24173" lon="-1.55663">
        <ele>13.6</ele>
        <time>2015-01-04T08:07:35Z</time>
      </trkpt>
      <trkpt lat="47.24181" lon="-1.55654">
        <ele>13.6</ele>
        <time>2015-01-04T08:07:40Z</time>
      </trkpt>
      <trkpt lat="47.24185" lon="-1.55628">
        <ele>13.6</ele>
        <time>2015-01-04T08:07:43Z</time>
      </trkpt>
      <trkpt lat="47.24192" lon="-1.55604">
        <ele>13.5</ele>
        <time>2015-01-04T08:07:45Z</time>
      </trkpt>
      <trkpt lat="47.24201" lon="-1.5558">
        <ele>13.5</ele>
        <time>2015-01-04T08:07:48Z</time>
      </trkpt>
      <trkpt lat="47.24213" lon="-1.55564">
        <ele>13.5</ele>
        <time>2015-01-04T08:07:50Z</time>
      </trkpt>
      <trkpt lat="47.24218" lon="-1.55542">
        <ele>13.5</ele>
        <time>2015-01-04T08:07:52Z</time>
      </trkpt>
      <trkpt lat="47.24221" lon="-1.55517">
        <ele>13.3</ele>
        <time>2015-01-04T08:07:54Z</time>
      </trkpt>
      <trkpt lat="47.24221" lon="-1.55495">
        <ele>13.3</ele>
        <time>2015-01-04T08:07:56Z</time>
      </trkpt>
      <trkpt lat="47.24223" lon="-1.55475">
        <ele>13.2</ele>
        <time>2015-01-04T08:07:58Z</time>
      </trkpt>
      <trkpt lat="47.24228" lon="-1.55449">
        <ele>13</ele>
        <time>2015-01-04T08:08:01Z</time>
      </trkpt>
      <trkpt lat="47.24232" lon="-1.55425">
        <ele>12.2</ele>
        <time>2015-01-04T08:08:04Z</time>
      </trkpt>
      <trkpt lat="47.24238" lon="-1.55405">
        <ele>11.6</ele>
        <time>2015-01-04T08:08:07Z</time>
      </trkpt>
      <trkpt lat="47.2425" lon="-1.55389">
        <ele>10.7</ele>
        <time>2015-01-04T08:08:12Z</time>
      </trkpt>
      <trkpt lat="47.24257" lon="-1.55367">
        <ele>10.5</ele>
        <time>2015-01-04T08:08:14Z</time>
      </trkpt>
      <trkpt lat="47.2427" lon="-1.55369">
        <ele>9.2</ele>
        <time>2015-01-04T08:08:17Z</time>
      </trkpt>
      <trkpt lat="47.24281" lon="-1.55373">
        <ele>7.6</ele>
        <time>2015-01-04T08:08:21Z</time>
      </trkpt>
      <trkpt lat="47.24304" lon="-1.55376">
        <ele>7.2</ele>
        <time>2015-01-04T08:08:22Z</time>
      </trkpt>
      <trkpt lat="47.24278" lon="-1.55342">
        <ele>4.9</ele>
        <time>2015-01-04T08:08:30Z</time>
      </trkpt>
      <trkpt lat="47.24282" lon="-1.55323">
        <ele>4.7</ele>
        <time>2015-01-04T08:08:33Z</time>
      </trkpt>
      <trkpt lat="47.24284" lon="-1.553">
        <ele>4.6</ele>
        <time>2015-01-04T08:08:36Z</time>
      </trkpt>
      <trkpt lat="47.24285" lon="-1.55277">
        <ele>4.5</ele>
        <time>2015-01-04T08:08:40Z</time>
      </trkpt>
      <trkpt lat="47.24288" lon="-1.5525">
        <ele>4.4</ele>
        <time>2015-01-04T08:08:44Z</time>
      </trkpt>
      <trkpt lat="47.24287" lon="-1.55225">
        <ele>4.4</ele>
        <time>2015-01-04T08:08:48Z</time>
      </trkpt>
      <trkpt lat="47.24292" lon="-1.55205">
        <ele>4.3</ele>
        <time>2015-01-04T08:08:51Z</time>
      </trkpt>
      <trkpt lat="47.24298" lon="-1.55192">
        <ele>4.3</ele>
        <time>2015-01-04T08:08:54Z</time>
      </trkpt>
      <trkpt lat="47.24311" lon="-1.55182">
        <ele>4.3</ele>
        <time>2015-01-04T08:09:00Z</time>
      </trkpt>
      <trkpt lat="47.24315" lon="-1.55177">
        <ele>4.4</ele>
        <time>2015-01-04T08:09:02Z</time>
      </trkpt>
      <trkpt lat="47.24322" lon="-1.55168">
        <ele>4.4</ele>
        <time>2015-01-04T08:09:05Z</time>
      </trkpt>
      <trkpt lat="47.24326" lon="-1.55164">
        <ele>4.5</ele>
        <time>2015-01-04T08:09:07Z</time>
      </trkpt>
      <trkpt lat="47.2433" lon="-1.55157">
        <ele>4.6</ele>
        <time>2015-01-04T08:09:11Z</time>
      </trkpt>
      <trkpt lat="47.2435" lon="-1.55147">
        <ele>4.7</ele>
        <time>2015-01-04T08:09:16Z</time>
      </trkpt>
      <trkpt lat="47.2435" lon="-1.55121">
        <ele>4.9</ele>
        <time>2015-01-04T08:09:21Z</time>
      </trkpt>
      <trkpt lat="47.2435" lon="-1.55094">
        <ele>5</ele>
        <time>2015-01-04T08:09:24Z</time>
      </trkpt>
      <trkpt lat="47.2435" lon="-1.55071">
        <ele>5.3</ele>
        <time>2015-01-04T08:09:27Z</time>
      </trkpt>
      <trkpt lat="47.24351" lon="-1.55048">
        <ele>5.8</ele>
        <time>2015-01-04T08:09:30Z</time>
      </trkpt>
      <trkpt lat="47.24352" lon="-1.55021">
        <ele>6.3</ele>
        <time>2015-01-04T08:09:33Z</time>
      </trkpt>
      <trkpt lat="47.24353" lon="-1.54994">
        <ele>6.6</ele>
        <time>2015-01-04T08:09:36Z</time>
      </trkpt>
      <trkpt lat="47.24354" lon="-1.54972">
        <ele>6.7</ele>
        <time>2015-01-04T08:09:40Z</time>
      </trkpt>
      <trkpt lat="47.24354" lon="-1.54951">
        <ele>6.7</ele>
        <time>2015-01-04T08:09:44Z</time>
      </trkpt>
      <trkpt lat="47.2436" lon="-1.54931">
        <ele>6.9</ele>
        <time>2015-01-04T08:09:49Z</time>
      </trkpt>
      <trkpt lat="47.24367" lon="-1.5491">
        <ele>7</ele>
        <time>2015-01-04T08:09:52Z</time>
      </trkpt>
      <trkpt lat="47.24376" lon="-1.54891">
        <ele>7.3</ele>
        <time>2015-01-04T08:09:57Z</time>
      </trkpt>
      <trkpt lat="47.24358" lon="-1.54856">
        <ele>7.3</ele>
        <time>2015-01-04T08:10:04Z</time>
      </trkpt>
      <trkpt lat="47.24354" lon="-1.54836">
        <ele>7.3</ele>
        <time>2015-01-04T08:10:09Z</time>
      </trkpt>
      <trkpt lat="47.24363" lon="-1.54816">
        <ele>7.1</ele>
        <time>2015-01-04T08:10:14Z</time>
      </trkpt>
      <trkpt lat="47.24367" lon="-1.5481">
        <ele>7.1</ele>
        <time>2015-01-04T08:10:16Z</time>
      </trkpt>
      <trkpt lat="47.24371" lon="-1.54805">
        <ele>7.1</ele>
        <time>2015-01-04T08:10:18Z</time>
      </trkpt>
      <trkpt lat="47.24375" lon="-1.548">
        <ele>7.1</ele>
        <time>2015-01-04T08:10:22Z</time>
      </trkpt>
      <trkpt lat="47.24378" lon="-1.54794">
        <ele>7.1</ele>
        <time>2015-01-04T08:10:25Z</time>
      </trkpt>
      <trkpt lat="47.24383" lon="-1.54789">
        <ele>7.1</ele>
        <time>2015-01-04T08:10:28Z</time>
      </trkpt>
      <trkpt lat="47.24388" lon="-1.54786">
        <ele>7.1</ele>
        <time>2015-01-04T08:10:30Z</time>
      </trkpt>
      <trkpt lat="47.24392" lon="-1.54782">
        <ele>7.1</ele>
        <time>2015-01-04T08:10:32Z</time>
      </trkpt>
      <trkpt lat="47.24401" lon="-1.54775">
        <ele>7.3</ele>
        <time>2015-01-04T08:10:36Z</time>
      </trkpt>
      <trkpt lat="47.24416" lon="-1.54768">
        <ele>7.4</ele>
        <time>2015-01-04T08:10:43Z</time>
      </trkpt>
      <trkpt lat="47.24425" lon="-1.5477">
        <ele>8.3</ele>
        <time>2015-01-04T08:10:46Z</time>
      </trkpt>
      <trkpt lat="47.24442" lon="-1.54768">
        <ele>8.9</ele>
        <time>2015-01-04T08:10:50Z</time>
      </trkpt>
      <trkpt lat="47.2445" lon="-1.54766">
        <ele>9.4</ele>
        <time>2015-01-04T08:10:52Z</time>
      </trkpt>
      <trkpt lat="47.24457" lon="-1.54763">
        <ele>9.4</ele>
        <time>2015-01-04T08:10:54Z</time>
      </trkpt>
      <trkpt lat="47.24468" lon="-1.54759">
        <ele>9.6</ele>
        <time>2015-01-04T08:10:57Z</time>
      </trkpt>
      <trkpt lat="47.24482" lon="-1.54746">
        <ele>10.6</ele>
        <time>2015-01-04T08:11:02Z</time>
      </trkpt>
      <trkpt lat="47.24494" lon="-1.54739">
        <ele>11</ele>
        <time>2015-01-04T08:11:05Z</time>
      </trkpt>
      <trkpt lat="47.24505" lon="-1.54735">
        <ele>11.3</ele>
        <time>2015-01-04T08:11:08Z</time>
      </trkpt>
      <trkpt lat="47.24516" lon="-1.54734">
        <ele>11.7</ele>
        <time>2015-01-04T08:11:11Z</time>
      </trkpt>
      <trkpt lat="47.24535" lon="-1.54729">
        <ele>13</ele>
        <time>2015-01-04T08:11:16Z</time>
      </trkpt>
      <trkpt lat="47.24547" lon="-1.54727">
        <ele>13.2</ele>
        <time>2015-01-04T08:11:19Z</time>
      </trkpt>
      <trkpt lat="47.24561" lon="-1.54727">
        <ele>13.3</ele>
        <time>2015-01-04T08:11:23Z</time>
      </trkpt>
      <trkpt lat="47.24562" lon="-1.54727">
        <ele>13.4</ele>
        <time>2015-01-04T08:11:24Z</time>
      </trkpt>
      <trkpt lat="47.24563" lon="-1.54726">
        <ele>13.3</ele>
        <time>2015-01-04T08:11:28Z</time>
      </trkpt>
      <trkpt lat="47.24563" lon="-1.54726">
        <ele>14</ele>
        <time>2015-01-04T08:11:28Z</time>
      </trkpt>
      <trkpt lat="47.24563" lon="-1.54726">
        <ele>14</ele>
        <time>2015-01-04T08:12:07Z</time>
      </trkpt>
      <trkpt lat="47.24576" lon="-1.54732">
        <ele>12.5</ele>
        <time>2015-01-04T08:12:08Z</time>
      </trkpt>
      <trkpt lat="47.24587" lon="-1.54727">
        <ele>12.5</ele>
        <time>2015-01-04T08:12:11Z</time>
      </trkpt>
      <trkpt lat="47.246" lon="-1.54714">
        <ele>12.5</ele>
        <time>2015-01-04T08:12:14Z</time>
      </trkpt>
      <trkpt lat="47.2461" lon="-1.54711">
        <ele>12.5</ele>
        <time>2015-01-04T08:12:17Z</time>
      </trkpt>
      <trkpt lat="47.24618" lon="-1.54693">
        <ele>12.4</ele>
        <time>2015-01-04T08:12:21Z</time>
      </trkpt>
      <trkpt lat="47.24623" lon="-1.5467">
        <ele>12.4</ele>
        <time>2015-01-04T08:12:24Z</time>
      </trkpt>
      <trkpt lat="47.24629" lon="-1.54663">
        <ele>12</ele>
        <time>2015-01-04T08:12:26Z</time>
      </trkpt>
      <trkpt lat="47.24633" lon="-1.54657">
        <ele>12</ele>
        <time>2015-01-04T08:12:28Z</time>
      </trkpt>
      <trkpt lat="47.24636" lon="-1.5465">
        <ele>11.8</ele>
        <time>2015-01-04T08:12:30Z</time>
      </trkpt>
      <trkpt lat="47.24633" lon="-1.54641">
        <ele>11.8</ele>
        <time>2015-01-04T08:12:33Z</time>
      </trkpt>
      <trkpt lat="47.2463" lon="-1.54628">
        <ele>11.6</ele>
        <time>2015-01-04T08:12:39Z</time>
      </trkpt>
      <trkpt lat="47.24642" lon="-1.54624">
        <ele>11.4</ele>
        <time>2015-01-04T08:12:42Z</time>
      </trkpt>
      <trkpt lat="47.24648" lon="-1.54624">
        <ele>11.1</ele>
        <time>2015-01-04T08:12:43Z</time>
      </trkpt>
      <trkpt lat="47.24654" lon="-1.54622">
        <ele>11.1</ele>
        <time>2015-01-04T08:12:44Z</time>
      </trkpt>
      <trkpt lat="47.24659" lon="-1.54619">
        <ele>11.1</ele>
        <time>2015-01-04T08:12:45Z</time>
      </trkpt>
      <trkpt lat="47.24665" lon="-1.54616">
        <ele>11.1</ele>
        <time>2015-01-04T08:12:46Z</time>
      </trkpt>
      <trkpt lat="47.2467" lon="-1.54613">
        <ele>11.1</ele>
        <time>2015-01-04T08:12:47Z</time>
      </trkpt>
      <trkpt lat="47.24687" lon="-1.54606">
        <ele>10.9</ele>
        <time>2015-01-04T08:12:50Z</time>
      </trkpt>
      <trkpt lat="47.24695" lon="-1.54603">
        <ele>10.6</ele>
        <time>2015-01-04T08:12:51Z</time>
      </trkpt>
      <trkpt lat="47.24702" lon="-1.546">
        <ele>10.6</ele>
        <time>2015-01-04T08:12:52Z</time>
      </trkpt>
      <trkpt lat="47.24706" lon="-1.54597">
        <ele>10.6</ele>
        <time>2015-01-04T08:12:53Z</time>
      </trkpt>
      <trkpt lat="47.24713" lon="-1.54593">
        <ele>10.6</ele>
        <time>2015-01-04T08:12:55Z</time>
      </trkpt>
      <trkpt lat="47.2472" lon="-1.54592">
        <ele>9.3</ele>
        <time>2015-01-04T08:12:57Z</time>
      </trkpt>
      <trkpt lat="47.24729" lon="-1.54586">
        <ele>9.3</ele>
        <time>2015-01-04T08:12:59Z</time>
      </trkpt>
      <trkpt lat="47.24739" lon="-1.54581">
        <ele>8.5</ele>
        <time>2015-01-04T08:13:02Z</time>
      </trkpt>
      <trkpt lat="47.24747" lon="-1.54571">
        <ele>8.5</ele>
        <time>2015-01-04T08:13:04Z</time>
      </trkpt>
      <trkpt lat="47.2476" lon="-1.54563">
        <ele>7.6</ele>
        <time>2015-01-04T08:13:09Z</time>
      </trkpt>
      <trkpt lat="47.24772" lon="-1.54542">
        <ele>7.3</ele>
        <time>2015-01-04T08:13:12Z</time>
      </trkpt>
      <trkpt lat="47.24781" lon="-1.54525">
        <ele>7.1</ele>
        <time>2015-01-04T08:13:15Z</time>
      </trkpt>
      <trkpt lat="47.24793" lon="-1.5451">
        <ele>7</ele>
        <time>2015-01-04T08:13:18Z</time>
      </trkpt>
      <trkpt lat="47.24805" lon="-1.54491">
        <ele>6.8</ele>
        <time>2015-01-04T08:13:21Z</time>
      </trkpt>
      <trkpt lat="47.24816" lon="-1.54477">
        <ele>6.8</ele>
        <time>2015-01-04T08:13:24Z</time>
      </trkpt>
      <trkpt lat="47.24828" lon="-1.54466">
        <ele>6.5</ele>
        <time>2015-01-04T08:13:27Z</time>
      </trkpt>
      <trkpt lat="47.24842" lon="-1.54449">
        <ele>6.4</ele>
        <time>2015-01-04T08:13:31Z</time>
      </trkpt>
      <trkpt lat="47.24857" lon="-1.54435">
        <ele>6.2</ele>
        <time>2015-01-04T08:13:34Z</time>
      </trkpt>
      <trkpt lat="47.24867" lon="-1.54431">
        <ele>6.1</ele>
        <time>2015-01-04T08:13:36Z</time>
      </trkpt>
      <trkpt lat="47.24874" lon="-1.54425">
        <ele>6.1</ele>
        <time>2015-01-04T08:13:38Z</time>
      </trkpt>
      <trkpt lat="47.24881" lon="-1.54419">
        <ele>6.1</ele>
        <time>2015-01-04T08:13:41Z</time>
      </trkpt>
      <trkpt lat="47.24893" lon="-1.5441">
        <ele>6.1</ele>
        <time>2015-01-04T08:13:45Z</time>
      </trkpt>
      <trkpt lat="47.24902" lon="-1.54403">
        <ele>6</ele>
        <time>2015-01-04T08:13:48Z</time>
      </trkpt>
      <trkpt lat="47.24915" lon="-1.54386">
        <ele>5.9</ele>
        <time>2015-01-04T08:13:52Z</time>
      </trkpt>
      <trkpt lat="47.24924" lon="-1.5437">
        <ele>5.8</ele>
        <time>2015-01-04T08:13:55Z</time>
      </trkpt>
      <trkpt lat="47.24929" lon="-1.54369">
        <ele>5.8</ele>
        <time>2015-01-04T08:13:57Z</time>
      </trkpt>
      <trkpt lat="47.24933" lon="-1.54365">
        <ele>5.8</ele>
        <time>2015-01-04T08:13:59Z</time>
      </trkpt>
      <trkpt lat="47.2494" lon="-1.54355">
        <ele>5.9</ele>
        <time>2015-01-04T08:14:02Z</time>
      </trkpt>
      <trkpt lat="47.24949" lon="-1.54339">
        <ele>6.1</ele>
        <time>2015-01-04T08:14:06Z</time>
      </trkpt>
      <trkpt lat="47.24958" lon="-1.54307">
        <ele>6.5</ele>
        <time>2015-01-04T08:14:10Z</time>
      </trkpt>
      <trkpt lat="47.2497" lon="-1.54289">
        <ele>6.7</ele>
        <time>2015-01-04T08:14:13Z</time>
      </trkpt>
      <trkpt lat="47.24978" lon="-1.54273">
        <ele>6.8</ele>
        <time>2015-01-04T08:14:16Z</time>
      </trkpt>
      <trkpt lat="47.24991" lon="-1.54257">
        <ele>6.9</ele>
        <time>2015-01-04T08:14:19Z</time>
      </trkpt>
      <trkpt lat="47.25002" lon="-1.54243">
        <ele>7.4</ele>
        <time>2015-01-04T08:14:22Z</time>
      </trkpt>
      <trkpt lat="47.25014" lon="-1.5423">
        <ele>7.7</ele>
        <time>2015-01-04T08:14:25Z</time>
      </trkpt>
      <trkpt lat="47.25026" lon="-1.54218">
        <ele>7.8</ele>
        <time>2015-01-04T08:14:28Z</time>
      </trkpt>
      <trkpt lat="47.25039" lon="-1.54208">
        <ele>7.8</ele>
        <time>2015-01-04T08:14:31Z</time>
      </trkpt>
      <trkpt lat="47.25048" lon="-1.54188">
        <ele>7.8</ele>
        <time>2015-01-04T08:14:34Z</time>
      </trkpt>
      <trkpt lat="47.25059" lon="-1.54176">
        <ele>7.8</ele>
        <time>2015-01-04T08:14:37Z</time>
      </trkpt>
      <trkpt lat="47.25072" lon="-1.54164">
        <ele>7.8</ele>
        <time>2015-01-04T08:14:41Z</time>
      </trkpt>
      <trkpt lat="47.25081" lon="-1.54158">
        <ele>7.8</ele>
        <time>2015-01-04T08:14:44Z</time>
      </trkpt>
      <trkpt lat="47.25095" lon="-1.54148">
        <ele>7.8</ele>
        <time>2015-01-04T08:14:48Z</time>
      </trkpt>
      <trkpt lat="47.25105" lon="-1.54145">
        <ele>7.8</ele>
        <time>2015-01-04T08:14:50Z</time>
      </trkpt>
      <trkpt lat="47.25123" lon="-1.54138">
        <ele>7.8</ele>
        <time>2015-01-04T08:14:53Z</time>
      </trkpt>
      <trkpt lat="47.25142" lon="-1.54141">
        <ele>7.8</ele>
        <time>2015-01-04T08:14:59Z</time>
      </trkpt>
      <trkpt lat="47.25155" lon="-1.54131">
        <ele>7.8</ele>
        <time>2015-01-04T08:15:02Z</time>
      </trkpt>
      <trkpt lat="47.25168" lon="-1.54127">
        <ele>7.8</ele>
        <time>2015-01-04T08:15:05Z</time>
      </trkpt>
      <trkpt lat="47.25182" lon="-1.54123">
        <ele>7.8</ele>
        <time>2015-01-04T08:15:08Z</time>
      </trkpt>
      <trkpt lat="47.25198" lon="-1.54119">
        <ele>7.8</ele>
        <time>2015-01-04T08:15:11Z</time>
      </trkpt>
      <trkpt lat="47.25208" lon="-1.54119">
        <ele>7.8</ele>
        <time>2015-01-04T08:15:13Z</time>
      </trkpt>
      <trkpt lat="47.25219" lon="-1.54117">
        <ele>7.8</ele>
        <time>2015-01-04T08:15:15Z</time>
      </trkpt>
      <trkpt lat="47.25231" lon="-1.54115">
        <ele>7.8</ele>
        <time>2015-01-04T08:15:17Z</time>
      </trkpt>
      <trkpt lat="47.25248" lon="-1.54113">
        <ele>7.8</ele>
        <time>2015-01-04T08:15:21Z</time>
      </trkpt>
      <trkpt lat="47.25256" lon="-1.5411">
        <ele>8</ele>
        <time>2015-01-04T08:15:23Z</time>
      </trkpt>
      <trkpt lat="47.25268" lon="-1.54105">
        <ele>8</ele>
        <time>2015-01-04T08:15:26Z</time>
      </trkpt>
      <trkpt lat="47.25279" lon="-1.54102">
        <ele>8.4</ele>
        <time>2015-01-04T08:15:29Z</time>
      </trkpt>
      <trkpt lat="47.25291" lon="-1.54095">
        <ele>8.9</ele>
        <time>2015-01-04T08:15:32Z</time>
      </trkpt>
      <trkpt lat="47.253" lon="-1.54092">
        <ele>9.1</ele>
        <time>2015-01-04T08:15:34Z</time>
      </trkpt>
      <trkpt lat="47.25305" lon="-1.54091">
        <ele>10.1</ele>
        <time>2015-01-04T08:15:36Z</time>
      </trkpt>
      <trkpt lat="47.25306" lon="-1.54091">
        <ele>10.6</ele>
        <time>2015-01-04T08:15:40Z</time>
      </trkpt>
      <trkpt lat="47.25306" lon="-1.54091">
        <ele>9.3</ele>
        <time>2015-01-04T08:15:40Z</time>
      </trkpt>
      <trkpt lat="47.25306" lon="-1.54091">
        <ele>9.3</ele>
        <time>2015-01-04T08:16:00Z</time>
      </trkpt>
      <trkpt lat="47.25322" lon="-1.54086">
        <ele>10.5</ele>
        <time>2015-01-04T08:16:01Z</time>
      </trkpt>
      <trkpt lat="47.25331" lon="-1.54084">
        <ele>10.5</ele>
        <time>2015-01-04T08:16:03Z</time>
      </trkpt>
      <trkpt lat="47.2535" lon="-1.54073">
        <ele>10.5</ele>
        <time>2015-01-04T08:16:06Z</time>
      </trkpt>
      <trkpt lat="47.25363" lon="-1.54073">
        <ele>10.5</ele>
        <time>2015-01-04T08:16:08Z</time>
      </trkpt>
      <trkpt lat="47.25392" lon="-1.54068">
        <ele>10.5</ele>
        <time>2015-01-04T08:16:12Z</time>
      </trkpt>
      <trkpt lat="47.25407" lon="-1.54064">
        <ele>10.5</ele>
        <time>2015-01-04T08:16:14Z</time>
      </trkpt>
      <trkpt lat="47.25424" lon="-1.54062">
        <ele>10.5</ele>
        <time>2015-01-04T08:16:17Z</time>
      </trkpt>
      <trkpt lat="47.25442" lon="-1.54066">
        <ele>10.5</ele>
        <time>2015-01-04T08:16:20Z</time>
      </trkpt>
      <trkpt lat="47.25454" lon="-1.54061">
        <ele>10.5</ele>
        <time>2015-01-04T08:16:23Z</time>
      </trkpt>
      <trkpt lat="47.2547" lon="-1.54052">
        <ele>10.4</ele>
        <time>2015-01-04T08:16:26Z</time>
      </trkpt>
      <trkpt lat="47.25478" lon="-1.54049">
        <ele>10.4</ele>
        <time>2015-01-04T08:16:29Z</time>
      </trkpt>
      <trkpt lat="47.25493" lon="-1.54047">
        <ele>10.4</ele>
        <time>2015-01-04T08:16:34Z</time>
      </trkpt>
      <trkpt lat="47.25503" lon="-1.54042">
        <ele>9.8</ele>
        <time>2015-01-04T08:16:37Z</time>
      </trkpt>
      <trkpt lat="47.25512" lon="-1.54038">
        <ele>9.6</ele>
        <time>2015-01-04T08:16:39Z</time>
      </trkpt>
      <trkpt lat="47.25526" lon="-1.54012">
        <ele>9.4</ele>
        <time>2015-01-04T08:16:42Z</time>
      </trkpt>
      <trkpt lat="47.25545" lon="-1.54004">
        <ele>9.3</ele>
        <time>2015-01-04T08:16:45Z</time>
      </trkpt>
      <trkpt lat="47.25561" lon="-1.53998">
        <ele>9.3</ele>
        <time>2015-01-04T08:16:47Z</time>
      </trkpt>
      <trkpt lat="47.25575" lon="-1.53992">
        <ele>9.3</ele>
        <time>2015-01-04T08:16:49Z</time>
      </trkpt>
      <trkpt lat="47.25581" lon="-1.53989">
        <ele>9.3</ele>
        <time>2015-01-04T08:16:50Z</time>
      </trkpt>
      <trkpt lat="47.25603" lon="-1.53979">
        <ele>9.3</ele>
        <time>2015-01-04T08:16:54Z</time>
      </trkpt>
      <trkpt lat="47.25603" lon="-1.53979">
        <ele>9.3</ele>
        <time>2015-01-04T08:16:56Z</time>
      </trkpt>
      <trkpt lat="47.25605" lon="-1.53978">
        <ele>10.1</ele>
        <time>2015-01-04T08:17:00Z</time>
      </trkpt>
      <trkpt lat="47.25605" lon="-1.53978">
        <ele>10.2</ele>
        <time>2015-01-04T08:17:00Z</time>
      </trkpt>
      <trkpt lat="47.25605" lon="-1.53978">
        <ele>10.2</ele>
        <time>2015-01-04T08:17:11Z</time>
      </trkpt>
      <trkpt lat="47.25608" lon="-1.53966">
        <ele>9.9</ele>
        <time>2015-01-04T08:17:16Z</time>
      </trkpt>
      <trkpt lat="47.25622" lon="-1.53962">
        <ele>9.9</ele>
        <time>2015-01-04T08:17:20Z</time>
      </trkpt>
      <trkpt lat="47.25633" lon="-1.53959">
        <ele>9.9</ele>
        <time>2015-01-04T08:17:22Z</time>
      </trkpt>
      <trkpt lat="47.25652" lon="-1.53957">
        <ele>9.9</ele>
        <time>2015-01-04T08:17:25Z</time>
      </trkpt>
      <trkpt lat="47.25666" lon="-1.53956">
        <ele>9.9</ele>
        <time>2015-01-04T08:17:27Z</time>
      </trkpt>
      <trkpt lat="47.25686" lon="-1.53953">
        <ele>9.9</ele>
        <time>2015-01-04T08:17:30Z</time>
      </trkpt>
      <trkpt lat="47.25703" lon="-1.53955">
        <ele>9.9</ele>
        <time>2015-01-04T08:17:33Z</time>
      </trkpt>
      <trkpt lat="47.2572" lon="-1.53964">
        <ele>9.9</ele>
        <time>2015-01-04T08:17:36Z</time>
      </trkpt>
      <trkpt lat="47.25731" lon="-1.53971">
        <ele>9.9</ele>
        <time>2015-01-04T08:17:38Z</time>
      </trkpt>
      <trkpt lat="47.25732" lon="-1.53988">
        <ele>9.9</ele>
        <time>2015-01-04T08:17:41Z</time>
      </trkpt>
      <trkpt lat="47.25779" lon="-1.53985">
        <ele>9.8</ele>
        <time>2015-01-04T08:17:49Z</time>
      </trkpt>
      <trkpt lat="47.25798" lon="-1.53982">
        <ele>9.7</ele>
        <time>2015-01-04T08:17:53Z</time>
      </trkpt>
      <trkpt lat="47.25828" lon="-1.53974">
        <ele>9.7</ele>
        <time>2015-01-04T08:17:57Z</time>
      </trkpt>
      <trkpt lat="47.25842" lon="-1.53968">
        <ele>9.7</ele>
        <time>2015-01-04T08:17:59Z</time>
      </trkpt>
      <trkpt lat="47.25857" lon="-1.53957">
        <ele>9.7</ele>
        <time>2015-01-04T08:18:01Z</time>
      </trkpt>
      <trkpt lat="47.25888" lon="-1.53936">
        <ele>9.7</ele>
        <time>2015-01-04T08:18:05Z</time>
      </trkpt>
      <trkpt lat="47.25904" lon="-1.53931">
        <ele>9.6</ele>
        <time>2015-01-04T08:18:07Z</time>
      </trkpt>
      <trkpt lat="47.25923" lon="-1.53919">
        <ele>9.6</ele>
        <time>2015-01-04T08:18:09Z</time>
      </trkpt>
      <trkpt lat="47.25938" lon="-1.53914">
        <ele>9.6</ele>
        <time>2015-01-04T08:18:11Z</time>
      </trkpt>
      <trkpt lat="47.25966" lon="-1.53891">
        <ele>9.6</ele>
        <time>2015-01-04T08:18:14Z</time>
      </trkpt>
      <trkpt lat="47.25983" lon="-1.53886">
        <ele>9.6</ele>
        <time>2015-01-04T08:18:16Z</time>
      </trkpt>
      <trkpt lat="47.26009" lon="-1.53883">
        <ele>9.6</ele>
        <time>2015-01-04T08:18:19Z</time>
      </trkpt>
      <trkpt lat="47.26027" lon="-1.53879">
        <ele>9.6</ele>
        <time>2015-01-04T08:18:21Z</time>
      </trkpt>
      <trkpt lat="47.2606" lon="-1.53874">
        <ele>9.6</ele>
        <time>2015-01-04T08:18:25Z</time>
      </trkpt>
      <trkpt lat="47.26076" lon="-1.53876">
        <ele>9.7</ele>
        <time>2015-01-04T08:18:27Z</time>
      </trkpt>
      <trkpt lat="47.26103" lon="-1.5387">
        <ele>9.7</ele>
        <time>2015-01-04T08:18:30Z</time>
      </trkpt>
      <trkpt lat="47.26122" lon="-1.53864">
        <ele>9.8</ele>
        <time>2015-01-04T08:18:33Z</time>
      </trkpt>
      <trkpt lat="47.26135" lon="-1.53867">
        <ele>9.8</ele>
        <time>2015-01-04T08:18:35Z</time>
      </trkpt>
      <trkpt lat="47.26154" lon="-1.5387">
        <ele>9.9</ele>
        <time>2015-01-04T08:18:38Z</time>
      </trkpt>
      <trkpt lat="47.2617" lon="-1.53873">
        <ele>9.9</ele>
        <time>2015-01-04T08:18:41Z</time>
      </trkpt>
      <trkpt lat="47.26178" lon="-1.53874">
        <ele>10.2</ele>
        <time>2015-01-04T08:18:46Z</time>
      </trkpt>
      <trkpt lat="47.2618" lon="-1.53876">
        <ele>10.9</ele>
        <time>2015-01-04T08:18:50Z</time>
      </trkpt>
      <trkpt lat="47.2618" lon="-1.53876">
        <ele>15.2</ele>
        <time>2015-01-04T08:18:50Z</time>
      </trkpt>
      <trkpt lat="47.2618" lon="-1.53876">
        <ele>15.2</ele>
        <time>2015-01-04T08:20:22Z</time>
      </trkpt>
      <trkpt lat="47.26431" lon="-1.53986">
        <ele>12.8</ele>
        <time>2015-01-04T08:20:23Z</time>
      </trkpt>
      <trkpt lat="47.26436" lon="-1.53995">
        <ele>12.8</ele>
        <time>2015-01-04T08:20:25Z</time>
      </trkpt>
      <trkpt lat="47.26452" lon="-1.54">
        <ele>8.4</ele>
        <time>2015-01-04T08:20:29Z</time>
      </trkpt>
      <trkpt lat="47.2646" lon="-1.53999">
        <ele>8.4</ele>
        <time>2015-01-04T08:20:31Z</time>
      </trkpt>
      <trkpt lat="47.26466" lon="-1.53995">
        <ele>8.4</ele>
        <time>2015-01-04T08:20:33Z</time>
      </trkpt>
      <trkpt lat="47.26475" lon="-1.53988">
        <ele>8.7</ele>
        <time>2015-01-04T08:20:38Z</time>
      </trkpt>
      <trkpt lat="47.26488" lon="-1.5398">
        <ele>8.9</ele>
        <time>2015-01-04T08:20:47Z</time>
      </trkpt>
      <trkpt lat="47.26502" lon="-1.53984">
        <ele>8.6</ele>
        <time>2015-01-04T08:20:55Z</time>
      </trkpt>
      <trkpt lat="47.26506" lon="-1.53987">
        <ele>8.4</ele>
        <time>2015-01-04T08:20:57Z</time>
      </trkpt>
      <trkpt lat="47.26511" lon="-1.53989">
        <ele>8.4</ele>
        <time>2015-01-04T08:20:59Z</time>
      </trkpt>
      <trkpt lat="47.26522" lon="-1.53993">
        <ele>8.4</ele>
        <time>2015-01-04T08:21:03Z</time>
      </trkpt>
      <trkpt lat="47.26531" lon="-1.53999">
        <ele>8.2</ele>
        <time>2015-01-04T08:21:06Z</time>
      </trkpt>
      <trkpt lat="47.26543" lon="-1.54006">
        <ele>8.2</ele>
        <time>2015-01-04T08:21:10Z</time>
      </trkpt>
      <trkpt lat="47.26552" lon="-1.54015">
        <ele>8.3</ele>
        <time>2015-01-04T08:21:13Z</time>
      </trkpt>
      <trkpt lat="47.26561" lon="-1.54025">
        <ele>8.4</ele>
        <time>2015-01-04T08:21:16Z</time>
      </trkpt>
      <trkpt lat="47.26565" lon="-1.54031">
        <ele>8.4</ele>
        <time>2015-01-04T08:21:18Z</time>
      </trkpt>
      <trkpt lat="47.26567" lon="-1.54038">
        <ele>8.4</ele>
        <time>2015-01-04T08:21:20Z</time>
      </trkpt>
      <trkpt lat="47.26568" lon="-1.54045">
        <ele>8.4</ele>
        <time>2015-01-04T08:21:22Z</time>
      </trkpt>
      <trkpt lat="47.26572" lon="-1.54062">
        <ele>8.6</ele>
        <time>2015-01-04T08:21:27Z</time>
      </trkpt>
      <trkpt lat="47.26576" lon="-1.5407">
        <ele>8.8</ele>
        <time>2015-01-04T08:21:30Z</time>
      </trkpt>
      <trkpt lat="47.26581" lon="-1.54071">
        <ele>8.8</ele>
        <time>2015-01-04T08:21:32Z</time>
      </trkpt>
      <trkpt lat="47.2659" lon="-1.54076">
        <ele>8.8</ele>
        <time>2015-01-04T08:21:36Z</time>
      </trkpt>
      <trkpt lat="47.26601" lon="-1.54088">
        <ele>9.1</ele>
        <time>2015-01-04T08:21:42Z</time>
      </trkpt>
      <trkpt lat="47.26606" lon="-1.54095">
        <ele>9.6</ele>
        <time>2015-01-04T08:21:45Z</time>
      </trkpt>
      <trkpt lat="47.26607" lon="-1.54099">
        <ele>9.7</ele>
        <time>2015-01-04T08:21:47Z</time>
      </trkpt>
      <trkpt lat="47.26608" lon="-1.541">
        <ele>12</ele>
        <time>2015-01-04T08:21:51Z</time>
      </trkpt>
      <trkpt lat="47.26608" lon="-1.541">
        <ele>12</ele>
        <time>2015-01-04T08:21:51Z</time>
      </trkpt>
      <trkpt lat="47.26608" lon="-1.541">
        <ele>12</ele>
        <time>2015-01-04T08:22:20Z</time>
      </trkpt>
      <trkpt lat="47.26611" lon="-1.54117">
        <ele>11.5</ele>
        <time>2015-01-04T08:22:21Z</time>
      </trkpt>
      <trkpt lat="47.26619" lon="-1.54133">
        <ele>11.8</ele>
        <time>2015-01-04T08:22:28Z</time>
      </trkpt>
      <trkpt lat="47.26622" lon="-1.5414">
        <ele>11.9</ele>
        <time>2015-01-04T08:22:31Z</time>
      </trkpt>
      <trkpt lat="47.2663" lon="-1.54152">
        <ele>12</ele>
        <time>2015-01-04T08:22:36Z</time>
      </trkpt>
      <trkpt lat="47.26636" lon="-1.54162">
        <ele>12.3</ele>
        <time>2015-01-04T08:22:40Z</time>
      </trkpt>
      <trkpt lat="47.26636" lon="-1.54162">
        <ele>17</ele>
        <time>2015-01-04T08:22:44Z</time>
      </trkpt>
      <trkpt lat="47.26636" lon="-1.54162">
        <ele>15.7</ele>
        <time>2015-01-04T08:22:44Z</time>
      </trkpt>
      <trkpt lat="47.26636" lon="-1.54162">
        <ele>15.7</ele>
        <time>2015-01-04T08:23:38Z</time>
      </trkpt>
      <trkpt lat="47.26649" lon="-1.54175">
        <ele>17.1</ele>
        <time>2015-01-04T08:23:41Z</time>
      </trkpt>
      <trkpt lat="47.26653" lon="-1.54181">
        <ele>17.2</ele>
        <time>2015-01-04T08:23:43Z</time>
      </trkpt>
      <trkpt lat="47.26659" lon="-1.54185">
        <ele>17.2</ele>
        <time>2015-01-04T08:23:45Z</time>
      </trkpt>
      <trkpt lat="47.26668" lon="-1.54186">
        <ele>17.9</ele>
        <time>2015-01-04T08:23:52Z</time>
      </trkpt>
      <trkpt lat="47.2668" lon="-1.54173">
        <ele>18.4</ele>
        <time>2015-01-04T08:24:02Z</time>
      </trkpt>
      <trkpt lat="47.26685" lon="-1.5417">
        <ele>18.6</ele>
        <time>2015-01-04T08:24:05Z</time>
      </trkpt>
      <trkpt lat="47.2669" lon="-1.54165">
        <ele>18.8</ele>
        <time>2015-01-04T08:24:08Z</time>
      </trkpt>
      <trkpt lat="47.26694" lon="-1.54159">
        <ele>18.8</ele>
        <time>2015-01-04T08:24:10Z</time>
      </trkpt>
      <trkpt lat="47.26699" lon="-1.54155">
        <ele>18.9</ele>
        <time>2015-01-04T08:24:12Z</time>
      </trkpt>
      <trkpt lat="47.26706" lon="-1.54154">
        <ele>18.9</ele>
        <time>2015-01-04T08:24:15Z</time>
      </trkpt>
      <trkpt lat="47.26712" lon="-1.54151">
        <ele>19</ele>
        <time>2015-01-04T08:24:19Z</time>
      </trkpt>
      <trkpt lat="47.26717" lon="-1.54147">
        <ele>19.7</ele>
        <time>2015-01-04T08:24:22Z</time>
      </trkpt>
      <trkpt lat="47.26721" lon="-1.54147">
        <ele>19.7</ele>
        <time>2015-01-04T08:24:24Z</time>
      </trkpt>
      <trkpt lat="47.26731" lon="-1.5415">
        <ele>19.9</ele>
        <time>2015-01-04T08:24:28Z</time>
      </trkpt>
      <trkpt lat="47.26745" lon="-1.54149">
        <ele>20.1</ele>
        <time>2015-01-04T08:24:36Z</time>
      </trkpt>
      <trkpt lat="47.2676" lon="-1.54155">
        <ele>20.2</ele>
        <time>2015-01-04T08:24:44Z</time>
      </trkpt>
      <trkpt lat="47.26768" lon="-1.54161">
        <ele>20.3</ele>
        <time>2015-01-04T08:24:48Z</time>
      </trkpt>
      <trkpt lat="47.26777" lon="-1.54169">
        <ele>20.4</ele>
        <time>2015-01-04T08:24:52Z</time>
      </trkpt>
      <trkpt lat="47.26787" lon="-1.54176">
        <ele>20.6</ele>
        <time>2015-01-04T08:24:56Z</time>
      </trkpt>
      <trkpt lat="47.26793" lon="-1.5418">
        <ele>20.8</ele>
        <time>2015-01-04T08:25:00Z</time>
      </trkpt>
      <trkpt lat="47.26803" lon="-1.54183">
        <ele>20.9</ele>
        <time>2015-01-04T08:25:05Z</time>
      </trkpt>
      <trkpt lat="47.26812" lon="-1.54181">
        <ele>21.1</ele>
        <time>2015-01-04T08:25:09Z</time>
      </trkpt>
      <trkpt lat="47.26821" lon="-1.54189">
        <ele>21.5</ele>
        <time>2015-01-04T08:25:13Z</time>
      </trkpt>
      <trkpt lat="47.26826" lon="-1.54193">
        <ele>21.7</ele>
        <time>2015-01-04T08:25:15Z</time>
      </trkpt>
      <trkpt lat="47.2683" lon="-1.54195">
        <ele>21.7</ele>
        <time>2015-01-04T08:25:17Z</time>
      </trkpt>
      <trkpt lat="47.26839" lon="-1.54198">
        <ele>21.8</ele>
        <time>2015-01-04T08:25:22Z</time>
      </trkpt>
      <trkpt lat="47.26844" lon="-1.54199">
        <ele>21.9</ele>
        <time>2015-01-04T08:25:25Z</time>
      </trkpt>
      <trkpt lat="47.26849" lon="-1.542">
        <ele>21.9</ele>
        <time>2015-01-04T08:25:29Z</time>
      </trkpt>
      <trkpt lat="47.26858" lon="-1.54199">
        <ele>22</ele>
        <time>2015-01-04T08:25:34Z</time>
      </trkpt>
      <trkpt lat="47.26868" lon="-1.54203">
        <ele>22</ele>
        <time>2015-01-04T08:25:38Z</time>
      </trkpt>
      <trkpt lat="47.26879" lon="-1.54209">
        <ele>22</ele>
        <time>2015-01-04T08:25:42Z</time>
      </trkpt>
      <trkpt lat="47.26889" lon="-1.54214">
        <ele>22</ele>
        <time>2015-01-04T08:25:48Z</time>
      </trkpt>
      <trkpt lat="47.26895" lon="-1.54216">
        <ele>22</ele>
        <time>2015-01-04T08:25:51Z</time>
      </trkpt>
      <trkpt lat="47.26901" lon="-1.54222">
        <ele>22</ele>
        <time>2015-01-04T08:25:54Z</time>
      </trkpt>
      <trkpt lat="47.2691" lon="-1.54227">
        <ele>22</ele>
        <time>2015-01-04T08:25:57Z</time>
      </trkpt>
      <trkpt lat="47.26919" lon="-1.54232">
        <ele>22</ele>
        <time>2015-01-04T08:26:00Z</time>
      </trkpt>
      <trkpt lat="47.26931" lon="-1.54236">
        <ele>22.1</ele>
        <time>2015-01-04T08:26:04Z</time>
      </trkpt>
      <trkpt lat="47.26941" lon="-1.54242">
        <ele>22.1</ele>
        <time>2015-01-04T08:26:07Z</time>
      </trkpt>
      <trkpt lat="47.26955" lon="-1.54238">
        <ele>22.1</ele>
        <time>2015-01-04T08:26:13Z</time>
      </trkpt>
      <trkpt lat="47.2697" lon="-1.54234">
        <ele>22.1</ele>
        <time>2015-01-04T08:26:18Z</time>
      </trkpt>
      <trkpt lat="47.26981" lon="-1.54236">
        <ele>22.1</ele>
        <time>2015-01-04T08:26:24Z</time>
      </trkpt>
      <trkpt lat="47.26992" lon="-1.5422">
        <ele>22</ele>
        <time>2015-01-04T08:26:30Z</time>
      </trkpt>
      <trkpt lat="47.27004" lon="-1.54208">
        <ele>22</ele>
        <time>2015-01-04T08:26:34Z</time>
      </trkpt>
      <trkpt lat="47.2702" lon="-1.54202">
        <ele>21.6</ele>
        <time>2015-01-04T08:26:41Z</time>
      </trkpt>
      <trkpt lat="47.27029" lon="-1.54208">
        <ele>21.5</ele>
        <time>2015-01-04T08:26:45Z</time>
      </trkpt>
      <trkpt lat="47.27037" lon="-1.54216">
        <ele>21.4</ele>
        <time>2015-01-04T08:26:49Z</time>
      </trkpt>
      <trkpt lat="47.27047" lon="-1.54219">
        <ele>21.4</ele>
        <time>2015-01-04T08:26:54Z</time>
      </trkpt>
      <trkpt lat="47.27056" lon="-1.54212">
        <ele>21.3</ele>
        <time>2015-01-04T08:27:02Z</time>
      </trkpt>
      <trkpt lat="47.27064" lon="-1.54214">
        <ele>21.3</ele>
        <time>2015-01-04T08:27:05Z</time>
      </trkpt>
      <trkpt lat="47.27063" lon="-1.54223">
        <ele>21.5</ele>
        <time>2015-01-04T08:27:19Z</time>
      </trkpt>
      <trkpt lat="47.27084" lon="-1.54249">
        <ele>21.6</ele>
        <time>2015-01-04T08:27:21Z</time>
      </trkpt>
      <trkpt lat="47.27081" lon="-1.5425">
        <ele>21.6</ele>
        <time>2015-01-04T08:27:23Z</time>
      </trkpt>
      <trkpt lat="47.27077" lon="-1.54254">
        <ele>22</ele>
        <time>2015-01-04T08:27:30Z</time>
      </trkpt>
      <trkpt lat="47.27073" lon="-1.54258">
        <ele>22</ele>
        <time>2015-01-04T08:27:34Z</time>
      </trkpt>
      <trkpt lat="47.27068" lon="-1.54256">
        <ele>22</ele>
        <time>2015-01-04T08:27:39Z</time>
      </trkpt>
      <trkpt lat="47.27063" lon="-1.54261">
        <ele>22</ele>
        <time>2015-01-04T08:27:43Z</time>
      </trkpt>
      <trkpt lat="47.27049" lon="-1.54262">
        <ele>22</ele>
        <time>2015-01-04T08:27:49Z</time>
      </trkpt>
      <trkpt lat="47.27037" lon="-1.54272">
        <ele>21.7</ele>
        <time>2015-01-04T08:27:56Z</time>
      </trkpt>
      <trkpt lat="47.27027" lon="-1.54275">
        <ele>20.5</ele>
        <time>2015-01-04T08:28:00Z</time>
      </trkpt>
      <trkpt lat="47.27017" lon="-1.5428">
        <ele>19.9</ele>
        <time>2015-01-04T08:28:04Z</time>
      </trkpt>
      <trkpt lat="47.27011" lon="-1.54279">
        <ele>19.4</ele>
        <time>2015-01-04T08:28:07Z</time>
      </trkpt>
      <trkpt lat="47.27005" lon="-1.54277">
        <ele>19.2</ele>
        <time>2015-01-04T08:28:12Z</time>
      </trkpt>
      <trkpt lat="47.27001" lon="-1.54283">
        <ele>19</ele>
        <time>2015-01-04T08:28:18Z</time>
      </trkpt>
      <trkpt lat="47.26995" lon="-1.54286">
        <ele>19</ele>
        <time>2015-01-04T08:28:20Z</time>
      </trkpt>
      <trkpt lat="47.26983" lon="-1.54288">
        <ele>18.9</ele>
        <time>2015-01-04T08:28:24Z</time>
      </trkpt>
      <trkpt lat="47.26973" lon="-1.54288">
        <ele>18.9</ele>
        <time>2015-01-04T08:28:28Z</time>
      </trkpt>
      <trkpt lat="47.26963" lon="-1.54293">
        <ele>18.8</ele>
        <time>2015-01-04T08:28:35Z</time>
      </trkpt>
      <trkpt lat="47.26953" lon="-1.54298">
        <ele>18.7</ele>
        <time>2015-01-04T08:28:39Z</time>
      </trkpt>
      <trkpt lat="47.26942" lon="-1.543">
        <ele>18.7</ele>
        <time>2015-01-04T08:28:43Z</time>
      </trkpt>
      <trkpt lat="47.26938" lon="-1.54304">
        <ele>18.7</ele>
        <time>2015-01-04T08:28:45Z</time>
      </trkpt>
      <trkpt lat="47.26933" lon="-1.54316">
        <ele>18.7</ele>
        <time>2015-01-04T08:28:51Z</time>
      </trkpt>
      <trkpt lat="47.26923" lon="-1.54325">
        <ele>18.7</ele>
        <time>2015-01-04T08:28:55Z</time>
      </trkpt>
      <trkpt lat="47.26916" lon="-1.54335">
        <ele>18.7</ele>
        <time>2015-01-04T08:28:58Z</time>
      </trkpt>
      <trkpt lat="47.26912" lon="-1.5434">
        <ele>18.8</ele>
        <time>2015-01-04T08:29:00Z</time>
      </trkpt>
      <trkpt lat="47.26906" lon="-1.54343">
        <ele>18.8</ele>
        <time>2015-01-04T08:29:03Z</time>
      </trkpt>
      <trkpt lat="47.26893" lon="-1.54342">
        <ele>18.9</ele>
        <time>2015-01-04T08:29:07Z</time>
      </trkpt>
      <trkpt lat="47.26882" lon="-1.54347">
        <ele>18.9</ele>
        <time>2015-01-04T08:29:11Z</time>
      </trkpt>
      <trkpt lat="47.26868" lon="-1.54351">
        <ele>18.9</ele>
        <time>2015-01-04T08:29:16Z</time>
      </trkpt>
      <trkpt lat="47.26864" lon="-1.54355">
        <ele>19</ele>
        <time>2015-01-04T08:29:20Z</time>
      </trkpt>
      <trkpt lat="47.26866" lon="-1.5436">
        <ele>19.7</ele>
        <time>2015-01-04T08:29:23Z</time>
      </trkpt>
      <trkpt lat="47.26866" lon="-1.5436">
        <ele>21.6</ele>
        <time>2015-01-04T08:29:27Z</time>
      </trkpt>
      <trkpt lat="47.26866" lon="-1.5436">
        <ele>24.5</ele>
        <time>2015-01-04T08:29:27Z</time>
      </trkpt>
      <trkpt lat="47.26866" lon="-1.5436">
        <ele>24.5</ele>
        <time>2015-01-04T08:30:43Z</time>
      </trkpt>
      <trkpt lat="47.26864" lon="-1.54376">
        <ele>22.1</ele>
        <time>2015-01-04T08:30:44Z</time>
      </trkpt>
      <trkpt lat="47.26861" lon="-1.54389">
        <ele>22.2</ele>
        <time>2015-01-04T08:30:51Z</time>
      </trkpt>
      <trkpt lat="47.2686" lon="-1.54397">
        <ele>22.3</ele>
        <time>2015-01-04T08:30:54Z</time>
      </trkpt>
      <trkpt lat="47.2686" lon="-1.54406">
        <ele>22.3</ele>
        <time>2015-01-04T08:30:56Z</time>
      </trkpt>
      <trkpt lat="47.26858" lon="-1.54428">
        <ele>22.5</ele>
        <time>2015-01-04T08:31:00Z</time>
      </trkpt>
      <trkpt lat="47.26856" lon="-1.54452">
        <ele>22.6</ele>
        <time>2015-01-04T08:31:04Z</time>
      </trkpt>
      <trkpt lat="47.26852" lon="-1.54475">
        <ele>23.1</ele>
        <time>2015-01-04T08:31:08Z</time>
      </trkpt>
      <trkpt lat="47.26847" lon="-1.54495">
        <ele>24</ele>
        <time>2015-01-04T08:31:12Z</time>
      </trkpt>
      <trkpt lat="47.26844" lon="-1.54502">
        <ele>25.5</ele>
        <time>2015-01-04T08:31:14Z</time>
      </trkpt>
      <trkpt lat="47.2684" lon="-1.54506">
        <ele>25.5</ele>
        <time>2015-01-04T08:31:16Z</time>
      </trkpt>
      <trkpt lat="47.26836" lon="-1.54509">
        <ele>25.5</ele>
        <time>2015-01-04T08:31:18Z</time>
      </trkpt>
      <trkpt lat="47.2683" lon="-1.54513">
        <ele>26</ele>
        <time>2015-01-04T08:31:21Z</time>
      </trkpt>
      <trkpt lat="47.26828" lon="-1.5452">
        <ele>26</ele>
        <time>2015-01-04T08:31:23Z</time>
      </trkpt>
      <trkpt lat="47.26829" lon="-1.54529">
        <ele>26.1</ele>
        <time>2015-01-04T08:31:26Z</time>
      </trkpt>
      <trkpt lat="47.26834" lon="-1.54534">
        <ele>26.2</ele>
        <time>2015-01-04T08:31:29Z</time>
      </trkpt>
      <trkpt lat="47.2684" lon="-1.54536">
        <ele>26.2</ele>
        <time>2015-01-04T08:31:32Z</time>
      </trkpt>
      <trkpt lat="47.26844" lon="-1.54541">
        <ele>26.2</ele>
        <time>2015-01-04T08:31:35Z</time>
      </trkpt>
      <trkpt lat="47.26846" lon="-1.54548">
        <ele>26.5</ele>
        <time>2015-01-04T08:31:38Z</time>
      </trkpt>
      <trkpt lat="47.26846" lon="-1.54556">
        <ele>26.5</ele>
        <time>2015-01-04T08:31:41Z</time>
      </trkpt>
      <trkpt lat="47.26849" lon="-1.54564">
        <ele>26.7</ele>
        <time>2015-01-04T08:31:45Z</time>
      </trkpt>
      <trkpt lat="47.26854" lon="-1.54566">
        <ele>27</ele>
        <time>2015-01-04T08:31:48Z</time>
      </trkpt>
      <trkpt lat="47.26859" lon="-1.54566">
        <ele>27</ele>
        <time>2015-01-04T08:31:50Z</time>
      </trkpt>
      <trkpt lat="47.26869" lon="-1.54567">
        <ele>27.3</ele>
        <time>2015-01-04T08:31:54Z</time>
      </trkpt>
      <trkpt lat="47.26875" lon="-1.5457">
        <ele>27.6</ele>
        <time>2015-01-04T08:31:57Z</time>
      </trkpt>
      <trkpt lat="47.26878" lon="-1.54576">
        <ele>27.6</ele>
        <time>2015-01-04T08:32:00Z</time>
      </trkpt>
      <trkpt lat="47.26876" lon="-1.54597">
        <ele>28</ele>
        <time>2015-01-04T08:32:08Z</time>
      </trkpt>
      <trkpt lat="47.26877" lon="-1.54617">
        <ele>28.3</ele>
        <time>2015-01-04T08:32:12Z</time>
      </trkpt>
      <trkpt lat="47.26879" lon="-1.54623">
        <ele>28.8</ele>
        <time>2015-01-04T08:32:14Z</time>
      </trkpt>
      <trkpt lat="47.26885" lon="-1.54627">
        <ele>28.8</ele>
        <time>2015-01-04T08:32:17Z</time>
      </trkpt>
      <trkpt lat="47.2689" lon="-1.54628">
        <ele>28.9</ele>
        <time>2015-01-04T08:32:19Z</time>
      </trkpt>
      <trkpt lat="47.26897" lon="-1.5463">
        <ele>28.9</ele>
        <time>2015-01-04T08:32:21Z</time>
      </trkpt>
      <trkpt lat="47.26913" lon="-1.5463">
        <ele>29</ele>
        <time>2015-01-04T08:32:26Z</time>
      </trkpt>
      <trkpt lat="47.26926" lon="-1.54627">
        <ele>29.6</ele>
        <time>2015-01-04T08:32:30Z</time>
      </trkpt>
      <trkpt lat="47.26935" lon="-1.54623">
        <ele>29.8</ele>
        <time>2015-01-04T08:32:33Z</time>
      </trkpt>
      <trkpt lat="47.26944" lon="-1.54621">
        <ele>30</ele>
        <time>2015-01-04T08:32:36Z</time>
      </trkpt>
      <trkpt lat="47.26959" lon="-1.54616">
        <ele>30.1</ele>
        <time>2015-01-04T08:32:40Z</time>
      </trkpt>
      <trkpt lat="47.2697" lon="-1.54616">
        <ele>30.3</ele>
        <time>2015-01-04T08:32:43Z</time>
      </trkpt>
      <trkpt lat="47.2698" lon="-1.54615">
        <ele>30.5</ele>
        <time>2015-01-04T08:32:46Z</time>
      </trkpt>
      <trkpt lat="47.26992" lon="-1.54617">
        <ele>30.7</ele>
        <time>2015-01-04T08:32:49Z</time>
      </trkpt>
      <trkpt lat="47.27013" lon="-1.5462">
        <ele>31</ele>
        <time>2015-01-04T08:32:52Z</time>
      </trkpt>
      <trkpt lat="47.27025" lon="-1.54622">
        <ele>31</ele>
        <time>2015-01-04T08:32:55Z</time>
      </trkpt>
      <trkpt lat="47.27042" lon="-1.54625">
        <ele>31.2</ele>
        <time>2015-01-04T08:32:59Z</time>
      </trkpt>
      <trkpt lat="47.27057" lon="-1.54626">
        <ele>31.4</ele>
        <time>2015-01-04T08:33:02Z</time>
      </trkpt>
      <trkpt lat="47.27067" lon="-1.54626">
        <ele>31.6</ele>
        <time>2015-01-04T08:33:04Z</time>
      </trkpt>
      <trkpt lat="47.27079" lon="-1.54631">
        <ele>31.8</ele>
        <time>2015-01-04T08:33:07Z</time>
      </trkpt>
      <trkpt lat="47.27097" lon="-1.54635">
        <ele>32.2</ele>
        <time>2015-01-04T08:33:11Z</time>
      </trkpt>
      <trkpt lat="47.2711" lon="-1.54642">
        <ele>32.6</ele>
        <time>2015-01-04T08:33:14Z</time>
      </trkpt>
      <trkpt lat="47.27125" lon="-1.54646">
        <ele>32.8</ele>
        <time>2015-01-04T08:33:18Z</time>
      </trkpt>
      <trkpt lat="47.27136" lon="-1.54648">
        <ele>32.8</ele>
        <time>2015-01-04T08:33:21Z</time>
      </trkpt>
      <trkpt lat="47.27148" lon="-1.5465">
        <ele>32.9</ele>
        <time>2015-01-04T08:33:24Z</time>
      </trkpt>
      <trkpt lat="47.27157" lon="-1.54653">
        <ele>32.9</ele>
        <time>2015-01-04T08:33:26Z</time>
      </trkpt>
      <trkpt lat="47.27169" lon="-1.54658">
        <ele>32.9</ele>
        <time>2015-01-04T08:33:29Z</time>
      </trkpt>
      <trkpt lat="47.27178" lon="-1.54661">
        <ele>32.9</ele>
        <time>2015-01-04T08:33:31Z</time>
      </trkpt>
      <trkpt lat="47.27187" lon="-1.54663">
        <ele>33</ele>
        <time>2015-01-04T08:33:33Z</time>
      </trkpt>
      <trkpt lat="47.27196" lon="-1.54666">
        <ele>33</ele>
        <time>2015-01-04T08:33:35Z</time>
      </trkpt>
      <trkpt lat="47.27209" lon="-1.5467">
        <ele>33.1</ele>
        <time>2015-01-04T08:33:38Z</time>
      </trkpt>
      <trkpt lat="47.27219" lon="-1.54672">
        <ele>33.1</ele>
        <time>2015-01-04T08:33:40Z</time>
      </trkpt>
      <trkpt lat="47.27231" lon="-1.54674">
        <ele>33.1</ele>
        <time>2015-01-04T08:33:42Z</time>
      </trkpt>
      <trkpt lat="47.2724" lon="-1.54678">
        <ele>33.2</ele>
        <time>2015-01-04T08:33:44Z</time>
      </trkpt>
      <trkpt lat="47.27248" lon="-1.54681">
        <ele>33.1</ele>
        <time>2015-01-04T08:33:46Z</time>
      </trkpt>
      <trkpt lat="47.27257" lon="-1.54683">
        <ele>33.1</ele>
        <time>2015-01-04T08:33:48Z</time>
      </trkpt>
      <trkpt lat="47.27262" lon="-1.54684">
        <ele>33.1</ele>
        <time>2015-01-04T08:33:49Z</time>
      </trkpt>
      <trkpt lat="47.27274" lon="-1.5469">
        <ele>33.1</ele>
        <time>2015-01-04T08:33:52Z</time>
      </trkpt>
      <trkpt lat="47.27288" lon="-1.54695">
        <ele>33.1</ele>
        <time>2015-01-04T08:33:55Z</time>
      </trkpt>
      <trkpt lat="47.27307" lon="-1.54698">
        <ele>33.2</ele>
        <time>2015-01-04T08:33:59Z</time>
      </trkpt>
      <trkpt lat="47.27322" lon="-1.54701">
        <ele>33.3</ele>
        <time>2015-01-04T08:34:02Z</time>
      </trkpt>
      <trkpt lat="47.27332" lon="-1.54703">
        <ele>33.3</ele>
        <time>2015-01-04T08:34:04Z</time>
      </trkpt>
      <trkpt lat="47.27341" lon="-1.54707">
        <ele>33.3</ele>
        <time>2015-01-04T08:34:06Z</time>
      </trkpt>
      <trkpt lat="47.27356" lon="-1.54714">
        <ele>33.3</ele>
        <time>2015-01-04T08:34:09Z</time>
      </trkpt>
      <trkpt lat="47.27368" lon="-1.54724">
        <ele>33.4</ele>
        <time>2015-01-04T08:34:12Z</time>
      </trkpt>
      <trkpt lat="47.27379" lon="-1.54735">
        <ele>33.4</ele>
        <time>2015-01-04T08:34:15Z</time>
      </trkpt>
      <trkpt lat="47.27391" lon="-1.54751">
        <ele>33.5</ele>
        <time>2015-01-04T08:34:19Z</time>
      </trkpt>
      <trkpt lat="47.27401" lon="-1.54767">
        <ele>33.6</ele>
        <time>2015-01-04T08:34:23Z</time>
      </trkpt>
      <trkpt lat="47.27409" lon="-1.54775">
        <ele>33.6</ele>
        <time>2015-01-04T08:34:26Z</time>
      </trkpt>
      <trkpt lat="47.27424" lon="-1.54781">
        <ele>33.6</ele>
        <time>2015-01-04T08:34:30Z</time>
      </trkpt>
      <trkpt lat="47.27434" lon="-1.54775">
        <ele>33.6</ele>
        <time>2015-01-04T08:34:33Z</time>
      </trkpt>
      <trkpt lat="47.27444" lon="-1.54769">
        <ele>33.7</ele>
        <time>2015-01-04T08:34:36Z</time>
      </trkpt>
      <trkpt lat="47.27457" lon="-1.54757">
        <ele>33.7</ele>
        <time>2015-01-04T08:34:40Z</time>
      </trkpt>
      <trkpt lat="47.27467" lon="-1.54753">
        <ele>34</ele>
        <time>2015-01-04T08:34:43Z</time>
      </trkpt>
      <trkpt lat="47.27478" lon="-1.54752">
        <ele>34.2</ele>
        <time>2015-01-04T08:34:46Z</time>
      </trkpt>
      <trkpt lat="47.27493" lon="-1.54753">
        <ele>34.8</ele>
        <time>2015-01-04T08:34:50Z</time>
      </trkpt>
      <trkpt lat="47.27507" lon="-1.54756">
        <ele>35</ele>
        <time>2015-01-04T08:34:54Z</time>
      </trkpt>
      <trkpt lat="47.27522" lon="-1.54759">
        <ele>35.6</ele>
        <time>2015-01-04T08:34:58Z</time>
      </trkpt>
      <trkpt lat="47.27533" lon="-1.54761">
        <ele>36</ele>
        <time>2015-01-04T08:35:01Z</time>
      </trkpt>
      <trkpt lat="47.27544" lon="-1.54765">
        <ele>36.1</ele>
        <time>2015-01-04T08:35:04Z</time>
      </trkpt>
      <trkpt lat="47.27555" lon="-1.54767">
        <ele>36.3</ele>
        <time>2015-01-04T08:35:07Z</time>
      </trkpt>
      <trkpt lat="47.27567" lon="-1.54772">
        <ele>36.5</ele>
        <time>2015-01-04T08:35:10Z</time>
      </trkpt>
      <trkpt lat="47.27578" lon="-1.54778">
        <ele>36.9</ele>
        <time>2015-01-04T08:35:13Z</time>
      </trkpt>
      <trkpt lat="47.27588" lon="-1.54788">
        <ele>37.6</ele>
        <time>2015-01-04T08:35:16Z</time>
      </trkpt>
      <trkpt lat="47.27595" lon="-1.54811">
        <ele>38.5</ele>
        <time>2015-01-04T08:35:21Z</time>
      </trkpt>
      <trkpt lat="47.27608" lon="-1.54824">
        <ele>38.8</ele>
        <time>2015-01-04T08:35:25Z</time>
      </trkpt>
      <trkpt lat="47.27623" lon="-1.54829">
        <ele>38.9</ele>
        <time>2015-01-04T08:35:29Z</time>
      </trkpt>
      <trkpt lat="47.27639" lon="-1.54826">
        <ele>39.3</ele>
        <time>2015-01-04T08:35:33Z</time>
      </trkpt>
      <trkpt lat="47.27652" lon="-1.5482">
        <ele>39.6</ele>
        <time>2015-01-04T08:35:37Z</time>
      </trkpt>
      <trkpt lat="47.27663" lon="-1.54817">
        <ele>39.9</ele>
        <time>2015-01-04T08:35:40Z</time>
      </trkpt>
      <trkpt lat="47.27678" lon="-1.54817">
        <ele>40.6</ele>
        <time>2015-01-04T08:35:43Z</time>
      </trkpt>
      <trkpt lat="47.27692" lon="-1.54818">
        <ele>40.7</ele>
        <time>2015-01-04T08:35:46Z</time>
      </trkpt>
      <trkpt lat="47.27704" lon="-1.54822">
        <ele>40.9</ele>
        <time>2015-01-04T08:35:48Z</time>
      </trkpt>
      <trkpt lat="47.27714" lon="-1.54825">
        <ele>41</ele>
        <time>2015-01-04T08:35:50Z</time>
      </trkpt>
      <trkpt lat="47.27725" lon="-1.54827">
        <ele>41.1</ele>
        <time>2015-01-04T08:35:52Z</time>
      </trkpt>
      <trkpt lat="47.27734" lon="-1.5483">
        <ele>41.1</ele>
        <time>2015-01-04T08:35:54Z</time>
      </trkpt>
      <trkpt lat="47.27739" lon="-1.54833">
        <ele>41.1</ele>
        <time>2015-01-04T08:35:55Z</time>
      </trkpt>
      <trkpt lat="47.27744" lon="-1.54834">
        <ele>41.1</ele>
        <time>2015-01-04T08:35:56Z</time>
      </trkpt>
      <trkpt lat="47.2775" lon="-1.54835">
        <ele>41.1</ele>
        <time>2015-01-04T08:35:57Z</time>
      </trkpt>
      <trkpt lat="47.27755" lon="-1.54835">
        <ele>41.1</ele>
        <time>2015-01-04T08:35:58Z</time>
      </trkpt>
      <trkpt lat="47.27762" lon="-1.54836">
        <ele>41.1</ele>
        <time>2015-01-04T08:35:59Z</time>
      </trkpt>
      <trkpt lat="47.27777" lon="-1.54842">
        <ele>41.1</ele>
        <time>2015-01-04T08:36:02Z</time>
      </trkpt>
      <trkpt lat="47.27787" lon="-1.54845">
        <ele>41.1</ele>
        <time>2015-01-04T08:36:04Z</time>
      </trkpt>
      <trkpt lat="47.27805" lon="-1.54849">
        <ele>41.1</ele>
        <time>2015-01-04T08:36:07Z</time>
      </trkpt>
      <trkpt lat="47.27819" lon="-1.54855">
        <ele>41.1</ele>
        <time>2015-01-04T08:36:09Z</time>
      </trkpt>
      <trkpt lat="47.27846" lon="-1.54861">
        <ele>41.1</ele>
        <time>2015-01-04T08:36:13Z</time>
      </trkpt>
      <trkpt lat="47.27875" lon="-1.54868">
        <ele>41</ele>
        <time>2015-01-04T08:36:17Z</time>
      </trkpt>
      <trkpt lat="47.27889" lon="-1.54873">
        <ele>41</ele>
        <time>2015-01-04T08:36:19Z</time>
      </trkpt>
      <trkpt lat="47.27911" lon="-1.5488">
        <ele>40.7</ele>
        <time>2015-01-04T08:36:22Z</time>
      </trkpt>
      <trkpt lat="47.27925" lon="-1.54886">
        <ele>40.4</ele>
        <time>2015-01-04T08:36:24Z</time>
      </trkpt>
      <trkpt lat="47.27932" lon="-1.54888">
        <ele>40.1</ele>
        <time>2015-01-04T08:36:25Z</time>
      </trkpt>
      <trkpt lat="47.27939" lon="-1.5489">
        <ele>40.1</ele>
        <time>2015-01-04T08:36:26Z</time>
      </trkpt>
      <trkpt lat="47.27961" lon="-1.54895">
        <ele>40.1</ele>
        <time>2015-01-04T08:36:29Z</time>
      </trkpt>
      <trkpt lat="47.27983" lon="-1.549">
        <ele>39.7</ele>
        <time>2015-01-04T08:36:32Z</time>
      </trkpt>
      <trkpt lat="47.27998" lon="-1.54903">
        <ele>39.5</ele>
        <time>2015-01-04T08:36:34Z</time>
      </trkpt>
      <trkpt lat="47.28022" lon="-1.54912">
        <ele>39.4</ele>
        <time>2015-01-04T08:36:37Z</time>
      </trkpt>
      <trkpt lat="47.28035" lon="-1.54917">
        <ele>39</ele>
        <time>2015-01-04T08:36:39Z</time>
      </trkpt>
      <trkpt lat="47.28056" lon="-1.54922">
        <ele>38.4</ele>
        <time>2015-01-04T08:36:42Z</time>
      </trkpt>
      <trkpt lat="47.28075" lon="-1.54927">
        <ele>36.7</ele>
        <time>2015-01-04T08:36:45Z</time>
      </trkpt>
      <trkpt lat="47.28101" lon="-1.54935">
        <ele>34.5</ele>
        <time>2015-01-04T08:36:49Z</time>
      </trkpt>
      <trkpt lat="47.28112" lon="-1.54939">
        <ele>33.1</ele>
        <time>2015-01-04T08:36:51Z</time>
      </trkpt>
      <trkpt lat="47.28128" lon="-1.54944">
        <ele>32.9</ele>
        <time>2015-01-04T08:36:54Z</time>
      </trkpt>
      <trkpt lat="47.28139" lon="-1.54949">
        <ele>32.8</ele>
        <time>2015-01-04T08:36:56Z</time>
      </trkpt>
      <trkpt lat="47.28149" lon="-1.54952">
        <ele>32.8</ele>
        <time>2015-01-04T08:36:58Z</time>
      </trkpt>
      <trkpt lat="47.28161" lon="-1.54956">
        <ele>32.7</ele>
        <time>2015-01-04T08:37:00Z</time>
      </trkpt>
      <trkpt lat="47.28175" lon="-1.54958">
        <ele>31.8</ele>
        <time>2015-01-04T08:37:03Z</time>
      </trkpt>
      <trkpt lat="47.28196" lon="-1.54963">
        <ele>30.5</ele>
        <time>2015-01-04T08:37:07Z</time>
      </trkpt>
      <trkpt lat="47.28212" lon="-1.54971">
        <ele>29.6</ele>
        <time>2015-01-04T08:37:10Z</time>
      </trkpt>
      <trkpt lat="47.28222" lon="-1.5497">
        <ele>29.4</ele>
        <time>2015-01-04T08:37:12Z</time>
      </trkpt>
      <trkpt lat="47.28239" lon="-1.54972">
        <ele>29.2</ele>
        <time>2015-01-04T08:37:15Z</time>
      </trkpt>
      <trkpt lat="47.28256" lon="-1.54975">
        <ele>29</ele>
        <time>2015-01-04T08:37:18Z</time>
      </trkpt>
      <trkpt lat="47.2827" lon="-1.54976">
        <ele>28.9</ele>
        <time>2015-01-04T08:37:21Z</time>
      </trkpt>
      <trkpt lat="47.2828" lon="-1.54979">
        <ele>28.9</ele>
        <time>2015-01-04T08:37:23Z</time>
      </trkpt>
      <trkpt lat="47.28295" lon="-1.54988">
        <ele>28.7</ele>
        <time>2015-01-04T08:37:27Z</time>
      </trkpt>
      <trkpt lat="47.28303" lon="-1.54987">
        <ele>28.7</ele>
        <time>2015-01-04T08:37:29Z</time>
      </trkpt>
      <trkpt lat="47.2831" lon="-1.54981">
        <ele>28.7</ele>
        <time>2015-01-04T08:37:31Z</time>
      </trkpt>
      <trkpt lat="47.28315" lon="-1.54978">
        <ele>28.7</ele>
        <time>2015-01-04T08:37:32Z</time>
      </trkpt>
      <trkpt lat="47.28324" lon="-1.54976">
        <ele>28.7</ele>
        <time>2015-01-04T08:37:34Z</time>
      </trkpt>
      <trkpt lat="47.28338" lon="-1.54977">
        <ele>28.7</ele>
        <time>2015-01-04T08:37:37Z</time>
      </trkpt>
      <trkpt lat="47.28353" lon="-1.54978">
        <ele>28.7</ele>
        <time>2015-01-04T08:37:40Z</time>
      </trkpt>
      <trkpt lat="47.28371" lon="-1.54981">
        <ele>28.7</ele>
        <time>2015-01-04T08:37:44Z</time>
      </trkpt>
      <trkpt lat="47.28383" lon="-1.54981">
        <ele>28.7</ele>
        <time>2015-01-04T08:37:46Z</time>
      </trkpt>
      <trkpt lat="47.28396" lon="-1.54982">
        <ele>28.9</ele>
        <time>2015-01-04T08:37:49Z</time>
      </trkpt>
      <trkpt lat="47.28413" lon="-1.54985">
        <ele>28.9</ele>
        <time>2015-01-04T08:37:53Z</time>
      </trkpt>
      <trkpt lat="47.28432" lon="-1.54985">
        <ele>28.9</ele>
        <time>2015-01-04T08:37:57Z</time>
      </trkpt>
      <trkpt lat="47.2844" lon="-1.54988">
        <ele>29.1</ele>
        <time>2015-01-04T08:37:59Z</time>
      </trkpt>
      <trkpt lat="47.28449" lon="-1.54988">
        <ele>29.1</ele>
        <time>2015-01-04T08:38:01Z</time>
      </trkpt>
      <trkpt lat="47.28462" lon="-1.54987">
        <ele>29.2</ele>
        <time>2015-01-04T08:38:05Z</time>
      </trkpt>
      <trkpt lat="47.28475" lon="-1.5499">
        <ele>29.2</ele>
        <time>2015-01-04T08:38:08Z</time>
      </trkpt>
      <trkpt lat="47.28485" lon="-1.54988">
        <ele>29.2</ele>
        <time>2015-01-04T08:38:10Z</time>
      </trkpt>
      <trkpt lat="47.28503" lon="-1.54984">
        <ele>29.2</ele>
        <time>2015-01-04T08:38:14Z</time>
      </trkpt>
      <trkpt lat="47.28509" lon="-1.5498">
        <ele>29.2</ele>
        <time>2015-01-04T08:38:16Z</time>
      </trkpt>
      <trkpt lat="47.28512" lon="-1.54972">
        <ele>29.2</ele>
        <time>2015-01-04T08:38:18Z</time>
      </trkpt>
      <trkpt lat="47.28516" lon="-1.5495">
        <ele>29.2</ele>
        <time>2015-01-04T08:38:22Z</time>
      </trkpt>
      <trkpt lat="47.28524" lon="-1.54933">
        <ele>29.2</ele>
        <time>2015-01-04T08:38:26Z</time>
      </trkpt>
      <trkpt lat="47.28535" lon="-1.54926">
        <ele>29.2</ele>
        <time>2015-01-04T08:38:29Z</time>
      </trkpt>
      <trkpt lat="47.28547" lon="-1.54921">
        <ele>29.2</ele>
        <time>2015-01-04T08:38:32Z</time>
      </trkpt>
      <trkpt lat="47.28558" lon="-1.54907">
        <ele>28.9</ele>
        <time>2015-01-04T08:38:36Z</time>
      </trkpt>
      <trkpt lat="47.2856" lon="-1.54887">
        <ele>28.8</ele>
        <time>2015-01-04T08:38:39Z</time>
      </trkpt>
      <trkpt lat="47.2856" lon="-1.54865">
        <ele>28.6</ele>
        <time>2015-01-04T08:38:42Z</time>
      </trkpt>
      <trkpt lat="47.28561" lon="-1.54842">
        <ele>27.7</ele>
        <time>2015-01-04T08:38:46Z</time>
      </trkpt>
      <trkpt lat="47.28561" lon="-1.5482">
        <ele>27.2</ele>
        <time>2015-01-04T08:38:50Z</time>
      </trkpt>
      <trkpt lat="47.28563" lon="-1.54796">
        <ele>26.7</ele>
        <time>2015-01-04T08:38:54Z</time>
      </trkpt>
      <trkpt lat="47.28564" lon="-1.54775">
        <ele>26.3</ele>
        <time>2015-01-04T08:38:57Z</time>
      </trkpt>
      <trkpt lat="47.28565" lon="-1.54754">
        <ele>26.2</ele>
        <time>2015-01-04T08:39:00Z</time>
      </trkpt>
      <trkpt lat="47.28568" lon="-1.54732">
        <ele>25.7</ele>
        <time>2015-01-04T08:39:03Z</time>
      </trkpt>
      <trkpt lat="47.28571" lon="-1.54708">
        <ele>24.8</ele>
        <time>2015-01-04T08:39:07Z</time>
      </trkpt>
      <trkpt lat="47.28573" lon="-1.54688">
        <ele>24</ele>
        <time>2015-01-04T08:39:12Z</time>
      </trkpt>
      <trkpt lat="47.28574" lon="-1.54682">
        <ele>23.7</ele>
        <time>2015-01-04T08:39:16Z</time>
      </trkpt>
      <trkpt lat="47.28575" lon="-1.54681">
        <ele>23.4</ele>
        <time>2015-01-04T08:39:17Z</time>
      </trkpt>
      <trkpt lat="47.28575" lon="-1.54682">
        <ele>20.9</ele>
        <time>2015-01-04T08:39:21Z</time>
      </trkpt>
      <trkpt lat="47.28575" lon="-1.54682">
        <ele>22.5</ele>
        <time>2015-01-04T08:39:21Z</time>
      </trkpt>
      <trkpt lat="47.28575" lon="-1.54682">
        <ele>22.5</ele>
        <time>2015-01-04T08:39:40Z</time>
      </trkpt>
      <trkpt lat="47.28586" lon="-1.54691">
        <ele>22.6</ele>
        <time>2015-01-04T08:39:41Z</time>
      </trkpt>
      <trkpt lat="47.28595" lon="-1.54695">
        <ele>22.6</ele>
        <time>2015-01-04T08:39:43Z</time>
      </trkpt>
      <trkpt lat="47.28607" lon="-1.54702">
        <ele>22.6</ele>
        <time>2015-01-04T08:39:45Z</time>
      </trkpt>
      <trkpt lat="47.28616" lon="-1.5471">
        <ele>22.6</ele>
        <time>2015-01-04T08:39:47Z</time>
      </trkpt>
      <trkpt lat="47.28631" lon="-1.54719">
        <ele>22.6</ele>
        <time>2015-01-04T08:39:51Z</time>
      </trkpt>
      <trkpt lat="47.28646" lon="-1.54724">
        <ele>22.5</ele>
        <time>2015-01-04T08:39:55Z</time>
      </trkpt>
      <trkpt lat="47.28657" lon="-1.5473">
        <ele>22.4</ele>
        <time>2015-01-04T08:39:58Z</time>
      </trkpt>
      <trkpt lat="47.28668" lon="-1.54747">
        <ele>22.2</ele>
        <time>2015-01-04T08:40:02Z</time>
      </trkpt>
      <trkpt lat="47.28678" lon="-1.5475">
        <ele>22</ele>
        <time>2015-01-04T08:40:06Z</time>
      </trkpt>
      <trkpt lat="47.28687" lon="-1.54757">
        <ele>22</ele>
        <time>2015-01-04T08:40:09Z</time>
      </trkpt>
      <trkpt lat="47.28698" lon="-1.54762">
        <ele>22.1</ele>
        <time>2015-01-04T08:40:13Z</time>
      </trkpt>
      <trkpt lat="47.28708" lon="-1.5477">
        <ele>22.1</ele>
        <time>2015-01-04T08:40:17Z</time>
      </trkpt>
      <trkpt lat="47.28719" lon="-1.54776">
        <ele>22.1</ele>
        <time>2015-01-04T08:40:21Z</time>
      </trkpt>
      <trkpt lat="47.2873" lon="-1.54784">
        <ele>22.2</ele>
        <time>2015-01-04T08:40:25Z</time>
      </trkpt>
      <trkpt lat="47.28744" lon="-1.5479">
        <ele>22.2</ele>
        <time>2015-01-04T08:40:29Z</time>
      </trkpt>
      <trkpt lat="47.28756" lon="-1.54799">
        <ele>22.1</ele>
        <time>2015-01-04T08:40:33Z</time>
      </trkpt>
      <trkpt lat="47.2877" lon="-1.54805">
        <ele>22.1</ele>
        <time>2015-01-04T08:40:37Z</time>
      </trkpt>
      <trkpt lat="47.28781" lon="-1.5481">
        <ele>22.1</ele>
        <time>2015-01-04T08:40:40Z</time>
      </trkpt>
      <trkpt lat="47.28795" lon="-1.54814">
        <ele>22.1</ele>
        <time>2015-01-04T08:40:44Z</time>
      </trkpt>
      <trkpt lat="47.28806" lon="-1.54811">
        <ele>22.3</ele>
        <time>2015-01-04T08:40:47Z</time>
      </trkpt>
      <trkpt lat="47.28819" lon="-1.54813">
        <ele>22.3</ele>
        <time>2015-01-04T08:40:51Z</time>
      </trkpt>
      <trkpt lat="47.28833" lon="-1.54818">
        <ele>22.3</ele>
        <time>2015-01-04T08:40:54Z</time>
      </trkpt>
      <trkpt lat="47.28842" lon="-1.54822">
        <ele>22.3</ele>
        <time>2015-01-04T08:40:57Z</time>
      </trkpt>
      <trkpt lat="47.28855" lon="-1.54824">
        <ele>22.8</ele>
        <time>2015-01-04T08:41:01Z</time>
      </trkpt>
      <trkpt lat="47.28863" lon="-1.54831">
        <ele>23.1</ele>
        <time>2015-01-04T08:41:04Z</time>
      </trkpt>
      <trkpt lat="47.28874" lon="-1.54839">
        <ele>23.8</ele>
        <time>2015-01-04T08:41:09Z</time>
      </trkpt>
      <trkpt lat="47.28885" lon="-1.54844">
        <ele>24</ele>
        <time>2015-01-04T08:41:13Z</time>
      </trkpt>
      <trkpt lat="47.28894" lon="-1.54847">
        <ele>24.2</ele>
        <time>2015-01-04T08:41:16Z</time>
      </trkpt>
      <trkpt lat="47.28908" lon="-1.54849">
        <ele>24.3</ele>
        <time>2015-01-04T08:41:19Z</time>
      </trkpt>
      <trkpt lat="47.28926" lon="-1.5485">
        <ele>24.5</ele>
        <time>2015-01-04T08:41:23Z</time>
      </trkpt>
      <trkpt lat="47.28944" lon="-1.54857">
        <ele>24.5</ele>
        <time>2015-01-04T08:41:27Z</time>
      </trkpt>
      <trkpt lat="47.28954" lon="-1.54856">
        <ele>24.5</ele>
        <time>2015-01-04T08:41:30Z</time>
      </trkpt>
      <trkpt lat="47.28965" lon="-1.54861">
        <ele>24.5</ele>
        <time>2015-01-04T08:41:33Z</time>
      </trkpt>
      <trkpt lat="47.28975" lon="-1.54859">
        <ele>24.6</ele>
        <time>2015-01-04T08:41:35Z</time>
      </trkpt>
      <trkpt lat="47.28982" lon="-1.54857">
        <ele>24.6</ele>
        <time>2015-01-04T08:41:37Z</time>
      </trkpt>
      <trkpt lat="47.2899" lon="-1.54855">
        <ele>24.6</ele>
        <time>2015-01-04T08:41:40Z</time>
      </trkpt>
      <trkpt lat="47.29001" lon="-1.54852">
        <ele>24.6</ele>
        <time>2015-01-04T08:41:48Z</time>
      </trkpt>
      <trkpt lat="47.29016" lon="-1.54851">
        <ele>24.6</ele>
        <time>2015-01-04T08:41:52Z</time>
      </trkpt>
      <trkpt lat="47.29028" lon="-1.54847">
        <ele>24.4</ele>
        <time>2015-01-04T08:41:55Z</time>
      </trkpt>
      <trkpt lat="47.29045" lon="-1.54835">
        <ele>24.4</ele>
        <time>2015-01-04T08:41:58Z</time>
      </trkpt>
      <trkpt lat="47.29057" lon="-1.54822">
        <ele>24.3</ele>
        <time>2015-01-04T08:42:01Z</time>
      </trkpt>
      <trkpt lat="47.29069" lon="-1.5481">
        <ele>24</ele>
        <time>2015-01-04T08:42:04Z</time>
      </trkpt>
      <trkpt lat="47.29082" lon="-1.54793">
        <ele>23.8</ele>
        <time>2015-01-04T08:42:08Z</time>
      </trkpt>
      <trkpt lat="47.29097" lon="-1.54777">
        <ele>23.7</ele>
        <time>2015-01-04T08:42:11Z</time>
      </trkpt>
      <trkpt lat="47.29112" lon="-1.54761">
        <ele>23.5</ele>
        <time>2015-01-04T08:42:14Z</time>
      </trkpt>
      <trkpt lat="47.29124" lon="-1.54747">
        <ele>23.3</ele>
        <time>2015-01-04T08:42:18Z</time>
      </trkpt>
      <trkpt lat="47.29136" lon="-1.54746">
        <ele>23</ele>
        <time>2015-01-04T08:42:25Z</time>
      </trkpt>
      <trkpt lat="47.29146" lon="-1.54749">
        <ele>21.9</ele>
        <time>2015-01-04T08:42:30Z</time>
      </trkpt>
      <trkpt lat="47.29149" lon="-1.54753">
        <ele>21.4</ele>
        <time>2015-01-04T08:42:36Z</time>
      </trkpt>
      <trkpt lat="47.29156" lon="-1.54755">
        <ele>21.4</ele>
        <time>2015-01-04T08:42:39Z</time>
      </trkpt>
      <trkpt lat="47.29165" lon="-1.54759">
        <ele>21.4</ele>
        <time>2015-01-04T08:42:43Z</time>
      </trkpt>
      <trkpt lat="47.2917" lon="-1.54762">
        <ele>21.4</ele>
        <time>2015-01-04T08:42:45Z</time>
      </trkpt>
      <trkpt lat="47.29174" lon="-1.54764">
        <ele>21.4</ele>
        <time>2015-01-04T08:42:47Z</time>
      </trkpt>
      <trkpt lat="47.29183" lon="-1.54769">
        <ele>21.4</ele>
        <time>2015-01-04T08:42:51Z</time>
      </trkpt>
      <trkpt lat="47.29193" lon="-1.54774">
        <ele>21.4</ele>
        <time>2015-01-04T08:42:55Z</time>
      </trkpt>
      <trkpt lat="47.29198" lon="-1.54776">
        <ele>21.4</ele>
        <time>2015-01-04T08:42:57Z</time>
      </trkpt>
      <trkpt lat="47.29204" lon="-1.54776">
        <ele>21.4</ele>
        <time>2015-01-04T08:42:59Z</time>
      </trkpt>
      <trkpt lat="47.29214" lon="-1.54778">
        <ele>21.4</ele>
        <time>2015-01-04T08:43:03Z</time>
      </trkpt>
      <trkpt lat="47.29222" lon="-1.54781">
        <ele>23</ele>
        <time>2015-01-04T08:43:06Z</time>
      </trkpt>
      <trkpt lat="47.29226" lon="-1.54781">
        <ele>23</ele>
        <time>2015-01-04T08:43:08Z</time>
      </trkpt>
      <trkpt lat="47.29239" lon="-1.54782">
        <ele>23.4</ele>
        <time>2015-01-04T08:43:12Z</time>
      </trkpt>
      <trkpt lat="47.29245" lon="-1.54783">
        <ele>24.7</ele>
        <time>2015-01-04T08:43:14Z</time>
      </trkpt>
      <trkpt lat="47.29252" lon="-1.54783">
        <ele>24.7</ele>
        <time>2015-01-04T08:43:16Z</time>
      </trkpt>
      <trkpt lat="47.29262" lon="-1.54783">
        <ele>25</ele>
        <time>2015-01-04T08:43:19Z</time>
      </trkpt>
      <trkpt lat="47.29275" lon="-1.54781">
        <ele>25.7</ele>
        <time>2015-01-04T08:43:23Z</time>
      </trkpt>
      <trkpt lat="47.2929" lon="-1.54785">
        <ele>26.1</ele>
        <time>2015-01-04T08:43:28Z</time>
      </trkpt>
      <trkpt lat="47.29301" lon="-1.54787">
        <ele>26.4</ele>
        <time>2015-01-04T08:43:31Z</time>
      </trkpt>
      <trkpt lat="47.29316" lon="-1.54784">
        <ele>26.5</ele>
        <time>2015-01-04T08:43:35Z</time>
      </trkpt>
      <trkpt lat="47.2933" lon="-1.54772">
        <ele>26.5</ele>
        <time>2015-01-04T08:43:39Z</time>
      </trkpt>
      <trkpt lat="47.29343" lon="-1.54761">
        <ele>26.5</ele>
        <time>2015-01-04T08:43:43Z</time>
      </trkpt>
      <trkpt lat="47.29355" lon="-1.54748">
        <ele>26.5</ele>
        <time>2015-01-04T08:43:47Z</time>
      </trkpt>
      <trkpt lat="47.29367" lon="-1.54739">
        <ele>26.5</ele>
        <time>2015-01-04T08:43:52Z</time>
      </trkpt>
      <trkpt lat="47.29379" lon="-1.54742">
        <ele>26.5</ele>
        <time>2015-01-04T08:43:55Z</time>
      </trkpt>
      <trkpt lat="47.29388" lon="-1.54748">
        <ele>26.5</ele>
        <time>2015-01-04T08:43:58Z</time>
      </trkpt>
      <trkpt lat="47.29392" lon="-1.54751">
        <ele>26.4</ele>
        <time>2015-01-04T08:44:00Z</time>
      </trkpt>
      <trkpt lat="47.29397" lon="-1.54755">
        <ele>26.4</ele>
        <time>2015-01-04T08:44:03Z</time>
      </trkpt>
      <trkpt lat="47.29405" lon="-1.54764">
        <ele>26.3</ele>
        <time>2015-01-04T08:44:07Z</time>
      </trkpt>
      <trkpt lat="47.2941" lon="-1.54766">
        <ele>26.2</ele>
        <time>2015-01-04T08:44:09Z</time>
      </trkpt>
      <trkpt lat="47.29417" lon="-1.54767">
        <ele>26.2</ele>
        <time>2015-01-04T08:44:11Z</time>
      </trkpt>
      <trkpt lat="47.29432" lon="-1.54766">
        <ele>26</ele>
        <time>2015-01-04T08:44:15Z</time>
      </trkpt>
      <trkpt lat="47.29445" lon="-1.54763">
        <ele>25.9</ele>
        <time>2015-01-04T08:44:18Z</time>
      </trkpt>
      <trkpt lat="47.29459" lon="-1.54763">
        <ele>25.9</ele>
        <time>2015-01-04T08:44:21Z</time>
      </trkpt>
      <trkpt lat="47.2947" lon="-1.54763">
        <ele>25.8</ele>
        <time>2015-01-04T08:44:23Z</time>
      </trkpt>
      <trkpt lat="47.29487" lon="-1.54764">
        <ele>25.8</ele>
        <time>2015-01-04T08:44:26Z</time>
      </trkpt>
      <trkpt lat="47.295" lon="-1.54766">
        <ele>25.7</ele>
        <time>2015-01-04T08:44:29Z</time>
      </trkpt>
      <trkpt lat="47.29515" lon="-1.54766">
        <ele>25.5</ele>
        <time>2015-01-04T08:44:32Z</time>
      </trkpt>
      <trkpt lat="47.29525" lon="-1.54765">
        <ele>25.5</ele>
        <time>2015-01-04T08:44:34Z</time>
      </trkpt>
      <trkpt lat="47.29538" lon="-1.54765">
        <ele>25.5</ele>
        <time>2015-01-04T08:44:37Z</time>
      </trkpt>
      <trkpt lat="47.29551" lon="-1.54764">
        <ele>25.5</ele>
        <time>2015-01-04T08:44:39Z</time>
      </trkpt>
      <trkpt lat="47.29572" lon="-1.54763">
        <ele>25.4</ele>
        <time>2015-01-04T08:44:43Z</time>
      </trkpt>
      <trkpt lat="47.29587" lon="-1.54763">
        <ele>25.4</ele>
        <time>2015-01-04T08:44:46Z</time>
      </trkpt>
      <trkpt lat="47.29602" lon="-1.54757">
        <ele>25.4</ele>
        <time>2015-01-04T08:44:49Z</time>
      </trkpt>
      <trkpt lat="47.29612" lon="-1.54758">
        <ele>25.4</ele>
        <time>2015-01-04T08:44:52Z</time>
      </trkpt>
      <trkpt lat="47.2963" lon="-1.54759">
        <ele>25.5</ele>
        <time>2015-01-04T08:44:55Z</time>
      </trkpt>
      <trkpt lat="47.29642" lon="-1.54758">
        <ele>25.7</ele>
        <time>2015-01-04T08:44:57Z</time>
      </trkpt>
      <trkpt lat="47.29663" lon="-1.54758">
        <ele>26</ele>
        <time>2015-01-04T08:45:01Z</time>
      </trkpt>
      <trkpt lat="47.29673" lon="-1.54738">
        <ele>27.3</ele>
        <time>2015-01-04T08:45:05Z</time>
      </trkpt>
      <trkpt lat="47.2967" lon="-1.54716">
        <ele>27.6</ele>
        <time>2015-01-04T08:45:08Z</time>
      </trkpt>
      <trkpt lat="47.29663" lon="-1.54693">
        <ele>27.7</ele>
        <time>2015-01-04T08:45:11Z</time>
      </trkpt>
      <trkpt lat="47.29652" lon="-1.54673">
        <ele>27.7</ele>
        <time>2015-01-04T08:45:14Z</time>
      </trkpt>
      <trkpt lat="47.29649" lon="-1.54652">
        <ele>27.7</ele>
        <time>2015-01-04T08:45:17Z</time>
      </trkpt>
      <trkpt lat="47.29646" lon="-1.54633">
        <ele>27.7</ele>
        <time>2015-01-04T08:45:19Z</time>
      </trkpt>
      <trkpt lat="47.29653" lon="-1.54614">
        <ele>27.7</ele>
        <time>2015-01-04T08:45:21Z</time>
      </trkpt>
      <trkpt lat="47.29652" lon="-1.54589">
        <ele>27.7</ele>
        <time>2015-01-04T08:45:24Z</time>
      </trkpt>
      <trkpt lat="47.29653" lon="-1.54569">
        <ele>27.7</ele>
        <time>2015-01-04T08:45:26Z</time>
      </trkpt>
      <trkpt lat="47.2966" lon="-1.54544">
        <ele>27.7</ele>
        <time>2015-01-04T08:45:29Z</time>
      </trkpt>
      <trkpt lat="47.2967" lon="-1.54522">
        <ele>27.7</ele>
        <time>2015-01-04T08:45:32Z</time>
      </trkpt>
      <trkpt lat="47.29681" lon="-1.54503">
        <ele>27.7</ele>
        <time>2015-01-04T08:45:35Z</time>
      </trkpt>
      <trkpt lat="47.29694" lon="-1.54485">
        <ele>27.5</ele>
        <time>2015-01-04T08:45:38Z</time>
      </trkpt>
      <trkpt lat="47.2971" lon="-1.54469">
        <ele>27.2</ele>
        <time>2015-01-04T08:45:41Z</time>
      </trkpt>
      <trkpt lat="47.29724" lon="-1.54456">
        <ele>26.6</ele>
        <time>2015-01-04T08:45:44Z</time>
      </trkpt>
      <trkpt lat="47.29739" lon="-1.54443">
        <ele>25.6</ele>
        <time>2015-01-04T08:45:47Z</time>
      </trkpt>
      <trkpt lat="47.29751" lon="-1.54431">
        <ele>25.1</ele>
        <time>2015-01-04T08:45:49Z</time>
      </trkpt>
      <trkpt lat="47.29765" lon="-1.54419">
        <ele>23.7</ele>
        <time>2015-01-04T08:45:53Z</time>
      </trkpt>
      <trkpt lat="47.29778" lon="-1.54406">
        <ele>23.3</ele>
        <time>2015-01-04T08:45:56Z</time>
      </trkpt>
      <trkpt lat="47.29792" lon="-1.54392">
        <ele>21.8</ele>
        <time>2015-01-04T08:46:00Z</time>
      </trkpt>
      <trkpt lat="47.29806" lon="-1.54378">
        <ele>21.4</ele>
        <time>2015-01-04T08:46:03Z</time>
      </trkpt>
      <trkpt lat="47.29818" lon="-1.54364">
        <ele>20.9</ele>
        <time>2015-01-04T08:46:06Z</time>
      </trkpt>
      <trkpt lat="47.2983" lon="-1.5435">
        <ele>20.5</ele>
        <time>2015-01-04T08:46:09Z</time>
      </trkpt>
      <trkpt lat="47.29842" lon="-1.54333">
        <ele>20.3</ele>
        <time>2015-01-04T08:46:12Z</time>
      </trkpt>
      <trkpt lat="47.29852" lon="-1.54318">
        <ele>20.2</ele>
        <time>2015-01-04T08:46:15Z</time>
      </trkpt>
      <trkpt lat="47.29861" lon="-1.54299">
        <ele>20.1</ele>
        <time>2015-01-04T08:46:18Z</time>
      </trkpt>
      <trkpt lat="47.29869" lon="-1.54281">
        <ele>19.9</ele>
        <time>2015-01-04T08:46:21Z</time>
      </trkpt>
      <trkpt lat="47.29877" lon="-1.5426">
        <ele>19.7</ele>
        <time>2015-01-04T08:46:24Z</time>
      </trkpt>
      <trkpt lat="47.29885" lon="-1.54238">
        <ele>19</ele>
        <time>2015-01-04T08:46:27Z</time>
      </trkpt>
      <trkpt lat="47.29891" lon="-1.54218">
        <ele>18.4</ele>
        <time>2015-01-04T08:46:31Z</time>
      </trkpt>
      <trkpt lat="47.29904" lon="-1.54224">
        <ele>17.5</ele>
        <time>2015-01-04T08:46:38Z</time>
      </trkpt>
      <trkpt lat="47.29905" lon="-1.54232">
        <ele>16.1</ele>
        <time>2015-01-04T08:46:41Z</time>
      </trkpt>
      <trkpt lat="47.29905" lon="-1.54234">
        <ele>12.8</ele>
        <time>2015-01-04T08:46:45Z</time>
      </trkpt>
      <trkpt lat="47.29905" lon="-1.54234">
        <ele>14.6</ele>
        <time>2015-01-04T08:46:45Z</time>
      </trkpt>
      <trkpt lat="47.29905" lon="-1.54234">
        <ele>14.6</ele>
        <time>2015-01-04T08:47:01Z</time>
      </trkpt>
      <trkpt lat="47.29903" lon="-1.5421">
        <ele>13.1</ele>
        <time>2015-01-04T08:47:04Z</time>
      </trkpt>
      <trkpt lat="47.29902" lon="-1.5421">
        <ele>12.9</ele>
        <time>2015-01-04T08:47:07Z</time>
      </trkpt>
      <trkpt lat="47.29902" lon="-1.54206">
        <ele>13.3</ele>
        <time>2015-01-04T08:47:11Z</time>
      </trkpt>
      <trkpt lat="47.29902" lon="-1.54206">
        <ele>14.5</ele>
        <time>2015-01-04T08:47:11Z</time>
      </trkpt>
      <trkpt lat="47.29902" lon="-1.54206">
        <ele>14.5</ele>
        <time>2015-01-04T08:47:20Z</time>
      </trkpt>
      <trkpt lat="47.29905" lon="-1.5423">
        <ele>12.8</ele>
        <time>2015-01-04T08:47:21Z</time>
      </trkpt>
      <trkpt lat="47.29885" lon="-1.54239">
        <ele>12.8</ele>
        <time>2015-01-04T08:47:23Z</time>
      </trkpt>
      <trkpt lat="47.29877" lon="-1.54259">
        <ele>12.8</ele>
        <time>2015-01-04T08:47:28Z</time>
      </trkpt>
      <trkpt lat="47.29872" lon="-1.54278">
        <ele>12.9</ele>
        <time>2015-01-04T08:47:32Z</time>
      </trkpt>
      <trkpt lat="47.29866" lon="-1.54297">
        <ele>13</ele>
        <time>2015-01-04T08:47:35Z</time>
      </trkpt>
      <trkpt lat="47.29854" lon="-1.54317">
        <ele>13</ele>
        <time>2015-01-04T08:47:39Z</time>
      </trkpt>
      <trkpt lat="47.29843" lon="-1.54337">
        <ele>13.2</ele>
        <time>2015-01-04T08:47:43Z</time>
      </trkpt>
      <trkpt lat="47.29832" lon="-1.54351">
        <ele>13.3</ele>
        <time>2015-01-04T08:47:46Z</time>
      </trkpt>
      <trkpt lat="47.2982" lon="-1.54367">
        <ele>13.4</ele>
        <time>2015-01-04T08:47:49Z</time>
      </trkpt>
      <trkpt lat="47.29804" lon="-1.54385">
        <ele>13.9</ele>
        <time>2015-01-04T08:47:53Z</time>
      </trkpt>
      <trkpt lat="47.29791" lon="-1.54393">
        <ele>14.2</ele>
        <time>2015-01-04T08:47:56Z</time>
      </trkpt>
      <trkpt lat="47.29776" lon="-1.54408">
        <ele>14.5</ele>
        <time>2015-01-04T08:48:00Z</time>
      </trkpt>
      <trkpt lat="47.29761" lon="-1.54422">
        <ele>15.1</ele>
        <time>2015-01-04T08:48:05Z</time>
      </trkpt>
      <trkpt lat="47.29748" lon="-1.54434">
        <ele>15.7</ele>
        <time>2015-01-04T08:48:08Z</time>
      </trkpt>
      <trkpt lat="47.29735" lon="-1.54446">
        <ele>16</ele>
        <time>2015-01-04T08:48:11Z</time>
      </trkpt>
      <trkpt lat="47.29723" lon="-1.54458">
        <ele>16.4</ele>
        <time>2015-01-04T08:48:14Z</time>
      </trkpt>
      <trkpt lat="47.29709" lon="-1.5447">
        <ele>16.5</ele>
        <time>2015-01-04T08:48:17Z</time>
      </trkpt>
      <trkpt lat="47.29695" lon="-1.54483">
        <ele>16.7</ele>
        <time>2015-01-04T08:48:20Z</time>
      </trkpt>
      <trkpt lat="47.29682" lon="-1.545">
        <ele>17</ele>
        <time>2015-01-04T08:48:23Z</time>
      </trkpt>
      <trkpt lat="47.29673" lon="-1.54516">
        <ele>17.3</ele>
        <time>2015-01-04T08:48:26Z</time>
      </trkpt>
      <trkpt lat="47.29664" lon="-1.54534">
        <ele>18.4</ele>
        <time>2015-01-04T08:48:30Z</time>
      </trkpt>
      <trkpt lat="47.29656" lon="-1.54557">
        <ele>19.3</ele>
        <time>2015-01-04T08:48:33Z</time>
      </trkpt>
      <trkpt lat="47.29652" lon="-1.54579">
        <ele>19.7</ele>
        <time>2015-01-04T08:48:37Z</time>
      </trkpt>
      <trkpt lat="47.29652" lon="-1.54598">
        <ele>19.9</ele>
        <time>2015-01-04T08:48:41Z</time>
      </trkpt>
      <trkpt lat="47.29654" lon="-1.54626">
        <ele>20</ele>
        <time>2015-01-04T08:48:44Z</time>
      </trkpt>
      <trkpt lat="47.29656" lon="-1.54647">
        <ele>20</ele>
        <time>2015-01-04T08:48:47Z</time>
      </trkpt>
      <trkpt lat="47.29658" lon="-1.54662">
        <ele>20.2</ele>
        <time>2015-01-04T08:48:52Z</time>
      </trkpt>
      <trkpt lat="47.29667" lon="-1.54679">
        <ele>20.3</ele>
        <time>2015-01-04T08:48:54Z</time>
      </trkpt>
      <trkpt lat="47.29674" lon="-1.547">
        <ele>20.6</ele>
        <time>2015-01-04T08:48:58Z</time>
      </trkpt>
      <trkpt lat="47.29679" lon="-1.54723">
        <ele>21.3</ele>
        <time>2015-01-04T08:49:02Z</time>
      </trkpt>
      <trkpt lat="47.29686" lon="-1.54744">
        <ele>21.9</ele>
        <time>2015-01-04T08:49:06Z</time>
      </trkpt>
      <trkpt lat="47.29695" lon="-1.54762">
        <ele>22.3</ele>
        <time>2015-01-04T08:49:10Z</time>
      </trkpt>
      <trkpt lat="47.29704" lon="-1.54786">
        <ele>22.5</ele>
        <time>2015-01-04T08:49:14Z</time>
      </trkpt>
      <trkpt lat="47.29712" lon="-1.54809">
        <ele>22.9</ele>
        <time>2015-01-04T08:49:18Z</time>
      </trkpt>
      <trkpt lat="47.29719" lon="-1.54829">
        <ele>23.6</ele>
        <time>2015-01-04T08:49:22Z</time>
      </trkpt>
      <trkpt lat="47.29725" lon="-1.54847">
        <ele>24.5</ele>
        <time>2015-01-04T08:49:26Z</time>
      </trkpt>
      <trkpt lat="47.29734" lon="-1.54869">
        <ele>24.7</ele>
        <time>2015-01-04T08:49:28Z</time>
      </trkpt>
      <trkpt lat="47.2976" lon="-1.54846">
        <ele>25.6</ele>
        <time>2015-01-04T08:49:35Z</time>
      </trkpt>
      <trkpt lat="47.2977" lon="-1.54842">
        <ele>26.4</ele>
        <time>2015-01-04T08:49:37Z</time>
      </trkpt>
      <trkpt lat="47.2978" lon="-1.54836">
        <ele>26.9</ele>
        <time>2015-01-04T08:49:39Z</time>
      </trkpt>
      <trkpt lat="47.29791" lon="-1.54833">
        <ele>27.2</ele>
        <time>2015-01-04T08:49:41Z</time>
      </trkpt>
      <trkpt lat="47.29807" lon="-1.54829">
        <ele>27.5</ele>
        <time>2015-01-04T08:49:45Z</time>
      </trkpt>
      <trkpt lat="47.29817" lon="-1.54826">
        <ele>27.5</ele>
        <time>2015-01-04T08:49:47Z</time>
      </trkpt>
      <trkpt lat="47.29828" lon="-1.54823">
        <ele>27.5</ele>
        <time>2015-01-04T08:49:50Z</time>
      </trkpt>
      <trkpt lat="47.29837" lon="-1.5482">
        <ele>27.5</ele>
        <time>2015-01-04T08:49:52Z</time>
      </trkpt>
      <trkpt lat="47.29857" lon="-1.54815">
        <ele>27.6</ele>
        <time>2015-01-04T08:49:56Z</time>
      </trkpt>
      <trkpt lat="47.29874" lon="-1.5481">
        <ele>27.6</ele>
        <time>2015-01-04T08:49:59Z</time>
      </trkpt>
      <trkpt lat="47.29884" lon="-1.54807">
        <ele>27.6</ele>
        <time>2015-01-04T08:50:01Z</time>
      </trkpt>
      <trkpt lat="47.29894" lon="-1.54804">
        <ele>27.6</ele>
        <time>2015-01-04T08:50:03Z</time>
      </trkpt>
      <trkpt lat="47.29906" lon="-1.54801">
        <ele>27.6</ele>
        <time>2015-01-04T08:50:06Z</time>
      </trkpt>
      <trkpt lat="47.29917" lon="-1.54798">
        <ele>27.6</ele>
        <time>2015-01-04T08:50:08Z</time>
      </trkpt>
      <trkpt lat="47.29926" lon="-1.54796">
        <ele>27.6</ele>
        <time>2015-01-04T08:50:10Z</time>
      </trkpt>
      <trkpt lat="47.29948" lon="-1.54789">
        <ele>27.5</ele>
        <time>2015-01-04T08:50:15Z</time>
      </trkpt>
      <trkpt lat="47.29959" lon="-1.54786">
        <ele>27.4</ele>
        <time>2015-01-04T08:50:17Z</time>
      </trkpt>
      <trkpt lat="47.29981" lon="-1.54778">
        <ele>27.2</ele>
        <time>2015-01-04T08:50:21Z</time>
      </trkpt>
      <trkpt lat="47.30002" lon="-1.54772">
        <ele>26.9</ele>
        <time>2015-01-04T08:50:25Z</time>
      </trkpt>
      <trkpt lat="47.3001" lon="-1.5477">
        <ele>26.5</ele>
        <time>2015-01-04T08:50:26Z</time>
      </trkpt>
      <trkpt lat="47.30033" lon="-1.54762">
        <ele>26.5</ele>
        <time>2015-01-04T08:50:30Z</time>
      </trkpt>
      <trkpt lat="47.30058" lon="-1.54752">
        <ele>26.5</ele>
        <time>2015-01-04T08:50:35Z</time>
      </trkpt>
      <trkpt lat="47.30063" lon="-1.54751">
        <ele>26.5</ele>
        <time>2015-01-04T08:50:36Z</time>
      </trkpt>
      <trkpt lat="47.30083" lon="-1.54742">
        <ele>26.5</ele>
        <time>2015-01-04T08:50:40Z</time>
      </trkpt>
      <trkpt lat="47.30105" lon="-1.54741">
        <ele>26.5</ele>
        <time>2015-01-04T08:50:44Z</time>
      </trkpt>
      <trkpt lat="47.30116" lon="-1.54736">
        <ele>26.4</ele>
        <time>2015-01-04T08:50:46Z</time>
      </trkpt>
      <trkpt lat="47.30127" lon="-1.54729">
        <ele>26.2</ele>
        <time>2015-01-04T08:50:48Z</time>
      </trkpt>
      <trkpt lat="47.30132" lon="-1.54727">
        <ele>26.1</ele>
        <time>2015-01-04T08:50:49Z</time>
      </trkpt>
      <trkpt lat="47.30138" lon="-1.54723">
        <ele>26.1</ele>
        <time>2015-01-04T08:50:50Z</time>
      </trkpt>
      <trkpt lat="47.3015" lon="-1.54718">
        <ele>26.1</ele>
        <time>2015-01-04T08:50:52Z</time>
      </trkpt>
      <trkpt lat="47.30156" lon="-1.54713">
        <ele>26.1</ele>
        <time>2015-01-04T08:50:53Z</time>
      </trkpt>
      <trkpt lat="47.30183" lon="-1.54697">
        <ele>26</ele>
        <time>2015-01-04T08:50:57Z</time>
      </trkpt>
      <trkpt lat="47.30197" lon="-1.54688">
        <ele>26</ele>
        <time>2015-01-04T08:50:59Z</time>
      </trkpt>
      <trkpt lat="47.30214" lon="-1.54683">
        <ele>25.9</ele>
        <time>2015-01-04T08:51:02Z</time>
      </trkpt>
      <trkpt lat="47.30241" lon="-1.54667">
        <ele>25.9</ele>
        <time>2015-01-04T08:51:06Z</time>
      </trkpt>
      <trkpt lat="47.30258" lon="-1.54657">
        <ele>25.9</ele>
        <time>2015-01-04T08:51:09Z</time>
      </trkpt>
      <trkpt lat="47.30274" lon="-1.54654">
        <ele>25.9</ele>
        <time>2015-01-04T08:51:11Z</time>
      </trkpt>
      <trkpt lat="47.30289" lon="-1.5465">
        <ele>25.9</ele>
        <time>2015-01-04T08:51:13Z</time>
      </trkpt>
      <trkpt lat="47.30308" lon="-1.54658">
        <ele>25.8</ele>
        <time>2015-01-04T08:51:16Z</time>
      </trkpt>
      <trkpt lat="47.30317" lon="-1.54661">
        <ele>25.7</ele>
        <time>2015-01-04T08:51:18Z</time>
      </trkpt>
      <trkpt lat="47.30326" lon="-1.54666">
        <ele>25.6</ele>
        <time>2015-01-04T08:51:20Z</time>
      </trkpt>
      <trkpt lat="47.30339" lon="-1.54666">
        <ele>25.3</ele>
        <time>2015-01-04T08:51:23Z</time>
      </trkpt>
      <trkpt lat="47.30349" lon="-1.54659">
        <ele>25</ele>
        <time>2015-01-04T08:51:26Z</time>
      </trkpt>
      <trkpt lat="47.30358" lon="-1.54657">
        <ele>24.8</ele>
        <time>2015-01-04T08:51:28Z</time>
      </trkpt>
      <trkpt lat="47.30362" lon="-1.54655">
        <ele>24.5</ele>
        <time>2015-01-04T08:51:29Z</time>
      </trkpt>
      <trkpt lat="47.30368" lon="-1.54651">
        <ele>24.5</ele>
        <time>2015-01-04T08:51:30Z</time>
      </trkpt>
      <trkpt lat="47.30371" lon="-1.54646">
        <ele>24.5</ele>
        <time>2015-01-04T08:51:31Z</time>
      </trkpt>
      <trkpt lat="47.30378" lon="-1.54638">
        <ele>24.5</ele>
        <time>2015-01-04T08:51:33Z</time>
      </trkpt>
      <trkpt lat="47.3039" lon="-1.5462">
        <ele>24.3</ele>
        <time>2015-01-04T08:51:36Z</time>
      </trkpt>
      <trkpt lat="47.304" lon="-1.54603">
        <ele>24.1</ele>
        <time>2015-01-04T08:51:39Z</time>
      </trkpt>
      <trkpt lat="47.30413" lon="-1.54588">
        <ele>23.8</ele>
        <time>2015-01-04T08:51:42Z</time>
      </trkpt>
      <trkpt lat="47.30426" lon="-1.54578">
        <ele>22.4</ele>
        <time>2015-01-04T08:51:45Z</time>
      </trkpt>
      <trkpt lat="47.30437" lon="-1.54568">
        <ele>22.1</ele>
        <time>2015-01-04T08:51:48Z</time>
      </trkpt>
      <trkpt lat="47.3045" lon="-1.54556">
        <ele>22.1</ele>
        <time>2015-01-04T08:51:51Z</time>
      </trkpt>
      <trkpt lat="47.30466" lon="-1.54544">
        <ele>21.9</ele>
        <time>2015-01-04T08:51:55Z</time>
      </trkpt>
      <trkpt lat="47.30485" lon="-1.54529">
        <ele>21.9</ele>
        <time>2015-01-04T08:51:59Z</time>
      </trkpt>
      <trkpt lat="47.305" lon="-1.54517">
        <ele>21.9</ele>
        <time>2015-01-04T08:52:02Z</time>
      </trkpt>
      <trkpt lat="47.30505" lon="-1.54514">
        <ele>21.9</ele>
        <time>2015-01-04T08:52:03Z</time>
      </trkpt>
      <trkpt lat="47.30513" lon="-1.54508">
        <ele>21.9</ele>
        <time>2015-01-04T08:52:05Z</time>
      </trkpt>
      <trkpt lat="47.30521" lon="-1.54502">
        <ele>21.9</ele>
        <time>2015-01-04T08:52:07Z</time>
      </trkpt>
      <trkpt lat="47.30535" lon="-1.54492">
        <ele>21.9</ele>
        <time>2015-01-04T08:52:10Z</time>
      </trkpt>
      <trkpt lat="47.3055" lon="-1.54479">
        <ele>21.9</ele>
        <time>2015-01-04T08:52:13Z</time>
      </trkpt>
      <trkpt lat="47.30561" lon="-1.54469">
        <ele>22</ele>
        <time>2015-01-04T08:52:16Z</time>
      </trkpt>
      <trkpt lat="47.30575" lon="-1.54455">
        <ele>22.2</ele>
        <time>2015-01-04T08:52:20Z</time>
      </trkpt>
      <trkpt lat="47.30582" lon="-1.5445">
        <ele>22.8</ele>
        <time>2015-01-04T08:52:22Z</time>
      </trkpt>
      <trkpt lat="47.30586" lon="-1.54447">
        <ele>22.8</ele>
        <time>2015-01-04T08:52:23Z</time>
      </trkpt>
      <trkpt lat="47.30591" lon="-1.54442">
        <ele>22.8</ele>
        <time>2015-01-04T08:52:24Z</time>
      </trkpt>
      <trkpt lat="47.30595" lon="-1.54438">
        <ele>22.8</ele>
        <time>2015-01-04T08:52:25Z</time>
      </trkpt>
      <trkpt lat="47.30609" lon="-1.54423">
        <ele>23.6</ele>
        <time>2015-01-04T08:52:28Z</time>
      </trkpt>
      <trkpt lat="47.30622" lon="-1.54412">
        <ele>24.2</ele>
        <time>2015-01-04T08:52:31Z</time>
      </trkpt>
      <trkpt lat="47.30635" lon="-1.54399">
        <ele>24.9</ele>
        <time>2015-01-04T08:52:34Z</time>
      </trkpt>
      <trkpt lat="47.30651" lon="-1.54387">
        <ele>26.4</ele>
        <time>2015-01-04T08:52:38Z</time>
      </trkpt>
      <trkpt lat="47.30665" lon="-1.54373">
        <ele>27</ele>
        <time>2015-01-04T08:52:42Z</time>
      </trkpt>
      <trkpt lat="47.3068" lon="-1.54362">
        <ele>27</ele>
        <time>2015-01-04T08:52:46Z</time>
      </trkpt>
      <trkpt lat="47.30696" lon="-1.54348">
        <ele>27</ele>
        <time>2015-01-04T08:52:50Z</time>
      </trkpt>
      <trkpt lat="47.30712" lon="-1.54335">
        <ele>27</ele>
        <time>2015-01-04T08:52:53Z</time>
      </trkpt>
      <trkpt lat="47.30722" lon="-1.54327">
        <ele>27</ele>
        <time>2015-01-04T08:52:55Z</time>
      </trkpt>
      <trkpt lat="47.30733" lon="-1.54319">
        <ele>27</ele>
        <time>2015-01-04T08:52:57Z</time>
      </trkpt>
      <trkpt lat="47.30744" lon="-1.54311">
        <ele>27</ele>
        <time>2015-01-04T08:52:59Z</time>
      </trkpt>
      <trkpt lat="47.30756" lon="-1.54307">
        <ele>27</ele>
        <time>2015-01-04T08:53:01Z</time>
      </trkpt>
      <trkpt lat="47.30766" lon="-1.54311">
        <ele>27</ele>
        <time>2015-01-04T08:53:04Z</time>
      </trkpt>
      <trkpt lat="47.30772" lon="-1.54306">
        <ele>26.9</ele>
        <time>2015-01-04T08:53:12Z</time>
      </trkpt>
      <trkpt lat="47.30819" lon="-1.54297">
        <ele>26.9</ele>
        <time>2015-01-04T08:53:13Z</time>
      </trkpt>
      <trkpt lat="47.3083" lon="-1.54293">
        <ele>26.4</ele>
        <time>2015-01-04T08:53:17Z</time>
      </trkpt>
      <trkpt lat="47.30843" lon="-1.5429">
        <ele>25.4</ele>
        <time>2015-01-04T08:53:23Z</time>
      </trkpt>
      <trkpt lat="47.30854" lon="-1.54285">
        <ele>24.2</ele>
        <time>2015-01-04T08:53:27Z</time>
      </trkpt>
      <trkpt lat="47.30865" lon="-1.54278">
        <ele>23.2</ele>
        <time>2015-01-04T08:53:30Z</time>
      </trkpt>
      <trkpt lat="47.30877" lon="-1.54271">
        <ele>22.6</ele>
        <time>2015-01-04T08:53:33Z</time>
      </trkpt>
      <trkpt lat="47.30892" lon="-1.54273">
        <ele>21.9</ele>
        <time>2015-01-04T08:53:36Z</time>
      </trkpt>
      <trkpt lat="47.30903" lon="-1.54276">
        <ele>21.1</ele>
        <time>2015-01-04T08:53:38Z</time>
      </trkpt>
      <trkpt lat="47.30908" lon="-1.54278">
        <ele>20.5</ele>
        <time>2015-01-04T08:53:39Z</time>
      </trkpt>
      <trkpt lat="47.30913" lon="-1.54279">
        <ele>20.5</ele>
        <time>2015-01-04T08:53:40Z</time>
      </trkpt>
      <trkpt lat="47.30919" lon="-1.5428">
        <ele>20.5</ele>
        <time>2015-01-04T08:53:41Z</time>
      </trkpt>
      <trkpt lat="47.30926" lon="-1.5428">
        <ele>20.5</ele>
        <time>2015-01-04T08:53:42Z</time>
      </trkpt>
      <trkpt lat="47.30934" lon="-1.54282">
        <ele>20.5</ele>
        <time>2015-01-04T08:53:43Z</time>
      </trkpt>
      <trkpt lat="47.30945" lon="-1.54287">
        <ele>20.4</ele>
        <time>2015-01-04T08:53:45Z</time>
      </trkpt>
      <trkpt lat="47.30962" lon="-1.54299">
        <ele>20</ele>
        <time>2015-01-04T08:53:48Z</time>
      </trkpt>
      <trkpt lat="47.30979" lon="-1.54299">
        <ele>19.9</ele>
        <time>2015-01-04T08:53:50Z</time>
      </trkpt>
      <trkpt lat="47.30998" lon="-1.54289">
        <ele>19.7</ele>
        <time>2015-01-04T08:53:53Z</time>
      </trkpt>
      <trkpt lat="47.3102" lon="-1.54285">
        <ele>19.6</ele>
        <time>2015-01-04T08:53:56Z</time>
      </trkpt>
      <trkpt lat="47.31039" lon="-1.54288">
        <ele>19.4</ele>
        <time>2015-01-04T08:53:59Z</time>
      </trkpt>
      <trkpt lat="47.3106" lon="-1.54279">
        <ele>19.2</ele>
        <time>2015-01-04T08:54:02Z</time>
      </trkpt>
      <trkpt lat="47.31073" lon="-1.54281">
        <ele>18.8</ele>
        <time>2015-01-04T08:54:04Z</time>
      </trkpt>
      <trkpt lat="47.31091" lon="-1.54283">
        <ele>18.6</ele>
        <time>2015-01-04T08:54:07Z</time>
      </trkpt>
      <trkpt lat="47.31105" lon="-1.54285">
        <ele>18.6</ele>
        <time>2015-01-04T08:54:09Z</time>
      </trkpt>
      <trkpt lat="47.31123" lon="-1.54287">
        <ele>18.4</ele>
        <time>2015-01-04T08:54:12Z</time>
      </trkpt>
      <trkpt lat="47.31142" lon="-1.54289">
        <ele>17</ele>
        <time>2015-01-04T08:54:15Z</time>
      </trkpt>
      <trkpt lat="47.31168" lon="-1.54287">
        <ele>16.6</ele>
        <time>2015-01-04T08:54:19Z</time>
      </trkpt>
      <trkpt lat="47.31183" lon="-1.54285">
        <ele>16.1</ele>
        <time>2015-01-04T08:54:21Z</time>
      </trkpt>
      <trkpt lat="47.31194" lon="-1.54286">
        <ele>15.6</ele>
        <time>2015-01-04T08:54:23Z</time>
      </trkpt>
      <trkpt lat="47.31231" lon="-1.54285">
        <ele>14.8</ele>
        <time>2015-01-04T08:54:27Z</time>
      </trkpt>
      <trkpt lat="47.31244" lon="-1.5429">
        <ele>13</ele>
        <time>2015-01-04T08:54:34Z</time>
      </trkpt>
      <trkpt lat="47.31263" lon="-1.5429">
        <ele>12.6</ele>
        <time>2015-01-04T08:54:38Z</time>
      </trkpt>
      <trkpt lat="47.31269" lon="-1.54291">
        <ele>12.2</ele>
        <time>2015-01-04T08:54:39Z</time>
      </trkpt>
      <trkpt lat="47.31274" lon="-1.54291">
        <ele>12.2</ele>
        <time>2015-01-04T08:54:40Z</time>
      </trkpt>
      <trkpt lat="47.3129" lon="-1.54292">
        <ele>12.2</ele>
        <time>2015-01-04T08:54:43Z</time>
      </trkpt>
      <trkpt lat="47.31305" lon="-1.54293">
        <ele>12.1</ele>
        <time>2015-01-04T08:54:46Z</time>
      </trkpt>
      <trkpt lat="47.3132" lon="-1.54294">
        <ele>12</ele>
        <time>2015-01-04T08:54:49Z</time>
      </trkpt>
      <trkpt lat="47.31331" lon="-1.54294">
        <ele>11.9</ele>
        <time>2015-01-04T08:54:51Z</time>
      </trkpt>
      <trkpt lat="47.31348" lon="-1.54295">
        <ele>11.8</ele>
        <time>2015-01-04T08:54:54Z</time>
      </trkpt>
      <trkpt lat="47.31369" lon="-1.54298">
        <ele>11.6</ele>
        <time>2015-01-04T08:54:57Z</time>
      </trkpt>
      <trkpt lat="47.31382" lon="-1.543">
        <ele>11.2</ele>
        <time>2015-01-04T08:54:59Z</time>
      </trkpt>
      <trkpt lat="47.31392" lon="-1.54302">
        <ele>11.1</ele>
        <time>2015-01-04T08:55:01Z</time>
      </trkpt>
      <trkpt lat="47.31416" lon="-1.54305">
        <ele>10.9</ele>
        <time>2015-01-04T08:55:05Z</time>
      </trkpt>
      <trkpt lat="47.31431" lon="-1.54308">
        <ele>10.8</ele>
        <time>2015-01-04T08:55:07Z</time>
      </trkpt>
      <trkpt lat="47.31446" lon="-1.5431">
        <ele>10.6</ele>
        <time>2015-01-04T08:55:10Z</time>
      </trkpt>
      <trkpt lat="47.31468" lon="-1.54314">
        <ele>10.5</ele>
        <time>2015-01-04T08:55:14Z</time>
      </trkpt>
      <trkpt lat="47.31486" lon="-1.54316">
        <ele>10.3</ele>
        <time>2015-01-04T08:55:17Z</time>
      </trkpt>
      <trkpt lat="47.31509" lon="-1.54319">
        <ele>9.7</ele>
        <time>2015-01-04T08:55:22Z</time>
      </trkpt>
      <trkpt lat="47.31526" lon="-1.54318">
        <ele>9.4</ele>
        <time>2015-01-04T08:55:26Z</time>
      </trkpt>
      <trkpt lat="47.31532" lon="-1.54317">
        <ele>9</ele>
        <time>2015-01-04T08:55:27Z</time>
      </trkpt>
      <trkpt lat="47.31554" lon="-1.54315">
        <ele>9</ele>
        <time>2015-01-04T08:55:31Z</time>
      </trkpt>
      <trkpt lat="47.31564" lon="-1.54314">
        <ele>8.9</ele>
        <time>2015-01-04T08:55:33Z</time>
      </trkpt>
      <trkpt lat="47.31576" lon="-1.54313">
        <ele>8.5</ele>
        <time>2015-01-04T08:55:35Z</time>
      </trkpt>
      <trkpt lat="47.31581" lon="-1.54312">
        <ele>8.3</ele>
        <time>2015-01-04T08:55:36Z</time>
      </trkpt>
      <trkpt lat="47.31592" lon="-1.5431">
        <ele>8.3</ele>
        <time>2015-01-04T08:55:39Z</time>
      </trkpt>
      <trkpt lat="47.31597" lon="-1.54308">
        <ele>8.3</ele>
        <time>2015-01-04T08:55:40Z</time>
      </trkpt>
      <trkpt lat="47.3161" lon="-1.54326">
        <ele>8.3</ele>
        <time>2015-01-04T08:55:42Z</time>
      </trkpt>
      <trkpt lat="47.31626" lon="-1.54315">
        <ele>8.3</ele>
        <time>2015-01-04T08:55:46Z</time>
      </trkpt>
      <trkpt lat="47.31638" lon="-1.54302">
        <ele>8.2</ele>
        <time>2015-01-04T08:55:49Z</time>
      </trkpt>
      <trkpt lat="47.31652" lon="-1.54289">
        <ele>8.2</ele>
        <time>2015-01-04T08:55:52Z</time>
      </trkpt>
      <trkpt lat="47.31661" lon="-1.54284">
        <ele>8.3</ele>
        <time>2015-01-04T08:55:54Z</time>
      </trkpt>
      <trkpt lat="47.31674" lon="-1.54277">
        <ele>8.2</ele>
        <time>2015-01-04T08:55:57Z</time>
      </trkpt>
      <trkpt lat="47.31684" lon="-1.54269">
        <ele>7.9</ele>
        <time>2015-01-04T08:55:59Z</time>
      </trkpt>
      <trkpt lat="47.31695" lon="-1.54261">
        <ele>7.9</ele>
        <time>2015-01-04T08:56:01Z</time>
      </trkpt>
      <trkpt lat="47.31708" lon="-1.54249">
        <ele>7.8</ele>
        <time>2015-01-04T08:56:04Z</time>
      </trkpt>
      <trkpt lat="47.31721" lon="-1.54236">
        <ele>7.7</ele>
        <time>2015-01-04T08:56:07Z</time>
      </trkpt>
      <trkpt lat="47.31736" lon="-1.54219">
        <ele>7.7</ele>
        <time>2015-01-04T08:56:10Z</time>
      </trkpt>
      <trkpt lat="47.31747" lon="-1.54203">
        <ele>7.5</ele>
        <time>2015-01-04T08:56:13Z</time>
      </trkpt>
      <trkpt lat="47.31762" lon="-1.5419">
        <ele>7.4</ele>
        <time>2015-01-04T08:56:16Z</time>
      </trkpt>
      <trkpt lat="47.31773" lon="-1.54172">
        <ele>7.4</ele>
        <time>2015-01-04T08:56:19Z</time>
      </trkpt>
      <trkpt lat="47.31784" lon="-1.54154">
        <ele>7.4</ele>
        <time>2015-01-04T08:56:22Z</time>
      </trkpt>
      <trkpt lat="47.31796" lon="-1.54131">
        <ele>7.6</ele>
        <time>2015-01-04T08:56:25Z</time>
      </trkpt>
      <trkpt lat="47.31807" lon="-1.54111">
        <ele>7.8</ele>
        <time>2015-01-04T08:56:28Z</time>
      </trkpt>
      <trkpt lat="47.31818" lon="-1.54091">
        <ele>8.1</ele>
        <time>2015-01-04T08:56:31Z</time>
      </trkpt>
      <trkpt lat="47.31829" lon="-1.54068">
        <ele>8.4</ele>
        <time>2015-01-04T08:56:34Z</time>
      </trkpt>
      <trkpt lat="47.31839" lon="-1.54047">
        <ele>8.6</ele>
        <time>2015-01-04T08:56:37Z</time>
      </trkpt>
      <trkpt lat="47.31852" lon="-1.54024">
        <ele>8.7</ele>
        <time>2015-01-04T08:56:40Z</time>
      </trkpt>
      <trkpt lat="47.31862" lon="-1.54003">
        <ele>8.8</ele>
        <time>2015-01-04T08:56:43Z</time>
      </trkpt>
      <trkpt lat="47.31872" lon="-1.5398">
        <ele>8.8</ele>
        <time>2015-01-04T08:56:46Z</time>
      </trkpt>
      <trkpt lat="47.31883" lon="-1.53957">
        <ele>8.8</ele>
        <time>2015-01-04T08:56:49Z</time>
      </trkpt>
      <trkpt lat="47.31894" lon="-1.53935">
        <ele>8.8</ele>
        <time>2015-01-04T08:56:52Z</time>
      </trkpt>
      <trkpt lat="47.31904" lon="-1.53911">
        <ele>8.9</ele>
        <time>2015-01-04T08:56:55Z</time>
      </trkpt>
      <trkpt lat="47.31915" lon="-1.53888">
        <ele>9.1</ele>
        <time>2015-01-04T08:56:58Z</time>
      </trkpt>
      <trkpt lat="47.31923" lon="-1.53872">
        <ele>9.7</ele>
        <time>2015-01-04T08:57:00Z</time>
      </trkpt>
      <trkpt lat="47.31937" lon="-1.53852">
        <ele>10.8</ele>
        <time>2015-01-04T08:57:03Z</time>
      </trkpt>
      <trkpt lat="47.31945" lon="-1.53835">
        <ele>11</ele>
        <time>2015-01-04T08:57:05Z</time>
      </trkpt>
      <trkpt lat="47.31956" lon="-1.53814">
        <ele>11.3</ele>
        <time>2015-01-04T08:57:08Z</time>
      </trkpt>
      <trkpt lat="47.31963" lon="-1.53796">
        <ele>11.4</ele>
        <time>2015-01-04T08:57:10Z</time>
      </trkpt>
      <trkpt lat="47.31972" lon="-1.5378">
        <ele>11.7</ele>
        <time>2015-01-04T08:57:12Z</time>
      </trkpt>
      <trkpt lat="47.31984" lon="-1.53769">
        <ele>11.9</ele>
        <time>2015-01-04T08:57:14Z</time>
      </trkpt>
      <trkpt lat="47.31995" lon="-1.53756">
        <ele>12</ele>
        <time>2015-01-04T08:57:16Z</time>
      </trkpt>
      <trkpt lat="47.32009" lon="-1.53736">
        <ele>12.2</ele>
        <time>2015-01-04T08:57:19Z</time>
      </trkpt>
      <trkpt lat="47.32026" lon="-1.53722">
        <ele>12.2</ele>
        <time>2015-01-04T08:57:22Z</time>
      </trkpt>
      <trkpt lat="47.32043" lon="-1.53706">
        <ele>12.3</ele>
        <time>2015-01-04T08:57:25Z</time>
      </trkpt>
      <trkpt lat="47.32053" lon="-1.53692">
        <ele>12.3</ele>
        <time>2015-01-04T08:57:27Z</time>
      </trkpt>
      <trkpt lat="47.32061" lon="-1.53669">
        <ele>12.5</ele>
        <time>2015-01-04T08:57:30Z</time>
      </trkpt>
      <trkpt lat="47.32063" lon="-1.5364">
        <ele>12.5</ele>
        <time>2015-01-04T08:57:33Z</time>
      </trkpt>
      <trkpt lat="47.32072" lon="-1.53619">
        <ele>12.6</ele>
        <time>2015-01-04T08:57:36Z</time>
      </trkpt>
      <trkpt lat="47.32083" lon="-1.53608">
        <ele>12.6</ele>
        <time>2015-01-04T08:57:38Z</time>
      </trkpt>
      <trkpt lat="47.32101" lon="-1.53593">
        <ele>12.7</ele>
        <time>2015-01-04T08:57:41Z</time>
      </trkpt>
      <trkpt lat="47.32121" lon="-1.53586">
        <ele>12.9</ele>
        <time>2015-01-04T08:57:44Z</time>
      </trkpt>
      <trkpt lat="47.32139" lon="-1.53582">
        <ele>13.1</ele>
        <time>2015-01-04T08:57:47Z</time>
      </trkpt>
      <trkpt lat="47.32151" lon="-1.53583">
        <ele>13.3</ele>
        <time>2015-01-04T08:57:49Z</time>
      </trkpt>
      <trkpt lat="47.32163" lon="-1.53583">
        <ele>13.3</ele>
        <time>2015-01-04T08:57:51Z</time>
      </trkpt>
      <trkpt lat="47.32175" lon="-1.53582">
        <ele>13.3</ele>
        <time>2015-01-04T08:57:53Z</time>
      </trkpt>
      <trkpt lat="47.32194" lon="-1.53583">
        <ele>13.3</ele>
        <time>2015-01-04T08:57:56Z</time>
      </trkpt>
      <trkpt lat="47.32203" lon="-1.53583">
        <ele>13.3</ele>
        <time>2015-01-04T08:57:58Z</time>
      </trkpt>
      <trkpt lat="47.32213" lon="-1.53583">
        <ele>13.3</ele>
        <time>2015-01-04T08:58:00Z</time>
      </trkpt>
      <trkpt lat="47.32228" lon="-1.53582">
        <ele>13.3</ele>
        <time>2015-01-04T08:58:03Z</time>
      </trkpt>
      <trkpt lat="47.32242" lon="-1.5358">
        <ele>13.4</ele>
        <time>2015-01-04T08:58:06Z</time>
      </trkpt>
      <trkpt lat="47.32251" lon="-1.53563">
        <ele>13.4</ele>
        <time>2015-01-04T08:58:09Z</time>
      </trkpt>
      <trkpt lat="47.32252" lon="-1.53538">
        <ele>13.6</ele>
        <time>2015-01-04T08:58:12Z</time>
      </trkpt>
      <trkpt lat="47.3225" lon="-1.53516">
        <ele>13.7</ele>
        <time>2015-01-04T08:58:15Z</time>
      </trkpt>
      <trkpt lat="47.32265" lon="-1.53519">
        <ele>13.9</ele>
        <time>2015-01-04T08:58:22Z</time>
      </trkpt>
      <trkpt lat="47.3228" lon="-1.53524">
        <ele>14.3</ele>
        <time>2015-01-04T08:58:27Z</time>
      </trkpt>
      <trkpt lat="47.32291" lon="-1.53531">
        <ele>14.5</ele>
        <time>2015-01-04T08:58:30Z</time>
      </trkpt>
      <trkpt lat="47.323" lon="-1.53537">
        <ele>14.6</ele>
        <time>2015-01-04T08:58:32Z</time>
      </trkpt>
      <trkpt lat="47.32313" lon="-1.53545">
        <ele>14.6</ele>
        <time>2015-01-04T08:58:35Z</time>
      </trkpt>
      <trkpt lat="47.32321" lon="-1.53548">
        <ele>14.6</ele>
        <time>2015-01-04T08:58:37Z</time>
      </trkpt>
      <trkpt lat="47.32334" lon="-1.53556">
        <ele>14.7</ele>
        <time>2015-01-04T08:58:40Z</time>
      </trkpt>
      <trkpt lat="47.32346" lon="-1.53559">
        <ele>15.1</ele>
        <time>2015-01-04T08:58:43Z</time>
      </trkpt>
      <trkpt lat="47.32356" lon="-1.53564">
        <ele>16.1</ele>
        <time>2015-01-04T08:58:45Z</time>
      </trkpt>
      <trkpt lat="47.32371" lon="-1.5357">
        <ele>16.1</ele>
        <time>2015-01-04T08:58:48Z</time>
      </trkpt>
      <trkpt lat="47.32381" lon="-1.53576">
        <ele>16.2</ele>
        <time>2015-01-04T08:58:50Z</time>
      </trkpt>
      <trkpt lat="47.32391" lon="-1.53581">
        <ele>16.2</ele>
        <time>2015-01-04T08:58:52Z</time>
      </trkpt>
      <trkpt lat="47.324" lon="-1.53585">
        <ele>16.8</ele>
        <time>2015-01-04T08:58:54Z</time>
      </trkpt>
      <trkpt lat="47.32414" lon="-1.53591">
        <ele>16.9</ele>
        <time>2015-01-04T08:58:57Z</time>
      </trkpt>
      <trkpt lat="47.32424" lon="-1.53596">
        <ele>17.2</ele>
        <time>2015-01-04T08:58:59Z</time>
      </trkpt>
      <trkpt lat="47.32434" lon="-1.53601">
        <ele>17.4</ele>
        <time>2015-01-04T08:59:01Z</time>
      </trkpt>
      <trkpt lat="47.32444" lon="-1.53606">
        <ele>17.7</ele>
        <time>2015-01-04T08:59:03Z</time>
      </trkpt>
      <trkpt lat="47.32457" lon="-1.53614">
        <ele>18.2</ele>
        <time>2015-01-04T08:59:06Z</time>
      </trkpt>
      <trkpt lat="47.32467" lon="-1.53619">
        <ele>18.8</ele>
        <time>2015-01-04T08:59:08Z</time>
      </trkpt>
      <trkpt lat="47.32476" lon="-1.53622">
        <ele>18.8</ele>
        <time>2015-01-04T08:59:10Z</time>
      </trkpt>
      <trkpt lat="47.32492" lon="-1.53631">
        <ele>18.9</ele>
        <time>2015-01-04T08:59:14Z</time>
      </trkpt>
      <trkpt lat="47.32502" lon="-1.53634">
        <ele>19.2</ele>
        <time>2015-01-04T08:59:16Z</time>
      </trkpt>
      <trkpt lat="47.32512" lon="-1.53638">
        <ele>20</ele>
        <time>2015-01-04T08:59:18Z</time>
      </trkpt>
      <trkpt lat="47.3252" lon="-1.53645">
        <ele>20.5</ele>
        <time>2015-01-04T08:59:20Z</time>
      </trkpt>
      <trkpt lat="47.32537" lon="-1.53655">
        <ele>20.9</ele>
        <time>2015-01-04T08:59:24Z</time>
      </trkpt>
      <trkpt lat="47.32551" lon="-1.53661">
        <ele>21.1</ele>
        <time>2015-01-04T08:59:27Z</time>
      </trkpt>
      <trkpt lat="47.32561" lon="-1.53666">
        <ele>21.4</ele>
        <time>2015-01-04T08:59:29Z</time>
      </trkpt>
      <trkpt lat="47.32581" lon="-1.53675">
        <ele>23.2</ele>
        <time>2015-01-04T08:59:33Z</time>
      </trkpt>
      <trkpt lat="47.32591" lon="-1.5368">
        <ele>23.3</ele>
        <time>2015-01-04T08:59:35Z</time>
      </trkpt>
      <trkpt lat="47.32612" lon="-1.53686">
        <ele>23.7</ele>
        <time>2015-01-04T08:59:39Z</time>
      </trkpt>
      <trkpt lat="47.3263" lon="-1.53694">
        <ele>24.2</ele>
        <time>2015-01-04T08:59:43Z</time>
      </trkpt>
      <trkpt lat="47.32639" lon="-1.53696">
        <ele>24.2</ele>
        <time>2015-01-04T08:59:45Z</time>
      </trkpt>
      <trkpt lat="47.32645" lon="-1.537">
        <ele>24.8</ele>
        <time>2015-01-04T08:59:47Z</time>
      </trkpt>
      <trkpt lat="47.3265" lon="-1.53701">
        <ele>24.8</ele>
        <time>2015-01-04T08:59:49Z</time>
      </trkpt>
      <trkpt lat="47.32669" lon="-1.53705">
        <ele>24.9</ele>
        <time>2015-01-04T08:59:54Z</time>
      </trkpt>
      <trkpt lat="47.32686" lon="-1.53702">
        <ele>24.9</ele>
        <time>2015-01-04T08:59:58Z</time>
      </trkpt>
      <trkpt lat="47.32695" lon="-1.53701">
        <ele>24.9</ele>
        <time>2015-01-04T09:00:00Z</time>
      </trkpt>
      <trkpt lat="47.32715" lon="-1.53703">
        <ele>24.9</ele>
        <time>2015-01-04T09:00:04Z</time>
      </trkpt>
      <trkpt lat="47.32726" lon="-1.53701">
        <ele>24.9</ele>
        <time>2015-01-04T09:00:06Z</time>
      </trkpt>
      <trkpt lat="47.32737" lon="-1.53699">
        <ele>24.9</ele>
        <time>2015-01-04T09:00:08Z</time>
      </trkpt>
      <trkpt lat="47.32763" lon="-1.5369">
        <ele>24.8</ele>
        <time>2015-01-04T09:00:12Z</time>
      </trkpt>
      <trkpt lat="47.32774" lon="-1.5369">
        <ele>24.7</ele>
        <time>2015-01-04T09:00:14Z</time>
      </trkpt>
      <trkpt lat="47.32788" lon="-1.53688">
        <ele>24.7</ele>
        <time>2015-01-04T09:00:16Z</time>
      </trkpt>
      <trkpt lat="47.32803" lon="-1.53686">
        <ele>24.5</ele>
        <time>2015-01-04T09:00:18Z</time>
      </trkpt>
      <trkpt lat="47.32817" lon="-1.53684">
        <ele>24.3</ele>
        <time>2015-01-04T09:00:20Z</time>
      </trkpt>
      <trkpt lat="47.32832" lon="-1.53678">
        <ele>23.3</ele>
        <time>2015-01-04T09:00:22Z</time>
      </trkpt>
      <trkpt lat="47.32845" lon="-1.53676">
        <ele>23.2</ele>
        <time>2015-01-04T09:00:24Z</time>
      </trkpt>
      <trkpt lat="47.3285" lon="-1.53674">
        <ele>21.8</ele>
        <time>2015-01-04T09:00:26Z</time>
      </trkpt>
      <trkpt lat="47.32849" lon="-1.53665">
        <ele>21.8</ele>
        <time>2015-01-04T09:00:29Z</time>
      </trkpt>
      <trkpt lat="47.32842" lon="-1.53655">
        <ele>21.4</ele>
        <time>2015-01-04T09:00:32Z</time>
      </trkpt>
      <trkpt lat="47.32835" lon="-1.53646">
        <ele>21.3</ele>
        <time>2015-01-04T09:00:35Z</time>
      </trkpt>
      <trkpt lat="47.32829" lon="-1.53624">
        <ele>20.8</ele>
        <time>2015-01-04T09:00:39Z</time>
      </trkpt>
      <trkpt lat="47.32838" lon="-1.53607">
        <ele>19.5</ele>
        <time>2015-01-04T09:00:43Z</time>
      </trkpt>
      <trkpt lat="47.32852" lon="-1.53594">
        <ele>18.9</ele>
        <time>2015-01-04T09:00:46Z</time>
      </trkpt>
      <trkpt lat="47.32867" lon="-1.5358">
        <ele>18.3</ele>
        <time>2015-01-04T09:00:49Z</time>
      </trkpt>
      <trkpt lat="47.32879" lon="-1.53567">
        <ele>17.7</ele>
        <time>2015-01-04T09:00:51Z</time>
      </trkpt>
      <trkpt lat="47.32897" lon="-1.53554">
        <ele>17.4</ele>
        <time>2015-01-04T09:00:54Z</time>
      </trkpt>
      <trkpt lat="47.3291" lon="-1.53547">
        <ele>17</ele>
        <time>2015-01-04T09:00:56Z</time>
      </trkpt>
      <trkpt lat="47.32923" lon="-1.53539">
        <ele>17</ele>
        <time>2015-01-04T09:00:58Z</time>
      </trkpt>
      <trkpt lat="47.32937" lon="-1.53534">
        <ele>16.9</ele>
        <time>2015-01-04T09:01:00Z</time>
      </trkpt>
      <trkpt lat="47.32954" lon="-1.53529">
        <ele>16.8</ele>
        <time>2015-01-04T09:01:02Z</time>
      </trkpt>
      <trkpt lat="47.32969" lon="-1.53526">
        <ele>16.6</ele>
        <time>2015-01-04T09:01:04Z</time>
      </trkpt>
      <trkpt lat="47.32985" lon="-1.5351">
        <ele>16.5</ele>
        <time>2015-01-04T09:01:07Z</time>
      </trkpt>
      <trkpt lat="47.32999" lon="-1.535">
        <ele>16.4</ele>
        <time>2015-01-04T09:01:09Z</time>
      </trkpt>
      <trkpt lat="47.33012" lon="-1.53484">
        <ele>16.3</ele>
        <time>2015-01-04T09:01:12Z</time>
      </trkpt>
      <trkpt lat="47.33024" lon="-1.53479">
        <ele>16.2</ele>
        <time>2015-01-04T09:01:15Z</time>
      </trkpt>
      <trkpt lat="47.33036" lon="-1.53477">
        <ele>16</ele>
        <time>2015-01-04T09:01:18Z</time>
      </trkpt>
      <trkpt lat="47.33042" lon="-1.53475">
        <ele>15.4</ele>
        <time>2015-01-04T09:01:20Z</time>
      </trkpt>
      <trkpt lat="47.3305" lon="-1.53471">
        <ele>15.4</ele>
        <time>2015-01-04T09:01:22Z</time>
      </trkpt>
      <trkpt lat="47.33065" lon="-1.53465">
        <ele>14.9</ele>
        <time>2015-01-04T09:01:26Z</time>
      </trkpt>
      <trkpt lat="47.33078" lon="-1.53461">
        <ele>14.2</ele>
        <time>2015-01-04T09:01:29Z</time>
      </trkpt>
      <trkpt lat="47.33087" lon="-1.53459">
        <ele>14</ele>
        <time>2015-01-04T09:01:31Z</time>
      </trkpt>
      <trkpt lat="47.33106" lon="-1.53451">
        <ele>14</ele>
        <time>2015-01-04T09:01:35Z</time>
      </trkpt>
      <trkpt lat="47.3312" lon="-1.53457">
        <ele>14</ele>
        <time>2015-01-04T09:01:39Z</time>
      </trkpt>
      <trkpt lat="47.33129" lon="-1.53454">
        <ele>13.9</ele>
        <time>2015-01-04T09:01:41Z</time>
      </trkpt>
      <trkpt lat="47.33145" lon="-1.53455">
        <ele>13.9</ele>
        <time>2015-01-04T09:01:44Z</time>
      </trkpt>
      <trkpt lat="47.33162" lon="-1.53459">
        <ele>13.8</ele>
        <time>2015-01-04T09:01:47Z</time>
      </trkpt>
      <trkpt lat="47.33174" lon="-1.53461">
        <ele>13.8</ele>
        <time>2015-01-04T09:01:50Z</time>
      </trkpt>
      <trkpt lat="47.33189" lon="-1.53469">
        <ele>13.8</ele>
        <time>2015-01-04T09:01:54Z</time>
      </trkpt>
      <trkpt lat="47.33197" lon="-1.53476">
        <ele>13.8</ele>
        <time>2015-01-04T09:01:56Z</time>
      </trkpt>
      <trkpt lat="47.33209" lon="-1.53481">
        <ele>13.8</ele>
        <time>2015-01-04T09:01:59Z</time>
      </trkpt>
      <trkpt lat="47.33218" lon="-1.53488">
        <ele>13.9</ele>
        <time>2015-01-04T09:02:01Z</time>
      </trkpt>
      <trkpt lat="47.33232" lon="-1.53495">
        <ele>14.7</ele>
        <time>2015-01-04T09:02:05Z</time>
      </trkpt>
      <trkpt lat="47.33244" lon="-1.53502">
        <ele>15.9</ele>
        <time>2015-01-04T09:02:11Z</time>
      </trkpt>
      <trkpt lat="47.33254" lon="-1.53517">
        <ele>19.5</ele>
        <time>2015-01-04T09:02:19Z</time>
      </trkpt>
      <trkpt lat="47.33259" lon="-1.53538">
        <ele>20.7</ele>
        <time>2015-01-04T09:02:24Z</time>
      </trkpt>
      <trkpt lat="47.3326" lon="-1.53548">
        <ele>21.5</ele>
        <time>2015-01-04T09:02:26Z</time>
      </trkpt>
      <trkpt lat="47.3327" lon="-1.53546">
        <ele>22.1</ele>
        <time>2015-01-04T09:02:31Z</time>
      </trkpt>
      <trkpt lat="47.33282" lon="-1.53542">
        <ele>22.8</ele>
        <time>2015-01-04T09:02:35Z</time>
      </trkpt>
      <trkpt lat="47.33302" lon="-1.53533">
        <ele>23.1</ele>
        <time>2015-01-04T09:02:40Z</time>
      </trkpt>
      <trkpt lat="47.33307" lon="-1.53532">
        <ele>23.3</ele>
        <time>2015-01-04T09:02:41Z</time>
      </trkpt>
      <trkpt lat="47.33315" lon="-1.53529">
        <ele>23.3</ele>
        <time>2015-01-04T09:02:43Z</time>
      </trkpt>
      <trkpt lat="47.33323" lon="-1.53525">
        <ele>23.3</ele>
        <time>2015-01-04T09:02:45Z</time>
      </trkpt>
      <trkpt lat="47.33335" lon="-1.53523">
        <ele>23.5</ele>
        <time>2015-01-04T09:02:48Z</time>
      </trkpt>
      <trkpt lat="47.33345" lon="-1.53524">
        <ele>23.6</ele>
        <time>2015-01-04T09:02:51Z</time>
      </trkpt>
      <trkpt lat="47.33358" lon="-1.53515">
        <ele>23.7</ele>
        <time>2015-01-04T09:02:54Z</time>
      </trkpt>
      <trkpt lat="47.33367" lon="-1.53511">
        <ele>23.7</ele>
        <time>2015-01-04T09:02:56Z</time>
      </trkpt>
      <trkpt lat="47.33379" lon="-1.53506">
        <ele>23.7</ele>
        <time>2015-01-04T09:02:58Z</time>
      </trkpt>
      <trkpt lat="47.33389" lon="-1.53504">
        <ele>23.7</ele>
        <time>2015-01-04T09:03:00Z</time>
      </trkpt>
      <trkpt lat="47.334" lon="-1.53502">
        <ele>23.7</ele>
        <time>2015-01-04T09:03:02Z</time>
      </trkpt>
      <trkpt lat="47.33412" lon="-1.53499">
        <ele>23.7</ele>
        <time>2015-01-04T09:03:04Z</time>
      </trkpt>
      <trkpt lat="47.33437" lon="-1.53492">
        <ele>23.7</ele>
        <time>2015-01-04T09:03:08Z</time>
      </trkpt>
      <trkpt lat="47.33455" lon="-1.53488">
        <ele>23.6</ele>
        <time>2015-01-04T09:03:11Z</time>
      </trkpt>
      <trkpt lat="47.33469" lon="-1.53487">
        <ele>23.5</ele>
        <time>2015-01-04T09:03:13Z</time>
      </trkpt>
      <trkpt lat="47.33482" lon="-1.53485">
        <ele>23.5</ele>
        <time>2015-01-04T09:03:15Z</time>
      </trkpt>
      <trkpt lat="47.33489" lon="-1.53482">
        <ele>23.3</ele>
        <time>2015-01-04T09:03:17Z</time>
      </trkpt>
      <trkpt lat="47.33495" lon="-1.53473">
        <ele>23.3</ele>
        <time>2015-01-04T09:03:19Z</time>
      </trkpt>
      <trkpt lat="47.33498" lon="-1.53449">
        <ele>23.3</ele>
        <time>2015-01-04T09:03:23Z</time>
      </trkpt>
      <trkpt lat="47.33503" lon="-1.53428">
        <ele>23.3</ele>
        <time>2015-01-04T09:03:26Z</time>
      </trkpt>
      <trkpt lat="47.33506" lon="-1.53406">
        <ele>23.3</ele>
        <time>2015-01-04T09:03:29Z</time>
      </trkpt>
      <trkpt lat="47.33509" lon="-1.53381">
        <ele>23.2</ele>
        <time>2015-01-04T09:03:32Z</time>
      </trkpt>
      <trkpt lat="47.33512" lon="-1.53361">
        <ele>23</ele>
        <time>2015-01-04T09:03:35Z</time>
      </trkpt>
      <trkpt lat="47.33516" lon="-1.53336">
        <ele>22.6</ele>
        <time>2015-01-04T09:03:38Z</time>
      </trkpt>
      <trkpt lat="47.33518" lon="-1.53315">
        <ele>21.4</ele>
        <time>2015-01-04T09:03:41Z</time>
      </trkpt>
      <trkpt lat="47.33523" lon="-1.53294">
        <ele>19.9</ele>
        <time>2015-01-04T09:03:44Z</time>
      </trkpt>
      <trkpt lat="47.33536" lon="-1.53282">
        <ele>18.6</ele>
        <time>2015-01-04T09:03:47Z</time>
      </trkpt>
      <trkpt lat="47.33552" lon="-1.53271">
        <ele>17.6</ele>
        <time>2015-01-04T09:03:50Z</time>
      </trkpt>
      <trkpt lat="47.33569" lon="-1.53262">
        <ele>16.7</ele>
        <time>2015-01-04T09:03:53Z</time>
      </trkpt>
      <trkpt lat="47.33581" lon="-1.53255">
        <ele>16.5</ele>
        <time>2015-01-04T09:03:55Z</time>
      </trkpt>
      <trkpt lat="47.33594" lon="-1.53247">
        <ele>16.3</ele>
        <time>2015-01-04T09:03:57Z</time>
      </trkpt>
      <trkpt lat="47.33606" lon="-1.53242">
        <ele>16.2</ele>
        <time>2015-01-04T09:03:59Z</time>
      </trkpt>
      <trkpt lat="47.3362" lon="-1.53231">
        <ele>16.1</ele>
        <time>2015-01-04T09:04:01Z</time>
      </trkpt>
      <trkpt lat="47.33641" lon="-1.53221">
        <ele>15.9</ele>
        <time>2015-01-04T09:04:04Z</time>
      </trkpt>
      <trkpt lat="47.33669" lon="-1.53205">
        <ele>15.8</ele>
        <time>2015-01-04T09:04:08Z</time>
      </trkpt>
      <trkpt lat="47.3368" lon="-1.53198">
        <ele>15.7</ele>
        <time>2015-01-04T09:04:10Z</time>
      </trkpt>
      <trkpt lat="47.33693" lon="-1.5319">
        <ele>15.6</ele>
        <time>2015-01-04T09:04:12Z</time>
      </trkpt>
      <trkpt lat="47.33705" lon="-1.53185">
        <ele>15.5</ele>
        <time>2015-01-04T09:04:14Z</time>
      </trkpt>
      <trkpt lat="47.3372" lon="-1.53181">
        <ele>14.2</ele>
        <time>2015-01-04T09:04:20Z</time>
      </trkpt>
      <trkpt lat="47.33733" lon="-1.53173">
        <ele>13.3</ele>
        <time>2015-01-04T09:04:23Z</time>
      </trkpt>
      <trkpt lat="47.33742" lon="-1.53167">
        <ele>12.9</ele>
        <time>2015-01-04T09:04:25Z</time>
      </trkpt>
      <trkpt lat="47.33756" lon="-1.5316">
        <ele>12.3</ele>
        <time>2015-01-04T09:04:28Z</time>
      </trkpt>
      <trkpt lat="47.33769" lon="-1.53148">
        <ele>11.5</ele>
        <time>2015-01-04T09:04:32Z</time>
      </trkpt>
      <trkpt lat="47.33781" lon="-1.53134">
        <ele>10.4</ele>
        <time>2015-01-04T09:04:35Z</time>
      </trkpt>
      <trkpt lat="47.33793" lon="-1.53113">
        <ele>9.7</ele>
        <time>2015-01-04T09:04:39Z</time>
      </trkpt>
      <trkpt lat="47.33805" lon="-1.53094">
        <ele>8.8</ele>
        <time>2015-01-04T09:04:42Z</time>
      </trkpt>
      <trkpt lat="47.33815" lon="-1.53077">
        <ele>7.1</ele>
        <time>2015-01-04T09:04:46Z</time>
      </trkpt>
      <trkpt lat="47.33819" lon="-1.53068">
        <ele>6.7</ele>
        <time>2015-01-04T09:04:48Z</time>
      </trkpt>
      <trkpt lat="47.33819" lon="-1.53061">
        <ele>6.7</ele>
        <time>2015-01-04T09:04:51Z</time>
      </trkpt>
      <trkpt lat="47.33823" lon="-1.53055">
        <ele>6.4</ele>
        <time>2015-01-04T09:04:53Z</time>
      </trkpt>
      <trkpt lat="47.33828" lon="-1.53055">
        <ele>6.4</ele>
        <time>2015-01-04T09:04:55Z</time>
      </trkpt>
      <trkpt lat="47.33833" lon="-1.53059">
        <ele>6.4</ele>
        <time>2015-01-04T09:04:57Z</time>
      </trkpt>
      <trkpt lat="47.3384" lon="-1.53078">
        <ele>6.3</ele>
        <time>2015-01-04T09:05:01Z</time>
      </trkpt>
      <trkpt lat="47.33848" lon="-1.53094">
        <ele>6.3</ele>
        <time>2015-01-04T09:05:05Z</time>
      </trkpt>
      <trkpt lat="47.33858" lon="-1.53112">
        <ele>6.3</ele>
        <time>2015-01-04T09:05:09Z</time>
      </trkpt>
      <trkpt lat="47.33862" lon="-1.5312">
        <ele>6.3</ele>
        <time>2015-01-04T09:05:11Z</time>
      </trkpt>
      <trkpt lat="47.33868" lon="-1.53124">
        <ele>6.3</ele>
        <time>2015-01-04T09:05:13Z</time>
      </trkpt>
      <trkpt lat="47.33877" lon="-1.53109">
        <ele>6.4</ele>
        <time>2015-01-04T09:05:17Z</time>
      </trkpt>
      <trkpt lat="47.33884" lon="-1.53086">
        <ele>6.4</ele>
        <time>2015-01-04T09:05:21Z</time>
      </trkpt>
      <trkpt lat="47.33892" lon="-1.5307">
        <ele>6.4</ele>
        <time>2015-01-04T09:05:24Z</time>
      </trkpt>
      <trkpt lat="47.33901" lon="-1.53052">
        <ele>6.6</ele>
        <time>2015-01-04T09:05:27Z</time>
      </trkpt>
      <trkpt lat="47.33909" lon="-1.53032">
        <ele>7.2</ele>
        <time>2015-01-04T09:05:30Z</time>
      </trkpt>
      <trkpt lat="47.33917" lon="-1.53009">
        <ele>7.9</ele>
        <time>2015-01-04T09:05:33Z</time>
      </trkpt>
      <trkpt lat="47.33925" lon="-1.52988">
        <ele>8.4</ele>
        <time>2015-01-04T09:05:36Z</time>
      </trkpt>
      <trkpt lat="47.33934" lon="-1.52966">
        <ele>8.7</ele>
        <time>2015-01-04T09:05:39Z</time>
      </trkpt>
      <trkpt lat="47.33942" lon="-1.52947">
        <ele>8.9</ele>
        <time>2015-01-04T09:05:42Z</time>
      </trkpt>
      <trkpt lat="47.33947" lon="-1.52925">
        <ele>9.1</ele>
        <time>2015-01-04T09:05:45Z</time>
      </trkpt>
      <trkpt lat="47.33958" lon="-1.52905">
        <ele>9.1</ele>
        <time>2015-01-04T09:05:48Z</time>
      </trkpt>
      <trkpt lat="47.33963" lon="-1.52883">
        <ele>9.1</ele>
        <time>2015-01-04T09:05:51Z</time>
      </trkpt>
      <trkpt lat="47.33967" lon="-1.52863">
        <ele>9.1</ele>
        <time>2015-01-04T09:05:55Z</time>
      </trkpt>
      <trkpt lat="47.33956" lon="-1.52848">
        <ele>9.2</ele>
        <time>2015-01-04T09:05:59Z</time>
      </trkpt>
      <trkpt lat="47.33944" lon="-1.52834">
        <ele>9.2</ele>
        <time>2015-01-04T09:06:03Z</time>
      </trkpt>
      <trkpt lat="47.33931" lon="-1.52824">
        <ele>9.3</ele>
        <time>2015-01-04T09:06:06Z</time>
      </trkpt>
      <trkpt lat="47.33923" lon="-1.52816">
        <ele>9.4</ele>
        <time>2015-01-04T09:06:08Z</time>
      </trkpt>
      <trkpt lat="47.33912" lon="-1.52805">
        <ele>9.6</ele>
        <time>2015-01-04T09:06:11Z</time>
      </trkpt>
      <trkpt lat="47.33908" lon="-1.528">
        <ele>9.6</ele>
        <time>2015-01-04T09:06:14Z</time>
      </trkpt>
      <trkpt lat="47.3391" lon="-1.52792">
        <ele>9.6</ele>
        <time>2015-01-04T09:06:17Z</time>
      </trkpt>
      <trkpt lat="47.33911" lon="-1.52772">
        <ele>9.5</ele>
        <time>2015-01-04T09:06:21Z</time>
      </trkpt>
      <trkpt lat="47.33913" lon="-1.52759">
        <ele>9.1</ele>
        <time>2015-01-04T09:06:24Z</time>
      </trkpt>
      <trkpt lat="47.33915" lon="-1.52734">
        <ele>8.9</ele>
        <time>2015-01-04T09:06:29Z</time>
      </trkpt>
      <trkpt lat="47.3392" lon="-1.52714">
        <ele>8.8</ele>
        <time>2015-01-04T09:06:33Z</time>
      </trkpt>
      <trkpt lat="47.33923" lon="-1.52691">
        <ele>8.6</ele>
        <time>2015-01-04T09:06:37Z</time>
      </trkpt>
      <trkpt lat="47.33927" lon="-1.52675">
        <ele>8.2</ele>
        <time>2015-01-04T09:06:41Z</time>
      </trkpt>
      <trkpt lat="47.3393" lon="-1.52662">
        <ele>7.9</ele>
        <time>2015-01-04T09:06:44Z</time>
      </trkpt>
      <trkpt lat="47.33931" lon="-1.52648">
        <ele>7</ele>
        <time>2015-01-04T09:06:48Z</time>
      </trkpt>
      <trkpt lat="47.33929" lon="-1.52641">
        <ele>5.1</ele>
        <time>2015-01-04T09:06:55Z</time>
      </trkpt>
      <trkpt lat="47.33928" lon="-1.52638">
        <ele>4.3</ele>
        <time>2015-01-04T09:06:59Z</time>
      </trkpt>
      <trkpt lat="47.33928" lon="-1.52638">
        <ele>5.8</ele>
        <time>2015-01-04T09:06:59Z</time>
      </trkpt>
      <trkpt lat="47.33928" lon="-1.52638">
        <ele>5.8</ele>
        <time>2015-01-04T09:14:35Z</time>
      </trkpt>
      <trkpt lat="47.33936" lon="-1.52621">
        <ele>4.9</ele>
        <time>2015-01-04T09:14:36Z</time>
      </trkpt>
      <trkpt lat="47.33933" lon="-1.52612">
        <ele>5.1</ele>
        <time>2015-01-04T09:14:42Z</time>
      </trkpt>
      <trkpt lat="47.33932" lon="-1.52611">
        <ele>7.1</ele>
        <time>2015-01-04T09:14:46Z</time>
      </trkpt>
      <trkpt lat="47.33932" lon="-1.52611">
        <ele>7.1</ele>
        <time>2015-01-04T09:14:46Z</time>
      </trkpt>
      <trkpt lat="47.33932" lon="-1.52611">
        <ele>7.1</ele>
        <time>2015-01-04T09:14:57Z</time>
      </trkpt>
      <trkpt lat="47.33921" lon="-1.526">
        <ele>5.3</ele>
        <time>2015-01-04T09:14:58Z</time>
      </trkpt>
      <trkpt lat="47.33911" lon="-1.52593">
        <ele>5.4</ele>
        <time>2015-01-04T09:15:01Z</time>
      </trkpt>
      <trkpt lat="47.33901" lon="-1.5259">
        <ele>5.5</ele>
        <time>2015-01-04T09:15:04Z</time>
      </trkpt>
      <trkpt lat="47.3388" lon="-1.52582">
        <ele>6.5</ele>
        <time>2015-01-04T09:15:09Z</time>
      </trkpt>
      <trkpt lat="47.33863" lon="-1.52575">
        <ele>7</ele>
        <time>2015-01-04T09:15:13Z</time>
      </trkpt>
      <trkpt lat="47.33852" lon="-1.52571">
        <ele>7.1</ele>
        <time>2015-01-04T09:15:16Z</time>
      </trkpt>
      <trkpt lat="47.33837" lon="-1.52562">
        <ele>7.1</ele>
        <time>2015-01-04T09:15:20Z</time>
      </trkpt>
      <trkpt lat="47.33822" lon="-1.52555">
        <ele>7.2</ele>
        <time>2015-01-04T09:15:24Z</time>
      </trkpt>
      <trkpt lat="47.3381" lon="-1.52551">
        <ele>7.3</ele>
        <time>2015-01-04T09:15:27Z</time>
      </trkpt>
      <trkpt lat="47.338" lon="-1.52551">
        <ele>7.3</ele>
        <time>2015-01-04T09:15:29Z</time>
      </trkpt>
      <trkpt lat="47.33789" lon="-1.52549">
        <ele>7.4</ele>
        <time>2015-01-04T09:15:31Z</time>
      </trkpt>
      <trkpt lat="47.33778" lon="-1.52547">
        <ele>7.4</ele>
        <time>2015-01-04T09:15:33Z</time>
      </trkpt>
      <trkpt lat="47.33768" lon="-1.52543">
        <ele>7.4</ele>
        <time>2015-01-04T09:15:35Z</time>
      </trkpt>
      <trkpt lat="47.33749" lon="-1.52533">
        <ele>7.4</ele>
        <time>2015-01-04T09:15:39Z</time>
      </trkpt>
      <trkpt lat="47.33737" lon="-1.52528">
        <ele>7.5</ele>
        <time>2015-01-04T09:15:41Z</time>
      </trkpt>
      <trkpt lat="47.33722" lon="-1.5252">
        <ele>7.5</ele>
        <time>2015-01-04T09:15:44Z</time>
      </trkpt>
      <trkpt lat="47.33718" lon="-1.52515">
        <ele>7.5</ele>
        <time>2015-01-04T09:15:45Z</time>
      </trkpt>
      <trkpt lat="47.33704" lon="-1.52499">
        <ele>7.5</ele>
        <time>2015-01-04T09:15:48Z</time>
      </trkpt>
      <trkpt lat="47.33696" lon="-1.52488">
        <ele>7.6</ele>
        <time>2015-01-04T09:15:51Z</time>
      </trkpt>
      <trkpt lat="47.33689" lon="-1.52478">
        <ele>7.6</ele>
        <time>2015-01-04T09:15:54Z</time>
      </trkpt>
      <trkpt lat="47.33676" lon="-1.52463">
        <ele>7.6</ele>
        <time>2015-01-04T09:15:58Z</time>
      </trkpt>
      <trkpt lat="47.33667" lon="-1.52449">
        <ele>7.6</ele>
        <time>2015-01-04T09:16:01Z</time>
      </trkpt>
      <trkpt lat="47.33659" lon="-1.5243">
        <ele>7.6</ele>
        <time>2015-01-04T09:16:04Z</time>
      </trkpt>
      <trkpt lat="47.33653" lon="-1.5241">
        <ele>7.6</ele>
        <time>2015-01-04T09:16:07Z</time>
      </trkpt>
      <trkpt lat="47.33646" lon="-1.52388">
        <ele>7.6</ele>
        <time>2015-01-04T09:16:10Z</time>
      </trkpt>
      <trkpt lat="47.33638" lon="-1.52366">
        <ele>7.6</ele>
        <time>2015-01-04T09:16:13Z</time>
      </trkpt>
      <trkpt lat="47.3363" lon="-1.52345">
        <ele>7.6</ele>
        <time>2015-01-04T09:16:16Z</time>
      </trkpt>
      <trkpt lat="47.33622" lon="-1.52325">
        <ele>7.7</ele>
        <time>2015-01-04T09:16:19Z</time>
      </trkpt>
      <trkpt lat="47.33614" lon="-1.52305">
        <ele>7.7</ele>
        <time>2015-01-04T09:16:22Z</time>
      </trkpt>
      <trkpt lat="47.33604" lon="-1.52281">
        <ele>7.9</ele>
        <time>2015-01-04T09:16:25Z</time>
      </trkpt>
      <trkpt lat="47.33595" lon="-1.52262">
        <ele>8</ele>
        <time>2015-01-04T09:16:28Z</time>
      </trkpt>
      <trkpt lat="47.33588" lon="-1.52241">
        <ele>8.2</ele>
        <time>2015-01-04T09:16:31Z</time>
      </trkpt>
      <trkpt lat="47.33583" lon="-1.52218">
        <ele>8.3</ele>
        <time>2015-01-04T09:16:34Z</time>
      </trkpt>
      <trkpt lat="47.33574" lon="-1.52197">
        <ele>8.4</ele>
        <time>2015-01-04T09:16:37Z</time>
      </trkpt>
      <trkpt lat="47.33563" lon="-1.52176">
        <ele>8.7</ele>
        <time>2015-01-04T09:16:40Z</time>
      </trkpt>
      <trkpt lat="47.33553" lon="-1.52156">
        <ele>8.9</ele>
        <time>2015-01-04T09:16:43Z</time>
      </trkpt>
      <trkpt lat="47.33542" lon="-1.52137">
        <ele>9.1</ele>
        <time>2015-01-04T09:16:46Z</time>
      </trkpt>
      <trkpt lat="47.33537" lon="-1.52112">
        <ele>9.5</ele>
        <time>2015-01-04T09:16:49Z</time>
      </trkpt>
      <trkpt lat="47.3353" lon="-1.5209">
        <ele>10.1</ele>
        <time>2015-01-04T09:16:52Z</time>
      </trkpt>
      <trkpt lat="47.33522" lon="-1.52069">
        <ele>10.6</ele>
        <time>2015-01-04T09:16:55Z</time>
      </trkpt>
      <trkpt lat="47.33516" lon="-1.52048">
        <ele>10.8</ele>
        <time>2015-01-04T09:16:58Z</time>
      </trkpt>
      <trkpt lat="47.33508" lon="-1.52028">
        <ele>10.8</ele>
        <time>2015-01-04T09:17:01Z</time>
      </trkpt>
      <trkpt lat="47.335" lon="-1.52006">
        <ele>11</ele>
        <time>2015-01-04T09:17:04Z</time>
      </trkpt>
      <trkpt lat="47.33493" lon="-1.51987">
        <ele>11</ele>
        <time>2015-01-04T09:17:07Z</time>
      </trkpt>
      <trkpt lat="47.33486" lon="-1.51967">
        <ele>11.1</ele>
        <time>2015-01-04T09:17:10Z</time>
      </trkpt>
      <trkpt lat="47.33478" lon="-1.51946">
        <ele>11.1</ele>
        <time>2015-01-04T09:17:13Z</time>
      </trkpt>
      <trkpt lat="47.3347" lon="-1.51925">
        <ele>11.1</ele>
        <time>2015-01-04T09:17:16Z</time>
      </trkpt>
      <trkpt lat="47.3346" lon="-1.51903">
        <ele>11.2</ele>
        <time>2015-01-04T09:17:19Z</time>
      </trkpt>
      <trkpt lat="47.33449" lon="-1.5188">
        <ele>11.2</ele>
        <time>2015-01-04T09:17:22Z</time>
      </trkpt>
      <trkpt lat="47.33438" lon="-1.51861">
        <ele>11.2</ele>
        <time>2015-01-04T09:17:25Z</time>
      </trkpt>
      <trkpt lat="47.33427" lon="-1.5184">
        <ele>11.2</ele>
        <time>2015-01-04T09:17:28Z</time>
      </trkpt>
      <trkpt lat="47.33414" lon="-1.51819">
        <ele>11</ele>
        <time>2015-01-04T09:17:31Z</time>
      </trkpt>
      <trkpt lat="47.33403" lon="-1.51798">
        <ele>11</ele>
        <time>2015-01-04T09:17:34Z</time>
      </trkpt>
      <trkpt lat="47.33391" lon="-1.51779">
        <ele>10.8</ele>
        <time>2015-01-04T09:17:37Z</time>
      </trkpt>
      <trkpt lat="47.33378" lon="-1.51762">
        <ele>10.8</ele>
        <time>2015-01-04T09:17:40Z</time>
      </trkpt>
      <trkpt lat="47.3337" lon="-1.51739">
        <ele>10.7</ele>
        <time>2015-01-04T09:17:43Z</time>
      </trkpt>
      <trkpt lat="47.33362" lon="-1.51722">
        <ele>10.7</ele>
        <time>2015-01-04T09:17:45Z</time>
      </trkpt>
      <trkpt lat="47.33348" lon="-1.517">
        <ele>10.7</ele>
        <time>2015-01-04T09:17:48Z</time>
      </trkpt>
      <trkpt lat="47.33335" lon="-1.51677">
        <ele>10.6</ele>
        <time>2015-01-04T09:17:51Z</time>
      </trkpt>
      <trkpt lat="47.33325" lon="-1.51662">
        <ele>10.6</ele>
        <time>2015-01-04T09:17:53Z</time>
      </trkpt>
      <trkpt lat="47.33313" lon="-1.51641">
        <ele>10.5</ele>
        <time>2015-01-04T09:17:56Z</time>
      </trkpt>
      <trkpt lat="47.33301" lon="-1.51622">
        <ele>10.5</ele>
        <time>2015-01-04T09:17:59Z</time>
      </trkpt>
      <trkpt lat="47.33289" lon="-1.516">
        <ele>10.4</ele>
        <time>2015-01-04T09:18:02Z</time>
      </trkpt>
      <trkpt lat="47.33278" lon="-1.51578">
        <ele>10.3</ele>
        <time>2015-01-04T09:18:05Z</time>
      </trkpt>
      <trkpt lat="47.33267" lon="-1.51557">
        <ele>10.3</ele>
        <time>2015-01-04T09:18:08Z</time>
      </trkpt>
      <trkpt lat="47.33256" lon="-1.51536">
        <ele>9.9</ele>
        <time>2015-01-04T09:18:11Z</time>
      </trkpt>
      <trkpt lat="47.33244" lon="-1.51517">
        <ele>9.6</ele>
        <time>2015-01-04T09:18:14Z</time>
      </trkpt>
      <trkpt lat="47.33231" lon="-1.51495">
        <ele>9.4</ele>
        <time>2015-01-04T09:18:17Z</time>
      </trkpt>
      <trkpt lat="47.33219" lon="-1.51472">
        <ele>9.2</ele>
        <time>2015-01-04T09:18:20Z</time>
      </trkpt>
      <trkpt lat="47.33209" lon="-1.51453">
        <ele>9</ele>
        <time>2015-01-04T09:18:23Z</time>
      </trkpt>
      <trkpt lat="47.33196" lon="-1.51434">
        <ele>8.9</ele>
        <time>2015-01-04T09:18:26Z</time>
      </trkpt>
      <trkpt lat="47.33183" lon="-1.51414">
        <ele>8.9</ele>
        <time>2015-01-04T09:18:29Z</time>
      </trkpt>
      <trkpt lat="47.33173" lon="-1.51401">
        <ele>8.9</ele>
        <time>2015-01-04T09:18:31Z</time>
      </trkpt>
      <trkpt lat="47.3316" lon="-1.51381">
        <ele>8.9</ele>
        <time>2015-01-04T09:18:34Z</time>
      </trkpt>
      <trkpt lat="47.33144" lon="-1.51364">
        <ele>8.9</ele>
        <time>2015-01-04T09:18:37Z</time>
      </trkpt>
      <trkpt lat="47.33133" lon="-1.51352">
        <ele>8.9</ele>
        <time>2015-01-04T09:18:39Z</time>
      </trkpt>
      <trkpt lat="47.33121" lon="-1.51339">
        <ele>8.9</ele>
        <time>2015-01-04T09:18:41Z</time>
      </trkpt>
      <trkpt lat="47.3311" lon="-1.51327">
        <ele>8.9</ele>
        <time>2015-01-04T09:18:43Z</time>
      </trkpt>
      <trkpt lat="47.33093" lon="-1.5131">
        <ele>8.9</ele>
        <time>2015-01-04T09:18:46Z</time>
      </trkpt>
      <trkpt lat="47.3308" lon="-1.51298">
        <ele>9</ele>
        <time>2015-01-04T09:18:48Z</time>
      </trkpt>
      <trkpt lat="47.33068" lon="-1.51286">
        <ele>9.2</ele>
        <time>2015-01-04T09:18:50Z</time>
      </trkpt>
      <trkpt lat="47.33052" lon="-1.5127">
        <ele>9.5</ele>
        <time>2015-01-04T09:18:53Z</time>
      </trkpt>
      <trkpt lat="47.33039" lon="-1.51262">
        <ele>9.6</ele>
        <time>2015-01-04T09:18:55Z</time>
      </trkpt>
      <trkpt lat="47.33025" lon="-1.51254">
        <ele>9.6</ele>
        <time>2015-01-04T09:18:57Z</time>
      </trkpt>
      <trkpt lat="47.33004" lon="-1.51235">
        <ele>9.6</ele>
        <time>2015-01-04T09:19:01Z</time>
      </trkpt>
      <trkpt lat="47.32988" lon="-1.51223">
        <ele>9.6</ele>
        <time>2015-01-04T09:19:04Z</time>
      </trkpt>
      <trkpt lat="47.32971" lon="-1.5121">
        <ele>9.6</ele>
        <time>2015-01-04T09:19:07Z</time>
      </trkpt>
      <trkpt lat="47.3296" lon="-1.512">
        <ele>9.6</ele>
        <time>2015-01-04T09:19:09Z</time>
      </trkpt>
      <trkpt lat="47.32947" lon="-1.51192">
        <ele>9.6</ele>
        <time>2015-01-04T09:19:11Z</time>
      </trkpt>
      <trkpt lat="47.32935" lon="-1.51183">
        <ele>9.5</ele>
        <time>2015-01-04T09:19:13Z</time>
      </trkpt>
      <trkpt lat="47.32923" lon="-1.51176">
        <ele>9.2</ele>
        <time>2015-01-04T09:19:15Z</time>
      </trkpt>
      <trkpt lat="47.32903" lon="-1.51168">
        <ele>9</ele>
        <time>2015-01-04T09:19:18Z</time>
      </trkpt>
      <trkpt lat="47.32891" lon="-1.51162">
        <ele>8.8</ele>
        <time>2015-01-04T09:19:20Z</time>
      </trkpt>
      <trkpt lat="47.32877" lon="-1.51157">
        <ele>8.7</ele>
        <time>2015-01-04T09:19:22Z</time>
      </trkpt>
      <trkpt lat="47.32846" lon="-1.51149">
        <ele>8.4</ele>
        <time>2015-01-04T09:19:27Z</time>
      </trkpt>
      <trkpt lat="47.32835" lon="-1.51149">
        <ele>8.3</ele>
        <time>2015-01-04T09:19:29Z</time>
      </trkpt>
      <trkpt lat="47.32817" lon="-1.51146">
        <ele>8.3</ele>
        <time>2015-01-04T09:19:32Z</time>
      </trkpt>
      <trkpt lat="47.328" lon="-1.51147">
        <ele>8.3</ele>
        <time>2015-01-04T09:19:35Z</time>
      </trkpt>
      <trkpt lat="47.32788" lon="-1.51148">
        <ele>8.3</ele>
        <time>2015-01-04T09:19:37Z</time>
      </trkpt>
      <trkpt lat="47.32777" lon="-1.51151">
        <ele>8.2</ele>
        <time>2015-01-04T09:19:39Z</time>
      </trkpt>
      <trkpt lat="47.32764" lon="-1.51152">
        <ele>8.1</ele>
        <time>2015-01-04T09:19:41Z</time>
      </trkpt>
      <trkpt lat="47.32754" lon="-1.51157">
        <ele>8.2</ele>
        <time>2015-01-04T09:19:43Z</time>
      </trkpt>
      <trkpt lat="47.32737" lon="-1.51154">
        <ele>8.3</ele>
        <time>2015-01-04T09:19:46Z</time>
      </trkpt>
      <trkpt lat="47.32726" lon="-1.51156">
        <ele>8.3</ele>
        <time>2015-01-04T09:19:48Z</time>
      </trkpt>
      <trkpt lat="47.32715" lon="-1.51156">
        <ele>8.3</ele>
        <time>2015-01-04T09:19:50Z</time>
      </trkpt>
      <trkpt lat="47.32704" lon="-1.5116">
        <ele>8.3</ele>
        <time>2015-01-04T09:19:52Z</time>
      </trkpt>
      <trkpt lat="47.32694" lon="-1.51163">
        <ele>8.3</ele>
        <time>2015-01-04T09:19:54Z</time>
      </trkpt>
      <trkpt lat="47.32685" lon="-1.51163">
        <ele>8.3</ele>
        <time>2015-01-04T09:19:56Z</time>
      </trkpt>
      <trkpt lat="47.32675" lon="-1.51164">
        <ele>8.3</ele>
        <time>2015-01-04T09:19:58Z</time>
      </trkpt>
      <trkpt lat="47.32665" lon="-1.51166">
        <ele>8.3</ele>
        <time>2015-01-04T09:20:00Z</time>
      </trkpt>
      <trkpt lat="47.3265" lon="-1.51169">
        <ele>8.7</ele>
        <time>2015-01-04T09:20:03Z</time>
      </trkpt>
      <trkpt lat="47.32637" lon="-1.51173">
        <ele>9.5</ele>
        <time>2015-01-04T09:20:06Z</time>
      </trkpt>
      <trkpt lat="47.32628" lon="-1.51173">
        <ele>9.9</ele>
        <time>2015-01-04T09:20:08Z</time>
      </trkpt>
      <trkpt lat="47.32615" lon="-1.51178">
        <ele>10.9</ele>
        <time>2015-01-04T09:20:11Z</time>
      </trkpt>
      <trkpt lat="47.32598" lon="-1.51185">
        <ele>11.6</ele>
        <time>2015-01-04T09:20:15Z</time>
      </trkpt>
      <trkpt lat="47.32588" lon="-1.51189">
        <ele>12</ele>
        <time>2015-01-04T09:20:18Z</time>
      </trkpt>
      <trkpt lat="47.32577" lon="-1.51195">
        <ele>12.7</ele>
        <time>2015-01-04T09:20:22Z</time>
      </trkpt>
      <trkpt lat="47.32571" lon="-1.51199">
        <ele>15.1</ele>
        <time>2015-01-04T09:20:24Z</time>
      </trkpt>
      <trkpt lat="47.32566" lon="-1.51202">
        <ele>15.1</ele>
        <time>2015-01-04T09:20:26Z</time>
      </trkpt>
      <trkpt lat="47.32561" lon="-1.51202">
        <ele>15.1</ele>
        <time>2015-01-04T09:20:28Z</time>
      </trkpt>
      <trkpt lat="47.32556" lon="-1.51205">
        <ele>16.4</ele>
        <time>2015-01-04T09:20:30Z</time>
      </trkpt>
      <trkpt lat="47.3255" lon="-1.51205">
        <ele>16.4</ele>
        <time>2015-01-04T09:20:32Z</time>
      </trkpt>
      <trkpt lat="47.32542" lon="-1.51205">
        <ele>16.4</ele>
        <time>2015-01-04T09:20:34Z</time>
      </trkpt>
      <trkpt lat="47.32533" lon="-1.51204">
        <ele>16.5</ele>
        <time>2015-01-04T09:20:36Z</time>
      </trkpt>
      <trkpt lat="47.32518" lon="-1.51202">
        <ele>16.6</ele>
        <time>2015-01-04T09:20:39Z</time>
      </trkpt>
      <trkpt lat="47.32503" lon="-1.51202">
        <ele>16.8</ele>
        <time>2015-01-04T09:20:42Z</time>
      </trkpt>
      <trkpt lat="47.3247" lon="-1.51198">
        <ele>17.3</ele>
        <time>2015-01-04T09:20:47Z</time>
      </trkpt>
      <trkpt lat="47.32455" lon="-1.51198">
        <ele>17.3</ele>
        <time>2015-01-04T09:20:49Z</time>
      </trkpt>
      <trkpt lat="47.32439" lon="-1.51199">
        <ele>17.4</ele>
        <time>2015-01-04T09:20:51Z</time>
      </trkpt>
      <trkpt lat="47.32416" lon="-1.51197">
        <ele>17.4</ele>
        <time>2015-01-04T09:20:54Z</time>
      </trkpt>
      <trkpt lat="47.32402" lon="-1.51194">
        <ele>17.4</ele>
        <time>2015-01-04T09:20:56Z</time>
      </trkpt>
      <trkpt lat="47.32391" lon="-1.51193">
        <ele>17.4</ele>
        <time>2015-01-04T09:20:57Z</time>
      </trkpt>
      <trkpt lat="47.32366" lon="-1.51189">
        <ele>17.4</ele>
        <time>2015-01-04T09:21:00Z</time>
      </trkpt>
      <trkpt lat="47.32348" lon="-1.51186">
        <ele>17.4</ele>
        <time>2015-01-04T09:21:02Z</time>
      </trkpt>
      <trkpt lat="47.32339" lon="-1.51186">
        <ele>17.4</ele>
        <time>2015-01-04T09:21:03Z</time>
      </trkpt>
      <trkpt lat="47.32322" lon="-1.51184">
        <ele>17.2</ele>
        <time>2015-01-04T09:21:05Z</time>
      </trkpt>
      <trkpt lat="47.32314" lon="-1.51182">
        <ele>17.2</ele>
        <time>2015-01-04T09:21:06Z</time>
      </trkpt>
      <trkpt lat="47.32291" lon="-1.51177">
        <ele>17.2</ele>
        <time>2015-01-04T09:21:09Z</time>
      </trkpt>
      <trkpt lat="47.32275" lon="-1.51171">
        <ele>17</ele>
        <time>2015-01-04T09:21:11Z</time>
      </trkpt>
      <trkpt lat="47.32252" lon="-1.51162">
        <ele>16.7</ele>
        <time>2015-01-04T09:21:14Z</time>
      </trkpt>
      <trkpt lat="47.32239" lon="-1.51156">
        <ele>16.6</ele>
        <time>2015-01-04T09:21:16Z</time>
      </trkpt>
      <trkpt lat="47.32226" lon="-1.5115">
        <ele>16.6</ele>
        <time>2015-01-04T09:21:18Z</time>
      </trkpt>
      <trkpt lat="47.32214" lon="-1.51146">
        <ele>16.6</ele>
        <time>2015-01-04T09:21:20Z</time>
      </trkpt>
      <trkpt lat="47.32202" lon="-1.51142">
        <ele>16.6</ele>
        <time>2015-01-04T09:21:22Z</time>
      </trkpt>
      <trkpt lat="47.3219" lon="-1.51138">
        <ele>16.4</ele>
        <time>2015-01-04T09:21:24Z</time>
      </trkpt>
      <trkpt lat="47.32177" lon="-1.51134">
        <ele>16</ele>
        <time>2015-01-04T09:21:26Z</time>
      </trkpt>
      <trkpt lat="47.32165" lon="-1.51129">
        <ele>15.4</ele>
        <time>2015-01-04T09:21:28Z</time>
      </trkpt>
      <trkpt lat="47.32147" lon="-1.51122">
        <ele>14.7</ele>
        <time>2015-01-04T09:21:31Z</time>
      </trkpt>
      <trkpt lat="47.32133" lon="-1.51117">
        <ele>14.6</ele>
        <time>2015-01-04T09:21:34Z</time>
      </trkpt>
      <trkpt lat="47.3213" lon="-1.51096">
        <ele>14.5</ele>
        <time>2015-01-04T09:21:38Z</time>
      </trkpt>
      <trkpt lat="47.32126" lon="-1.51128">
        <ele>14.5</ele>
        <time>2015-01-04T09:21:39Z</time>
      </trkpt>
      <trkpt lat="47.32132" lon="-1.51148">
        <ele>14.6</ele>
        <time>2015-01-04T09:21:43Z</time>
      </trkpt>
      <trkpt lat="47.32136" lon="-1.51169">
        <ele>14.6</ele>
        <time>2015-01-04T09:21:47Z</time>
      </trkpt>
      <trkpt lat="47.3214" lon="-1.5119">
        <ele>14.5</ele>
        <time>2015-01-04T09:21:51Z</time>
      </trkpt>
      <trkpt lat="47.32146" lon="-1.51214">
        <ele>14.6</ele>
        <time>2015-01-04T09:21:55Z</time>
      </trkpt>
      <trkpt lat="47.3215" lon="-1.51234">
        <ele>14.6</ele>
        <time>2015-01-04T09:21:58Z</time>
      </trkpt>
      <trkpt lat="47.32155" lon="-1.51253">
        <ele>15.3</ele>
        <time>2015-01-04T09:22:01Z</time>
      </trkpt>
      <trkpt lat="47.32159" lon="-1.51274">
        <ele>16.2</ele>
        <time>2015-01-04T09:22:04Z</time>
      </trkpt>
      <trkpt lat="47.32164" lon="-1.51297">
        <ele>16.3</ele>
        <time>2015-01-04T09:22:07Z</time>
      </trkpt>
      <trkpt lat="47.32167" lon="-1.51317">
        <ele>16.4</ele>
        <time>2015-01-04T09:22:10Z</time>
      </trkpt>
      <trkpt lat="47.32168" lon="-1.51338">
        <ele>16.4</ele>
        <time>2015-01-04T09:22:13Z</time>
      </trkpt>
      <trkpt lat="47.32168" lon="-1.51359">
        <ele>16.4</ele>
        <time>2015-01-04T09:22:16Z</time>
      </trkpt>
      <trkpt lat="47.32164" lon="-1.51381">
        <ele>16.4</ele>
        <time>2015-01-04T09:22:20Z</time>
      </trkpt>
      <trkpt lat="47.32159" lon="-1.51406">
        <ele>16.4</ele>
        <time>2015-01-04T09:22:24Z</time>
      </trkpt>
      <trkpt lat="47.32152" lon="-1.51426">
        <ele>16.4</ele>
        <time>2015-01-04T09:22:27Z</time>
      </trkpt>
      <trkpt lat="47.32143" lon="-1.51444">
        <ele>16.4</ele>
        <time>2015-01-04T09:22:30Z</time>
      </trkpt>
      <trkpt lat="47.3213" lon="-1.51459">
        <ele>16.5</ele>
        <time>2015-01-04T09:22:34Z</time>
      </trkpt>
      <trkpt lat="47.3212" lon="-1.51472">
        <ele>16.5</ele>
        <time>2015-01-04T09:22:37Z</time>
      </trkpt>
      <trkpt lat="47.32115" lon="-1.51493">
        <ele>16.6</ele>
        <time>2015-01-04T09:22:40Z</time>
      </trkpt>
      <trkpt lat="47.32114" lon="-1.51516">
        <ele>16.5</ele>
        <time>2015-01-04T09:22:44Z</time>
      </trkpt>
      <trkpt lat="47.32118" lon="-1.51538">
        <ele>16.6</ele>
        <time>2015-01-04T09:22:48Z</time>
      </trkpt>
      <trkpt lat="47.32122" lon="-1.51563">
        <ele>16.5</ele>
        <time>2015-01-04T09:22:51Z</time>
      </trkpt>
      <trkpt lat="47.3212" lon="-1.51587">
        <ele>16.6</ele>
        <time>2015-01-04T09:22:55Z</time>
      </trkpt>
      <trkpt lat="47.32122" lon="-1.516">
        <ele>16.6</ele>
        <time>2015-01-04T09:22:58Z</time>
      </trkpt>
      <trkpt lat="47.32123" lon="-1.5162">
        <ele>16.9</ele>
        <time>2015-01-04T09:23:02Z</time>
      </trkpt>
      <trkpt lat="47.32126" lon="-1.5164">
        <ele>17.8</ele>
        <time>2015-01-04T09:23:06Z</time>
      </trkpt>
      <trkpt lat="47.32128" lon="-1.5165">
        <ele>18.5</ele>
        <time>2015-01-04T09:23:08Z</time>
      </trkpt>
      <trkpt lat="47.3213" lon="-1.51662">
        <ele>18.5</ele>
        <time>2015-01-04T09:23:11Z</time>
      </trkpt>
      <trkpt lat="47.32136" lon="-1.51687">
        <ele>18.8</ele>
        <time>2015-01-04T09:23:15Z</time>
      </trkpt>
      <trkpt lat="47.3214" lon="-1.51711">
        <ele>19.8</ele>
        <time>2015-01-04T09:23:23Z</time>
      </trkpt>
      <trkpt lat="47.32144" lon="-1.51732">
        <ele>20</ele>
        <time>2015-01-04T09:23:27Z</time>
      </trkpt>
      <trkpt lat="47.32147" lon="-1.51754">
        <ele>20.3</ele>
        <time>2015-01-04T09:23:30Z</time>
      </trkpt>
      <trkpt lat="47.32149" lon="-1.51776">
        <ele>21</ele>
        <time>2015-01-04T09:23:33Z</time>
      </trkpt>
      <trkpt lat="47.32149" lon="-1.518">
        <ele>21.2</ele>
        <time>2015-01-04T09:23:36Z</time>
      </trkpt>
      <trkpt lat="47.32147" lon="-1.51822">
        <ele>21.3</ele>
        <time>2015-01-04T09:23:39Z</time>
      </trkpt>
      <trkpt lat="47.32144" lon="-1.51843">
        <ele>21.4</ele>
        <time>2015-01-04T09:23:42Z</time>
      </trkpt>
      <trkpt lat="47.3214" lon="-1.51866">
        <ele>21.4</ele>
        <time>2015-01-04T09:23:45Z</time>
      </trkpt>
      <trkpt lat="47.32137" lon="-1.51886">
        <ele>21.4</ele>
        <time>2015-01-04T09:23:48Z</time>
      </trkpt>
      <trkpt lat="47.32133" lon="-1.51906">
        <ele>21.4</ele>
        <time>2015-01-04T09:23:51Z</time>
      </trkpt>
      <trkpt lat="47.3213" lon="-1.51928">
        <ele>21.4</ele>
        <time>2015-01-04T09:23:54Z</time>
      </trkpt>
      <trkpt lat="47.32129" lon="-1.51955">
        <ele>21.4</ele>
        <time>2015-01-04T09:23:58Z</time>
      </trkpt>
      <trkpt lat="47.3213" lon="-1.51978">
        <ele>21.4</ele>
        <time>2015-01-04T09:24:01Z</time>
      </trkpt>
      <trkpt lat="47.32134" lon="-1.52006">
        <ele>21.4</ele>
        <time>2015-01-04T09:24:04Z</time>
      </trkpt>
      <trkpt lat="47.32136" lon="-1.52031">
        <ele>21.3</ele>
        <time>2015-01-04T09:24:07Z</time>
      </trkpt>
      <trkpt lat="47.32136" lon="-1.52056">
        <ele>21.1</ele>
        <time>2015-01-04T09:24:10Z</time>
      </trkpt>
      <trkpt lat="47.32132" lon="-1.52084">
        <ele>20.8</ele>
        <time>2015-01-04T09:24:13Z</time>
      </trkpt>
      <trkpt lat="47.32129" lon="-1.52103">
        <ele>20.4</ele>
        <time>2015-01-04T09:24:15Z</time>
      </trkpt>
      <trkpt lat="47.32127" lon="-1.52124">
        <ele>20.1</ele>
        <time>2015-01-04T09:24:17Z</time>
      </trkpt>
      <trkpt lat="47.32127" lon="-1.52144">
        <ele>20</ele>
        <time>2015-01-04T09:24:19Z</time>
      </trkpt>
      <trkpt lat="47.32129" lon="-1.52166">
        <ele>19.9</ele>
        <time>2015-01-04T09:24:21Z</time>
      </trkpt>
      <trkpt lat="47.32132" lon="-1.52187">
        <ele>19.8</ele>
        <time>2015-01-04T09:24:23Z</time>
      </trkpt>
      <trkpt lat="47.32136" lon="-1.52211">
        <ele>19.6</ele>
        <time>2015-01-04T09:24:25Z</time>
      </trkpt>
      <trkpt lat="47.3214" lon="-1.52234">
        <ele>19.5</ele>
        <time>2015-01-04T09:24:27Z</time>
      </trkpt>
      <trkpt lat="47.32143" lon="-1.52255">
        <ele>19.4</ele>
        <time>2015-01-04T09:24:29Z</time>
      </trkpt>
      <trkpt lat="47.32143" lon="-1.52277">
        <ele>19.2</ele>
        <time>2015-01-04T09:24:32Z</time>
      </trkpt>
      <trkpt lat="47.32138" lon="-1.5228">
        <ele>18.4</ele>
        <time>2015-01-04T09:24:34Z</time>
      </trkpt>
      <trkpt lat="47.32131" lon="-1.52283">
        <ele>18.4</ele>
        <time>2015-01-04T09:24:38Z</time>
      </trkpt>
      <trkpt lat="47.32121" lon="-1.52287">
        <ele>18.3</ele>
        <time>2015-01-04T09:24:41Z</time>
      </trkpt>
      <trkpt lat="47.32111" lon="-1.52292">
        <ele>17.7</ele>
        <time>2015-01-04T09:24:45Z</time>
      </trkpt>
      <trkpt lat="47.32106" lon="-1.52292">
        <ele>16.7</ele>
        <time>2015-01-04T09:24:49Z</time>
      </trkpt>
      <trkpt lat="47.32101" lon="-1.52296">
        <ele>14.1</ele>
        <time>2015-01-04T09:24:52Z</time>
      </trkpt>
      <trkpt lat="47.32064" lon="-1.52292">
        <ele>13.7</ele>
        <time>2015-01-04T09:25:06Z</time>
      </trkpt>
      <trkpt lat="47.32058" lon="-1.52294">
        <ele>13.7</ele>
        <time>2015-01-04T09:25:08Z</time>
      </trkpt>
      <trkpt lat="47.32052" lon="-1.52295">
        <ele>13.7</ele>
        <time>2015-01-04T09:25:10Z</time>
      </trkpt>
      <trkpt lat="47.32047" lon="-1.52294">
        <ele>13.7</ele>
        <time>2015-01-04T09:25:12Z</time>
      </trkpt>
      <trkpt lat="47.32042" lon="-1.52305">
        <ele>13.7</ele>
        <time>2015-01-04T09:25:16Z</time>
      </trkpt>
      <trkpt lat="47.3204" lon="-1.52326">
        <ele>13.7</ele>
        <time>2015-01-04T09:25:20Z</time>
      </trkpt>
      <trkpt lat="47.3204" lon="-1.52336">
        <ele>13.7</ele>
        <time>2015-01-04T09:25:22Z</time>
      </trkpt>
      <trkpt lat="47.32034" lon="-1.52336">
        <ele>13.7</ele>
        <time>2015-01-04T09:25:25Z</time>
      </trkpt>
      <trkpt lat="47.3203" lon="-1.52331">
        <ele>14.7</ele>
        <time>2015-01-04T09:25:27Z</time>
      </trkpt>
      <trkpt lat="47.32023" lon="-1.52336">
        <ele>14.7</ele>
        <time>2015-01-04T09:25:30Z</time>
      </trkpt>
      <trkpt lat="47.32012" lon="-1.52335">
        <ele>16</ele>
        <time>2015-01-04T09:25:33Z</time>
      </trkpt>
      <trkpt lat="47.32002" lon="-1.5234">
        <ele>16.4</ele>
        <time>2015-01-04T09:25:36Z</time>
      </trkpt>
      <trkpt lat="47.31992" lon="-1.52346">
        <ele>16.6</ele>
        <time>2015-01-04T09:25:39Z</time>
      </trkpt>
      <trkpt lat="47.31983" lon="-1.52354">
        <ele>17.5</ele>
        <time>2015-01-04T09:25:42Z</time>
      </trkpt>
      <trkpt lat="47.31968" lon="-1.52361">
        <ele>17.8</ele>
        <time>2015-01-04T09:25:46Z</time>
      </trkpt>
      <trkpt lat="47.31949" lon="-1.52362">
        <ele>17.9</ele>
        <time>2015-01-04T09:25:50Z</time>
      </trkpt>
      <trkpt lat="47.31941" lon="-1.52362">
        <ele>18</ele>
        <time>2015-01-04T09:25:52Z</time>
      </trkpt>
      <trkpt lat="47.31932" lon="-1.5236">
        <ele>18</ele>
        <time>2015-01-04T09:25:54Z</time>
      </trkpt>
      <trkpt lat="47.31927" lon="-1.52359">
        <ele>18</ele>
        <time>2015-01-04T09:25:55Z</time>
      </trkpt>
      <trkpt lat="47.31922" lon="-1.52358">
        <ele>18</ele>
        <time>2015-01-04T09:25:56Z</time>
      </trkpt>
      <trkpt lat="47.31908" lon="-1.52353">
        <ele>18</ele>
        <time>2015-01-04T09:25:58Z</time>
      </trkpt>
      <trkpt lat="47.31899" lon="-1.52357">
        <ele>18.1</ele>
        <time>2015-01-04T09:26:00Z</time>
      </trkpt>
      <trkpt lat="47.31889" lon="-1.52351">
        <ele>18.2</ele>
        <time>2015-01-04T09:26:02Z</time>
      </trkpt>
      <trkpt lat="47.31878" lon="-1.52354">
        <ele>18.2</ele>
        <time>2015-01-04T09:26:05Z</time>
      </trkpt>
      <trkpt lat="47.31864" lon="-1.52355">
        <ele>18.2</ele>
        <time>2015-01-04T09:26:08Z</time>
      </trkpt>
      <trkpt lat="47.3185" lon="-1.52346">
        <ele>18.2</ele>
        <time>2015-01-04T09:26:10Z</time>
      </trkpt>
      <trkpt lat="47.31838" lon="-1.52337">
        <ele>18.2</ele>
        <time>2015-01-04T09:26:12Z</time>
      </trkpt>
      <trkpt lat="47.31824" lon="-1.52338">
        <ele>18.2</ele>
        <time>2015-01-04T09:26:14Z</time>
      </trkpt>
      <trkpt lat="47.3181" lon="-1.52338">
        <ele>18.1</ele>
        <time>2015-01-04T09:26:16Z</time>
      </trkpt>
      <trkpt lat="47.31799" lon="-1.52344">
        <ele>18</ele>
        <time>2015-01-04T09:26:18Z</time>
      </trkpt>
      <trkpt lat="47.31792" lon="-1.52345">
        <ele>18</ele>
        <time>2015-01-04T09:26:19Z</time>
      </trkpt>
      <trkpt lat="47.31786" lon="-1.52346">
        <ele>18</ele>
        <time>2015-01-04T09:26:20Z</time>
      </trkpt>
      <trkpt lat="47.31778" lon="-1.52347">
        <ele>18</ele>
        <time>2015-01-04T09:26:21Z</time>
      </trkpt>
      <trkpt lat="47.31773" lon="-1.52347">
        <ele>18</ele>
        <time>2015-01-04T09:26:22Z</time>
      </trkpt>
      <trkpt lat="47.3174" lon="-1.5234">
        <ele>17.9</ele>
        <time>2015-01-04T09:26:27Z</time>
      </trkpt>
      <trkpt lat="47.31727" lon="-1.52336">
        <ele>17.7</ele>
        <time>2015-01-04T09:26:29Z</time>
      </trkpt>
      <trkpt lat="47.31716" lon="-1.52329">
        <ele>17.6</ele>
        <time>2015-01-04T09:26:32Z</time>
      </trkpt>
      <trkpt lat="47.31714" lon="-1.52336">
        <ele>16.1</ele>
        <time>2015-01-04T09:26:37Z</time>
      </trkpt>
      <trkpt lat="47.31717" lon="-1.52341">
        <ele>16.1</ele>
        <time>2015-01-04T09:26:40Z</time>
      </trkpt>
      <trkpt lat="47.31723" lon="-1.52342">
        <ele>15.7</ele>
        <time>2015-01-04T09:26:44Z</time>
      </trkpt>
      <trkpt lat="47.31724" lon="-1.52342">
        <ele>15.1</ele>
        <time>2015-01-04T09:26:46Z</time>
      </trkpt>
      <trkpt lat="47.31723" lon="-1.52344">
        <ele>9.3</ele>
        <time>2015-01-04T09:26:50Z</time>
      </trkpt>
      <trkpt lat="47.31723" lon="-1.52344">
        <ele>9.8</ele>
        <time>2015-01-04T09:26:50Z</time>
      </trkpt>
      <trkpt lat="47.31723" lon="-1.52344">
        <ele>9.8</ele>
        <time>2015-01-04T09:28:56Z</time>
      </trkpt>
      <trkpt lat="47.31726" lon="-1.52362">
        <ele>6.3</ele>
        <time>2015-01-04T09:28:57Z</time>
      </trkpt>
      <trkpt lat="47.31721" lon="-1.52361">
        <ele>5.8</ele>
        <time>2015-01-04T09:29:01Z</time>
      </trkpt>
      <trkpt lat="47.31712" lon="-1.52357">
        <ele>5.7</ele>
        <time>2015-01-04T09:29:09Z</time>
      </trkpt>
      <trkpt lat="47.31707" lon="-1.52357">
        <ele>5.6</ele>
        <time>2015-01-04T09:29:17Z</time>
      </trkpt>
      <trkpt lat="47.31699" lon="-1.5235">
        <ele>5.6</ele>
        <time>2015-01-04T09:29:26Z</time>
      </trkpt>
      <trkpt lat="47.31694" lon="-1.5235">
        <ele>5.6</ele>
        <time>2015-01-04T09:29:28Z</time>
      </trkpt>
      <trkpt lat="47.31687" lon="-1.52347">
        <ele>5.6</ele>
        <time>2015-01-04T09:29:30Z</time>
      </trkpt>
      <trkpt lat="47.31683" lon="-1.52343">
        <ele>5.6</ele>
        <time>2015-01-04T09:29:32Z</time>
      </trkpt>
      <trkpt lat="47.31678" lon="-1.52341">
        <ele>5.6</ele>
        <time>2015-01-04T09:29:34Z</time>
      </trkpt>
      <trkpt lat="47.31672" lon="-1.52342">
        <ele>5.6</ele>
        <time>2015-01-04T09:29:37Z</time>
      </trkpt>
      <trkpt lat="47.31661" lon="-1.52341">
        <ele>5.7</ele>
        <time>2015-01-04T09:29:41Z</time>
      </trkpt>
      <trkpt lat="47.31652" lon="-1.52346">
        <ele>5.8</ele>
        <time>2015-01-04T09:29:44Z</time>
      </trkpt>
      <trkpt lat="47.31645" lon="-1.52352">
        <ele>5.9</ele>
        <time>2015-01-04T09:29:48Z</time>
      </trkpt>
      <trkpt lat="47.3164" lon="-1.52353">
        <ele>5.9</ele>
        <time>2015-01-04T09:29:51Z</time>
      </trkpt>
      <trkpt lat="47.31629" lon="-1.52353">
        <ele>5.9</ele>
        <time>2015-01-04T09:29:56Z</time>
      </trkpt>
      <trkpt lat="47.3162" lon="-1.52354">
        <ele>6.1</ele>
        <time>2015-01-04T09:30:02Z</time>
      </trkpt>
      <trkpt lat="47.31611" lon="-1.52361">
        <ele>6.2</ele>
        <time>2015-01-04T09:30:08Z</time>
      </trkpt>
      <trkpt lat="47.31611" lon="-1.52361">
        <ele>6.3</ele>
        <time>2015-01-04T09:30:09Z</time>
      </trkpt>
      <trkpt lat="47.3161" lon="-1.52362">
        <ele>6.6</ele>
        <time>2015-01-04T09:30:11Z</time>
      </trkpt>
      <trkpt lat="47.3161" lon="-1.52362">
        <ele>9</ele>
        <time>2015-01-04T09:30:11Z</time>
      </trkpt>
      <trkpt lat="47.3161" lon="-1.52362">
        <ele>9</ele>
        <time>2015-01-04T09:30:19Z</time>
      </trkpt>
      <trkpt lat="47.31599" lon="-1.52364">
        <ele>6.5</ele>
        <time>2015-01-04T09:30:20Z</time>
      </trkpt>
      <trkpt lat="47.31594" lon="-1.52365">
        <ele>6.5</ele>
        <time>2015-01-04T09:30:25Z</time>
      </trkpt>
      <trkpt lat="47.3159" lon="-1.52371">
        <ele>6.5</ele>
        <time>2015-01-04T09:30:29Z</time>
      </trkpt>
      <trkpt lat="47.31581" lon="-1.5238">
        <ele>6.4</ele>
        <time>2015-01-04T09:30:34Z</time>
      </trkpt>
      <trkpt lat="47.31569" lon="-1.52391">
        <ele>6.3</ele>
        <time>2015-01-04T09:30:43Z</time>
      </trkpt>
      <trkpt lat="47.31564" lon="-1.52395">
        <ele>6.3</ele>
        <time>2015-01-04T09:30:46Z</time>
      </trkpt>
      <trkpt lat="47.31559" lon="-1.52398">
        <ele>6.3</ele>
        <time>2015-01-04T09:30:48Z</time>
      </trkpt>
      <trkpt lat="47.3155" lon="-1.52403">
        <ele>6.2</ele>
        <time>2015-01-04T09:30:51Z</time>
      </trkpt>
      <trkpt lat="47.31538" lon="-1.52405">
        <ele>6.2</ele>
        <time>2015-01-04T09:30:56Z</time>
      </trkpt>
      <trkpt lat="47.31529" lon="-1.52409">
        <ele>6</ele>
        <time>2015-01-04T09:30:59Z</time>
      </trkpt>
      <trkpt lat="47.31519" lon="-1.52411">
        <ele>5.9</ele>
        <time>2015-01-04T09:31:03Z</time>
      </trkpt>
      <trkpt lat="47.31504" lon="-1.52417">
        <ele>5.4</ele>
        <time>2015-01-04T09:31:10Z</time>
      </trkpt>
      <trkpt lat="47.31495" lon="-1.52423">
        <ele>5.4</ele>
        <time>2015-01-04T09:31:13Z</time>
      </trkpt>
      <trkpt lat="47.3149" lon="-1.5243">
        <ele>5.1</ele>
        <time>2015-01-04T09:31:15Z</time>
      </trkpt>
      <trkpt lat="47.31486" lon="-1.52439">
        <ele>5.1</ele>
        <time>2015-01-04T09:31:18Z</time>
      </trkpt>
      <trkpt lat="47.31478" lon="-1.52457">
        <ele>4.8</ele>
        <time>2015-01-04T09:31:22Z</time>
      </trkpt>
      <trkpt lat="47.31474" lon="-1.52472">
        <ele>4.7</ele>
        <time>2015-01-04T09:31:25Z</time>
      </trkpt>
      <trkpt lat="47.31471" lon="-1.5248">
        <ele>4.6</ele>
        <time>2015-01-04T09:31:28Z</time>
      </trkpt>
      <trkpt lat="47.31467" lon="-1.52488">
        <ele>4.6</ele>
        <time>2015-01-04T09:31:30Z</time>
      </trkpt>
      <trkpt lat="47.31459" lon="-1.52507">
        <ele>4.5</ele>
        <time>2015-01-04T09:31:34Z</time>
      </trkpt>
      <trkpt lat="47.3145" lon="-1.52527">
        <ele>4.3</ele>
        <time>2015-01-04T09:31:38Z</time>
      </trkpt>
      <trkpt lat="47.31445" lon="-1.52534">
        <ele>4.2</ele>
        <time>2015-01-04T09:31:40Z</time>
      </trkpt>
      <trkpt lat="47.31441" lon="-1.52538">
        <ele>4.2</ele>
        <time>2015-01-04T09:31:42Z</time>
      </trkpt>
      <trkpt lat="47.31433" lon="-1.52543">
        <ele>4</ele>
        <time>2015-01-04T09:31:47Z</time>
      </trkpt>
      <trkpt lat="47.31423" lon="-1.52551">
        <ele>3.1</ele>
        <time>2015-01-04T09:31:54Z</time>
      </trkpt>
      <trkpt lat="47.31419" lon="-1.52556">
        <ele>3.1</ele>
        <time>2015-01-04T09:31:56Z</time>
      </trkpt>
      <trkpt lat="47.31415" lon="-1.5256">
        <ele>3.1</ele>
        <time>2015-01-04T09:31:58Z</time>
      </trkpt>
      <trkpt lat="47.31411" lon="-1.52565">
        <ele>3.1</ele>
        <time>2015-01-04T09:32:00Z</time>
      </trkpt>
      <trkpt lat="47.314" lon="-1.52572">
        <ele>3</ele>
        <time>2015-01-04T09:32:04Z</time>
      </trkpt>
      <trkpt lat="47.31394" lon="-1.52577">
        <ele>2.7</ele>
        <time>2015-01-04T09:32:06Z</time>
      </trkpt>
      <trkpt lat="47.31389" lon="-1.52579">
        <ele>2.7</ele>
        <time>2015-01-04T09:32:08Z</time>
      </trkpt>
      <trkpt lat="47.31383" lon="-1.52579">
        <ele>2.7</ele>
        <time>2015-01-04T09:32:10Z</time>
      </trkpt>
      <trkpt lat="47.31374" lon="-1.52584">
        <ele>2.6</ele>
        <time>2015-01-04T09:32:13Z</time>
      </trkpt>
      <trkpt lat="47.31369" lon="-1.52587">
        <ele>2.6</ele>
        <time>2015-01-04T09:32:15Z</time>
      </trkpt>
      <trkpt lat="47.31364" lon="-1.52587">
        <ele>2.6</ele>
        <time>2015-01-04T09:32:19Z</time>
      </trkpt>
      <trkpt lat="47.31361" lon="-1.52581">
        <ele>2.6</ele>
        <time>2015-01-04T09:32:25Z</time>
      </trkpt>
      <trkpt lat="47.31356" lon="-1.52574">
        <ele>2.7</ele>
        <time>2015-01-04T09:32:28Z</time>
      </trkpt>
      <trkpt lat="47.31351" lon="-1.52575">
        <ele>3</ele>
        <time>2015-01-04T09:32:32Z</time>
      </trkpt>
      <trkpt lat="47.31345" lon="-1.5257">
        <ele>3</ele>
        <time>2015-01-04T09:32:35Z</time>
      </trkpt>
      <trkpt lat="47.31341" lon="-1.52563">
        <ele>3.2</ele>
        <time>2015-01-04T09:32:38Z</time>
      </trkpt>
      <trkpt lat="47.31343" lon="-1.52556">
        <ele>3.4</ele>
        <time>2015-01-04T09:32:44Z</time>
      </trkpt>
      <trkpt lat="47.31344" lon="-1.52549">
        <ele>3.8</ele>
        <time>2015-01-04T09:32:50Z</time>
      </trkpt>
      <trkpt lat="47.31342" lon="-1.52542">
        <ele>4.1</ele>
        <time>2015-01-04T09:32:54Z</time>
      </trkpt>
      <trkpt lat="47.31341" lon="-1.52534">
        <ele>4.5</ele>
        <time>2015-01-04T09:32:59Z</time>
      </trkpt>
      <trkpt lat="47.3134" lon="-1.52527">
        <ele>4.7</ele>
        <time>2015-01-04T09:33:02Z</time>
      </trkpt>
      <trkpt lat="47.31333" lon="-1.52509">
        <ele>5.5</ele>
        <time>2015-01-04T09:33:10Z</time>
      </trkpt>
      <trkpt lat="47.31332" lon="-1.52502">
        <ele>6.6</ele>
        <time>2015-01-04T09:33:13Z</time>
      </trkpt>
      <trkpt lat="47.31333" lon="-1.52494">
        <ele>6.9</ele>
        <time>2015-01-04T09:33:17Z</time>
      </trkpt>
      <trkpt lat="47.31335" lon="-1.52481">
        <ele>7.3</ele>
        <time>2015-01-04T09:33:23Z</time>
      </trkpt>
      <trkpt lat="47.31342" lon="-1.5247">
        <ele>7.8</ele>
        <time>2015-01-04T09:33:27Z</time>
      </trkpt>
      <trkpt lat="47.31346" lon="-1.52466">
        <ele>10.6</ele>
        <time>2015-01-04T09:33:29Z</time>
      </trkpt>
      <trkpt lat="47.31348" lon="-1.52459">
        <ele>10.6</ele>
        <time>2015-01-04T09:33:32Z</time>
      </trkpt>
      <trkpt lat="47.31346" lon="-1.52446">
        <ele>12.1</ele>
        <time>2015-01-04T09:33:40Z</time>
      </trkpt>
      <trkpt lat="47.31344" lon="-1.52438">
        <ele>12.6</ele>
        <time>2015-01-04T09:33:43Z</time>
      </trkpt>
      <trkpt lat="47.31345" lon="-1.5243">
        <ele>12.8</ele>
        <time>2015-01-04T09:33:47Z</time>
      </trkpt>
      <trkpt lat="47.31347" lon="-1.52415">
        <ele>12.9</ele>
        <time>2015-01-04T09:33:53Z</time>
      </trkpt>
      <trkpt lat="47.31349" lon="-1.52406">
        <ele>13.4</ele>
        <time>2015-01-04T09:33:59Z</time>
      </trkpt>
      <trkpt lat="47.31349" lon="-1.52397">
        <ele>13.4</ele>
        <time>2015-01-04T09:34:02Z</time>
      </trkpt>
      <trkpt lat="47.31345" lon="-1.52378">
        <ele>13.7</ele>
        <time>2015-01-04T09:34:09Z</time>
      </trkpt>
      <trkpt lat="47.31344" lon="-1.52369">
        <ele>14.2</ele>
        <time>2015-01-04T09:34:11Z</time>
      </trkpt>
      <trkpt lat="47.31345" lon="-1.52361">
        <ele>14.2</ele>
        <time>2015-01-04T09:34:13Z</time>
      </trkpt>
      <trkpt lat="47.31345" lon="-1.52354">
        <ele>14.2</ele>
        <time>2015-01-04T09:34:15Z</time>
      </trkpt>
      <trkpt lat="47.31347" lon="-1.52337">
        <ele>14.6</ele>
        <time>2015-01-04T09:34:19Z</time>
      </trkpt>
      <trkpt lat="47.31348" lon="-1.52327">
        <ele>14.9</ele>
        <time>2015-01-04T09:34:21Z</time>
      </trkpt>
      <trkpt lat="47.31351" lon="-1.52315">
        <ele>14.9</ele>
        <time>2015-01-04T09:34:25Z</time>
      </trkpt>
      <trkpt lat="47.31351" lon="-1.52315">
        <ele>15</ele>
        <time>2015-01-04T09:34:26Z</time>
      </trkpt>
      <trkpt lat="47.31351" lon="-1.52315">
        <ele>17.6</ele>
        <time>2015-01-04T09:34:28Z</time>
      </trkpt>
      <trkpt lat="47.31351" lon="-1.52315">
        <ele>24</ele>
        <time>2015-01-04T09:34:28Z</time>
      </trkpt>
      <trkpt lat="47.31351" lon="-1.52315">
        <ele>24</ele>
        <time>2015-01-04T09:36:01Z</time>
      </trkpt>
      <trkpt lat="47.31348" lon="-1.52294">
        <ele>18.6</ele>
        <time>2015-01-04T09:36:03Z</time>
      </trkpt>
      <trkpt lat="47.31351" lon="-1.52279">
        <ele>18.6</ele>
        <time>2015-01-04T09:36:09Z</time>
      </trkpt>
      <trkpt lat="47.31352" lon="-1.52275">
        <ele>18.6</ele>
        <time>2015-01-04T09:36:11Z</time>
      </trkpt>
      <trkpt lat="47.3135" lon="-1.52274">
        <ele>22.4</ele>
        <time>2015-01-04T09:36:15Z</time>
      </trkpt>
      <trkpt lat="47.3135" lon="-1.52274">
        <ele>24</ele>
        <time>2015-01-04T09:36:15Z</time>
      </trkpt>
      <trkpt lat="47.3135" lon="-1.52274">
        <ele>24</ele>
        <time>2015-01-04T09:36:56Z</time>
      </trkpt>
      <trkpt lat="47.31349" lon="-1.52255">
        <ele>21.3</ele>
        <time>2015-01-04T09:36:57Z</time>
      </trkpt>
      <trkpt lat="47.31351" lon="-1.52242">
        <ele>21.4</ele>
        <time>2015-01-04T09:37:01Z</time>
      </trkpt>
      <trkpt lat="47.31351" lon="-1.52216">
        <ele>21.4</ele>
        <time>2015-01-04T09:37:06Z</time>
      </trkpt>
      <trkpt lat="47.31351" lon="-1.52196">
        <ele>21.4</ele>
        <time>2015-01-04T09:37:10Z</time>
      </trkpt>
      <trkpt lat="47.31356" lon="-1.52172">
        <ele>21.4</ele>
        <time>2015-01-04T09:37:14Z</time>
      </trkpt>
      <trkpt lat="47.31358" lon="-1.52151">
        <ele>21.4</ele>
        <time>2015-01-04T09:37:18Z</time>
      </trkpt>
      <trkpt lat="47.31363" lon="-1.52127">
        <ele>21.1</ele>
        <time>2015-01-04T09:37:25Z</time>
      </trkpt>
      <trkpt lat="47.31362" lon="-1.52104">
        <ele>20.9</ele>
        <time>2015-01-04T09:37:28Z</time>
      </trkpt>
      <trkpt lat="47.31364" lon="-1.5208">
        <ele>20.8</ele>
        <time>2015-01-04T09:37:31Z</time>
      </trkpt>
      <trkpt lat="47.31366" lon="-1.52058">
        <ele>20.6</ele>
        <time>2015-01-04T09:37:34Z</time>
      </trkpt>
      <trkpt lat="47.31369" lon="-1.52035">
        <ele>20.5</ele>
        <time>2015-01-04T09:37:37Z</time>
      </trkpt>
      <trkpt lat="47.31369" lon="-1.52012">
        <ele>20.5</ele>
        <time>2015-01-04T09:37:40Z</time>
      </trkpt>
      <trkpt lat="47.31371" lon="-1.51988">
        <ele>20.5</ele>
        <time>2015-01-04T09:37:44Z</time>
      </trkpt>
      <trkpt lat="47.31372" lon="-1.51965">
        <ele>20.5</ele>
        <time>2015-01-04T09:37:47Z</time>
      </trkpt>
      <trkpt lat="47.31375" lon="-1.51942">
        <ele>19.7</ele>
        <time>2015-01-04T09:37:50Z</time>
      </trkpt>
      <trkpt lat="47.31375" lon="-1.5192">
        <ele>19.2</ele>
        <time>2015-01-04T09:37:53Z</time>
      </trkpt>
      <trkpt lat="47.31376" lon="-1.519">
        <ele>18.6</ele>
        <time>2015-01-04T09:37:56Z</time>
      </trkpt>
      <trkpt lat="47.31375" lon="-1.51886">
        <ele>16.6</ele>
        <time>2015-01-04T09:37:59Z</time>
      </trkpt>
      <trkpt lat="47.31375" lon="-1.51865">
        <ele>15.8</ele>
        <time>2015-01-04T09:38:03Z</time>
      </trkpt>
      <trkpt lat="47.31376" lon="-1.51842">
        <ele>14</ele>
        <time>2015-01-04T09:38:06Z</time>
      </trkpt>
      <trkpt lat="47.31375" lon="-1.51821">
        <ele>13.5</ele>
        <time>2015-01-04T09:38:09Z</time>
      </trkpt>
      <trkpt lat="47.31374" lon="-1.518">
        <ele>12.4</ele>
        <time>2015-01-04T09:38:12Z</time>
      </trkpt>
      <trkpt lat="47.31376" lon="-1.51776">
        <ele>11.9</ele>
        <time>2015-01-04T09:38:16Z</time>
      </trkpt>
      <trkpt lat="47.31385" lon="-1.5176">
        <ele>10.8</ele>
        <time>2015-01-04T09:38:20Z</time>
      </trkpt>
      <trkpt lat="47.31387" lon="-1.51753">
        <ele>10</ele>
        <time>2015-01-04T09:38:22Z</time>
      </trkpt>
      <trkpt lat="47.31383" lon="-1.51745">
        <ele>10</ele>
        <time>2015-01-04T09:38:25Z</time>
      </trkpt>
      <trkpt lat="47.31378" lon="-1.51723">
        <ele>9.9</ele>
        <time>2015-01-04T09:38:29Z</time>
      </trkpt>
      <trkpt lat="47.31379" lon="-1.51706">
        <ele>8.9</ele>
        <time>2015-01-04T09:38:33Z</time>
      </trkpt>
      <trkpt lat="47.3138" lon="-1.51697">
        <ele>8.4</ele>
        <time>2015-01-04T09:38:35Z</time>
      </trkpt>
      <trkpt lat="47.31379" lon="-1.51689">
        <ele>8.4</ele>
        <time>2015-01-04T09:38:37Z</time>
      </trkpt>
      <trkpt lat="47.31378" lon="-1.5167">
        <ele>8.1</ele>
        <time>2015-01-04T09:38:41Z</time>
      </trkpt>
      <trkpt lat="47.31379" lon="-1.5166">
        <ele>7.9</ele>
        <time>2015-01-04T09:38:43Z</time>
      </trkpt>
      <trkpt lat="47.3138" lon="-1.51646">
        <ele>7.9</ele>
        <time>2015-01-04T09:38:46Z</time>
      </trkpt>
      <trkpt lat="47.3138" lon="-1.51622">
        <ele>7.8</ele>
        <time>2015-01-04T09:38:51Z</time>
      </trkpt>
      <trkpt lat="47.31381" lon="-1.516">
        <ele>7.7</ele>
        <time>2015-01-04T09:38:56Z</time>
      </trkpt>
      <trkpt lat="47.31381" lon="-1.51586">
        <ele>7.7</ele>
        <time>2015-01-04T09:38:59Z</time>
      </trkpt>
      <trkpt lat="47.31378" lon="-1.51578">
        <ele>7.7</ele>
        <time>2015-01-04T09:39:02Z</time>
      </trkpt>
      <trkpt lat="47.31373" lon="-1.51573">
        <ele>7.6</ele>
        <time>2015-01-04T09:39:05Z</time>
      </trkpt>
      <trkpt lat="47.31362" lon="-1.51568">
        <ele>7.6</ele>
        <time>2015-01-04T09:39:10Z</time>
      </trkpt>
      <trkpt lat="47.31346" lon="-1.51565">
        <ele>7.6</ele>
        <time>2015-01-04T09:39:15Z</time>
      </trkpt>
      <trkpt lat="47.31332" lon="-1.51558">
        <ele>7.6</ele>
        <time>2015-01-04T09:39:19Z</time>
      </trkpt>
      <trkpt lat="47.31321" lon="-1.51551">
        <ele>7.6</ele>
        <time>2015-01-04T09:39:22Z</time>
      </trkpt>
      <trkpt lat="47.31309" lon="-1.51545">
        <ele>7.6</ele>
        <time>2015-01-04T09:39:25Z</time>
      </trkpt>
      <trkpt lat="47.31297" lon="-1.51539">
        <ele>7.6</ele>
        <time>2015-01-04T09:39:28Z</time>
      </trkpt>
      <trkpt lat="47.31282" lon="-1.51531">
        <ele>7.7</ele>
        <time>2015-01-04T09:39:32Z</time>
      </trkpt>
      <trkpt lat="47.3127" lon="-1.51529">
        <ele>7.7</ele>
        <time>2015-01-04T09:39:35Z</time>
      </trkpt>
      <trkpt lat="47.3126" lon="-1.51537">
        <ele>7.7</ele>
        <time>2015-01-04T09:39:38Z</time>
      </trkpt>
      <trkpt lat="47.31253" lon="-1.51554">
        <ele>7.8</ele>
        <time>2015-01-04T09:39:41Z</time>
      </trkpt>
      <trkpt lat="47.31243" lon="-1.51575">
        <ele>7.9</ele>
        <time>2015-01-04T09:39:45Z</time>
      </trkpt>
      <trkpt lat="47.31231" lon="-1.51593">
        <ele>8.3</ele>
        <time>2015-01-04T09:39:49Z</time>
      </trkpt>
      <trkpt lat="47.31219" lon="-1.5161">
        <ele>9</ele>
        <time>2015-01-04T09:39:53Z</time>
      </trkpt>
      <trkpt lat="47.31211" lon="-1.51629">
        <ele>9.5</ele>
        <time>2015-01-04T09:39:57Z</time>
      </trkpt>
      <trkpt lat="47.31201" lon="-1.51648">
        <ele>9.8</ele>
        <time>2015-01-04T09:40:01Z</time>
      </trkpt>
      <trkpt lat="47.3119" lon="-1.51668">
        <ele>9.9</ele>
        <time>2015-01-04T09:40:04Z</time>
      </trkpt>
      <trkpt lat="47.31178" lon="-1.51686">
        <ele>10.1</ele>
        <time>2015-01-04T09:40:07Z</time>
      </trkpt>
      <trkpt lat="47.31166" lon="-1.51703">
        <ele>10.2</ele>
        <time>2015-01-04T09:40:10Z</time>
      </trkpt>
      <trkpt lat="47.31154" lon="-1.51717">
        <ele>10.3</ele>
        <time>2015-01-04T09:40:13Z</time>
      </trkpt>
      <trkpt lat="47.31139" lon="-1.5173">
        <ele>10.3</ele>
        <time>2015-01-04T09:40:16Z</time>
      </trkpt>
      <trkpt lat="47.31127" lon="-1.5174">
        <ele>10.4</ele>
        <time>2015-01-04T09:40:19Z</time>
      </trkpt>
      <trkpt lat="47.31112" lon="-1.51749">
        <ele>10.4</ele>
        <time>2015-01-04T09:40:22Z</time>
      </trkpt>
      <trkpt lat="47.31102" lon="-1.51753">
        <ele>10.4</ele>
        <time>2015-01-04T09:40:24Z</time>
      </trkpt>
      <trkpt lat="47.31083" lon="-1.51763">
        <ele>10.4</ele>
        <time>2015-01-04T09:40:28Z</time>
      </trkpt>
      <trkpt lat="47.31074" lon="-1.51768">
        <ele>10.4</ele>
        <time>2015-01-04T09:40:30Z</time>
      </trkpt>
      <trkpt lat="47.31063" lon="-1.51773">
        <ele>10.4</ele>
        <time>2015-01-04T09:40:32Z</time>
      </trkpt>
      <trkpt lat="47.31058" lon="-1.51774">
        <ele>10.4</ele>
        <time>2015-01-04T09:40:33Z</time>
      </trkpt>
      <trkpt lat="47.31042" lon="-1.51779">
        <ele>10.4</ele>
        <time>2015-01-04T09:40:36Z</time>
      </trkpt>
      <trkpt lat="47.31031" lon="-1.5178">
        <ele>10.4</ele>
        <time>2015-01-04T09:40:38Z</time>
      </trkpt>
      <trkpt lat="47.31026" lon="-1.51779">
        <ele>10.4</ele>
        <time>2015-01-04T09:40:39Z</time>
      </trkpt>
      <trkpt lat="47.3102" lon="-1.51778">
        <ele>10.4</ele>
        <time>2015-01-04T09:40:40Z</time>
      </trkpt>
      <trkpt lat="47.31015" lon="-1.51777">
        <ele>10.4</ele>
        <time>2015-01-04T09:40:41Z</time>
      </trkpt>
      <trkpt lat="47.3101" lon="-1.51775">
        <ele>10.4</ele>
        <time>2015-01-04T09:40:42Z</time>
      </trkpt>
      <trkpt lat="47.30999" lon="-1.51771">
        <ele>10.4</ele>
        <time>2015-01-04T09:40:44Z</time>
      </trkpt>
      <trkpt lat="47.30989" lon="-1.5177">
        <ele>10.3</ele>
        <time>2015-01-04T09:40:46Z</time>
      </trkpt>
      <trkpt lat="47.30978" lon="-1.51771">
        <ele>10.3</ele>
        <time>2015-01-04T09:40:48Z</time>
      </trkpt>
      <trkpt lat="47.30967" lon="-1.51774">
        <ele>10.3</ele>
        <time>2015-01-04T09:40:50Z</time>
      </trkpt>
      <trkpt lat="47.30957" lon="-1.51779">
        <ele>10.3</ele>
        <time>2015-01-04T09:40:52Z</time>
      </trkpt>
      <trkpt lat="47.30946" lon="-1.51786">
        <ele>10.1</ele>
        <time>2015-01-04T09:40:54Z</time>
      </trkpt>
      <trkpt lat="47.30939" lon="-1.51793">
        <ele>10</ele>
        <time>2015-01-04T09:40:56Z</time>
      </trkpt>
      <trkpt lat="47.30925" lon="-1.51809">
        <ele>9.8</ele>
        <time>2015-01-04T09:40:59Z</time>
      </trkpt>
      <trkpt lat="47.30914" lon="-1.51822">
        <ele>9.6</ele>
        <time>2015-01-04T09:41:01Z</time>
      </trkpt>
      <trkpt lat="47.30897" lon="-1.51836">
        <ele>9.3</ele>
        <time>2015-01-04T09:41:04Z</time>
      </trkpt>
      <trkpt lat="47.30881" lon="-1.51849">
        <ele>9.3</ele>
        <time>2015-01-04T09:41:07Z</time>
      </trkpt>
      <trkpt lat="47.30873" lon="-1.51857">
        <ele>9.3</ele>
        <time>2015-01-04T09:41:09Z</time>
      </trkpt>
      <trkpt lat="47.3086" lon="-1.51865">
        <ele>9.3</ele>
        <time>2015-01-04T09:41:13Z</time>
      </trkpt>
      <trkpt lat="47.30846" lon="-1.51874">
        <ele>9.3</ele>
        <time>2015-01-04T09:41:17Z</time>
      </trkpt>
      <trkpt lat="47.30837" lon="-1.51879">
        <ele>9.3</ele>
        <time>2015-01-04T09:41:20Z</time>
      </trkpt>
      <trkpt lat="47.30823" lon="-1.51889">
        <ele>9.3</ele>
        <time>2015-01-04T09:41:24Z</time>
      </trkpt>
      <trkpt lat="47.30807" lon="-1.51899">
        <ele>9.2</ele>
        <time>2015-01-04T09:41:28Z</time>
      </trkpt>
      <trkpt lat="47.30795" lon="-1.51908">
        <ele>9.7</ele>
        <time>2015-01-04T09:41:31Z</time>
      </trkpt>
      <trkpt lat="47.30785" lon="-1.51918">
        <ele>9.9</ele>
        <time>2015-01-04T09:41:34Z</time>
      </trkpt>
      <trkpt lat="47.30774" lon="-1.51935">
        <ele>10.2</ele>
        <time>2015-01-04T09:41:38Z</time>
      </trkpt>
      <trkpt lat="47.30765" lon="-1.51952">
        <ele>10.9</ele>
        <time>2015-01-04T09:41:42Z</time>
      </trkpt>
      <trkpt lat="47.30753" lon="-1.51968">
        <ele>11.2</ele>
        <time>2015-01-04T09:41:46Z</time>
      </trkpt>
      <trkpt lat="47.30739" lon="-1.5198">
        <ele>11.8</ele>
        <time>2015-01-04T09:41:50Z</time>
      </trkpt>
      <trkpt lat="47.30728" lon="-1.51992">
        <ele>12.3</ele>
        <time>2015-01-04T09:41:53Z</time>
      </trkpt>
      <trkpt lat="47.30714" lon="-1.52008">
        <ele>13.3</ele>
        <time>2015-01-04T09:41:57Z</time>
      </trkpt>
      <trkpt lat="47.30701" lon="-1.52027">
        <ele>13.7</ele>
        <time>2015-01-04T09:42:01Z</time>
      </trkpt>
      <trkpt lat="47.3069" lon="-1.52041">
        <ele>14.4</ele>
        <time>2015-01-04T09:42:04Z</time>
      </trkpt>
      <trkpt lat="47.30678" lon="-1.52055">
        <ele>15.2</ele>
        <time>2015-01-04T09:42:07Z</time>
      </trkpt>
      <trkpt lat="47.30666" lon="-1.52066">
        <ele>15.6</ele>
        <time>2015-01-04T09:42:10Z</time>
      </trkpt>
      <trkpt lat="47.30653" lon="-1.52073">
        <ele>16.2</ele>
        <time>2015-01-04T09:42:14Z</time>
      </trkpt>
      <trkpt lat="47.30637" lon="-1.52079">
        <ele>17.3</ele>
        <time>2015-01-04T09:42:18Z</time>
      </trkpt>
      <trkpt lat="47.30626" lon="-1.52083">
        <ele>17.8</ele>
        <time>2015-01-04T09:42:21Z</time>
      </trkpt>
      <trkpt lat="47.30613" lon="-1.52092">
        <ele>18.2</ele>
        <time>2015-01-04T09:42:25Z</time>
      </trkpt>
      <trkpt lat="47.30608" lon="-1.52096">
        <ele>18.5</ele>
        <time>2015-01-04T09:42:27Z</time>
      </trkpt>
      <trkpt lat="47.30601" lon="-1.52099">
        <ele>18.5</ele>
        <time>2015-01-04T09:42:29Z</time>
      </trkpt>
      <trkpt lat="47.30596" lon="-1.521">
        <ele>18.5</ele>
        <time>2015-01-04T09:42:30Z</time>
      </trkpt>
      <trkpt lat="47.30591" lon="-1.52102">
        <ele>18.5</ele>
        <time>2015-01-04T09:42:31Z</time>
      </trkpt>
      <trkpt lat="47.30578" lon="-1.52108">
        <ele>19.5</ele>
        <time>2015-01-04T09:42:35Z</time>
      </trkpt>
      <trkpt lat="47.30562" lon="-1.52112">
        <ele>20.3</ele>
        <time>2015-01-04T09:42:39Z</time>
      </trkpt>
      <trkpt lat="47.30552" lon="-1.52114">
        <ele>20.7</ele>
        <time>2015-01-04T09:42:42Z</time>
      </trkpt>
      <trkpt lat="47.30542" lon="-1.52115">
        <ele>20.7</ele>
        <time>2015-01-04T09:42:45Z</time>
      </trkpt>
      <trkpt lat="47.30527" lon="-1.5212">
        <ele>21.5</ele>
        <time>2015-01-04T09:42:51Z</time>
      </trkpt>
      <trkpt lat="47.30512" lon="-1.52124">
        <ele>22.2</ele>
        <time>2015-01-04T09:42:56Z</time>
      </trkpt>
      <trkpt lat="47.30502" lon="-1.52128">
        <ele>22.4</ele>
        <time>2015-01-04T09:42:59Z</time>
      </trkpt>
      <trkpt lat="47.30488" lon="-1.52134">
        <ele>22.7</ele>
        <time>2015-01-04T09:43:03Z</time>
      </trkpt>
      <trkpt lat="47.30474" lon="-1.52139">
        <ele>22.7</ele>
        <time>2015-01-04T09:43:07Z</time>
      </trkpt>
      <trkpt lat="47.30457" lon="-1.52145">
        <ele>22.7</ele>
        <time>2015-01-04T09:43:12Z</time>
      </trkpt>
      <trkpt lat="47.30442" lon="-1.52149">
        <ele>22.7</ele>
        <time>2015-01-04T09:43:16Z</time>
      </trkpt>
      <trkpt lat="47.30428" lon="-1.52154">
        <ele>22.7</ele>
        <time>2015-01-04T09:43:19Z</time>
      </trkpt>
      <trkpt lat="47.30416" lon="-1.52157">
        <ele>22.7</ele>
        <time>2015-01-04T09:43:23Z</time>
      </trkpt>
      <trkpt lat="47.30404" lon="-1.52161">
        <ele>22.7</ele>
        <time>2015-01-04T09:43:27Z</time>
      </trkpt>
      <trkpt lat="47.30394" lon="-1.52165">
        <ele>22.6</ele>
        <time>2015-01-04T09:43:29Z</time>
      </trkpt>
      <trkpt lat="47.30381" lon="-1.52168">
        <ele>22.6</ele>
        <time>2015-01-04T09:43:32Z</time>
      </trkpt>
      <trkpt lat="47.3036" lon="-1.52174">
        <ele>22.4</ele>
        <time>2015-01-04T09:43:36Z</time>
      </trkpt>
      <trkpt lat="47.30335" lon="-1.52182">
        <ele>21.9</ele>
        <time>2015-01-04T09:43:40Z</time>
      </trkpt>
      <trkpt lat="47.30319" lon="-1.52185">
        <ele>21.1</ele>
        <time>2015-01-04T09:43:43Z</time>
      </trkpt>
      <trkpt lat="47.30308" lon="-1.52187">
        <ele>20.8</ele>
        <time>2015-01-04T09:43:46Z</time>
      </trkpt>
      <trkpt lat="47.30303" lon="-1.52201">
        <ele>20.5</ele>
        <time>2015-01-04T09:43:50Z</time>
      </trkpt>
      <trkpt lat="47.30299" lon="-1.52228">
        <ele>19.7</ele>
        <time>2015-01-04T09:43:54Z</time>
      </trkpt>
      <trkpt lat="47.30292" lon="-1.52252">
        <ele>19.1</ele>
        <time>2015-01-04T09:43:57Z</time>
      </trkpt>
      <trkpt lat="47.30287" lon="-1.52272">
        <ele>18.6</ele>
        <time>2015-01-04T09:43:59Z</time>
      </trkpt>
      <trkpt lat="47.30284" lon="-1.52294">
        <ele>18.4</ele>
        <time>2015-01-04T09:44:01Z</time>
      </trkpt>
      <trkpt lat="47.30279" lon="-1.5232">
        <ele>17.9</ele>
        <time>2015-01-04T09:44:04Z</time>
      </trkpt>
      <trkpt lat="47.30273" lon="-1.52337">
        <ele>16.7</ele>
        <time>2015-01-04T09:44:08Z</time>
      </trkpt>
      <trkpt lat="47.30264" lon="-1.52346">
        <ele>16</ele>
        <time>2015-01-04T09:44:13Z</time>
      </trkpt>
      <trkpt lat="47.30256" lon="-1.5234">
        <ele>15.5</ele>
        <time>2015-01-04T09:44:17Z</time>
      </trkpt>
      <trkpt lat="47.30251" lon="-1.52344">
        <ele>15.2</ele>
        <time>2015-01-04T09:44:21Z</time>
      </trkpt>
      <trkpt lat="47.30248" lon="-1.52349">
        <ele>14.7</ele>
        <time>2015-01-04T09:44:23Z</time>
      </trkpt>
      <trkpt lat="47.30242" lon="-1.52352">
        <ele>14.7</ele>
        <time>2015-01-04T09:44:25Z</time>
      </trkpt>
      <trkpt lat="47.30237" lon="-1.52354">
        <ele>14.7</ele>
        <time>2015-01-04T09:44:27Z</time>
      </trkpt>
      <trkpt lat="47.30228" lon="-1.52358">
        <ele>12.8</ele>
        <time>2015-01-04T09:44:30Z</time>
      </trkpt>
      <trkpt lat="47.30219" lon="-1.52365">
        <ele>11</ele>
        <time>2015-01-04T09:44:32Z</time>
      </trkpt>
      <trkpt lat="47.30207" lon="-1.52382">
        <ele>8.7</ele>
        <time>2015-01-04T09:44:36Z</time>
      </trkpt>
      <trkpt lat="47.30207" lon="-1.52405">
        <ele>7.8</ele>
        <time>2015-01-04T09:44:40Z</time>
      </trkpt>
      <trkpt lat="47.30211" lon="-1.52426">
        <ele>7.4</ele>
        <time>2015-01-04T09:44:44Z</time>
      </trkpt>
      <trkpt lat="47.30218" lon="-1.52447">
        <ele>7.3</ele>
        <time>2015-01-04T09:44:47Z</time>
      </trkpt>
      <trkpt lat="47.30229" lon="-1.52464">
        <ele>7</ele>
        <time>2015-01-04T09:44:51Z</time>
      </trkpt>
      <trkpt lat="47.30232" lon="-1.52487">
        <ele>6.6</ele>
        <time>2015-01-04T09:44:55Z</time>
      </trkpt>
      <trkpt lat="47.3023" lon="-1.52506">
        <ele>6.5</ele>
        <time>2015-01-04T09:44:58Z</time>
      </trkpt>
      <trkpt lat="47.30228" lon="-1.52528">
        <ele>6.3</ele>
        <time>2015-01-04T09:45:02Z</time>
      </trkpt>
      <trkpt lat="47.30225" lon="-1.52542">
        <ele>6.1</ele>
        <time>2015-01-04T09:45:05Z</time>
      </trkpt>
      <trkpt lat="47.3022" lon="-1.52553">
        <ele>6</ele>
        <time>2015-01-04T09:45:08Z</time>
      </trkpt>
      <trkpt lat="47.3021" lon="-1.52558">
        <ele>5.8</ele>
        <time>2015-01-04T09:45:13Z</time>
      </trkpt>
      <trkpt lat="47.30205" lon="-1.52561">
        <ele>5.6</ele>
        <time>2015-01-04T09:45:15Z</time>
      </trkpt>
      <trkpt lat="47.30197" lon="-1.52562">
        <ele>5.6</ele>
        <time>2015-01-04T09:45:17Z</time>
      </trkpt>
      <trkpt lat="47.30188" lon="-1.52561">
        <ele>5.6</ele>
        <time>2015-01-04T09:45:19Z</time>
      </trkpt>
      <trkpt lat="47.30174" lon="-1.52552">
        <ele>5.5</ele>
        <time>2015-01-04T09:45:22Z</time>
      </trkpt>
      <trkpt lat="47.30162" lon="-1.5255">
        <ele>5.4</ele>
        <time>2015-01-04T09:45:26Z</time>
      </trkpt>
      <trkpt lat="47.30152" lon="-1.52548">
        <ele>5.4</ele>
        <time>2015-01-04T09:45:28Z</time>
      </trkpt>
      <trkpt lat="47.30142" lon="-1.52548">
        <ele>5.4</ele>
        <time>2015-01-04T09:45:30Z</time>
      </trkpt>
      <trkpt lat="47.30131" lon="-1.52547">
        <ele>5.4</ele>
        <time>2015-01-04T09:45:33Z</time>
      </trkpt>
      <trkpt lat="47.30114" lon="-1.52544">
        <ele>5.4</ele>
        <time>2015-01-04T09:45:37Z</time>
      </trkpt>
      <trkpt lat="47.30103" lon="-1.52545">
        <ele>5.4</ele>
        <time>2015-01-04T09:45:40Z</time>
      </trkpt>
      <trkpt lat="47.30093" lon="-1.52551">
        <ele>5.4</ele>
        <time>2015-01-04T09:45:43Z</time>
      </trkpt>
      <trkpt lat="47.30081" lon="-1.52567">
        <ele>5.5</ele>
        <time>2015-01-04T09:45:47Z</time>
      </trkpt>
      <trkpt lat="47.3007" lon="-1.52583">
        <ele>5.9</ele>
        <time>2015-01-04T09:45:51Z</time>
      </trkpt>
      <trkpt lat="47.30062" lon="-1.52605">
        <ele>8.2</ele>
        <time>2015-01-04T09:45:56Z</time>
      </trkpt>
      <trkpt lat="47.30057" lon="-1.52617">
        <ele>9.6</ele>
        <time>2015-01-04T09:45:59Z</time>
      </trkpt>
      <trkpt lat="47.30053" lon="-1.52639">
        <ele>10.8</ele>
        <time>2015-01-04T09:46:04Z</time>
      </trkpt>
      <trkpt lat="47.3005" lon="-1.52663">
        <ele>11.6</ele>
        <time>2015-01-04T09:46:09Z</time>
      </trkpt>
      <trkpt lat="47.30046" lon="-1.52685">
        <ele>11.8</ele>
        <time>2015-01-04T09:46:13Z</time>
      </trkpt>
      <trkpt lat="47.30047" lon="-1.52707">
        <ele>11.9</ele>
        <time>2015-01-04T09:46:17Z</time>
      </trkpt>
      <trkpt lat="47.30052" lon="-1.52714">
        <ele>12</ele>
        <time>2015-01-04T09:46:19Z</time>
      </trkpt>
      <trkpt lat="47.30058" lon="-1.52718">
        <ele>12</ele>
        <time>2015-01-04T09:46:21Z</time>
      </trkpt>
      <trkpt lat="47.30071" lon="-1.52725">
        <ele>12.1</ele>
        <time>2015-01-04T09:46:24Z</time>
      </trkpt>
      <trkpt lat="47.3008" lon="-1.52729">
        <ele>12.3</ele>
        <time>2015-01-04T09:46:26Z</time>
      </trkpt>
      <trkpt lat="47.30096" lon="-1.52734">
        <ele>12.3</ele>
        <time>2015-01-04T09:46:30Z</time>
      </trkpt>
      <trkpt lat="47.30109" lon="-1.5275">
        <ele>12.3</ele>
        <time>2015-01-04T09:46:35Z</time>
      </trkpt>
      <trkpt lat="47.30117" lon="-1.52758">
        <ele>12.3</ele>
        <time>2015-01-04T09:46:37Z</time>
      </trkpt>
      <trkpt lat="47.30116" lon="-1.52779">
        <ele>12.3</ele>
        <time>2015-01-04T09:46:42Z</time>
      </trkpt>
      <trkpt lat="47.30107" lon="-1.52797">
        <ele>12.3</ele>
        <time>2015-01-04T09:46:46Z</time>
      </trkpt>
      <trkpt lat="47.30098" lon="-1.52816">
        <ele>12.3</ele>
        <time>2015-01-04T09:46:50Z</time>
      </trkpt>
      <trkpt lat="47.30091" lon="-1.52829">
        <ele>12.2</ele>
        <time>2015-01-04T09:46:54Z</time>
      </trkpt>
      <trkpt lat="47.30084" lon="-1.52842">
        <ele>12.1</ele>
        <time>2015-01-04T09:46:59Z</time>
      </trkpt>
      <trkpt lat="47.3008" lon="-1.52849">
        <ele>11.3</ele>
        <time>2015-01-04T09:47:01Z</time>
      </trkpt>
      <trkpt lat="47.30074" lon="-1.52854">
        <ele>11.3</ele>
        <time>2015-01-04T09:47:04Z</time>
      </trkpt>
      <trkpt lat="47.30069" lon="-1.52859">
        <ele>8.8</ele>
        <time>2015-01-04T09:47:06Z</time>
      </trkpt>
      <trkpt lat="47.30064" lon="-1.52862">
        <ele>8.8</ele>
        <time>2015-01-04T09:47:08Z</time>
      </trkpt>
      <trkpt lat="47.30059" lon="-1.52866">
        <ele>8.8</ele>
        <time>2015-01-04T09:47:10Z</time>
      </trkpt>
      <trkpt lat="47.3005" lon="-1.52876">
        <ele>8.6</ele>
        <time>2015-01-04T09:47:13Z</time>
      </trkpt>
      <trkpt lat="47.30038" lon="-1.5289">
        <ele>8.3</ele>
        <time>2015-01-04T09:47:17Z</time>
      </trkpt>
      <trkpt lat="47.30025" lon="-1.52896">
        <ele>7.9</ele>
        <time>2015-01-04T09:47:21Z</time>
      </trkpt>
      <trkpt lat="47.30014" lon="-1.52897">
        <ele>7.5</ele>
        <time>2015-01-04T09:47:26Z</time>
      </trkpt>
      <trkpt lat="47.30004" lon="-1.529">
        <ele>7.4</ele>
        <time>2015-01-04T09:47:29Z</time>
      </trkpt>
      <trkpt lat="47.29992" lon="-1.52905">
        <ele>7.4</ele>
        <time>2015-01-04T09:47:32Z</time>
      </trkpt>
      <trkpt lat="47.29984" lon="-1.52913">
        <ele>7.3</ele>
        <time>2015-01-04T09:47:36Z</time>
      </trkpt>
      <trkpt lat="47.2997" lon="-1.52926">
        <ele>7.3</ele>
        <time>2015-01-04T09:47:41Z</time>
      </trkpt>
      <trkpt lat="47.29959" lon="-1.52941">
        <ele>7.3</ele>
        <time>2015-01-04T09:47:45Z</time>
      </trkpt>
      <trkpt lat="47.29947" lon="-1.5295">
        <ele>7.2</ele>
        <time>2015-01-04T09:47:49Z</time>
      </trkpt>
      <trkpt lat="47.29934" lon="-1.5296">
        <ele>7.2</ele>
        <time>2015-01-04T09:47:54Z</time>
      </trkpt>
      <trkpt lat="47.2993" lon="-1.52962">
        <ele>7.2</ele>
        <time>2015-01-04T09:47:56Z</time>
      </trkpt>
      <trkpt lat="47.29925" lon="-1.52968">
        <ele>7.2</ele>
        <time>2015-01-04T09:47:59Z</time>
      </trkpt>
      <trkpt lat="47.2992" lon="-1.52973">
        <ele>7.2</ele>
        <time>2015-01-04T09:48:01Z</time>
      </trkpt>
      <trkpt lat="47.29913" lon="-1.52975">
        <ele>7.2</ele>
        <time>2015-01-04T09:48:04Z</time>
      </trkpt>
      <trkpt lat="47.29904" lon="-1.5298">
        <ele>7.2</ele>
        <time>2015-01-04T09:48:07Z</time>
      </trkpt>
      <trkpt lat="47.2989" lon="-1.52983">
        <ele>7.2</ele>
        <time>2015-01-04T09:48:12Z</time>
      </trkpt>
      <trkpt lat="47.29879" lon="-1.52985">
        <ele>7.2</ele>
        <time>2015-01-04T09:48:17Z</time>
      </trkpt>
      <trkpt lat="47.29875" lon="-1.52988">
        <ele>7.2</ele>
        <time>2015-01-04T09:48:21Z</time>
      </trkpt>
      <trkpt lat="47.29869" lon="-1.52992">
        <ele>7.2</ele>
        <time>2015-01-04T09:48:27Z</time>
      </trkpt>
      <trkpt lat="47.29858" lon="-1.53003">
        <ele>7.1</ele>
        <time>2015-01-04T09:48:31Z</time>
      </trkpt>
      <trkpt lat="47.29846" lon="-1.53014">
        <ele>7</ele>
        <time>2015-01-04T09:48:34Z</time>
      </trkpt>
      <trkpt lat="47.29842" lon="-1.53019">
        <ele>7</ele>
        <time>2015-01-04T09:48:35Z</time>
      </trkpt>
      <trkpt lat="47.29838" lon="-1.53027">
        <ele>7</ele>
        <time>2015-01-04T09:48:37Z</time>
      </trkpt>
      <trkpt lat="47.29838" lon="-1.53031">
        <ele>6.9</ele>
        <time>2015-01-04T09:48:38Z</time>
      </trkpt>
      <trkpt lat="47.29839" lon="-1.53034">
        <ele>6.8</ele>
        <time>2015-01-04T09:48:42Z</time>
      </trkpt>
      <trkpt lat="47.29839" lon="-1.53034">
        <ele>7.8</ele>
        <time>2015-01-04T09:48:42Z</time>
      </trkpt>
      <trkpt lat="47.29839" lon="-1.53034">
        <ele>7.8</ele>
        <time>2015-01-04T09:49:31Z</time>
      </trkpt>
      <trkpt lat="47.2983" lon="-1.53044">
        <ele>6.8</ele>
        <time>2015-01-04T09:49:32Z</time>
      </trkpt>
      <trkpt lat="47.29818" lon="-1.53055">
        <ele>6.8</ele>
        <time>2015-01-04T09:49:36Z</time>
      </trkpt>
      <trkpt lat="47.29805" lon="-1.53056">
        <ele>6.8</ele>
        <time>2015-01-04T09:49:41Z</time>
      </trkpt>
      <trkpt lat="47.2979" lon="-1.53066">
        <ele>6.9</ele>
        <time>2015-01-04T09:49:46Z</time>
      </trkpt>
      <trkpt lat="47.2978" lon="-1.53068">
        <ele>7</ele>
        <time>2015-01-04T09:49:49Z</time>
      </trkpt>
      <trkpt lat="47.29775" lon="-1.53068">
        <ele>7.1</ele>
        <time>2015-01-04T09:49:51Z</time>
      </trkpt>
      <trkpt lat="47.2977" lon="-1.53069">
        <ele>7.1</ele>
        <time>2015-01-04T09:49:53Z</time>
      </trkpt>
      <trkpt lat="47.29765" lon="-1.53072">
        <ele>7.2</ele>
        <time>2015-01-04T09:49:55Z</time>
      </trkpt>
      <trkpt lat="47.29759" lon="-1.53073">
        <ele>7.2</ele>
        <time>2015-01-04T09:49:57Z</time>
      </trkpt>
      <trkpt lat="47.29753" lon="-1.53074">
        <ele>7.2</ele>
        <time>2015-01-04T09:49:59Z</time>
      </trkpt>
      <trkpt lat="47.29743" lon="-1.53078">
        <ele>7.4</ele>
        <time>2015-01-04T09:50:02Z</time>
      </trkpt>
      <trkpt lat="47.29733" lon="-1.53081">
        <ele>7.5</ele>
        <time>2015-01-04T09:50:05Z</time>
      </trkpt>
      <trkpt lat="47.29722" lon="-1.53082">
        <ele>7.5</ele>
        <time>2015-01-04T09:50:08Z</time>
      </trkpt>
      <trkpt lat="47.29706" lon="-1.53083">
        <ele>7.5</ele>
        <time>2015-01-04T09:50:12Z</time>
      </trkpt>
      <trkpt lat="47.29698" lon="-1.53082">
        <ele>7.5</ele>
        <time>2015-01-04T09:50:14Z</time>
      </trkpt>
      <trkpt lat="47.29689" lon="-1.53078">
        <ele>7.5</ele>
        <time>2015-01-04T09:50:16Z</time>
      </trkpt>
      <trkpt lat="47.29681" lon="-1.53075">
        <ele>7.5</ele>
        <time>2015-01-04T09:50:18Z</time>
      </trkpt>
      <trkpt lat="47.29673" lon="-1.53071">
        <ele>7.5</ele>
        <time>2015-01-04T09:50:20Z</time>
      </trkpt>
      <trkpt lat="47.29668" lon="-1.53068">
        <ele>7.5</ele>
        <time>2015-01-04T09:50:21Z</time>
      </trkpt>
      <trkpt lat="47.29664" lon="-1.53065">
        <ele>7.5</ele>
        <time>2015-01-04T09:50:22Z</time>
      </trkpt>
      <trkpt lat="47.29656" lon="-1.53059">
        <ele>7.5</ele>
        <time>2015-01-04T09:50:24Z</time>
      </trkpt>
      <trkpt lat="47.29644" lon="-1.53048">
        <ele>7.5</ele>
        <time>2015-01-04T09:50:28Z</time>
      </trkpt>
      <trkpt lat="47.29638" lon="-1.53043">
        <ele>7.4</ele>
        <time>2015-01-04T09:50:31Z</time>
      </trkpt>
      <trkpt lat="47.29634" lon="-1.53035">
        <ele>7.4</ele>
        <time>2015-01-04T09:50:34Z</time>
      </trkpt>
      <trkpt lat="47.29629" lon="-1.53024">
        <ele>7.1</ele>
        <time>2015-01-04T09:50:37Z</time>
      </trkpt>
      <trkpt lat="47.29625" lon="-1.53016">
        <ele>7.1</ele>
        <time>2015-01-04T09:50:39Z</time>
      </trkpt>
      <trkpt lat="47.29621" lon="-1.53009">
        <ele>7.1</ele>
        <time>2015-01-04T09:50:41Z</time>
      </trkpt>
      <trkpt lat="47.2961" lon="-1.52995">
        <ele>6.9</ele>
        <time>2015-01-04T09:50:45Z</time>
      </trkpt>
      <trkpt lat="47.29597" lon="-1.5298">
        <ele>6.9</ele>
        <time>2015-01-04T09:50:49Z</time>
      </trkpt>
      <trkpt lat="47.29583" lon="-1.5297">
        <ele>6.8</ele>
        <time>2015-01-04T09:50:53Z</time>
      </trkpt>
      <trkpt lat="47.29573" lon="-1.52952">
        <ele>6.8</ele>
        <time>2015-01-04T09:50:57Z</time>
      </trkpt>
      <trkpt lat="47.2957" lon="-1.52932">
        <ele>6.6</ele>
        <time>2015-01-04T09:51:01Z</time>
      </trkpt>
      <trkpt lat="47.29568" lon="-1.52919">
        <ele>6.4</ele>
        <time>2015-01-04T09:51:04Z</time>
      </trkpt>
      <trkpt lat="47.29568" lon="-1.52905">
        <ele>6.4</ele>
        <time>2015-01-04T09:51:08Z</time>
      </trkpt>
      <trkpt lat="47.29567" lon="-1.52885">
        <ele>6.4</ele>
        <time>2015-01-04T09:51:12Z</time>
      </trkpt>
      <trkpt lat="47.29563" lon="-1.52863">
        <ele>6.4</ele>
        <time>2015-01-04T09:51:16Z</time>
      </trkpt>
      <trkpt lat="47.29559" lon="-1.52842">
        <ele>6.4</ele>
        <time>2015-01-04T09:51:20Z</time>
      </trkpt>
      <trkpt lat="47.29555" lon="-1.5282">
        <ele>6.4</ele>
        <time>2015-01-04T09:51:24Z</time>
      </trkpt>
      <trkpt lat="47.29552" lon="-1.52794">
        <ele>6.3</ele>
        <time>2015-01-04T09:51:28Z</time>
      </trkpt>
      <trkpt lat="47.2955" lon="-1.52773">
        <ele>6.3</ele>
        <time>2015-01-04T09:51:31Z</time>
      </trkpt>
      <trkpt lat="47.29548" lon="-1.52747">
        <ele>6.3</ele>
        <time>2015-01-04T09:51:35Z</time>
      </trkpt>
      <trkpt lat="47.29542" lon="-1.52729">
        <ele>6.3</ele>
        <time>2015-01-04T09:51:38Z</time>
      </trkpt>
      <trkpt lat="47.29534" lon="-1.52711">
        <ele>6.3</ele>
        <time>2015-01-04T09:51:41Z</time>
      </trkpt>
      <trkpt lat="47.29526" lon="-1.52692">
        <ele>6.3</ele>
        <time>2015-01-04T09:51:44Z</time>
      </trkpt>
      <trkpt lat="47.29519" lon="-1.52673">
        <ele>6.3</ele>
        <time>2015-01-04T09:51:47Z</time>
      </trkpt>
      <trkpt lat="47.29513" lon="-1.52651">
        <ele>6.3</ele>
        <time>2015-01-04T09:51:50Z</time>
      </trkpt>
      <trkpt lat="47.29509" lon="-1.52629">
        <ele>6.3</ele>
        <time>2015-01-04T09:51:53Z</time>
      </trkpt>
      <trkpt lat="47.29506" lon="-1.52606">
        <ele>6.2</ele>
        <time>2015-01-04T09:51:56Z</time>
      </trkpt>
      <trkpt lat="47.295" lon="-1.52584">
        <ele>6.2</ele>
        <time>2015-01-04T09:51:59Z</time>
      </trkpt>
      <trkpt lat="47.29487" lon="-1.52567">
        <ele>6.3</ele>
        <time>2015-01-04T09:52:02Z</time>
      </trkpt>
      <trkpt lat="47.29471" lon="-1.52555">
        <ele>6.2</ele>
        <time>2015-01-04T09:52:05Z</time>
      </trkpt>
      <trkpt lat="47.29456" lon="-1.5254">
        <ele>6.2</ele>
        <time>2015-01-04T09:52:08Z</time>
      </trkpt>
      <trkpt lat="47.29444" lon="-1.52524">
        <ele>6.1</ele>
        <time>2015-01-04T09:52:11Z</time>
      </trkpt>
      <trkpt lat="47.2943" lon="-1.52509">
        <ele>6</ele>
        <time>2015-01-04T09:52:15Z</time>
      </trkpt>
      <trkpt lat="47.29421" lon="-1.52505">
        <ele>5.9</ele>
        <time>2015-01-04T09:52:19Z</time>
      </trkpt>
      <trkpt lat="47.29415" lon="-1.52505">
        <ele>5.9</ele>
        <time>2015-01-04T09:52:23Z</time>
      </trkpt>
      <trkpt lat="47.29412" lon="-1.52525">
        <ele>5.9</ele>
        <time>2015-01-04T09:52:32Z</time>
      </trkpt>
      <trkpt lat="47.2941" lon="-1.52534">
        <ele>5.7</ele>
        <time>2015-01-04T09:52:34Z</time>
      </trkpt>
      <trkpt lat="47.29407" lon="-1.52542">
        <ele>5.7</ele>
        <time>2015-01-04T09:52:36Z</time>
      </trkpt>
      <trkpt lat="47.29405" lon="-1.52549">
        <ele>5.7</ele>
        <time>2015-01-04T09:52:38Z</time>
      </trkpt>
      <trkpt lat="47.29404" lon="-1.52557">
        <ele>5.7</ele>
        <time>2015-01-04T09:52:40Z</time>
      </trkpt>
      <trkpt lat="47.29403" lon="-1.52567">
        <ele>5.7</ele>
        <time>2015-01-04T09:52:42Z</time>
      </trkpt>
      <trkpt lat="47.29402" lon="-1.52587">
        <ele>5.7</ele>
        <time>2015-01-04T09:52:46Z</time>
      </trkpt>
      <trkpt lat="47.294" lon="-1.526">
        <ele>5.7</ele>
        <time>2015-01-04T09:52:49Z</time>
      </trkpt>
      <trkpt lat="47.29398" lon="-1.52607">
        <ele>5.7</ele>
        <time>2015-01-04T09:52:51Z</time>
      </trkpt>
      <trkpt lat="47.29397" lon="-1.52614">
        <ele>5.7</ele>
        <time>2015-01-04T09:52:53Z</time>
      </trkpt>
      <trkpt lat="47.29397" lon="-1.52638">
        <ele>5.7</ele>
        <time>2015-01-04T09:52:58Z</time>
      </trkpt>
      <trkpt lat="47.29398" lon="-1.52651">
        <ele>5.8</ele>
        <time>2015-01-04T09:53:01Z</time>
      </trkpt>
      <trkpt lat="47.29394" lon="-1.52664">
        <ele>5.8</ele>
        <time>2015-01-04T09:53:05Z</time>
      </trkpt>
      <trkpt lat="47.2939" lon="-1.52671">
        <ele>5.8</ele>
        <time>2015-01-04T09:53:07Z</time>
      </trkpt>
      <trkpt lat="47.29388" lon="-1.52677">
        <ele>5.8</ele>
        <time>2015-01-04T09:53:09Z</time>
      </trkpt>
      <trkpt lat="47.29384" lon="-1.52696">
        <ele>5.9</ele>
        <time>2015-01-04T09:53:14Z</time>
      </trkpt>
      <trkpt lat="47.29386" lon="-1.52716">
        <ele>6</ele>
        <time>2015-01-04T09:53:18Z</time>
      </trkpt>
      <trkpt lat="47.29388" lon="-1.52724">
        <ele>6</ele>
        <time>2015-01-04T09:53:20Z</time>
      </trkpt>
      <trkpt lat="47.29391" lon="-1.52732">
        <ele>6</ele>
        <time>2015-01-04T09:53:22Z</time>
      </trkpt>
      <trkpt lat="47.29403" lon="-1.52749">
        <ele>6.1</ele>
        <time>2015-01-04T09:53:26Z</time>
      </trkpt>
      <trkpt lat="47.29412" lon="-1.5276">
        <ele>6.3</ele>
        <time>2015-01-04T09:53:29Z</time>
      </trkpt>
      <trkpt lat="47.29417" lon="-1.5278">
        <ele>6.3</ele>
        <time>2015-01-04T09:53:32Z</time>
      </trkpt>
      <trkpt lat="47.29418" lon="-1.52794">
        <ele>6.3</ele>
        <time>2015-01-04T09:53:35Z</time>
      </trkpt>
      <trkpt lat="47.29417" lon="-1.52801">
        <ele>6.2</ele>
        <time>2015-01-04T09:53:38Z</time>
      </trkpt>
      <trkpt lat="47.29412" lon="-1.52805">
        <ele>6.2</ele>
        <time>2015-01-04T09:53:41Z</time>
      </trkpt>
      <trkpt lat="47.29411" lon="-1.52812">
        <ele>6.1</ele>
        <time>2015-01-04T09:53:50Z</time>
      </trkpt>
      <trkpt lat="47.29407" lon="-1.52816">
        <ele>6.1</ele>
        <time>2015-01-04T09:53:56Z</time>
      </trkpt>
      <trkpt lat="47.29404" lon="-1.52825">
        <ele>6.1</ele>
        <time>2015-01-04T09:54:00Z</time>
      </trkpt>
      <trkpt lat="47.29399" lon="-1.52836">
        <ele>6.1</ele>
        <time>2015-01-04T09:54:06Z</time>
      </trkpt>
      <trkpt lat="47.29397" lon="-1.52846">
        <ele>6.1</ele>
        <time>2015-01-04T09:54:09Z</time>
      </trkpt>
      <trkpt lat="47.29396" lon="-1.52854">
        <ele>6.1</ele>
        <time>2015-01-04T09:54:11Z</time>
      </trkpt>
      <trkpt lat="47.29397" lon="-1.52874">
        <ele>5.8</ele>
        <time>2015-01-04T09:54:18Z</time>
      </trkpt>
      <trkpt lat="47.29398" lon="-1.52888">
        <ele>5.5</ele>
        <time>2015-01-04T09:54:26Z</time>
      </trkpt>
      <trkpt lat="47.29401" lon="-1.52883">
        <ele>4.9</ele>
        <time>2015-01-04T09:54:33Z</time>
      </trkpt>
      <trkpt lat="47.29398" lon="-1.52878">
        <ele>4.9</ele>
        <time>2015-01-04T09:54:36Z</time>
      </trkpt>
      <trkpt lat="47.29388" lon="-1.5288">
        <ele>4.2</ele>
        <time>2015-01-04T09:54:42Z</time>
      </trkpt>
      <trkpt lat="47.29376" lon="-1.52879">
        <ele>4.2</ele>
        <time>2015-01-04T09:54:46Z</time>
      </trkpt>
      <trkpt lat="47.29371" lon="-1.52879">
        <ele>4.2</ele>
        <time>2015-01-04T09:54:48Z</time>
      </trkpt>
      <trkpt lat="47.29359" lon="-1.52877">
        <ele>4.2</ele>
        <time>2015-01-04T09:54:52Z</time>
      </trkpt>
      <trkpt lat="47.29352" lon="-1.52886">
        <ele>4.2</ele>
        <time>2015-01-04T09:54:56Z</time>
      </trkpt>
      <trkpt lat="47.29348" lon="-1.5291">
        <ele>4.1</ele>
        <time>2015-01-04T09:55:01Z</time>
      </trkpt>
      <trkpt lat="47.29339" lon="-1.52933">
        <ele>4.2</ele>
        <time>2015-01-04T09:55:05Z</time>
      </trkpt>
      <trkpt lat="47.29327" lon="-1.5295">
        <ele>4.2</ele>
        <time>2015-01-04T09:55:08Z</time>
      </trkpt>
      <trkpt lat="47.29318" lon="-1.52968">
        <ele>4.3</ele>
        <time>2015-01-04T09:55:12Z</time>
      </trkpt>
      <trkpt lat="47.29305" lon="-1.52986">
        <ele>4.5</ele>
        <time>2015-01-04T09:55:16Z</time>
      </trkpt>
      <trkpt lat="47.29292" lon="-1.52996">
        <ele>4.7</ele>
        <time>2015-01-04T09:55:19Z</time>
      </trkpt>
      <trkpt lat="47.2928" lon="-1.53002">
        <ele>4.8</ele>
        <time>2015-01-04T09:55:22Z</time>
      </trkpt>
      <trkpt lat="47.2927" lon="-1.53004">
        <ele>5</ele>
        <time>2015-01-04T09:55:24Z</time>
      </trkpt>
      <trkpt lat="47.29264" lon="-1.53003">
        <ele>5</ele>
        <time>2015-01-04T09:55:26Z</time>
      </trkpt>
      <trkpt lat="47.29257" lon="-1.53003">
        <ele>5</ele>
        <time>2015-01-04T09:55:28Z</time>
      </trkpt>
      <trkpt lat="47.29248" lon="-1.53004">
        <ele>5.1</ele>
        <time>2015-01-04T09:55:30Z</time>
      </trkpt>
      <trkpt lat="47.29237" lon="-1.53008">
        <ele>5.4</ele>
        <time>2015-01-04T09:55:33Z</time>
      </trkpt>
      <trkpt lat="47.29227" lon="-1.53009">
        <ele>5.4</ele>
        <time>2015-01-04T09:55:35Z</time>
      </trkpt>
      <trkpt lat="47.29218" lon="-1.53009">
        <ele>5.5</ele>
        <time>2015-01-04T09:55:37Z</time>
      </trkpt>
      <trkpt lat="47.29208" lon="-1.5301">
        <ele>5.5</ele>
        <time>2015-01-04T09:55:39Z</time>
      </trkpt>
      <trkpt lat="47.29192" lon="-1.53013">
        <ele>5.7</ele>
        <time>2015-01-04T09:55:42Z</time>
      </trkpt>
      <trkpt lat="47.29177" lon="-1.53015">
        <ele>5.8</ele>
        <time>2015-01-04T09:55:45Z</time>
      </trkpt>
      <trkpt lat="47.29158" lon="-1.53016">
        <ele>5.9</ele>
        <time>2015-01-04T09:55:49Z</time>
      </trkpt>
      <trkpt lat="47.29144" lon="-1.53016">
        <ele>5.9</ele>
        <time>2015-01-04T09:55:52Z</time>
      </trkpt>
      <trkpt lat="47.29135" lon="-1.53018">
        <ele>5.9</ele>
        <time>2015-01-04T09:55:54Z</time>
      </trkpt>
      <trkpt lat="47.29125" lon="-1.53019">
        <ele>5.9</ele>
        <time>2015-01-04T09:55:56Z</time>
      </trkpt>
      <trkpt lat="47.29115" lon="-1.53018">
        <ele>5.9</ele>
        <time>2015-01-04T09:55:58Z</time>
      </trkpt>
      <trkpt lat="47.2911" lon="-1.53017">
        <ele>5.9</ele>
        <time>2015-01-04T09:55:59Z</time>
      </trkpt>
      <trkpt lat="47.29105" lon="-1.53016">
        <ele>5.9</ele>
        <time>2015-01-04T09:56:00Z</time>
      </trkpt>
      <trkpt lat="47.291" lon="-1.53014">
        <ele>5.9</ele>
        <time>2015-01-04T09:56:01Z</time>
      </trkpt>
      <trkpt lat="47.29093" lon="-1.5301">
        <ele>5.9</ele>
        <time>2015-01-04T09:56:03Z</time>
      </trkpt>
      <trkpt lat="47.29085" lon="-1.53003">
        <ele>5.9</ele>
        <time>2015-01-04T09:56:05Z</time>
      </trkpt>
      <trkpt lat="47.29078" lon="-1.52996">
        <ele>5.9</ele>
        <time>2015-01-04T09:56:07Z</time>
      </trkpt>
      <trkpt lat="47.29068" lon="-1.52979">
        <ele>5.9</ele>
        <time>2015-01-04T09:56:10Z</time>
      </trkpt>
      <trkpt lat="47.29057" lon="-1.52963">
        <ele>5.9</ele>
        <time>2015-01-04T09:56:13Z</time>
      </trkpt>
      <trkpt lat="47.29046" lon="-1.52947">
        <ele>6</ele>
        <time>2015-01-04T09:56:16Z</time>
      </trkpt>
      <trkpt lat="47.29035" lon="-1.52931">
        <ele>6</ele>
        <time>2015-01-04T09:56:19Z</time>
      </trkpt>
      <trkpt lat="47.29026" lon="-1.52916">
        <ele>6</ele>
        <time>2015-01-04T09:56:22Z</time>
      </trkpt>
      <trkpt lat="47.29016" lon="-1.52902">
        <ele>6</ele>
        <time>2015-01-04T09:56:25Z</time>
      </trkpt>
      <trkpt lat="47.29004" lon="-1.52883">
        <ele>5.9</ele>
        <time>2015-01-04T09:56:29Z</time>
      </trkpt>
      <trkpt lat="47.28996" lon="-1.52867">
        <ele>6</ele>
        <time>2015-01-04T09:56:32Z</time>
      </trkpt>
      <trkpt lat="47.28985" lon="-1.52853">
        <ele>6</ele>
        <time>2015-01-04T09:56:35Z</time>
      </trkpt>
      <trkpt lat="47.28971" lon="-1.52836">
        <ele>5.9</ele>
        <time>2015-01-04T09:56:39Z</time>
      </trkpt>
      <trkpt lat="47.28959" lon="-1.52826">
        <ele>6</ele>
        <time>2015-01-04T09:56:42Z</time>
      </trkpt>
      <trkpt lat="47.2895" lon="-1.5282">
        <ele>6</ele>
        <time>2015-01-04T09:56:44Z</time>
      </trkpt>
      <trkpt lat="47.28937" lon="-1.52812">
        <ele>6</ele>
        <time>2015-01-04T09:56:47Z</time>
      </trkpt>
      <trkpt lat="47.28924" lon="-1.52804">
        <ele>6.3</ele>
        <time>2015-01-04T09:56:50Z</time>
      </trkpt>
      <trkpt lat="47.28918" lon="-1.52799">
        <ele>6.3</ele>
        <time>2015-01-04T09:56:52Z</time>
      </trkpt>
      <trkpt lat="47.28904" lon="-1.52789">
        <ele>6.3</ele>
        <time>2015-01-04T09:56:56Z</time>
      </trkpt>
      <trkpt lat="47.28884" lon="-1.52775">
        <ele>6.3</ele>
        <time>2015-01-04T09:57:01Z</time>
      </trkpt>
      <trkpt lat="47.28875" lon="-1.5277">
        <ele>6.3</ele>
        <time>2015-01-04T09:57:03Z</time>
      </trkpt>
      <trkpt lat="47.28855" lon="-1.52762">
        <ele>6.3</ele>
        <time>2015-01-04T09:57:07Z</time>
      </trkpt>
      <trkpt lat="47.2884" lon="-1.52764">
        <ele>6.3</ele>
        <time>2015-01-04T09:57:11Z</time>
      </trkpt>
      <trkpt lat="47.28831" lon="-1.52758">
        <ele>6.4</ele>
        <time>2015-01-04T09:57:13Z</time>
      </trkpt>
      <trkpt lat="47.28821" lon="-1.52755">
        <ele>6.5</ele>
        <time>2015-01-04T09:57:15Z</time>
      </trkpt>
      <trkpt lat="47.28812" lon="-1.52748">
        <ele>6.6</ele>
        <time>2015-01-04T09:57:17Z</time>
      </trkpt>
      <trkpt lat="47.28807" lon="-1.52739">
        <ele>6.6</ele>
        <time>2015-01-04T09:57:18Z</time>
      </trkpt>
      <trkpt lat="47.28804" lon="-1.52734">
        <ele>6.6</ele>
        <time>2015-01-04T09:57:19Z</time>
      </trkpt>
      <trkpt lat="47.28799" lon="-1.52722">
        <ele>6.6</ele>
        <time>2015-01-04T09:57:21Z</time>
      </trkpt>
      <trkpt lat="47.2879" lon="-1.52698">
        <ele>6.8</ele>
        <time>2015-01-04T09:57:24Z</time>
      </trkpt>
      <trkpt lat="47.28781" lon="-1.52682">
        <ele>6.8</ele>
        <time>2015-01-04T09:57:26Z</time>
      </trkpt>
      <trkpt lat="47.28771" lon="-1.52664">
        <ele>6.7</ele>
        <time>2015-01-04T09:57:29Z</time>
      </trkpt>
      <trkpt lat="47.28763" lon="-1.52643">
        <ele>6.6</ele>
        <time>2015-01-04T09:57:33Z</time>
      </trkpt>
      <trkpt lat="47.28754" lon="-1.52626">
        <ele>6.6</ele>
        <time>2015-01-04T09:57:36Z</time>
      </trkpt>
      <trkpt lat="47.2874" lon="-1.52612">
        <ele>6.6</ele>
        <time>2015-01-04T09:57:40Z</time>
      </trkpt>
      <trkpt lat="47.28727" lon="-1.526">
        <ele>6.6</ele>
        <time>2015-01-04T09:57:43Z</time>
      </trkpt>
      <trkpt lat="47.28715" lon="-1.52595">
        <ele>6.6</ele>
        <time>2015-01-04T09:57:46Z</time>
      </trkpt>
      <trkpt lat="47.28706" lon="-1.5259">
        <ele>6.6</ele>
        <time>2015-01-04T09:57:48Z</time>
      </trkpt>
      <trkpt lat="47.28688" lon="-1.52586">
        <ele>6.8</ele>
        <time>2015-01-04T09:57:52Z</time>
      </trkpt>
      <trkpt lat="47.28676" lon="-1.5258">
        <ele>6.9</ele>
        <time>2015-01-04T09:57:55Z</time>
      </trkpt>
      <trkpt lat="47.28658" lon="-1.52581">
        <ele>7.1</ele>
        <time>2015-01-04T09:58:00Z</time>
      </trkpt>
      <trkpt lat="47.28644" lon="-1.52576">
        <ele>9</ele>
        <time>2015-01-04T09:58:04Z</time>
      </trkpt>
      <trkpt lat="47.28634" lon="-1.52565">
        <ele>9.7</ele>
        <time>2015-01-04T09:58:07Z</time>
      </trkpt>
      <trkpt lat="47.2862" lon="-1.52565">
        <ele>11.2</ele>
        <time>2015-01-04T09:58:12Z</time>
      </trkpt>
      <trkpt lat="47.28608" lon="-1.52556">
        <ele>11.4</ele>
        <time>2015-01-04T09:58:16Z</time>
      </trkpt>
      <trkpt lat="47.28599" lon="-1.5255">
        <ele>11.5</ele>
        <time>2015-01-04T09:58:18Z</time>
      </trkpt>
      <trkpt lat="47.28587" lon="-1.52544">
        <ele>11.6</ele>
        <time>2015-01-04T09:58:21Z</time>
      </trkpt>
      <trkpt lat="47.28578" lon="-1.5254">
        <ele>12.2</ele>
        <time>2015-01-04T09:58:23Z</time>
      </trkpt>
      <trkpt lat="47.2857" lon="-1.52535">
        <ele>12.2</ele>
        <time>2015-01-04T09:58:25Z</time>
      </trkpt>
      <trkpt lat="47.28564" lon="-1.52529">
        <ele>12.2</ele>
        <time>2015-01-04T09:58:27Z</time>
      </trkpt>
      <trkpt lat="47.2855" lon="-1.52517">
        <ele>12.6</ele>
        <time>2015-01-04T09:58:32Z</time>
      </trkpt>
      <trkpt lat="47.28539" lon="-1.52516">
        <ele>12.9</ele>
        <time>2015-01-04T09:58:36Z</time>
      </trkpt>
      <trkpt lat="47.28528" lon="-1.52519">
        <ele>13.3</ele>
        <time>2015-01-04T09:58:40Z</time>
      </trkpt>
      <trkpt lat="47.28523" lon="-1.52518">
        <ele>13.7</ele>
        <time>2015-01-04T09:58:42Z</time>
      </trkpt>
      <trkpt lat="47.28519" lon="-1.52513">
        <ele>13.7</ele>
        <time>2015-01-04T09:58:45Z</time>
      </trkpt>
      <trkpt lat="47.28513" lon="-1.52508">
        <ele>14</ele>
        <time>2015-01-04T09:58:48Z</time>
      </trkpt>
      <trkpt lat="47.28504" lon="-1.52505">
        <ele>14</ele>
        <time>2015-01-04T09:58:50Z</time>
      </trkpt>
      <trkpt lat="47.28491" lon="-1.52499">
        <ele>14.1</ele>
        <time>2015-01-04T09:58:52Z</time>
      </trkpt>
      <trkpt lat="47.28476" lon="-1.52499">
        <ele>14.7</ele>
        <time>2015-01-04T09:58:54Z</time>
      </trkpt>
      <trkpt lat="47.28462" lon="-1.52501">
        <ele>15.6</ele>
        <time>2015-01-04T09:58:56Z</time>
      </trkpt>
      <trkpt lat="47.28447" lon="-1.52504">
        <ele>15.9</ele>
        <time>2015-01-04T09:58:58Z</time>
      </trkpt>
      <trkpt lat="47.28438" lon="-1.52504">
        <ele>15.9</ele>
        <time>2015-01-04T09:58:59Z</time>
      </trkpt>
      <trkpt lat="47.28423" lon="-1.52504">
        <ele>15.9</ele>
        <time>2015-01-04T09:59:01Z</time>
      </trkpt>
      <trkpt lat="47.28416" lon="-1.52502">
        <ele>15.9</ele>
        <time>2015-01-04T09:59:02Z</time>
      </trkpt>
      <trkpt lat="47.28403" lon="-1.52496">
        <ele>15.9</ele>
        <time>2015-01-04T09:59:04Z</time>
      </trkpt>
      <trkpt lat="47.28396" lon="-1.52494">
        <ele>15.9</ele>
        <time>2015-01-04T09:59:05Z</time>
      </trkpt>
      <trkpt lat="47.2839" lon="-1.5249">
        <ele>15.9</ele>
        <time>2015-01-04T09:59:06Z</time>
      </trkpt>
      <trkpt lat="47.28384" lon="-1.52485">
        <ele>15.9</ele>
        <time>2015-01-04T09:59:07Z</time>
      </trkpt>
      <trkpt lat="47.28379" lon="-1.5248">
        <ele>15.9</ele>
        <time>2015-01-04T09:59:08Z</time>
      </trkpt>
      <trkpt lat="47.28367" lon="-1.5247">
        <ele>15.9</ele>
        <time>2015-01-04T09:59:11Z</time>
      </trkpt>
      <trkpt lat="47.28355" lon="-1.52454">
        <ele>15.9</ele>
        <time>2015-01-04T09:59:15Z</time>
      </trkpt>
      <trkpt lat="47.28339" lon="-1.5245">
        <ele>15.9</ele>
        <time>2015-01-04T09:59:18Z</time>
      </trkpt>
      <trkpt lat="47.28328" lon="-1.52452">
        <ele>15.9</ele>
        <time>2015-01-04T09:59:21Z</time>
      </trkpt>
      <trkpt lat="47.28319" lon="-1.52456">
        <ele>15.4</ele>
        <time>2015-01-04T09:59:25Z</time>
      </trkpt>
      <trkpt lat="47.2831" lon="-1.52458">
        <ele>12.8</ele>
        <time>2015-01-04T09:59:34Z</time>
      </trkpt>
      <trkpt lat="47.28306" lon="-1.52458">
        <ele>12.3</ele>
        <time>2015-01-04T09:59:38Z</time>
      </trkpt>
      <trkpt lat="47.28296" lon="-1.52454">
        <ele>12.1</ele>
        <time>2015-01-04T09:59:43Z</time>
      </trkpt>
      <trkpt lat="47.28292" lon="-1.52451">
        <ele>12</ele>
        <time>2015-01-04T09:59:46Z</time>
      </trkpt>
      <trkpt lat="47.28283" lon="-1.52451">
        <ele>11.9</ele>
        <time>2015-01-04T09:59:52Z</time>
      </trkpt>
      <trkpt lat="47.28271" lon="-1.5244">
        <ele>11.8</ele>
        <time>2015-01-04T09:59:59Z</time>
      </trkpt>
      <trkpt lat="47.28264" lon="-1.52431">
        <ele>11.8</ele>
        <time>2015-01-04T10:00:04Z</time>
      </trkpt>
      <trkpt lat="47.28256" lon="-1.52415">
        <ele>11.9</ele>
        <time>2015-01-04T10:00:12Z</time>
      </trkpt>
      <trkpt lat="47.28248" lon="-1.52406">
        <ele>12</ele>
        <time>2015-01-04T10:00:18Z</time>
      </trkpt>
      <trkpt lat="47.28239" lon="-1.52407">
        <ele>12.1</ele>
        <time>2015-01-04T10:00:22Z</time>
      </trkpt>
      <trkpt lat="47.28228" lon="-1.52409">
        <ele>12.1</ele>
        <time>2015-01-04T10:00:26Z</time>
      </trkpt>
      <trkpt lat="47.28223" lon="-1.52411">
        <ele>12.3</ele>
        <time>2015-01-04T10:00:28Z</time>
      </trkpt>
      <trkpt lat="47.28217" lon="-1.5241">
        <ele>12.3</ele>
        <time>2015-01-04T10:00:31Z</time>
      </trkpt>
      <trkpt lat="47.28207" lon="-1.52408">
        <ele>13</ele>
        <time>2015-01-04T10:00:36Z</time>
      </trkpt>
      <trkpt lat="47.28194" lon="-1.52408">
        <ele>13.5</ele>
        <time>2015-01-04T10:00:40Z</time>
      </trkpt>
      <trkpt lat="47.28182" lon="-1.52409">
        <ele>13.6</ele>
        <time>2015-01-04T10:00:43Z</time>
      </trkpt>
      <trkpt lat="47.2817" lon="-1.52413">
        <ele>13.8</ele>
        <time>2015-01-04T10:00:46Z</time>
      </trkpt>
      <trkpt lat="47.28161" lon="-1.52421">
        <ele>13.8</ele>
        <time>2015-01-04T10:00:49Z</time>
      </trkpt>
      <trkpt lat="47.28149" lon="-1.52435">
        <ele>13.9</ele>
        <time>2015-01-04T10:00:53Z</time>
      </trkpt>
      <trkpt lat="47.28134" lon="-1.52448">
        <ele>14.1</ele>
        <time>2015-01-04T10:00:57Z</time>
      </trkpt>
      <trkpt lat="47.28125" lon="-1.52451">
        <ele>14.2</ele>
        <time>2015-01-04T10:00:59Z</time>
      </trkpt>
      <trkpt lat="47.28117" lon="-1.52451">
        <ele>14.2</ele>
        <time>2015-01-04T10:01:01Z</time>
      </trkpt>
      <trkpt lat="47.2811" lon="-1.5245">
        <ele>14.2</ele>
        <time>2015-01-04T10:01:03Z</time>
      </trkpt>
      <trkpt lat="47.28103" lon="-1.52449">
        <ele>14.4</ele>
        <time>2015-01-04T10:01:05Z</time>
      </trkpt>
      <trkpt lat="47.28095" lon="-1.52446">
        <ele>14.4</ele>
        <time>2015-01-04T10:01:07Z</time>
      </trkpt>
      <trkpt lat="47.28088" lon="-1.52442">
        <ele>14.4</ele>
        <time>2015-01-04T10:01:09Z</time>
      </trkpt>
      <trkpt lat="47.28076" lon="-1.52437">
        <ele>14.5</ele>
        <time>2015-01-04T10:01:12Z</time>
      </trkpt>
      <trkpt lat="47.28064" lon="-1.52436">
        <ele>14.6</ele>
        <time>2015-01-04T10:01:15Z</time>
      </trkpt>
      <trkpt lat="47.28057" lon="-1.52434">
        <ele>14.6</ele>
        <time>2015-01-04T10:01:17Z</time>
      </trkpt>
      <trkpt lat="47.2805" lon="-1.52429">
        <ele>14.6</ele>
        <time>2015-01-04T10:01:19Z</time>
      </trkpt>
      <trkpt lat="47.28046" lon="-1.52419">
        <ele>14.6</ele>
        <time>2015-01-04T10:01:21Z</time>
      </trkpt>
      <trkpt lat="47.28045" lon="-1.52394">
        <ele>14.7</ele>
        <time>2015-01-04T10:01:25Z</time>
      </trkpt>
      <trkpt lat="47.28046" lon="-1.52371">
        <ele>14.7</ele>
        <time>2015-01-04T10:01:29Z</time>
      </trkpt>
      <trkpt lat="47.28042" lon="-1.52352">
        <ele>14.8</ele>
        <time>2015-01-04T10:01:33Z</time>
      </trkpt>
      <trkpt lat="47.28028" lon="-1.52334">
        <ele>14.8</ele>
        <time>2015-01-04T10:01:37Z</time>
      </trkpt>
      <trkpt lat="47.28018" lon="-1.52331">
        <ele>14.8</ele>
        <time>2015-01-04T10:01:39Z</time>
      </trkpt>
      <trkpt lat="47.28006" lon="-1.5233">
        <ele>14.8</ele>
        <time>2015-01-04T10:01:41Z</time>
      </trkpt>
      <trkpt lat="47.27989" lon="-1.52315">
        <ele>14.8</ele>
        <time>2015-01-04T10:01:44Z</time>
      </trkpt>
      <trkpt lat="47.27977" lon="-1.52303">
        <ele>14.8</ele>
        <time>2015-01-04T10:01:46Z</time>
      </trkpt>
      <trkpt lat="47.27964" lon="-1.52295">
        <ele>14.8</ele>
        <time>2015-01-04T10:01:48Z</time>
      </trkpt>
      <trkpt lat="47.27952" lon="-1.52286">
        <ele>14.8</ele>
        <time>2015-01-04T10:01:50Z</time>
      </trkpt>
      <trkpt lat="47.27943" lon="-1.52279">
        <ele>14.8</ele>
        <time>2015-01-04T10:01:52Z</time>
      </trkpt>
      <trkpt lat="47.27933" lon="-1.52271">
        <ele>14.8</ele>
        <time>2015-01-04T10:01:54Z</time>
      </trkpt>
      <trkpt lat="47.27923" lon="-1.52273">
        <ele>14.8</ele>
        <time>2015-01-04T10:01:56Z</time>
      </trkpt>
      <trkpt lat="47.27915" lon="-1.52295">
        <ele>14.7</ele>
        <time>2015-01-04T10:02:01Z</time>
      </trkpt>
      <trkpt lat="47.27905" lon="-1.52314">
        <ele>14.2</ele>
        <time>2015-01-04T10:02:05Z</time>
      </trkpt>
      <trkpt lat="47.27896" lon="-1.5233">
        <ele>13</ele>
        <time>2015-01-04T10:02:09Z</time>
      </trkpt>
      <trkpt lat="47.27886" lon="-1.52344">
        <ele>11.9</ele>
        <time>2015-01-04T10:02:13Z</time>
      </trkpt>
      <trkpt lat="47.27873" lon="-1.52362">
        <ele>10.7</ele>
        <time>2015-01-04T10:02:17Z</time>
      </trkpt>
      <trkpt lat="47.2786" lon="-1.52372">
        <ele>8.4</ele>
        <time>2015-01-04T10:02:21Z</time>
      </trkpt>
      <trkpt lat="47.27844" lon="-1.52379">
        <ele>8.2</ele>
        <time>2015-01-04T10:02:26Z</time>
      </trkpt>
      <trkpt lat="47.27831" lon="-1.52385">
        <ele>8.2</ele>
        <time>2015-01-04T10:02:29Z</time>
      </trkpt>
      <trkpt lat="47.27816" lon="-1.52391">
        <ele>8.2</ele>
        <time>2015-01-04T10:02:32Z</time>
      </trkpt>
      <trkpt lat="47.27806" lon="-1.52399">
        <ele>8.2</ele>
        <time>2015-01-04T10:02:36Z</time>
      </trkpt>
      <trkpt lat="47.27791" lon="-1.52407">
        <ele>8.2</ele>
        <time>2015-01-04T10:02:40Z</time>
      </trkpt>
      <trkpt lat="47.27778" lon="-1.52404">
        <ele>8.2</ele>
        <time>2015-01-04T10:02:44Z</time>
      </trkpt>
      <trkpt lat="47.27769" lon="-1.52411">
        <ele>8.2</ele>
        <time>2015-01-04T10:02:47Z</time>
      </trkpt>
      <trkpt lat="47.27754" lon="-1.52422">
        <ele>8.5</ele>
        <time>2015-01-04T10:02:51Z</time>
      </trkpt>
      <trkpt lat="47.27745" lon="-1.52427">
        <ele>10</ele>
        <time>2015-01-04T10:02:53Z</time>
      </trkpt>
      <trkpt lat="47.27738" lon="-1.52429">
        <ele>10</ele>
        <time>2015-01-04T10:02:55Z</time>
      </trkpt>
      <trkpt lat="47.27731" lon="-1.52431">
        <ele>10</ele>
        <time>2015-01-04T10:02:57Z</time>
      </trkpt>
      <trkpt lat="47.27724" lon="-1.52434">
        <ele>12.3</ele>
        <time>2015-01-04T10:02:59Z</time>
      </trkpt>
      <trkpt lat="47.27716" lon="-1.52432">
        <ele>12.3</ele>
        <time>2015-01-04T10:03:01Z</time>
      </trkpt>
      <trkpt lat="47.27709" lon="-1.52424">
        <ele>12.3</ele>
        <time>2015-01-04T10:03:03Z</time>
      </trkpt>
      <trkpt lat="47.277" lon="-1.52407">
        <ele>12.9</ele>
        <time>2015-01-04T10:03:07Z</time>
      </trkpt>
      <trkpt lat="47.27694" lon="-1.52396">
        <ele>13.5</ele>
        <time>2015-01-04T10:03:10Z</time>
      </trkpt>
      <trkpt lat="47.27687" lon="-1.52384">
        <ele>13.5</ele>
        <time>2015-01-04T10:03:13Z</time>
      </trkpt>
      <trkpt lat="47.27675" lon="-1.52367">
        <ele>13.8</ele>
        <time>2015-01-04T10:03:17Z</time>
      </trkpt>
      <trkpt lat="47.27668" lon="-1.5235">
        <ele>13.9</ele>
        <time>2015-01-04T10:03:20Z</time>
      </trkpt>
      <trkpt lat="47.27657" lon="-1.52335">
        <ele>14.2</ele>
        <time>2015-01-04T10:03:24Z</time>
      </trkpt>
      <trkpt lat="47.27647" lon="-1.52335">
        <ele>14.2</ele>
        <time>2015-01-04T10:03:27Z</time>
      </trkpt>
      <trkpt lat="47.27638" lon="-1.52348">
        <ele>14.3</ele>
        <time>2015-01-04T10:03:30Z</time>
      </trkpt>
      <trkpt lat="47.27629" lon="-1.52364">
        <ele>14.4</ele>
        <time>2015-01-04T10:03:33Z</time>
      </trkpt>
      <trkpt lat="47.27619" lon="-1.52379">
        <ele>14.5</ele>
        <time>2015-01-04T10:03:36Z</time>
      </trkpt>
      <trkpt lat="47.27615" lon="-1.52401">
        <ele>14.6</ele>
        <time>2015-01-04T10:03:39Z</time>
      </trkpt>
      <trkpt lat="47.27616" lon="-1.52431">
        <ele>14.6</ele>
        <time>2015-01-04T10:03:42Z</time>
      </trkpt>
      <trkpt lat="47.2761" lon="-1.52459">
        <ele>14.6</ele>
        <time>2015-01-04T10:03:45Z</time>
      </trkpt>
      <trkpt lat="47.27606" lon="-1.52478">
        <ele>14.6</ele>
        <time>2015-01-04T10:03:47Z</time>
      </trkpt>
      <trkpt lat="47.27598" lon="-1.52499">
        <ele>14.5</ele>
        <time>2015-01-04T10:03:51Z</time>
      </trkpt>
      <trkpt lat="47.27601" lon="-1.52519">
        <ele>14.5</ele>
        <time>2015-01-04T10:03:57Z</time>
      </trkpt>
      <trkpt lat="47.27601" lon="-1.52526">
        <ele>14.4</ele>
        <time>2015-01-04T10:03:59Z</time>
      </trkpt>
      <trkpt lat="47.27604" lon="-1.52533">
        <ele>14.4</ele>
        <time>2015-01-04T10:04:01Z</time>
      </trkpt>
      <trkpt lat="47.27612" lon="-1.52543">
        <ele>14.4</ele>
        <time>2015-01-04T10:04:05Z</time>
      </trkpt>
      <trkpt lat="47.2762" lon="-1.52553">
        <ele>14.2</ele>
        <time>2015-01-04T10:04:09Z</time>
      </trkpt>
      <trkpt lat="47.27629" lon="-1.52563">
        <ele>14</ele>
        <time>2015-01-04T10:04:13Z</time>
      </trkpt>
      <trkpt lat="47.27631" lon="-1.5257">
        <ele>13</ele>
        <time>2015-01-04T10:04:15Z</time>
      </trkpt>
      <trkpt lat="47.27626" lon="-1.52568">
        <ele>12.9</ele>
        <time>2015-01-04T10:04:20Z</time>
      </trkpt>
      <trkpt lat="47.27621" lon="-1.52555">
        <ele>12.4</ele>
        <time>2015-01-04T10:04:25Z</time>
      </trkpt>
      <trkpt lat="47.27617" lon="-1.5255">
        <ele>12.2</ele>
        <time>2015-01-04T10:04:27Z</time>
      </trkpt>
      <trkpt lat="47.27611" lon="-1.52547">
        <ele>12.2</ele>
        <time>2015-01-04T10:04:30Z</time>
      </trkpt>
      <trkpt lat="47.27598" lon="-1.52537">
        <ele>11.3</ele>
        <time>2015-01-04T10:04:38Z</time>
      </trkpt>
      <trkpt lat="47.27589" lon="-1.52534">
        <ele>10</ele>
        <time>2015-01-04T10:04:47Z</time>
      </trkpt>
      <trkpt lat="47.27583" lon="-1.52533">
        <ele>9.5</ele>
        <time>2015-01-04T10:04:50Z</time>
      </trkpt>
      <trkpt lat="47.27579" lon="-1.52539">
        <ele>9.5</ele>
        <time>2015-01-04T10:04:52Z</time>
      </trkpt>
      <trkpt lat="47.27575" lon="-1.52559">
        <ele>9.2</ele>
        <time>2015-01-04T10:04:56Z</time>
      </trkpt>
      <trkpt lat="47.27573" lon="-1.5258">
        <ele>9.1</ele>
        <time>2015-01-04T10:05:00Z</time>
      </trkpt>
      <trkpt lat="47.27569" lon="-1.52601">
        <ele>9</ele>
        <time>2015-01-04T10:05:04Z</time>
      </trkpt>
      <trkpt lat="47.27565" lon="-1.52622">
        <ele>8.8</ele>
        <time>2015-01-04T10:05:08Z</time>
      </trkpt>
      <trkpt lat="47.27556" lon="-1.52638">
        <ele>8.4</ele>
        <time>2015-01-04T10:05:13Z</time>
      </trkpt>
      <trkpt lat="47.27546" lon="-1.52647">
        <ele>8.1</ele>
        <time>2015-01-04T10:05:17Z</time>
      </trkpt>
      <trkpt lat="47.27539" lon="-1.52665">
        <ele>7.7</ele>
        <time>2015-01-04T10:05:21Z</time>
      </trkpt>
      <trkpt lat="47.27538" lon="-1.52687">
        <ele>7.4</ele>
        <time>2015-01-04T10:05:25Z</time>
      </trkpt>
      <trkpt lat="47.27526" lon="-1.52703">
        <ele>7</ele>
        <time>2015-01-04T10:05:29Z</time>
      </trkpt>
      <trkpt lat="47.27515" lon="-1.52716">
        <ele>6.1</ele>
        <time>2015-01-04T10:05:33Z</time>
      </trkpt>
      <trkpt lat="47.27507" lon="-1.52734">
        <ele>5.5</ele>
        <time>2015-01-04T10:05:37Z</time>
      </trkpt>
      <trkpt lat="47.27503" lon="-1.52747">
        <ele>5.3</ele>
        <time>2015-01-04T10:05:41Z</time>
      </trkpt>
      <trkpt lat="47.27497" lon="-1.52758">
        <ele>5.1</ele>
        <time>2015-01-04T10:05:44Z</time>
      </trkpt>
      <trkpt lat="47.27493" lon="-1.52763">
        <ele>5.1</ele>
        <time>2015-01-04T10:05:46Z</time>
      </trkpt>
      <trkpt lat="47.27489" lon="-1.52771">
        <ele>5.1</ele>
        <time>2015-01-04T10:05:48Z</time>
      </trkpt>
      <trkpt lat="47.27485" lon="-1.52785">
        <ele>5</ele>
        <time>2015-01-04T10:05:51Z</time>
      </trkpt>
      <trkpt lat="47.27479" lon="-1.52796">
        <ele>5</ele>
        <time>2015-01-04T10:05:54Z</time>
      </trkpt>
      <trkpt lat="47.27467" lon="-1.52808">
        <ele>5</ele>
        <time>2015-01-04T10:05:58Z</time>
      </trkpt>
      <trkpt lat="47.27453" lon="-1.52816">
        <ele>5</ele>
        <time>2015-01-04T10:06:02Z</time>
      </trkpt>
      <trkpt lat="47.27444" lon="-1.52821">
        <ele>5</ele>
        <time>2015-01-04T10:06:05Z</time>
      </trkpt>
      <trkpt lat="47.27435" lon="-1.52831">
        <ele>5</ele>
        <time>2015-01-04T10:06:08Z</time>
      </trkpt>
      <trkpt lat="47.27427" lon="-1.52838">
        <ele>5.1</ele>
        <time>2015-01-04T10:06:11Z</time>
      </trkpt>
      <trkpt lat="47.27418" lon="-1.52843">
        <ele>5.1</ele>
        <time>2015-01-04T10:06:14Z</time>
      </trkpt>
      <trkpt lat="47.27407" lon="-1.52849">
        <ele>5.1</ele>
        <time>2015-01-04T10:06:18Z</time>
      </trkpt>
      <trkpt lat="47.27395" lon="-1.52858">
        <ele>5.2</ele>
        <time>2015-01-04T10:06:22Z</time>
      </trkpt>
      <trkpt lat="47.27383" lon="-1.52864">
        <ele>5.2</ele>
        <time>2015-01-04T10:06:26Z</time>
      </trkpt>
      <trkpt lat="47.27373" lon="-1.52869">
        <ele>5.2</ele>
        <time>2015-01-04T10:06:29Z</time>
      </trkpt>
      <trkpt lat="47.27363" lon="-1.52872">
        <ele>5.2</ele>
        <time>2015-01-04T10:06:32Z</time>
      </trkpt>
      <trkpt lat="47.2735" lon="-1.52877">
        <ele>5.3</ele>
        <time>2015-01-04T10:06:38Z</time>
      </trkpt>
      <trkpt lat="47.27337" lon="-1.52882">
        <ele>5.4</ele>
        <time>2015-01-04T10:06:43Z</time>
      </trkpt>
      <trkpt lat="47.27327" lon="-1.5289">
        <ele>5.5</ele>
        <time>2015-01-04T10:06:47Z</time>
      </trkpt>
      <trkpt lat="47.27316" lon="-1.52908">
        <ele>5.6</ele>
        <time>2015-01-04T10:06:51Z</time>
      </trkpt>
      <trkpt lat="47.27306" lon="-1.52928">
        <ele>5.7</ele>
        <time>2015-01-04T10:06:55Z</time>
      </trkpt>
      <trkpt lat="47.27296" lon="-1.52946">
        <ele>5.8</ele>
        <time>2015-01-04T10:06:59Z</time>
      </trkpt>
      <trkpt lat="47.27285" lon="-1.52962">
        <ele>5.8</ele>
        <time>2015-01-04T10:07:02Z</time>
      </trkpt>
      <trkpt lat="47.27276" lon="-1.52978">
        <ele>5.7</ele>
        <time>2015-01-04T10:07:05Z</time>
      </trkpt>
      <trkpt lat="47.27267" lon="-1.52992">
        <ele>5.5</ele>
        <time>2015-01-04T10:07:09Z</time>
      </trkpt>
      <trkpt lat="47.27263" lon="-1.53">
        <ele>5.4</ele>
        <time>2015-01-04T10:07:11Z</time>
      </trkpt>
      <trkpt lat="47.2726" lon="-1.53008">
        <ele>5.4</ele>
        <time>2015-01-04T10:07:14Z</time>
      </trkpt>
      <trkpt lat="47.27256" lon="-1.53014">
        <ele>5.3</ele>
        <time>2015-01-04T10:07:16Z</time>
      </trkpt>
      <trkpt lat="47.2725" lon="-1.53019">
        <ele>5.3</ele>
        <time>2015-01-04T10:07:18Z</time>
      </trkpt>
      <trkpt lat="47.27242" lon="-1.53025">
        <ele>5.3</ele>
        <time>2015-01-04T10:07:20Z</time>
      </trkpt>
      <trkpt lat="47.27235" lon="-1.53029">
        <ele>5.2</ele>
        <time>2015-01-04T10:07:22Z</time>
      </trkpt>
      <trkpt lat="47.27223" lon="-1.53034">
        <ele>5.2</ele>
        <time>2015-01-04T10:07:25Z</time>
      </trkpt>
      <trkpt lat="47.27218" lon="-1.53036">
        <ele>5.2</ele>
        <time>2015-01-04T10:07:26Z</time>
      </trkpt>
      <trkpt lat="47.27208" lon="-1.53039">
        <ele>5.2</ele>
        <time>2015-01-04T10:07:28Z</time>
      </trkpt>
      <trkpt lat="47.27195" lon="-1.53048">
        <ele>5.2</ele>
        <time>2015-01-04T10:07:31Z</time>
      </trkpt>
      <trkpt lat="47.27186" lon="-1.53057">
        <ele>5.2</ele>
        <time>2015-01-04T10:07:33Z</time>
      </trkpt>
      <trkpt lat="47.27177" lon="-1.5308">
        <ele>5.2</ele>
        <time>2015-01-04T10:07:36Z</time>
      </trkpt>
      <trkpt lat="47.27171" lon="-1.53101">
        <ele>5.2</ele>
        <time>2015-01-04T10:07:40Z</time>
      </trkpt>
      <trkpt lat="47.27163" lon="-1.53118">
        <ele>5</ele>
        <time>2015-01-04T10:07:48Z</time>
      </trkpt>
      <trkpt lat="47.27149" lon="-1.53131">
        <ele>4.9</ele>
        <time>2015-01-04T10:07:55Z</time>
      </trkpt>
      <trkpt lat="47.27136" lon="-1.53147">
        <ele>4.9</ele>
        <time>2015-01-04T10:07:59Z</time>
      </trkpt>
      <trkpt lat="47.27123" lon="-1.53163">
        <ele>4.8</ele>
        <time>2015-01-04T10:08:04Z</time>
      </trkpt>
      <trkpt lat="47.27108" lon="-1.53173">
        <ele>4.8</ele>
        <time>2015-01-04T10:08:07Z</time>
      </trkpt>
      <trkpt lat="47.27099" lon="-1.5318">
        <ele>4.8</ele>
        <time>2015-01-04T10:08:09Z</time>
      </trkpt>
      <trkpt lat="47.27087" lon="-1.5319">
        <ele>4.8</ele>
        <time>2015-01-04T10:08:12Z</time>
      </trkpt>
      <trkpt lat="47.27079" lon="-1.53193">
        <ele>4.8</ele>
        <time>2015-01-04T10:08:14Z</time>
      </trkpt>
      <trkpt lat="47.27074" lon="-1.53193">
        <ele>4.8</ele>
        <time>2015-01-04T10:08:16Z</time>
      </trkpt>
      <trkpt lat="47.27069" lon="-1.53191">
        <ele>4.8</ele>
        <time>2015-01-04T10:08:18Z</time>
      </trkpt>
      <trkpt lat="47.2706" lon="-1.53189">
        <ele>4.8</ele>
        <time>2015-01-04T10:08:22Z</time>
      </trkpt>
      <trkpt lat="47.27047" lon="-1.53188">
        <ele>4.7</ele>
        <time>2015-01-04T10:08:25Z</time>
      </trkpt>
      <trkpt lat="47.27035" lon="-1.53191">
        <ele>4.7</ele>
        <time>2015-01-04T10:08:28Z</time>
      </trkpt>
      <trkpt lat="47.27026" lon="-1.53197">
        <ele>4.6</ele>
        <time>2015-01-04T10:08:31Z</time>
      </trkpt>
      <trkpt lat="47.27023" lon="-1.53204">
        <ele>4.6</ele>
        <time>2015-01-04T10:08:34Z</time>
      </trkpt>
      <trkpt lat="47.27022" lon="-1.53212">
        <ele>4.6</ele>
        <time>2015-01-04T10:08:36Z</time>
      </trkpt>
      <trkpt lat="47.27021" lon="-1.53221">
        <ele>4.5</ele>
        <time>2015-01-04T10:08:38Z</time>
      </trkpt>
      <trkpt lat="47.27019" lon="-1.53228">
        <ele>4.5</ele>
        <time>2015-01-04T10:08:41Z</time>
      </trkpt>
      <trkpt lat="47.27015" lon="-1.53235">
        <ele>4.5</ele>
        <time>2015-01-04T10:08:46Z</time>
      </trkpt>
      <trkpt lat="47.27009" lon="-1.53244">
        <ele>4.3</ele>
        <time>2015-01-04T10:08:51Z</time>
      </trkpt>
      <trkpt lat="47.27008" lon="-1.53245">
        <ele>4.4</ele>
        <time>2015-01-04T10:08:55Z</time>
      </trkpt>
      <trkpt lat="47.27008" lon="-1.53245">
        <ele>6.5</ele>
        <time>2015-01-04T10:08:55Z</time>
      </trkpt>
      <trkpt lat="47.27008" lon="-1.53245">
        <ele>6.5</ele>
        <time>2015-01-04T10:11:00Z</time>
      </trkpt>
      <trkpt lat="47.26997" lon="-1.53256">
        <ele>6</ele>
        <time>2015-01-04T10:11:01Z</time>
      </trkpt>
      <trkpt lat="47.26989" lon="-1.53266">
        <ele>6.1</ele>
        <time>2015-01-04T10:11:05Z</time>
      </trkpt>
      <trkpt lat="47.26974" lon="-1.53274">
        <ele>6.2</ele>
        <time>2015-01-04T10:11:09Z</time>
      </trkpt>
      <trkpt lat="47.26962" lon="-1.53278">
        <ele>6.2</ele>
        <time>2015-01-04T10:11:12Z</time>
      </trkpt>
      <trkpt lat="47.26951" lon="-1.53283">
        <ele>6.2</ele>
        <time>2015-01-04T10:11:15Z</time>
      </trkpt>
      <trkpt lat="47.26942" lon="-1.53288">
        <ele>6.3</ele>
        <time>2015-01-04T10:11:18Z</time>
      </trkpt>
      <trkpt lat="47.26937" lon="-1.53289">
        <ele>6.3</ele>
        <time>2015-01-04T10:11:20Z</time>
      </trkpt>
      <trkpt lat="47.26927" lon="-1.53292">
        <ele>6.4</ele>
        <time>2015-01-04T10:11:25Z</time>
      </trkpt>
      <trkpt lat="47.26918" lon="-1.53298">
        <ele>6.6</ele>
        <time>2015-01-04T10:11:28Z</time>
      </trkpt>
      <trkpt lat="47.26914" lon="-1.53317">
        <ele>7.1</ele>
        <time>2015-01-04T10:11:31Z</time>
      </trkpt>
      <trkpt lat="47.26911" lon="-1.5334">
        <ele>7.3</ele>
        <time>2015-01-04T10:11:35Z</time>
      </trkpt>
      <trkpt lat="47.269" lon="-1.53352">
        <ele>7.4</ele>
        <time>2015-01-04T10:11:39Z</time>
      </trkpt>
      <trkpt lat="47.26892" lon="-1.53365">
        <ele>7.7</ele>
        <time>2015-01-04T10:11:43Z</time>
      </trkpt>
      <trkpt lat="47.26884" lon="-1.53377">
        <ele>7.9</ele>
        <time>2015-01-04T10:11:47Z</time>
      </trkpt>
      <trkpt lat="47.26879" lon="-1.53383">
        <ele>8</ele>
        <time>2015-01-04T10:11:49Z</time>
      </trkpt>
      <trkpt lat="47.26874" lon="-1.53385">
        <ele>8</ele>
        <time>2015-01-04T10:11:51Z</time>
      </trkpt>
      <trkpt lat="47.26873" lon="-1.53385">
        <ele>8</ele>
        <time>2015-01-04T10:11:52Z</time>
      </trkpt>
      <trkpt lat="47.26873" lon="-1.53385">
        <ele>9.2</ele>
        <time>2015-01-04T10:11:55Z</time>
      </trkpt>
      <trkpt lat="47.26873" lon="-1.53385">
        <ele>7.7</ele>
        <time>2015-01-04T10:11:55Z</time>
      </trkpt>
      <trkpt lat="47.26873" lon="-1.53385">
        <ele>7.7</ele>
        <time>2015-01-04T10:12:04Z</time>
      </trkpt>
      <trkpt lat="47.26859" lon="-1.53403">
        <ele>8.4</ele>
        <time>2015-01-04T10:12:06Z</time>
      </trkpt>
      <trkpt lat="47.26845" lon="-1.53416">
        <ele>8.3</ele>
        <time>2015-01-04T10:12:10Z</time>
      </trkpt>
      <trkpt lat="47.2683" lon="-1.53418">
        <ele>8.3</ele>
        <time>2015-01-04T10:12:14Z</time>
      </trkpt>
      <trkpt lat="47.26816" lon="-1.5341">
        <ele>8</ele>
        <time>2015-01-04T10:12:18Z</time>
      </trkpt>
      <trkpt lat="47.26802" lon="-1.53398">
        <ele>7.8</ele>
        <time>2015-01-04T10:12:23Z</time>
      </trkpt>
      <trkpt lat="47.26786" lon="-1.53392">
        <ele>7.8</ele>
        <time>2015-01-04T10:12:27Z</time>
      </trkpt>
      <trkpt lat="47.26773" lon="-1.5339">
        <ele>7.8</ele>
        <time>2015-01-04T10:12:30Z</time>
      </trkpt>
      <trkpt lat="47.26764" lon="-1.53395">
        <ele>7.8</ele>
        <time>2015-01-04T10:12:32Z</time>
      </trkpt>
      <trkpt lat="47.26747" lon="-1.53405">
        <ele>7.8</ele>
        <time>2015-01-04T10:12:34Z</time>
      </trkpt>
      <trkpt lat="47.26737" lon="-1.5341">
        <ele>7.9</ele>
        <time>2015-01-04T10:12:37Z</time>
      </trkpt>
      <trkpt lat="47.26727" lon="-1.53409">
        <ele>8</ele>
        <time>2015-01-04T10:12:40Z</time>
      </trkpt>
      <trkpt lat="47.26722" lon="-1.53411">
        <ele>8</ele>
        <time>2015-01-04T10:12:41Z</time>
      </trkpt>
      <trkpt lat="47.26718" lon="-1.53414">
        <ele>8</ele>
        <time>2015-01-04T10:12:42Z</time>
      </trkpt>
      <trkpt lat="47.26714" lon="-1.53417">
        <ele>8</ele>
        <time>2015-01-04T10:12:43Z</time>
      </trkpt>
      <trkpt lat="47.26706" lon="-1.53423">
        <ele>8</ele>
        <time>2015-01-04T10:12:46Z</time>
      </trkpt>
      <trkpt lat="47.26705" lon="-1.53432">
        <ele>8</ele>
        <time>2015-01-04T10:12:48Z</time>
      </trkpt>
      <trkpt lat="47.26707" lon="-1.53442">
        <ele>8</ele>
        <time>2015-01-04T10:12:51Z</time>
      </trkpt>
      <trkpt lat="47.26709" lon="-1.53461">
        <ele>8.2</ele>
        <time>2015-01-04T10:12:55Z</time>
      </trkpt>
      <trkpt lat="47.26712" lon="-1.53482">
        <ele>8.2</ele>
        <time>2015-01-04T10:12:59Z</time>
      </trkpt>
      <trkpt lat="47.26717" lon="-1.53503">
        <ele>8.1</ele>
        <time>2015-01-04T10:13:03Z</time>
      </trkpt>
      <trkpt lat="47.2672" lon="-1.53527">
        <ele>8</ele>
        <time>2015-01-04T10:13:08Z</time>
      </trkpt>
      <trkpt lat="47.26724" lon="-1.53548">
        <ele>8</ele>
        <time>2015-01-04T10:13:12Z</time>
      </trkpt>
      <trkpt lat="47.26719" lon="-1.53568">
        <ele>8</ele>
        <time>2015-01-04T10:13:16Z</time>
      </trkpt>
      <trkpt lat="47.2671" lon="-1.53576">
        <ele>8</ele>
        <time>2015-01-04T10:13:19Z</time>
      </trkpt>
      <trkpt lat="47.267" lon="-1.53581">
        <ele>8</ele>
        <time>2015-01-04T10:13:25Z</time>
      </trkpt>
      <trkpt lat="47.26692" lon="-1.53586">
        <ele>8</ele>
        <time>2015-01-04T10:13:27Z</time>
      </trkpt>
      <trkpt lat="47.26677" lon="-1.53595">
        <ele>8</ele>
        <time>2015-01-04T10:13:31Z</time>
      </trkpt>
      <trkpt lat="47.26666" lon="-1.536">
        <ele>7.8</ele>
        <time>2015-01-04T10:13:34Z</time>
      </trkpt>
      <trkpt lat="47.26656" lon="-1.53597">
        <ele>7.6</ele>
        <time>2015-01-04T10:13:38Z</time>
      </trkpt>
      <trkpt lat="47.26646" lon="-1.53598">
        <ele>7.4</ele>
        <time>2015-01-04T10:13:41Z</time>
      </trkpt>
      <trkpt lat="47.26633" lon="-1.536">
        <ele>6.1</ele>
        <time>2015-01-04T10:13:46Z</time>
      </trkpt>
      <trkpt lat="47.26612" lon="-1.53598">
        <ele>5.7</ele>
        <time>2015-01-04T10:13:51Z</time>
      </trkpt>
      <trkpt lat="47.26604" lon="-1.53596">
        <ele>5.5</ele>
        <time>2015-01-04T10:13:53Z</time>
      </trkpt>
      <trkpt lat="47.26597" lon="-1.53591">
        <ele>5.5</ele>
        <time>2015-01-04T10:13:55Z</time>
      </trkpt>
      <trkpt lat="47.2659" lon="-1.53585">
        <ele>5.5</ele>
        <time>2015-01-04T10:13:57Z</time>
      </trkpt>
      <trkpt lat="47.26575" lon="-1.53574">
        <ele>5.3</ele>
        <time>2015-01-04T10:14:01Z</time>
      </trkpt>
      <trkpt lat="47.26564" lon="-1.53569">
        <ele>5.3</ele>
        <time>2015-01-04T10:14:04Z</time>
      </trkpt>
      <trkpt lat="47.26538" lon="-1.53558">
        <ele>5.2</ele>
        <time>2015-01-04T10:14:09Z</time>
      </trkpt>
      <trkpt lat="47.26525" lon="-1.53554">
        <ele>5.2</ele>
        <time>2015-01-04T10:14:11Z</time>
      </trkpt>
      <trkpt lat="47.26498" lon="-1.53547">
        <ele>5.1</ele>
        <time>2015-01-04T10:14:15Z</time>
      </trkpt>
      <trkpt lat="47.26483" lon="-1.53546">
        <ele>5</ele>
        <time>2015-01-04T10:14:19Z</time>
      </trkpt>
      <trkpt lat="47.26474" lon="-1.53543">
        <ele>5</ele>
        <time>2015-01-04T10:14:21Z</time>
      </trkpt>
      <trkpt lat="47.26464" lon="-1.53544">
        <ele>5</ele>
        <time>2015-01-04T10:14:24Z</time>
      </trkpt>
      <trkpt lat="47.2645" lon="-1.53549">
        <ele>4.9</ele>
        <time>2015-01-04T10:14:30Z</time>
      </trkpt>
      <trkpt lat="47.26439" lon="-1.53555">
        <ele>4.9</ele>
        <time>2015-01-04T10:14:34Z</time>
      </trkpt>
      <trkpt lat="47.26432" lon="-1.53558">
        <ele>4.6</ele>
        <time>2015-01-04T10:14:36Z</time>
      </trkpt>
      <trkpt lat="47.26419" lon="-1.53564">
        <ele>4.6</ele>
        <time>2015-01-04T10:14:40Z</time>
      </trkpt>
      <trkpt lat="47.26408" lon="-1.53563">
        <ele>4.6</ele>
        <time>2015-01-04T10:14:44Z</time>
      </trkpt>
      <trkpt lat="47.26392" lon="-1.53563">
        <ele>4.6</ele>
        <time>2015-01-04T10:14:49Z</time>
      </trkpt>
      <trkpt lat="47.26381" lon="-1.53562">
        <ele>4.6</ele>
        <time>2015-01-04T10:14:52Z</time>
      </trkpt>
      <trkpt lat="47.26375" lon="-1.53562">
        <ele>4.6</ele>
        <time>2015-01-04T10:14:54Z</time>
      </trkpt>
      <trkpt lat="47.26362" lon="-1.5356">
        <ele>4.6</ele>
        <time>2015-01-04T10:14:58Z</time>
      </trkpt>
      <trkpt lat="47.26352" lon="-1.5356">
        <ele>4.7</ele>
        <time>2015-01-04T10:15:01Z</time>
      </trkpt>
      <trkpt lat="47.26343" lon="-1.53561">
        <ele>4.7</ele>
        <time>2015-01-04T10:15:04Z</time>
      </trkpt>
      <trkpt lat="47.26329" lon="-1.53561">
        <ele>4.9</ele>
        <time>2015-01-04T10:15:08Z</time>
      </trkpt>
      <trkpt lat="47.26317" lon="-1.53562">
        <ele>5.1</ele>
        <time>2015-01-04T10:15:12Z</time>
      </trkpt>
      <trkpt lat="47.26305" lon="-1.53564">
        <ele>5.7</ele>
        <time>2015-01-04T10:15:16Z</time>
      </trkpt>
      <trkpt lat="47.26297" lon="-1.53567">
        <ele>6.5</ele>
        <time>2015-01-04T10:15:19Z</time>
      </trkpt>
      <trkpt lat="47.26284" lon="-1.5357">
        <ele>6.9</ele>
        <time>2015-01-04T10:15:23Z</time>
      </trkpt>
      <trkpt lat="47.26271" lon="-1.53575">
        <ele>7.1</ele>
        <time>2015-01-04T10:15:27Z</time>
      </trkpt>
      <trkpt lat="47.26258" lon="-1.53582">
        <ele>7.6</ele>
        <time>2015-01-04T10:15:32Z</time>
      </trkpt>
      <trkpt lat="47.26251" lon="-1.53585">
        <ele>8.5</ele>
        <time>2015-01-04T10:15:34Z</time>
      </trkpt>
      <trkpt lat="47.26241" lon="-1.53587">
        <ele>8.5</ele>
        <time>2015-01-04T10:15:36Z</time>
      </trkpt>
      <trkpt lat="47.26235" lon="-1.53585">
        <ele>8.5</ele>
        <time>2015-01-04T10:15:37Z</time>
      </trkpt>
      <trkpt lat="47.2623" lon="-1.53581">
        <ele>8.5</ele>
        <time>2015-01-04T10:15:38Z</time>
      </trkpt>
      <trkpt lat="47.26221" lon="-1.53578">
        <ele>8.6</ele>
        <time>2015-01-04T10:15:40Z</time>
      </trkpt>
      <trkpt lat="47.2621" lon="-1.53571">
        <ele>8.7</ele>
        <time>2015-01-04T10:15:43Z</time>
      </trkpt>
      <trkpt lat="47.26198" lon="-1.53568">
        <ele>8.8</ele>
        <time>2015-01-04T10:15:46Z</time>
      </trkpt>
      <trkpt lat="47.26189" lon="-1.53569">
        <ele>8.8</ele>
        <time>2015-01-04T10:15:48Z</time>
      </trkpt>
      <trkpt lat="47.26184" lon="-1.53567">
        <ele>8.8</ele>
        <time>2015-01-04T10:15:49Z</time>
      </trkpt>
      <trkpt lat="47.26177" lon="-1.53561">
        <ele>8.8</ele>
        <time>2015-01-04T10:15:51Z</time>
      </trkpt>
      <trkpt lat="47.26174" lon="-1.53555">
        <ele>8.8</ele>
        <time>2015-01-04T10:15:52Z</time>
      </trkpt>
      <trkpt lat="47.26164" lon="-1.53533">
        <ele>8.8</ele>
        <time>2015-01-04T10:15:55Z</time>
      </trkpt>
      <trkpt lat="47.26156" lon="-1.5351">
        <ele>8.8</ele>
        <time>2015-01-04T10:15:58Z</time>
      </trkpt>
      <trkpt lat="47.26147" lon="-1.53489">
        <ele>8.8</ele>
        <time>2015-01-04T10:16:01Z</time>
      </trkpt>
      <trkpt lat="47.26138" lon="-1.53474">
        <ele>8.8</ele>
        <time>2015-01-04T10:16:04Z</time>
      </trkpt>
      <trkpt lat="47.26131" lon="-1.53464">
        <ele>8.8</ele>
        <time>2015-01-04T10:16:06Z</time>
      </trkpt>
      <trkpt lat="47.26119" lon="-1.53448">
        <ele>8.4</ele>
        <time>2015-01-04T10:16:10Z</time>
      </trkpt>
      <trkpt lat="47.26113" lon="-1.53443">
        <ele>7.7</ele>
        <time>2015-01-04T10:16:14Z</time>
      </trkpt>
      <trkpt lat="47.26109" lon="-1.53442">
        <ele>7.7</ele>
        <time>2015-01-04T10:16:17Z</time>
      </trkpt>
      <trkpt lat="47.26094" lon="-1.53435">
        <ele>7</ele>
        <time>2015-01-04T10:16:22Z</time>
      </trkpt>
      <trkpt lat="47.26084" lon="-1.53433">
        <ele>6.7</ele>
        <time>2015-01-04T10:16:25Z</time>
      </trkpt>
      <trkpt lat="47.26077" lon="-1.53432">
        <ele>6.5</ele>
        <time>2015-01-04T10:16:27Z</time>
      </trkpt>
      <trkpt lat="47.26069" lon="-1.53428">
        <ele>6.5</ele>
        <time>2015-01-04T10:16:29Z</time>
      </trkpt>
      <trkpt lat="47.26064" lon="-1.53425">
        <ele>6.5</ele>
        <time>2015-01-04T10:16:30Z</time>
      </trkpt>
      <trkpt lat="47.26052" lon="-1.53414">
        <ele>6.5</ele>
        <time>2015-01-04T10:16:34Z</time>
      </trkpt>
      <trkpt lat="47.26044" lon="-1.53424">
        <ele>6.4</ele>
        <time>2015-01-04T10:16:37Z</time>
      </trkpt>
      <trkpt lat="47.26041" lon="-1.53431">
        <ele>6.3</ele>
        <time>2015-01-04T10:16:39Z</time>
      </trkpt>
      <trkpt lat="47.26035" lon="-1.53434">
        <ele>6.3</ele>
        <time>2015-01-04T10:16:41Z</time>
      </trkpt>
      <trkpt lat="47.26027" lon="-1.53434">
        <ele>6.3</ele>
        <time>2015-01-04T10:16:43Z</time>
      </trkpt>
      <trkpt lat="47.26018" lon="-1.53433">
        <ele>6.1</ele>
        <time>2015-01-04T10:16:46Z</time>
      </trkpt>
      <trkpt lat="47.26013" lon="-1.53434">
        <ele>6.1</ele>
        <time>2015-01-04T10:16:50Z</time>
      </trkpt>
      <trkpt lat="47.26001" lon="-1.53425">
        <ele>5.6</ele>
        <time>2015-01-04T10:17:00Z</time>
      </trkpt>
      <trkpt lat="47.25993" lon="-1.53419">
        <ele>5.4</ele>
        <time>2015-01-04T10:17:06Z</time>
      </trkpt>
      <trkpt lat="47.25982" lon="-1.5341">
        <ele>5.2</ele>
        <time>2015-01-04T10:17:11Z</time>
      </trkpt>
      <trkpt lat="47.25971" lon="-1.53402">
        <ele>5.1</ele>
        <time>2015-01-04T10:17:16Z</time>
      </trkpt>
      <trkpt lat="47.25958" lon="-1.53393">
        <ele>5</ele>
        <time>2015-01-04T10:17:23Z</time>
      </trkpt>
      <trkpt lat="47.25944" lon="-1.53386">
        <ele>5</ele>
        <time>2015-01-04T10:17:28Z</time>
      </trkpt>
      <trkpt lat="47.25933" lon="-1.53381">
        <ele>4.9</ele>
        <time>2015-01-04T10:17:31Z</time>
      </trkpt>
      <trkpt lat="47.25923" lon="-1.53382">
        <ele>4.9</ele>
        <time>2015-01-04T10:17:34Z</time>
      </trkpt>
      <trkpt lat="47.25913" lon="-1.53386">
        <ele>4.9</ele>
        <time>2015-01-04T10:17:37Z</time>
      </trkpt>
      <trkpt lat="47.25904" lon="-1.5339">
        <ele>4.8</ele>
        <time>2015-01-04T10:17:40Z</time>
      </trkpt>
      <trkpt lat="47.25895" lon="-1.53394">
        <ele>4.8</ele>
        <time>2015-01-04T10:17:43Z</time>
      </trkpt>
      <trkpt lat="47.25885" lon="-1.53399">
        <ele>4.8</ele>
        <time>2015-01-04T10:17:46Z</time>
      </trkpt>
      <trkpt lat="47.25879" lon="-1.53402">
        <ele>4.7</ele>
        <time>2015-01-04T10:17:48Z</time>
      </trkpt>
      <trkpt lat="47.25866" lon="-1.53407">
        <ele>4.7</ele>
        <time>2015-01-04T10:17:52Z</time>
      </trkpt>
      <trkpt lat="47.25855" lon="-1.53411">
        <ele>4.7</ele>
        <time>2015-01-04T10:17:55Z</time>
      </trkpt>
      <trkpt lat="47.25846" lon="-1.53414">
        <ele>4.6</ele>
        <time>2015-01-04T10:17:58Z</time>
      </trkpt>
      <trkpt lat="47.25831" lon="-1.5342">
        <ele>4.6</ele>
        <time>2015-01-04T10:18:02Z</time>
      </trkpt>
      <trkpt lat="47.25812" lon="-1.53426">
        <ele>4.7</ele>
        <time>2015-01-04T10:18:07Z</time>
      </trkpt>
      <trkpt lat="47.25802" lon="-1.53431">
        <ele>4.8</ele>
        <time>2015-01-04T10:18:10Z</time>
      </trkpt>
      <trkpt lat="47.25792" lon="-1.53438">
        <ele>4.8</ele>
        <time>2015-01-04T10:18:13Z</time>
      </trkpt>
      <trkpt lat="47.25782" lon="-1.53447">
        <ele>4.9</ele>
        <time>2015-01-04T10:18:16Z</time>
      </trkpt>
      <trkpt lat="47.25772" lon="-1.53461">
        <ele>4.9</ele>
        <time>2015-01-04T10:18:20Z</time>
      </trkpt>
      <trkpt lat="47.25766" lon="-1.53483">
        <ele>5</ele>
        <time>2015-01-04T10:18:26Z</time>
      </trkpt>
      <trkpt lat="47.25755" lon="-1.53502">
        <ele>5.1</ele>
        <time>2015-01-04T10:18:29Z</time>
      </trkpt>
      <trkpt lat="47.25744" lon="-1.53519">
        <ele>5.2</ele>
        <time>2015-01-04T10:18:31Z</time>
      </trkpt>
      <trkpt lat="47.25735" lon="-1.53543">
        <ele>5.4</ele>
        <time>2015-01-04T10:18:34Z</time>
      </trkpt>
      <trkpt lat="47.25724" lon="-1.53563">
        <ele>5.6</ele>
        <time>2015-01-04T10:18:37Z</time>
      </trkpt>
      <trkpt lat="47.25709" lon="-1.53582">
        <ele>6</ele>
        <time>2015-01-04T10:18:41Z</time>
      </trkpt>
      <trkpt lat="47.25699" lon="-1.53596">
        <ele>6.2</ele>
        <time>2015-01-04T10:18:44Z</time>
      </trkpt>
      <trkpt lat="47.25693" lon="-1.53616">
        <ele>6.3</ele>
        <time>2015-01-04T10:18:47Z</time>
      </trkpt>
      <trkpt lat="47.25684" lon="-1.53635">
        <ele>6.3</ele>
        <time>2015-01-04T10:18:50Z</time>
      </trkpt>
      <trkpt lat="47.2567" lon="-1.53645">
        <ele>6.3</ele>
        <time>2015-01-04T10:18:53Z</time>
      </trkpt>
      <trkpt lat="47.25657" lon="-1.53649">
        <ele>6.4</ele>
        <time>2015-01-04T10:18:55Z</time>
      </trkpt>
      <trkpt lat="47.25643" lon="-1.53656">
        <ele>6.4</ele>
        <time>2015-01-04T10:18:57Z</time>
      </trkpt>
      <trkpt lat="47.25631" lon="-1.53667">
        <ele>6.5</ele>
        <time>2015-01-04T10:18:59Z</time>
      </trkpt>
      <trkpt lat="47.25622" lon="-1.53692">
        <ele>6.6</ele>
        <time>2015-01-04T10:19:02Z</time>
      </trkpt>
      <trkpt lat="47.25616" lon="-1.5371">
        <ele>6.6</ele>
        <time>2015-01-04T10:19:04Z</time>
      </trkpt>
      <trkpt lat="47.25608" lon="-1.53727">
        <ele>6.8</ele>
        <time>2015-01-04T10:19:06Z</time>
      </trkpt>
      <trkpt lat="47.256" lon="-1.53747">
        <ele>6.9</ele>
        <time>2015-01-04T10:19:09Z</time>
      </trkpt>
      <trkpt lat="47.25593" lon="-1.53765">
        <ele>7</ele>
        <time>2015-01-04T10:19:13Z</time>
      </trkpt>
      <trkpt lat="47.25586" lon="-1.53784">
        <ele>7.3</ele>
        <time>2015-01-04T10:19:20Z</time>
      </trkpt>
      <trkpt lat="47.25576" lon="-1.53801">
        <ele>7.3</ele>
        <time>2015-01-04T10:19:23Z</time>
      </trkpt>
      <trkpt lat="47.25567" lon="-1.53805">
        <ele>7.5</ele>
        <time>2015-01-04T10:19:27Z</time>
      </trkpt>
      <trkpt lat="47.25556" lon="-1.53817">
        <ele>7.8</ele>
        <time>2015-01-04T10:19:32Z</time>
      </trkpt>
      <trkpt lat="47.25546" lon="-1.53819">
        <ele>7.9</ele>
        <time>2015-01-04T10:19:35Z</time>
      </trkpt>
      <trkpt lat="47.25541" lon="-1.53817">
        <ele>8.2</ele>
        <time>2015-01-04T10:19:38Z</time>
      </trkpt>
      <trkpt lat="47.25536" lon="-1.53811">
        <ele>8.4</ele>
        <time>2015-01-04T10:19:42Z</time>
      </trkpt>
      <trkpt lat="47.25531" lon="-1.53807">
        <ele>8.4</ele>
        <time>2015-01-04T10:19:45Z</time>
      </trkpt>
      <trkpt lat="47.25527" lon="-1.53802">
        <ele>8.8</ele>
        <time>2015-01-04T10:19:48Z</time>
      </trkpt>
      <trkpt lat="47.25526" lon="-1.53795">
        <ele>8.8</ele>
        <time>2015-01-04T10:19:51Z</time>
      </trkpt>
      <trkpt lat="47.25523" lon="-1.53774">
        <ele>10</ele>
        <time>2015-01-04T10:20:01Z</time>
      </trkpt>
      <trkpt lat="47.2552" lon="-1.53769">
        <ele>10.9</ele>
        <time>2015-01-04T10:20:03Z</time>
      </trkpt>
      <trkpt lat="47.25516" lon="-1.53764">
        <ele>10.9</ele>
        <time>2015-01-04T10:20:05Z</time>
      </trkpt>
      <trkpt lat="47.25513" lon="-1.53759">
        <ele>11.4</ele>
        <time>2015-01-04T10:20:08Z</time>
      </trkpt>
      <trkpt lat="47.2551" lon="-1.53754">
        <ele>11.4</ele>
        <time>2015-01-04T10:20:11Z</time>
      </trkpt>
      <trkpt lat="47.25505" lon="-1.53747">
        <ele>12.9</ele>
        <time>2015-01-04T10:20:17Z</time>
      </trkpt>
      <trkpt lat="47.25499" lon="-1.53745">
        <ele>12.9</ele>
        <time>2015-01-04T10:20:20Z</time>
      </trkpt>
      <trkpt lat="47.25495" lon="-1.53749">
        <ele>13.9</ele>
        <time>2015-01-04T10:20:23Z</time>
      </trkpt>
      <trkpt lat="47.2549" lon="-1.53751">
        <ele>13.9</ele>
        <time>2015-01-04T10:20:25Z</time>
      </trkpt>
      <trkpt lat="47.25485" lon="-1.53751">
        <ele>13.9</ele>
        <time>2015-01-04T10:20:27Z</time>
      </trkpt>
      <trkpt lat="47.25475" lon="-1.53752">
        <ele>14.4</ele>
        <time>2015-01-04T10:20:31Z</time>
      </trkpt>
      <trkpt lat="47.25467" lon="-1.53758">
        <ele>14.6</ele>
        <time>2015-01-04T10:20:35Z</time>
      </trkpt>
      <trkpt lat="47.25462" lon="-1.5378">
        <ele>14.6</ele>
        <time>2015-01-04T10:20:39Z</time>
      </trkpt>
      <trkpt lat="47.25461" lon="-1.53803">
        <ele>14.6</ele>
        <time>2015-01-04T10:20:43Z</time>
      </trkpt>
      <trkpt lat="47.25456" lon="-1.53804">
        <ele>14.6</ele>
        <time>2015-01-04T10:20:49Z</time>
      </trkpt>
      <trkpt lat="47.2544" lon="-1.53802">
        <ele>14.6</ele>
        <time>2015-01-04T10:20:53Z</time>
      </trkpt>
      <trkpt lat="47.25436" lon="-1.53808">
        <ele>14.6</ele>
        <time>2015-01-04T10:20:56Z</time>
      </trkpt>
      <trkpt lat="47.25432" lon="-1.53815">
        <ele>14.6</ele>
        <time>2015-01-04T10:20:58Z</time>
      </trkpt>
      <trkpt lat="47.25427" lon="-1.5382">
        <ele>14.3</ele>
        <time>2015-01-04T10:21:00Z</time>
      </trkpt>
      <trkpt lat="47.2542" lon="-1.53822">
        <ele>14.3</ele>
        <time>2015-01-04T10:21:02Z</time>
      </trkpt>
      <trkpt lat="47.25412" lon="-1.53822">
        <ele>14.3</ele>
        <time>2015-01-04T10:21:04Z</time>
      </trkpt>
      <trkpt lat="47.25399" lon="-1.53821">
        <ele>13.7</ele>
        <time>2015-01-04T10:21:07Z</time>
      </trkpt>
      <trkpt lat="47.25392" lon="-1.53821">
        <ele>11.7</ele>
        <time>2015-01-04T10:21:09Z</time>
      </trkpt>
      <trkpt lat="47.25383" lon="-1.5382">
        <ele>11.7</ele>
        <time>2015-01-04T10:21:11Z</time>
      </trkpt>
      <trkpt lat="47.25375" lon="-1.53819">
        <ele>11.7</ele>
        <time>2015-01-04T10:21:13Z</time>
      </trkpt>
      <trkpt lat="47.25357" lon="-1.53816">
        <ele>11.3</ele>
        <time>2015-01-04T10:21:17Z</time>
      </trkpt>
      <trkpt lat="47.25343" lon="-1.53814">
        <ele>10.6</ele>
        <time>2015-01-04T10:21:22Z</time>
      </trkpt>
      <trkpt lat="47.25332" lon="-1.53811">
        <ele>10.3</ele>
        <time>2015-01-04T10:21:26Z</time>
      </trkpt>
      <trkpt lat="47.25325" lon="-1.53812">
        <ele>10</ele>
        <time>2015-01-04T10:21:28Z</time>
      </trkpt>
      <trkpt lat="47.25317" lon="-1.53812">
        <ele>10</ele>
        <time>2015-01-04T10:21:30Z</time>
      </trkpt>
      <trkpt lat="47.25308" lon="-1.53812">
        <ele>10</ele>
        <time>2015-01-04T10:21:32Z</time>
      </trkpt>
      <trkpt lat="47.25298" lon="-1.53812">
        <ele>9.8</ele>
        <time>2015-01-04T10:21:35Z</time>
      </trkpt>
      <trkpt lat="47.25286" lon="-1.53817">
        <ele>9.7</ele>
        <time>2015-01-04T10:21:38Z</time>
      </trkpt>
      <trkpt lat="47.25277" lon="-1.53821">
        <ele>9.4</ele>
        <time>2015-01-04T10:21:41Z</time>
      </trkpt>
      <trkpt lat="47.25272" lon="-1.53821">
        <ele>9.3</ele>
        <time>2015-01-04T10:21:43Z</time>
      </trkpt>
      <trkpt lat="47.25266" lon="-1.53824">
        <ele>9.3</ele>
        <time>2015-01-04T10:21:45Z</time>
      </trkpt>
      <trkpt lat="47.25255" lon="-1.53834">
        <ele>9.3</ele>
        <time>2015-01-04T10:21:48Z</time>
      </trkpt>
      <trkpt lat="47.25242" lon="-1.53847">
        <ele>9.3</ele>
        <time>2015-01-04T10:21:51Z</time>
      </trkpt>
      <trkpt lat="47.25226" lon="-1.53858">
        <ele>9.2</ele>
        <time>2015-01-04T10:21:55Z</time>
      </trkpt>
      <trkpt lat="47.25205" lon="-1.5386">
        <ele>9.1</ele>
        <time>2015-01-04T10:21:59Z</time>
      </trkpt>
      <trkpt lat="47.25185" lon="-1.53865">
        <ele>9</ele>
        <time>2015-01-04T10:22:03Z</time>
      </trkpt>
      <trkpt lat="47.25175" lon="-1.53868">
        <ele>8.9</ele>
        <time>2015-01-04T10:22:05Z</time>
      </trkpt>
      <trkpt lat="47.25154" lon="-1.53878">
        <ele>8.7</ele>
        <time>2015-01-04T10:22:09Z</time>
      </trkpt>
      <trkpt lat="47.25136" lon="-1.53888">
        <ele>8.6</ele>
        <time>2015-01-04T10:22:12Z</time>
      </trkpt>
      <trkpt lat="47.2512" lon="-1.53887">
        <ele>8.4</ele>
        <time>2015-01-04T10:22:14Z</time>
      </trkpt>
      <trkpt lat="47.25102" lon="-1.53884">
        <ele>8</ele>
        <time>2015-01-04T10:22:17Z</time>
      </trkpt>
      <trkpt lat="47.25087" lon="-1.53882">
        <ele>7.6</ele>
        <time>2015-01-04T10:22:20Z</time>
      </trkpt>
      <trkpt lat="47.25076" lon="-1.53876">
        <ele>7.5</ele>
        <time>2015-01-04T10:22:22Z</time>
      </trkpt>
      <trkpt lat="47.25067" lon="-1.53864">
        <ele>7.1</ele>
        <time>2015-01-04T10:22:25Z</time>
      </trkpt>
      <trkpt lat="47.25061" lon="-1.5385">
        <ele>7.1</ele>
        <time>2015-01-04T10:22:28Z</time>
      </trkpt>
      <trkpt lat="47.25051" lon="-1.53835">
        <ele>7</ele>
        <time>2015-01-04T10:22:31Z</time>
      </trkpt>
      <trkpt lat="47.25038" lon="-1.53827">
        <ele>7</ele>
        <time>2015-01-04T10:22:34Z</time>
      </trkpt>
      <trkpt lat="47.25028" lon="-1.5383">
        <ele>7</ele>
        <time>2015-01-04T10:22:36Z</time>
      </trkpt>
      <trkpt lat="47.25021" lon="-1.53842">
        <ele>7</ele>
        <time>2015-01-04T10:22:40Z</time>
      </trkpt>
      <trkpt lat="47.25021" lon="-1.53863">
        <ele>7</ele>
        <time>2015-01-04T10:22:44Z</time>
      </trkpt>
      <trkpt lat="47.2503" lon="-1.53884">
        <ele>7</ele>
        <time>2015-01-04T10:22:48Z</time>
      </trkpt>
      <trkpt lat="47.25032" lon="-1.53892">
        <ele>6.8</ele>
        <time>2015-01-04T10:22:51Z</time>
      </trkpt>
      <trkpt lat="47.25031" lon="-1.539">
        <ele>6.8</ele>
        <time>2015-01-04T10:22:53Z</time>
      </trkpt>
      <trkpt lat="47.25016" lon="-1.53911">
        <ele>6.8</ele>
        <time>2015-01-04T10:22:57Z</time>
      </trkpt>
      <trkpt lat="47.25004" lon="-1.53923">
        <ele>6.8</ele>
        <time>2015-01-04T10:22:59Z</time>
      </trkpt>
      <trkpt lat="47.24993" lon="-1.53946">
        <ele>6.8</ele>
        <time>2015-01-04T10:23:03Z</time>
      </trkpt>
      <trkpt lat="47.2498" lon="-1.53966">
        <ele>6.8</ele>
        <time>2015-01-04T10:23:06Z</time>
      </trkpt>
      <trkpt lat="47.2497" lon="-1.53981">
        <ele>6.8</ele>
        <time>2015-01-04T10:23:09Z</time>
      </trkpt>
      <trkpt lat="47.24955" lon="-1.5398">
        <ele>6.7</ele>
        <time>2015-01-04T10:23:14Z</time>
      </trkpt>
      <trkpt lat="47.24946" lon="-1.53974">
        <ele>6.4</ele>
        <time>2015-01-04T10:23:17Z</time>
      </trkpt>
      <trkpt lat="47.2494" lon="-1.53956">
        <ele>6.3</ele>
        <time>2015-01-04T10:23:20Z</time>
      </trkpt>
      <trkpt lat="47.24926" lon="-1.53943">
        <ele>6.2</ele>
        <time>2015-01-04T10:23:23Z</time>
      </trkpt>
      <trkpt lat="47.24911" lon="-1.53933">
        <ele>6.3</ele>
        <time>2015-01-04T10:23:26Z</time>
      </trkpt>
      <trkpt lat="47.24897" lon="-1.53926">
        <ele>6.3</ele>
        <time>2015-01-04T10:23:29Z</time>
      </trkpt>
      <trkpt lat="47.24887" lon="-1.53922">
        <ele>6.3</ele>
        <time>2015-01-04T10:23:31Z</time>
      </trkpt>
      <trkpt lat="47.24878" lon="-1.53926">
        <ele>6.3</ele>
        <time>2015-01-04T10:23:33Z</time>
      </trkpt>
      <trkpt lat="47.24873" lon="-1.53935">
        <ele>6.3</ele>
        <time>2015-01-04T10:23:35Z</time>
      </trkpt>
      <trkpt lat="47.24872" lon="-1.53944">
        <ele>6.3</ele>
        <time>2015-01-04T10:23:37Z</time>
      </trkpt>
      <trkpt lat="47.24871" lon="-1.53968">
        <ele>6.3</ele>
        <time>2015-01-04T10:23:42Z</time>
      </trkpt>
      <trkpt lat="47.2487" lon="-1.53977">
        <ele>6.8</ele>
        <time>2015-01-04T10:23:44Z</time>
      </trkpt>
      <trkpt lat="47.24868" lon="-1.53985">
        <ele>6.8</ele>
        <time>2015-01-04T10:23:46Z</time>
      </trkpt>
      <trkpt lat="47.24864" lon="-1.53994">
        <ele>6.8</ele>
        <time>2015-01-04T10:23:48Z</time>
      </trkpt>
      <trkpt lat="47.2486" lon="-1.54002">
        <ele>8.4</ele>
        <time>2015-01-04T10:23:50Z</time>
      </trkpt>
      <trkpt lat="47.24855" lon="-1.54008">
        <ele>8.4</ele>
        <time>2015-01-04T10:23:52Z</time>
      </trkpt>
      <trkpt lat="47.2485" lon="-1.54012">
        <ele>8.4</ele>
        <time>2015-01-04T10:23:54Z</time>
      </trkpt>
      <trkpt lat="47.2484" lon="-1.5402">
        <ele>8.5</ele>
        <time>2015-01-04T10:23:57Z</time>
      </trkpt>
      <trkpt lat="47.24831" lon="-1.54034">
        <ele>8.4</ele>
        <time>2015-01-04T10:24:00Z</time>
      </trkpt>
      <trkpt lat="47.24829" lon="-1.54058">
        <ele>8.5</ele>
        <time>2015-01-04T10:24:04Z</time>
      </trkpt>
      <trkpt lat="47.2483" lon="-1.5408">
        <ele>8.5</ele>
        <time>2015-01-04T10:24:08Z</time>
      </trkpt>
      <trkpt lat="47.24818" lon="-1.54089">
        <ele>8.5</ele>
        <time>2015-01-04T10:24:12Z</time>
      </trkpt>
      <trkpt lat="47.24807" lon="-1.54096">
        <ele>8.5</ele>
        <time>2015-01-04T10:24:15Z</time>
      </trkpt>
      <trkpt lat="47.24797" lon="-1.5411">
        <ele>8.5</ele>
        <time>2015-01-04T10:24:18Z</time>
      </trkpt>
      <trkpt lat="47.24789" lon="-1.54126">
        <ele>8.5</ele>
        <time>2015-01-04T10:24:21Z</time>
      </trkpt>
      <trkpt lat="47.24779" lon="-1.54141">
        <ele>8.3</ele>
        <time>2015-01-04T10:24:24Z</time>
      </trkpt>
      <trkpt lat="47.24771" lon="-1.5416">
        <ele>8.2</ele>
        <time>2015-01-04T10:24:28Z</time>
      </trkpt>
      <trkpt lat="47.24759" lon="-1.54177">
        <ele>7.3</ele>
        <time>2015-01-04T10:24:32Z</time>
      </trkpt>
      <trkpt lat="47.24747" lon="-1.54187">
        <ele>6.5</ele>
        <time>2015-01-04T10:24:35Z</time>
      </trkpt>
      <trkpt lat="47.2474" lon="-1.54194">
        <ele>6</ele>
        <time>2015-01-04T10:24:37Z</time>
      </trkpt>
      <trkpt lat="47.24728" lon="-1.54204">
        <ele>5.8</ele>
        <time>2015-01-04T10:24:40Z</time>
      </trkpt>
      <trkpt lat="47.24715" lon="-1.54211">
        <ele>5.7</ele>
        <time>2015-01-04T10:24:43Z</time>
      </trkpt>
      <trkpt lat="47.24707" lon="-1.54215">
        <ele>5.7</ele>
        <time>2015-01-04T10:24:45Z</time>
      </trkpt>
      <trkpt lat="47.24698" lon="-1.54221">
        <ele>5.6</ele>
        <time>2015-01-04T10:24:47Z</time>
      </trkpt>
      <trkpt lat="47.24683" lon="-1.5423">
        <ele>5.5</ele>
        <time>2015-01-04T10:24:51Z</time>
      </trkpt>
      <trkpt lat="47.24667" lon="-1.54238">
        <ele>5.5</ele>
        <time>2015-01-04T10:24:55Z</time>
      </trkpt>
      <trkpt lat="47.24652" lon="-1.54243">
        <ele>5.5</ele>
        <time>2015-01-04T10:24:58Z</time>
      </trkpt>
      <trkpt lat="47.24643" lon="-1.5425">
        <ele>5.5</ele>
        <time>2015-01-04T10:25:00Z</time>
      </trkpt>
      <trkpt lat="47.2463" lon="-1.54264">
        <ele>5.5</ele>
        <time>2015-01-04T10:25:03Z</time>
      </trkpt>
      <trkpt lat="47.24618" lon="-1.54282">
        <ele>5.5</ele>
        <time>2015-01-04T10:25:07Z</time>
      </trkpt>
      <trkpt lat="47.24606" lon="-1.54296">
        <ele>5.7</ele>
        <time>2015-01-04T10:25:11Z</time>
      </trkpt>
      <trkpt lat="47.24595" lon="-1.54309">
        <ele>5.8</ele>
        <time>2015-01-04T10:25:15Z</time>
      </trkpt>
      <trkpt lat="47.24591" lon="-1.54314">
        <ele>6</ele>
        <time>2015-01-04T10:25:18Z</time>
      </trkpt>
      <trkpt lat="47.24581" lon="-1.54322">
        <ele>6.7</ele>
        <time>2015-01-04T10:25:26Z</time>
      </trkpt>
      <trkpt lat="47.24571" lon="-1.54327">
        <ele>6.8</ele>
        <time>2015-01-04T10:25:29Z</time>
      </trkpt>
      <trkpt lat="47.2456" lon="-1.54334">
        <ele>6.9</ele>
        <time>2015-01-04T10:25:32Z</time>
      </trkpt>
      <trkpt lat="47.24547" lon="-1.5434">
        <ele>7.2</ele>
        <time>2015-01-04T10:25:35Z</time>
      </trkpt>
      <trkpt lat="47.24532" lon="-1.54344">
        <ele>7.5</ele>
        <time>2015-01-04T10:25:38Z</time>
      </trkpt>
      <trkpt lat="47.24517" lon="-1.54356">
        <ele>7.7</ele>
        <time>2015-01-04T10:25:41Z</time>
      </trkpt>
      <trkpt lat="47.245" lon="-1.54367">
        <ele>7.8</ele>
        <time>2015-01-04T10:25:43Z</time>
      </trkpt>
      <trkpt lat="47.24485" lon="-1.54375">
        <ele>7.9</ele>
        <time>2015-01-04T10:25:46Z</time>
      </trkpt>
      <trkpt lat="47.24473" lon="-1.54385">
        <ele>8</ele>
        <time>2015-01-04T10:25:48Z</time>
      </trkpt>
      <trkpt lat="47.24462" lon="-1.54392">
        <ele>8</ele>
        <time>2015-01-04T10:25:50Z</time>
      </trkpt>
      <trkpt lat="47.24446" lon="-1.54395">
        <ele>8.1</ele>
        <time>2015-01-04T10:25:53Z</time>
      </trkpt>
      <trkpt lat="47.24434" lon="-1.54403">
        <ele>8.1</ele>
        <time>2015-01-04T10:25:55Z</time>
      </trkpt>
      <trkpt lat="47.24428" lon="-1.54406">
        <ele>8.1</ele>
        <time>2015-01-04T10:25:56Z</time>
      </trkpt>
      <trkpt lat="47.24422" lon="-1.54409">
        <ele>8.1</ele>
        <time>2015-01-04T10:25:57Z</time>
      </trkpt>
      <trkpt lat="47.24416" lon="-1.5441">
        <ele>8.1</ele>
        <time>2015-01-04T10:25:58Z</time>
      </trkpt>
      <trkpt lat="47.2441" lon="-1.54412">
        <ele>8.1</ele>
        <time>2015-01-04T10:25:59Z</time>
      </trkpt>
      <trkpt lat="47.244" lon="-1.54418">
        <ele>8.1</ele>
        <time>2015-01-04T10:26:01Z</time>
      </trkpt>
      <trkpt lat="47.24383" lon="-1.54423">
        <ele>8.1</ele>
        <time>2015-01-04T10:26:04Z</time>
      </trkpt>
      <trkpt lat="47.24371" lon="-1.54417">
        <ele>8</ele>
        <time>2015-01-04T10:26:06Z</time>
      </trkpt>
      <trkpt lat="47.24366" lon="-1.54413">
        <ele>8</ele>
        <time>2015-01-04T10:26:07Z</time>
      </trkpt>
      <trkpt lat="47.24359" lon="-1.54404">
        <ele>8</ele>
        <time>2015-01-04T10:26:09Z</time>
      </trkpt>
      <trkpt lat="47.24354" lon="-1.54399">
        <ele>8</ele>
        <time>2015-01-04T10:26:10Z</time>
      </trkpt>
      <trkpt lat="47.24345" lon="-1.54378">
        <ele>8</ele>
        <time>2015-01-04T10:26:14Z</time>
      </trkpt>
      <trkpt lat="47.24334" lon="-1.54366">
        <ele>8</ele>
        <time>2015-01-04T10:26:18Z</time>
      </trkpt>
      <trkpt lat="47.24321" lon="-1.54354">
        <ele>7.6</ele>
        <time>2015-01-04T10:26:25Z</time>
      </trkpt>
      <trkpt lat="47.24309" lon="-1.54341">
        <ele>6.8</ele>
        <time>2015-01-04T10:26:29Z</time>
      </trkpt>
      <trkpt lat="47.24301" lon="-1.54326">
        <ele>6.6</ele>
        <time>2015-01-04T10:26:32Z</time>
      </trkpt>
      <trkpt lat="47.24286" lon="-1.54321">
        <ele>6.3</ele>
        <time>2015-01-04T10:26:36Z</time>
      </trkpt>
      <trkpt lat="47.24277" lon="-1.54325">
        <ele>5.8</ele>
        <time>2015-01-04T10:26:39Z</time>
      </trkpt>
      <trkpt lat="47.2426" lon="-1.54329">
        <ele>5.8</ele>
        <time>2015-01-04T10:26:43Z</time>
      </trkpt>
      <trkpt lat="47.24249" lon="-1.54342">
        <ele>5.7</ele>
        <time>2015-01-04T10:26:46Z</time>
      </trkpt>
      <trkpt lat="47.24241" lon="-1.54363">
        <ele>5.7</ele>
        <time>2015-01-04T10:26:49Z</time>
      </trkpt>
      <trkpt lat="47.24236" lon="-1.54387">
        <ele>5.7</ele>
        <time>2015-01-04T10:26:52Z</time>
      </trkpt>
      <trkpt lat="47.24232" lon="-1.54411">
        <ele>5.7</ele>
        <time>2015-01-04T10:26:55Z</time>
      </trkpt>
      <trkpt lat="47.24226" lon="-1.54433">
        <ele>5.6</ele>
        <time>2015-01-04T10:26:58Z</time>
      </trkpt>
      <trkpt lat="47.24217" lon="-1.5445">
        <ele>5.6</ele>
        <time>2015-01-04T10:27:01Z</time>
      </trkpt>
      <trkpt lat="47.24206" lon="-1.54468">
        <ele>5.6</ele>
        <time>2015-01-04T10:27:05Z</time>
      </trkpt>
      <trkpt lat="47.24197" lon="-1.54483">
        <ele>5.6</ele>
        <time>2015-01-04T10:27:10Z</time>
      </trkpt>
      <trkpt lat="47.24193" lon="-1.54489">
        <ele>5.6</ele>
        <time>2015-01-04T10:27:12Z</time>
      </trkpt>
      <trkpt lat="47.24192" lon="-1.54497">
        <ele>5.6</ele>
        <time>2015-01-04T10:27:14Z</time>
      </trkpt>
      <trkpt lat="47.24194" lon="-1.54523">
        <ele>5.6</ele>
        <time>2015-01-04T10:27:18Z</time>
      </trkpt>
      <trkpt lat="47.24197" lon="-1.54543">
        <ele>5.5</ele>
        <time>2015-01-04T10:27:21Z</time>
      </trkpt>
      <trkpt lat="47.24202" lon="-1.54563">
        <ele>5.3</ele>
        <time>2015-01-04T10:27:24Z</time>
      </trkpt>
      <trkpt lat="47.24201" lon="-1.54587">
        <ele>4.9</ele>
        <time>2015-01-04T10:27:28Z</time>
      </trkpt>
      <trkpt lat="47.24186" lon="-1.54596">
        <ele>4.7</ele>
        <time>2015-01-04T10:27:32Z</time>
      </trkpt>
      <trkpt lat="47.24172" lon="-1.54601">
        <ele>4</ele>
        <time>2015-01-04T10:27:35Z</time>
      </trkpt>
      <trkpt lat="47.24156" lon="-1.54607">
        <ele>3.9</ele>
        <time>2015-01-04T10:27:39Z</time>
      </trkpt>
      <trkpt lat="47.24147" lon="-1.54614">
        <ele>3.7</ele>
        <time>2015-01-04T10:27:42Z</time>
      </trkpt>
      <trkpt lat="47.24136" lon="-1.54621">
        <ele>3.7</ele>
        <time>2015-01-04T10:27:45Z</time>
      </trkpt>
      <trkpt lat="47.2412" lon="-1.54629">
        <ele>3.4</ele>
        <time>2015-01-04T10:27:49Z</time>
      </trkpt>
      <trkpt lat="47.24106" lon="-1.54636">
        <ele>3.3</ele>
        <time>2015-01-04T10:27:52Z</time>
      </trkpt>
      <trkpt lat="47.24093" lon="-1.54643">
        <ele>3.3</ele>
        <time>2015-01-04T10:27:55Z</time>
      </trkpt>
      <trkpt lat="47.24083" lon="-1.54646">
        <ele>3.1</ele>
        <time>2015-01-04T10:27:57Z</time>
      </trkpt>
      <trkpt lat="47.24073" lon="-1.54648">
        <ele>3.1</ele>
        <time>2015-01-04T10:27:59Z</time>
      </trkpt>
      <trkpt lat="47.24064" lon="-1.54649">
        <ele>3.1</ele>
        <time>2015-01-04T10:28:01Z</time>
      </trkpt>
      <trkpt lat="47.24051" lon="-1.54653">
        <ele>3.1</ele>
        <time>2015-01-04T10:28:04Z</time>
      </trkpt>
      <trkpt lat="47.24039" lon="-1.54664">
        <ele>2.9</ele>
        <time>2015-01-04T10:28:09Z</time>
      </trkpt>
      <trkpt lat="47.24034" lon="-1.54664">
        <ele>2.7</ele>
        <time>2015-01-04T10:28:12Z</time>
      </trkpt>
      <trkpt lat="47.24031" lon="-1.54669">
        <ele>2.7</ele>
        <time>2015-01-04T10:28:14Z</time>
      </trkpt>
      <trkpt lat="47.24028" lon="-1.54677">
        <ele>2.3</ele>
        <time>2015-01-04T10:28:16Z</time>
      </trkpt>
      <trkpt lat="47.24027" lon="-1.54684">
        <ele>2.3</ele>
        <time>2015-01-04T10:28:18Z</time>
      </trkpt>
      <trkpt lat="47.2403" lon="-1.54694">
        <ele>1.8</ele>
        <time>2015-01-04T10:28:21Z</time>
      </trkpt>
      <trkpt lat="47.24028" lon="-1.54702">
        <ele>1.8</ele>
        <time>2015-01-04T10:28:24Z</time>
      </trkpt>
      <trkpt lat="47.24023" lon="-1.54707">
        <ele>1.5</ele>
        <time>2015-01-04T10:28:26Z</time>
      </trkpt>
      <trkpt lat="47.24018" lon="-1.5471">
        <ele>1.5</ele>
        <time>2015-01-04T10:28:28Z</time>
      </trkpt>
      <trkpt lat="47.24013" lon="-1.54714">
        <ele>1.5</ele>
        <time>2015-01-04T10:28:30Z</time>
      </trkpt>
      <trkpt lat="47.24008" lon="-1.54718">
        <ele>1.3</ele>
        <time>2015-01-04T10:28:33Z</time>
      </trkpt>
      <trkpt lat="47.24005" lon="-1.54723">
        <ele>0.6</ele>
        <time>2015-01-04T10:28:37Z</time>
      </trkpt>
      <trkpt lat="47.23993" lon="-1.5473">
        <ele>0.6</ele>
        <time>2015-01-04T10:28:45Z</time>
      </trkpt>
      <trkpt lat="47.23982" lon="-1.54739">
        <ele>0.6</ele>
        <time>2015-01-04T10:28:50Z</time>
      </trkpt>
      <trkpt lat="47.23974" lon="-1.54746">
        <ele>0.6</ele>
        <time>2015-01-04T10:28:55Z</time>
      </trkpt>
      <trkpt lat="47.23973" lon="-1.54747">
        <ele>0.6</ele>
        <time>2015-01-04T10:28:56Z</time>
      </trkpt>
      <trkpt lat="47.23973" lon="-1.54747">
        <ele>0.6</ele>
        <time>2015-01-04T10:28:59Z</time>
      </trkpt>
      <trkpt lat="47.23973" lon="-1.54747">
        <ele>4.1</ele>
        <time>2015-01-04T10:28:59Z</time>
      </trkpt>
      <trkpt lat="47.23973" lon="-1.54747">
        <ele>4.1</ele>
        <time>2015-01-04T10:29:09Z</time>
      </trkpt>
      <trkpt lat="47.23968" lon="-1.54762">
        <ele>0.7</ele>
        <time>2015-01-04T10:29:10Z</time>
      </trkpt>
      <trkpt lat="47.23959" lon="-1.54769">
        <ele>1</ele>
        <time>2015-01-04T10:29:14Z</time>
      </trkpt>
      <trkpt lat="47.2395" lon="-1.54777">
        <ele>1.3</ele>
        <time>2015-01-04T10:29:19Z</time>
      </trkpt>
      <trkpt lat="47.23944" lon="-1.54782">
        <ele>1.6</ele>
        <time>2015-01-04T10:29:26Z</time>
      </trkpt>
      <trkpt lat="47.23931" lon="-1.54794">
        <ele>1.8</ele>
        <time>2015-01-04T10:29:34Z</time>
      </trkpt>
      <trkpt lat="47.23918" lon="-1.54803">
        <ele>2.6</ele>
        <time>2015-01-04T10:29:39Z</time>
      </trkpt>
      <trkpt lat="47.23906" lon="-1.54815">
        <ele>3.9</ele>
        <time>2015-01-04T10:29:47Z</time>
      </trkpt>
      <trkpt lat="47.239" lon="-1.54817">
        <ele>4.8</ele>
        <time>2015-01-04T10:29:50Z</time>
      </trkpt>
      <trkpt lat="47.23895" lon="-1.54816">
        <ele>4.8</ele>
        <time>2015-01-04T10:29:52Z</time>
      </trkpt>
      <trkpt lat="47.2389" lon="-1.54815">
        <ele>4.9</ele>
        <time>2015-01-04T10:29:55Z</time>
      </trkpt>
      <trkpt lat="47.23884" lon="-1.54818">
        <ele>5</ele>
        <time>2015-01-04T10:29:58Z</time>
      </trkpt>
      <trkpt lat="47.2388" lon="-1.54822">
        <ele>5</ele>
        <time>2015-01-04T10:30:00Z</time>
      </trkpt>
      <trkpt lat="47.23876" lon="-1.54827">
        <ele>5.2</ele>
        <time>2015-01-04T10:30:02Z</time>
      </trkpt>
      <trkpt lat="47.23872" lon="-1.5483">
        <ele>5.2</ele>
        <time>2015-01-04T10:30:04Z</time>
      </trkpt>
      <trkpt lat="47.23866" lon="-1.54837">
        <ele>5.2</ele>
        <time>2015-01-04T10:30:09Z</time>
      </trkpt>
      <trkpt lat="47.23861" lon="-1.5484">
        <ele>5.2</ele>
        <time>2015-01-04T10:30:12Z</time>
      </trkpt>
      <trkpt lat="47.23853" lon="-1.54848">
        <ele>5.2</ele>
        <time>2015-01-04T10:30:16Z</time>
      </trkpt>
      <trkpt lat="47.23849" lon="-1.54853">
        <ele>5.2</ele>
        <time>2015-01-04T10:30:18Z</time>
      </trkpt>
      <trkpt lat="47.23845" lon="-1.54857">
        <ele>5.2</ele>
        <time>2015-01-04T10:30:21Z</time>
      </trkpt>
      <trkpt lat="47.23833" lon="-1.54868">
        <ele>5.2</ele>
        <time>2015-01-04T10:30:27Z</time>
      </trkpt>
      <trkpt lat="47.23825" lon="-1.54874">
        <ele>5.2</ele>
        <time>2015-01-04T10:30:30Z</time>
      </trkpt>
      <trkpt lat="47.23815" lon="-1.54883">
        <ele>5.1</ele>
        <time>2015-01-04T10:30:34Z</time>
      </trkpt>
      <trkpt lat="47.23804" lon="-1.54894">
        <ele>5.1</ele>
        <time>2015-01-04T10:30:42Z</time>
      </trkpt>
      <trkpt lat="47.23789" lon="-1.54894">
        <ele>5</ele>
        <time>2015-01-04T10:30:47Z</time>
      </trkpt>
      <trkpt lat="47.23779" lon="-1.54893">
        <ele>4.9</ele>
        <time>2015-01-04T10:30:50Z</time>
      </trkpt>
      <trkpt lat="47.23777" lon="-1.54899">
        <ele>4.8</ele>
        <time>2015-01-04T10:30:54Z</time>
      </trkpt>
      <trkpt lat="47.23766" lon="-1.54912">
        <ele>4.8</ele>
        <time>2015-01-04T10:30:59Z</time>
      </trkpt>
      <trkpt lat="47.23753" lon="-1.54923">
        <ele>4.8</ele>
        <time>2015-01-04T10:31:05Z</time>
      </trkpt>
      <trkpt lat="47.23745" lon="-1.5493">
        <ele>4.8</ele>
        <time>2015-01-04T10:31:11Z</time>
      </trkpt>
      <trkpt lat="47.23735" lon="-1.54935">
        <ele>4.8</ele>
        <time>2015-01-04T10:31:15Z</time>
      </trkpt>
      <trkpt lat="47.23729" lon="-1.54939">
        <ele>4.9</ele>
        <time>2015-01-04T10:31:17Z</time>
      </trkpt>
      <trkpt lat="47.23724" lon="-1.5494">
        <ele>4.9</ele>
        <time>2015-01-04T10:31:19Z</time>
      </trkpt>
      <trkpt lat="47.23714" lon="-1.54937">
        <ele>5</ele>
        <time>2015-01-04T10:31:24Z</time>
      </trkpt>
      <trkpt lat="47.23703" lon="-1.54931">
        <ele>5</ele>
        <time>2015-01-04T10:31:28Z</time>
      </trkpt>
      <trkpt lat="47.23698" lon="-1.54928">
        <ele>5.1</ele>
        <time>2015-01-04T10:31:30Z</time>
      </trkpt>
      <trkpt lat="47.23693" lon="-1.5493">
        <ele>5.1</ele>
        <time>2015-01-04T10:31:33Z</time>
      </trkpt>
      <trkpt lat="47.23688" lon="-1.54929">
        <ele>5.3</ele>
        <time>2015-01-04T10:31:36Z</time>
      </trkpt>
      <trkpt lat="47.23684" lon="-1.54921">
        <ele>5.3</ele>
        <time>2015-01-04T10:31:39Z</time>
      </trkpt>
      <trkpt lat="47.23674" lon="-1.54906">
        <ele>5.5</ele>
        <time>2015-01-04T10:31:43Z</time>
      </trkpt>
      <trkpt lat="47.23665" lon="-1.54885">
        <ele>5.7</ele>
        <time>2015-01-04T10:31:47Z</time>
      </trkpt>
      <trkpt lat="47.23654" lon="-1.54869">
        <ele>5.9</ele>
        <time>2015-01-04T10:31:51Z</time>
      </trkpt>
      <trkpt lat="47.23641" lon="-1.5486">
        <ele>5.9</ele>
        <time>2015-01-04T10:31:55Z</time>
      </trkpt>
      <trkpt lat="47.23637" lon="-1.54852">
        <ele>5.9</ele>
        <time>2015-01-04T10:31:57Z</time>
      </trkpt>
      <trkpt lat="47.23631" lon="-1.54847">
        <ele>5.9</ele>
        <time>2015-01-04T10:32:00Z</time>
      </trkpt>
      <trkpt lat="47.23622" lon="-1.54843">
        <ele>5.9</ele>
        <time>2015-01-04T10:32:03Z</time>
      </trkpt>
      <trkpt lat="47.2361" lon="-1.54839">
        <ele>5.9</ele>
        <time>2015-01-04T10:32:06Z</time>
      </trkpt>
      <trkpt lat="47.23602" lon="-1.54844">
        <ele>5.9</ele>
        <time>2015-01-04T10:32:10Z</time>
      </trkpt>
      <trkpt lat="47.23597" lon="-1.54843">
        <ele>5.9</ele>
        <time>2015-01-04T10:32:14Z</time>
      </trkpt>
      <trkpt lat="47.23592" lon="-1.54839">
        <ele>5.9</ele>
        <time>2015-01-04T10:32:18Z</time>
      </trkpt>
      <trkpt lat="47.2358" lon="-1.54835">
        <ele>5.9</ele>
        <time>2015-01-04T10:32:22Z</time>
      </trkpt>
      <trkpt lat="47.23574" lon="-1.54833">
        <ele>5.2</ele>
        <time>2015-01-04T10:32:24Z</time>
      </trkpt>
      <trkpt lat="47.23569" lon="-1.5483">
        <ele>5.2</ele>
        <time>2015-01-04T10:32:26Z</time>
      </trkpt>
      <trkpt lat="47.23563" lon="-1.54826">
        <ele>5.2</ele>
        <time>2015-01-04T10:32:28Z</time>
      </trkpt>
      <trkpt lat="47.23552" lon="-1.54821">
        <ele>4.8</ele>
        <time>2015-01-04T10:32:33Z</time>
      </trkpt>
      <trkpt lat="47.2354" lon="-1.5482">
        <ele>4.7</ele>
        <time>2015-01-04T10:32:36Z</time>
      </trkpt>
      <trkpt lat="47.23531" lon="-1.54816">
        <ele>4.7</ele>
        <time>2015-01-04T10:32:38Z</time>
      </trkpt>
      <trkpt lat="47.23522" lon="-1.5481">
        <ele>4.7</ele>
        <time>2015-01-04T10:32:40Z</time>
      </trkpt>
      <trkpt lat="47.23518" lon="-1.54806">
        <ele>4.7</ele>
        <time>2015-01-04T10:32:41Z</time>
      </trkpt>
      <trkpt lat="47.23513" lon="-1.54797">
        <ele>4.7</ele>
        <time>2015-01-04T10:32:43Z</time>
      </trkpt>
      <trkpt lat="47.23501" lon="-1.54784">
        <ele>4.7</ele>
        <time>2015-01-04T10:32:47Z</time>
      </trkpt>
      <trkpt lat="47.23488" lon="-1.5478">
        <ele>4.7</ele>
        <time>2015-01-04T10:32:50Z</time>
      </trkpt>
      <trkpt lat="47.23469" lon="-1.54773">
        <ele>4.7</ele>
        <time>2015-01-04T10:32:54Z</time>
      </trkpt>
      <trkpt lat="47.23456" lon="-1.5477">
        <ele>4.7</ele>
        <time>2015-01-04T10:32:57Z</time>
      </trkpt>
      <trkpt lat="47.2344" lon="-1.54767">
        <ele>4.7</ele>
        <time>2015-01-04T10:33:01Z</time>
      </trkpt>
      <trkpt lat="47.23429" lon="-1.54767">
        <ele>4.7</ele>
        <time>2015-01-04T10:33:04Z</time>
      </trkpt>
      <trkpt lat="47.23414" lon="-1.54772">
        <ele>6.1</ele>
        <time>2015-01-04T10:33:08Z</time>
      </trkpt>
      <trkpt lat="47.234" lon="-1.54772">
        <ele>6.1</ele>
        <time>2015-01-04T10:33:11Z</time>
      </trkpt>
      <trkpt lat="47.23389" lon="-1.5477">
        <ele>6.6</ele>
        <time>2015-01-04T10:33:13Z</time>
      </trkpt>
      <trkpt lat="47.23384" lon="-1.54769">
        <ele>6.6</ele>
        <time>2015-01-04T10:33:14Z</time>
      </trkpt>
      <trkpt lat="47.23376" lon="-1.54765">
        <ele>6.6</ele>
        <time>2015-01-04T10:33:16Z</time>
      </trkpt>
      <trkpt lat="47.23366" lon="-1.54758">
        <ele>6.6</ele>
        <time>2015-01-04T10:33:19Z</time>
      </trkpt>
      <trkpt lat="47.23354" lon="-1.5475">
        <ele>6.7</ele>
        <time>2015-01-04T10:33:22Z</time>
      </trkpt>
      <trkpt lat="47.23338" lon="-1.5474">
        <ele>6.8</ele>
        <time>2015-01-04T10:33:26Z</time>
      </trkpt>
      <trkpt lat="47.23326" lon="-1.54733">
        <ele>6.8</ele>
        <time>2015-01-04T10:33:29Z</time>
      </trkpt>
      <trkpt lat="47.23316" lon="-1.54729">
        <ele>6.8</ele>
        <time>2015-01-04T10:33:31Z</time>
      </trkpt>
      <trkpt lat="47.23306" lon="-1.54726">
        <ele>6.8</ele>
        <time>2015-01-04T10:33:33Z</time>
      </trkpt>
      <trkpt lat="47.23296" lon="-1.54724">
        <ele>6.8</ele>
        <time>2015-01-04T10:33:35Z</time>
      </trkpt>
      <trkpt lat="47.23287" lon="-1.54721">
        <ele>6.8</ele>
        <time>2015-01-04T10:33:37Z</time>
      </trkpt>
      <trkpt lat="47.23282" lon="-1.54719">
        <ele>6.8</ele>
        <time>2015-01-04T10:33:38Z</time>
      </trkpt>
      <trkpt lat="47.23277" lon="-1.54716">
        <ele>6.8</ele>
        <time>2015-01-04T10:33:39Z</time>
      </trkpt>
      <trkpt lat="47.23265" lon="-1.54712">
        <ele>6.8</ele>
        <time>2015-01-04T10:33:41Z</time>
      </trkpt>
      <trkpt lat="47.23249" lon="-1.54705">
        <ele>6.8</ele>
        <time>2015-01-04T10:33:44Z</time>
      </trkpt>
      <trkpt lat="47.23236" lon="-1.54715">
        <ele>6.8</ele>
        <time>2015-01-04T10:33:46Z</time>
      </trkpt>
      <trkpt lat="47.23226" lon="-1.54724">
        <ele>6.8</ele>
        <time>2015-01-04T10:33:48Z</time>
      </trkpt>
      <trkpt lat="47.23219" lon="-1.54732">
        <ele>6.7</ele>
        <time>2015-01-04T10:33:50Z</time>
      </trkpt>
      <trkpt lat="47.23217" lon="-1.54739">
        <ele>6.7</ele>
        <time>2015-01-04T10:33:52Z</time>
      </trkpt>
      <trkpt lat="47.23203" lon="-1.54748">
        <ele>6.6</ele>
        <time>2015-01-04T10:33:57Z</time>
      </trkpt>
      <trkpt lat="47.23192" lon="-1.54748">
        <ele>6.6</ele>
        <time>2015-01-04T10:34:00Z</time>
      </trkpt>
      <trkpt lat="47.23182" lon="-1.54748">
        <ele>6.5</ele>
        <time>2015-01-04T10:34:03Z</time>
      </trkpt>
      <trkpt lat="47.23171" lon="-1.54751">
        <ele>6.4</ele>
        <time>2015-01-04T10:34:07Z</time>
      </trkpt>
      <trkpt lat="47.23158" lon="-1.54756">
        <ele>6.3</ele>
        <time>2015-01-04T10:34:11Z</time>
      </trkpt>
      <trkpt lat="47.23147" lon="-1.54756">
        <ele>6.3</ele>
        <time>2015-01-04T10:34:14Z</time>
      </trkpt>
      <trkpt lat="47.23136" lon="-1.54755">
        <ele>6.2</ele>
        <time>2015-01-04T10:34:18Z</time>
      </trkpt>
      <trkpt lat="47.23131" lon="-1.54758">
        <ele>5.9</ele>
        <time>2015-01-04T10:34:20Z</time>
      </trkpt>
      <trkpt lat="47.23131" lon="-1.54765">
        <ele>5.9</ele>
        <time>2015-01-04T10:34:23Z</time>
      </trkpt>
      <trkpt lat="47.23133" lon="-1.54773">
        <ele>5.7</ele>
        <time>2015-01-04T10:34:26Z</time>
      </trkpt>
      <trkpt lat="47.23128" lon="-1.5478">
        <ele>5.7</ele>
        <time>2015-01-04T10:34:30Z</time>
      </trkpt>
      <trkpt lat="47.23112" lon="-1.54788">
        <ele>5.4</ele>
        <time>2015-01-04T10:34:35Z</time>
      </trkpt>
      <trkpt lat="47.23102" lon="-1.54795">
        <ele>5.4</ele>
        <time>2015-01-04T10:34:37Z</time>
      </trkpt>
      <trkpt lat="47.23093" lon="-1.54807">
        <ele>5.3</ele>
        <time>2015-01-04T10:34:39Z</time>
      </trkpt>
      <trkpt lat="47.23082" lon="-1.5483">
        <ele>5.2</ele>
        <time>2015-01-04T10:34:42Z</time>
      </trkpt>
      <trkpt lat="47.23073" lon="-1.54846">
        <ele>5.1</ele>
        <time>2015-01-04T10:34:44Z</time>
      </trkpt>
      <trkpt lat="47.23062" lon="-1.54863">
        <ele>5.1</ele>
        <time>2015-01-04T10:34:47Z</time>
      </trkpt>
      <trkpt lat="47.23051" lon="-1.54879">
        <ele>5.1</ele>
        <time>2015-01-04T10:34:50Z</time>
      </trkpt>
      <trkpt lat="47.23038" lon="-1.54894">
        <ele>5.1</ele>
        <time>2015-01-04T10:34:53Z</time>
      </trkpt>
      <trkpt lat="47.23028" lon="-1.54913">
        <ele>5.1</ele>
        <time>2015-01-04T10:34:57Z</time>
      </trkpt>
      <trkpt lat="47.2302" lon="-1.54931">
        <ele>5.4</ele>
        <time>2015-01-04T10:35:02Z</time>
      </trkpt>
      <trkpt lat="47.23013" lon="-1.54941">
        <ele>5.4</ele>
        <time>2015-01-04T10:35:05Z</time>
      </trkpt>
      <trkpt lat="47.23003" lon="-1.54959">
        <ele>5.4</ele>
        <time>2015-01-04T10:35:09Z</time>
      </trkpt>
      <trkpt lat="47.22993" lon="-1.54975">
        <ele>5.6</ele>
        <time>2015-01-04T10:35:12Z</time>
      </trkpt>
      <trkpt lat="47.2298" lon="-1.54991">
        <ele>5.8</ele>
        <time>2015-01-04T10:35:15Z</time>
      </trkpt>
      <trkpt lat="47.22967" lon="-1.55008">
        <ele>6.1</ele>
        <time>2015-01-04T10:35:18Z</time>
      </trkpt>
      <trkpt lat="47.22955" lon="-1.55019">
        <ele>6.1</ele>
        <time>2015-01-04T10:35:21Z</time>
      </trkpt>
      <trkpt lat="47.2294" lon="-1.55034">
        <ele>6.1</ele>
        <time>2015-01-04T10:35:24Z</time>
      </trkpt>
      <trkpt lat="47.22932" lon="-1.55042">
        <ele>6.2</ele>
        <time>2015-01-04T10:35:26Z</time>
      </trkpt>
      <trkpt lat="47.22917" lon="-1.55058">
        <ele>6.3</ele>
        <time>2015-01-04T10:35:29Z</time>
      </trkpt>
      <trkpt lat="47.22905" lon="-1.55075">
        <ele>6.4</ele>
        <time>2015-01-04T10:35:33Z</time>
      </trkpt>
      <trkpt lat="47.22894" lon="-1.55096">
        <ele>6.5</ele>
        <time>2015-01-04T10:35:37Z</time>
      </trkpt>
      <trkpt lat="47.2288" lon="-1.55113">
        <ele>6.5</ele>
        <time>2015-01-04T10:35:40Z</time>
      </trkpt>
      <trkpt lat="47.22863" lon="-1.55129">
        <ele>6.5</ele>
        <time>2015-01-04T10:35:43Z</time>
      </trkpt>
      <trkpt lat="47.22852" lon="-1.55146">
        <ele>6.4</ele>
        <time>2015-01-04T10:35:46Z</time>
      </trkpt>
      <trkpt lat="47.22841" lon="-1.55161">
        <ele>6.4</ele>
        <time>2015-01-04T10:35:52Z</time>
      </trkpt>
      <trkpt lat="47.22835" lon="-1.55168">
        <ele>6.4</ele>
        <time>2015-01-04T10:35:54Z</time>
      </trkpt>
      <trkpt lat="47.22831" lon="-1.55174">
        <ele>6.4</ele>
        <time>2015-01-04T10:35:56Z</time>
      </trkpt>
      <trkpt lat="47.22822" lon="-1.55192">
        <ele>6.3</ele>
        <time>2015-01-04T10:36:02Z</time>
      </trkpt>
      <trkpt lat="47.22812" lon="-1.55205">
        <ele>6.3</ele>
        <time>2015-01-04T10:36:07Z</time>
      </trkpt>
      <trkpt lat="47.22801" lon="-1.55216">
        <ele>6.4</ele>
        <time>2015-01-04T10:36:12Z</time>
      </trkpt>
      <trkpt lat="47.2279" lon="-1.55229">
        <ele>6.4</ele>
        <time>2015-01-04T10:36:16Z</time>
      </trkpt>
      <trkpt lat="47.2278" lon="-1.55244">
        <ele>6.4</ele>
        <time>2015-01-04T10:36:20Z</time>
      </trkpt>
      <trkpt lat="47.22769" lon="-1.55258">
        <ele>6.5</ele>
        <time>2015-01-04T10:36:24Z</time>
      </trkpt>
      <trkpt lat="47.22756" lon="-1.55272">
        <ele>6.8</ele>
        <time>2015-01-04T10:36:28Z</time>
      </trkpt>
      <trkpt lat="47.22742" lon="-1.55284">
        <ele>6.8</ele>
        <time>2015-01-04T10:36:31Z</time>
      </trkpt>
      <trkpt lat="47.22729" lon="-1.55301">
        <ele>6.9</ele>
        <time>2015-01-04T10:36:35Z</time>
      </trkpt>
      <trkpt lat="47.22715" lon="-1.55317">
        <ele>7.2</ele>
        <time>2015-01-04T10:36:39Z</time>
      </trkpt>
      <trkpt lat="47.22701" lon="-1.55327">
        <ele>7.3</ele>
        <time>2015-01-04T10:36:42Z</time>
      </trkpt>
      <trkpt lat="47.22688" lon="-1.55332">
        <ele>7.4</ele>
        <time>2015-01-04T10:36:45Z</time>
      </trkpt>
      <trkpt lat="47.22678" lon="-1.55332">
        <ele>7.4</ele>
        <time>2015-01-04T10:36:47Z</time>
      </trkpt>
      <trkpt lat="47.22673" lon="-1.55331">
        <ele>7.4</ele>
        <time>2015-01-04T10:36:48Z</time>
      </trkpt>
      <trkpt lat="47.22668" lon="-1.55331">
        <ele>7.4</ele>
        <time>2015-01-04T10:36:49Z</time>
      </trkpt>
      <trkpt lat="47.22659" lon="-1.5533">
        <ele>7.4</ele>
        <time>2015-01-04T10:36:51Z</time>
      </trkpt>
      <trkpt lat="47.22645" lon="-1.55328">
        <ele>7.4</ele>
        <time>2015-01-04T10:36:54Z</time>
      </trkpt>
      <trkpt lat="47.22631" lon="-1.55328">
        <ele>7.4</ele>
        <time>2015-01-04T10:36:57Z</time>
      </trkpt>
      <trkpt lat="47.22616" lon="-1.55322">
        <ele>7.7</ele>
        <time>2015-01-04T10:37:01Z</time>
      </trkpt>
      <trkpt lat="47.22604" lon="-1.5532">
        <ele>7.7</ele>
        <time>2015-01-04T10:37:04Z</time>
      </trkpt>
      <trkpt lat="47.2259" lon="-1.55315">
        <ele>7.9</ele>
        <time>2015-01-04T10:37:07Z</time>
      </trkpt>
      <trkpt lat="47.22579" lon="-1.55313">
        <ele>7.9</ele>
        <time>2015-01-04T10:37:09Z</time>
      </trkpt>
      <trkpt lat="47.22574" lon="-1.55312">
        <ele>7.9</ele>
        <time>2015-01-04T10:37:10Z</time>
      </trkpt>
      <trkpt lat="47.22565" lon="-1.55307">
        <ele>7.9</ele>
        <time>2015-01-04T10:37:12Z</time>
      </trkpt>
      <trkpt lat="47.22555" lon="-1.55305">
        <ele>7.9</ele>
        <time>2015-01-04T10:37:14Z</time>
      </trkpt>
      <trkpt lat="47.22539" lon="-1.55299">
        <ele>7.9</ele>
        <time>2015-01-04T10:37:17Z</time>
      </trkpt>
      <trkpt lat="47.22522" lon="-1.55295">
        <ele>7.6</ele>
        <time>2015-01-04T10:37:20Z</time>
      </trkpt>
      <trkpt lat="47.22504" lon="-1.55291">
        <ele>7.6</ele>
        <time>2015-01-04T10:37:23Z</time>
      </trkpt>
      <trkpt lat="47.22486" lon="-1.55288">
        <ele>7.4</ele>
        <time>2015-01-04T10:37:26Z</time>
      </trkpt>
      <trkpt lat="47.22469" lon="-1.55284">
        <ele>7.4</ele>
        <time>2015-01-04T10:37:29Z</time>
      </trkpt>
      <trkpt lat="47.22458" lon="-1.55282">
        <ele>7.4</ele>
        <time>2015-01-04T10:37:31Z</time>
      </trkpt>
      <trkpt lat="47.22442" lon="-1.55278">
        <ele>7.4</ele>
        <time>2015-01-04T10:37:34Z</time>
      </trkpt>
      <trkpt lat="47.2243" lon="-1.55276">
        <ele>7.4</ele>
        <time>2015-01-04T10:37:36Z</time>
      </trkpt>
      <trkpt lat="47.22418" lon="-1.55274">
        <ele>7.3</ele>
        <time>2015-01-04T10:37:38Z</time>
      </trkpt>
      <trkpt lat="47.22409" lon="-1.55272">
        <ele>7.2</ele>
        <time>2015-01-04T10:37:40Z</time>
      </trkpt>
      <trkpt lat="47.22397" lon="-1.55269">
        <ele>7.1</ele>
        <time>2015-01-04T10:37:42Z</time>
      </trkpt>
      <trkpt lat="47.22383" lon="-1.55267">
        <ele>7.1</ele>
        <time>2015-01-04T10:37:44Z</time>
      </trkpt>
      <trkpt lat="47.22359" lon="-1.55262">
        <ele>7.1</ele>
        <time>2015-01-04T10:37:48Z</time>
      </trkpt>
      <trkpt lat="47.22345" lon="-1.55257">
        <ele>7.1</ele>
        <time>2015-01-04T10:37:50Z</time>
      </trkpt>
      <trkpt lat="47.22334" lon="-1.55254">
        <ele>7.1</ele>
        <time>2015-01-04T10:37:52Z</time>
      </trkpt>
      <trkpt lat="47.2231" lon="-1.55245">
        <ele>7.1</ele>
        <time>2015-01-04T10:37:57Z</time>
      </trkpt>
      <trkpt lat="47.22294" lon="-1.55252">
        <ele>7.3</ele>
        <time>2015-01-04T10:37:59Z</time>
      </trkpt>
      <trkpt lat="47.22301" lon="-1.55242">
        <ele>7.3</ele>
        <time>2015-01-04T10:38:00Z</time>
      </trkpt>
      <trkpt lat="47.22289" lon="-1.55243">
        <ele>7.3</ele>
        <time>2015-01-04T10:38:01Z</time>
      </trkpt>
      <trkpt lat="47.22275" lon="-1.55228">
        <ele>7.3</ele>
        <time>2015-01-04T10:38:05Z</time>
      </trkpt>
      <trkpt lat="47.22265" lon="-1.55218">
        <ele>7.3</ele>
        <time>2015-01-04T10:38:07Z</time>
      </trkpt>
      <trkpt lat="47.22256" lon="-1.55208">
        <ele>7.3</ele>
        <time>2015-01-04T10:38:09Z</time>
      </trkpt>
      <trkpt lat="47.22239" lon="-1.55193">
        <ele>7.3</ele>
        <time>2015-01-04T10:38:12Z</time>
      </trkpt>
      <trkpt lat="47.22226" lon="-1.55183">
        <ele>7.3</ele>
        <time>2015-01-04T10:38:14Z</time>
      </trkpt>
      <trkpt lat="47.22211" lon="-1.5517">
        <ele>7.3</ele>
        <time>2015-01-04T10:38:17Z</time>
      </trkpt>
      <trkpt lat="47.22195" lon="-1.55154">
        <ele>7.3</ele>
        <time>2015-01-04T10:38:20Z</time>
      </trkpt>
      <trkpt lat="47.22182" lon="-1.55145">
        <ele>7.4</ele>
        <time>2015-01-04T10:38:23Z</time>
      </trkpt>
      <trkpt lat="47.22166" lon="-1.55142">
        <ele>7.5</ele>
        <time>2015-01-04T10:38:26Z</time>
      </trkpt>
      <trkpt lat="47.22159" lon="-1.55159">
        <ele>7.7</ele>
        <time>2015-01-04T10:38:29Z</time>
      </trkpt>
      <trkpt lat="47.2215" lon="-1.55181">
        <ele>7.8</ele>
        <time>2015-01-04T10:38:32Z</time>
      </trkpt>
      <trkpt lat="47.22137" lon="-1.5521">
        <ele>8.5</ele>
        <time>2015-01-04T10:38:37Z</time>
      </trkpt>
      <trkpt lat="47.22129" lon="-1.55226">
        <ele>8.8</ele>
        <time>2015-01-04T10:38:40Z</time>
      </trkpt>
      <trkpt lat="47.22118" lon="-1.55247">
        <ele>8.8</ele>
        <time>2015-01-04T10:38:43Z</time>
      </trkpt>
      <trkpt lat="47.22106" lon="-1.55268">
        <ele>8.9</ele>
        <time>2015-01-04T10:38:46Z</time>
      </trkpt>
      <trkpt lat="47.22096" lon="-1.55282">
        <ele>8.9</ele>
        <time>2015-01-04T10:38:48Z</time>
      </trkpt>
      <trkpt lat="47.22076" lon="-1.55323">
        <ele>8.9</ele>
        <time>2015-01-04T10:38:53Z</time>
      </trkpt>
      <trkpt lat="47.22068" lon="-1.55351">
        <ele>9</ele>
        <time>2015-01-04T10:38:57Z</time>
      </trkpt>
      <trkpt lat="47.2206" lon="-1.55369">
        <ele>9</ele>
        <time>2015-01-04T10:38:59Z</time>
      </trkpt>
      <trkpt lat="47.22049" lon="-1.55393">
        <ele>8.9</ele>
        <time>2015-01-04T10:39:02Z</time>
      </trkpt>
      <trkpt lat="47.22041" lon="-1.5541">
        <ele>8.9</ele>
        <time>2015-01-04T10:39:04Z</time>
      </trkpt>
      <trkpt lat="47.22031" lon="-1.55435">
        <ele>8.9</ele>
        <time>2015-01-04T10:39:07Z</time>
      </trkpt>
      <trkpt lat="47.22022" lon="-1.55458">
        <ele>8.9</ele>
        <time>2015-01-04T10:39:10Z</time>
      </trkpt>
      <trkpt lat="47.22014" lon="-1.55482">
        <ele>8.8</ele>
        <time>2015-01-04T10:39:13Z</time>
      </trkpt>
      <trkpt lat="47.22" lon="-1.55498">
        <ele>8.7</ele>
        <time>2015-01-04T10:39:16Z</time>
      </trkpt>
      <trkpt lat="47.2199" lon="-1.55523">
        <ele>8.6</ele>
        <time>2015-01-04T10:39:19Z</time>
      </trkpt>
      <trkpt lat="47.2198" lon="-1.55541">
        <ele>8.5</ele>
        <time>2015-01-04T10:39:22Z</time>
      </trkpt>
      <trkpt lat="47.21968" lon="-1.55561">
        <ele>8.5</ele>
        <time>2015-01-04T10:39:25Z</time>
      </trkpt>
      <trkpt lat="47.21956" lon="-1.55581">
        <ele>8.4</ele>
        <time>2015-01-04T10:39:28Z</time>
      </trkpt>
      <trkpt lat="47.21945" lon="-1.55598">
        <ele>8.4</ele>
        <time>2015-01-04T10:39:31Z</time>
      </trkpt>
      <trkpt lat="47.21933" lon="-1.55615">
        <ele>8.3</ele>
        <time>2015-01-04T10:39:34Z</time>
      </trkpt>
      <trkpt lat="47.21923" lon="-1.55637">
        <ele>8.1</ele>
        <time>2015-01-04T10:39:37Z</time>
      </trkpt>
      <trkpt lat="47.21912" lon="-1.55669">
        <ele>8</ele>
        <time>2015-01-04T10:39:41Z</time>
      </trkpt>
      <trkpt lat="47.21891" lon="-1.55682">
        <ele>7.9</ele>
        <time>2015-01-04T10:39:45Z</time>
      </trkpt>
      <trkpt lat="47.21868" lon="-1.55703">
        <ele>7.7</ele>
        <time>2015-01-04T10:39:50Z</time>
      </trkpt>
      <trkpt lat="47.21861" lon="-1.55707">
        <ele>7.7</ele>
        <time>2015-01-04T10:39:51Z</time>
      </trkpt>
      <trkpt lat="47.2185" lon="-1.55712">
        <ele>7.5</ele>
        <time>2015-01-04T10:39:53Z</time>
      </trkpt>
      <trkpt lat="47.21845" lon="-1.55714">
        <ele>7.5</ele>
        <time>2015-01-04T10:39:54Z</time>
      </trkpt>
      <trkpt lat="47.21839" lon="-1.55716">
        <ele>7.5</ele>
        <time>2015-01-04T10:39:55Z</time>
      </trkpt>
      <trkpt lat="47.21832" lon="-1.55717">
        <ele>7.5</ele>
        <time>2015-01-04T10:39:56Z</time>
      </trkpt>
      <trkpt lat="47.21824" lon="-1.55718">
        <ele>7.5</ele>
        <time>2015-01-04T10:39:57Z</time>
      </trkpt>
      <trkpt lat="47.2181" lon="-1.55718">
        <ele>7.1</ele>
        <time>2015-01-04T10:40:00Z</time>
      </trkpt>
      <trkpt lat="47.21804" lon="-1.55717">
        <ele>7.1</ele>
        <time>2015-01-04T10:40:01Z</time>
      </trkpt>
      <trkpt lat="47.21795" lon="-1.55716">
        <ele>7.1</ele>
        <time>2015-01-04T10:40:03Z</time>
      </trkpt>
      <trkpt lat="47.21778" lon="-1.5572">
        <ele>7</ele>
        <time>2015-01-04T10:40:06Z</time>
      </trkpt>
      <trkpt lat="47.21758" lon="-1.55721">
        <ele>7</ele>
        <time>2015-01-04T10:40:12Z</time>
      </trkpt>
      <trkpt lat="47.21714" lon="-1.55698">
        <ele>7</ele>
        <time>2015-01-04T10:40:19Z</time>
      </trkpt>
      <trkpt lat="47.21698" lon="-1.5569">
        <ele>7</ele>
        <time>2015-01-04T10:40:22Z</time>
      </trkpt>
      <trkpt lat="47.21686" lon="-1.55688">
        <ele>6.9</ele>
        <time>2015-01-04T10:40:24Z</time>
      </trkpt>
      <trkpt lat="47.21668" lon="-1.55682">
        <ele>6.9</ele>
        <time>2015-01-04T10:40:27Z</time>
      </trkpt>
      <trkpt lat="47.21656" lon="-1.55679">
        <ele>6.9</ele>
        <time>2015-01-04T10:40:29Z</time>
      </trkpt>
      <trkpt lat="47.21634" lon="-1.55671">
        <ele>6.9</ele>
        <time>2015-01-04T10:40:33Z</time>
      </trkpt>
      <trkpt lat="47.21624" lon="-1.55666">
        <ele>6.9</ele>
        <time>2015-01-04T10:40:35Z</time>
      </trkpt>
      <trkpt lat="47.21604" lon="-1.55658">
        <ele>7.2</ele>
        <time>2015-01-04T10:40:39Z</time>
      </trkpt>
      <trkpt lat="47.21599" lon="-1.55655">
        <ele>7.2</ele>
        <time>2015-01-04T10:40:40Z</time>
      </trkpt>
      <trkpt lat="47.21593" lon="-1.55653">
        <ele>7.2</ele>
        <time>2015-01-04T10:40:41Z</time>
      </trkpt>
      <trkpt lat="47.21577" lon="-1.55649">
        <ele>7.2</ele>
        <time>2015-01-04T10:40:44Z</time>
      </trkpt>
      <trkpt lat="47.21561" lon="-1.55644">
        <ele>7.3</ele>
        <time>2015-01-04T10:40:47Z</time>
      </trkpt>
      <trkpt lat="47.21551" lon="-1.5564">
        <ele>7.3</ele>
        <time>2015-01-04T10:40:49Z</time>
      </trkpt>
      <trkpt lat="47.21536" lon="-1.55633">
        <ele>7.3</ele>
        <time>2015-01-04T10:40:52Z</time>
      </trkpt>
      <trkpt lat="47.21524" lon="-1.5563">
        <ele>7.3</ele>
        <time>2015-01-04T10:40:54Z</time>
      </trkpt>
      <trkpt lat="47.21508" lon="-1.55622">
        <ele>7.3</ele>
        <time>2015-01-04T10:40:57Z</time>
      </trkpt>
      <trkpt lat="47.21498" lon="-1.55614">
        <ele>7.3</ele>
        <time>2015-01-04T10:40:59Z</time>
      </trkpt>
      <trkpt lat="47.21477" lon="-1.55597">
        <ele>7.3</ele>
        <time>2015-01-04T10:41:03Z</time>
      </trkpt>
      <trkpt lat="47.21467" lon="-1.55586">
        <ele>7.3</ele>
        <time>2015-01-04T10:41:05Z</time>
      </trkpt>
      <trkpt lat="47.21451" lon="-1.55573">
        <ele>7.3</ele>
        <time>2015-01-04T10:41:08Z</time>
      </trkpt>
      <trkpt lat="47.2144" lon="-1.55561">
        <ele>7.3</ele>
        <time>2015-01-04T10:41:11Z</time>
      </trkpt>
      <trkpt lat="47.21428" lon="-1.5555">
        <ele>7.3</ele>
        <time>2015-01-04T10:41:14Z</time>
      </trkpt>
      <trkpt lat="47.21417" lon="-1.55539">
        <ele>7.3</ele>
        <time>2015-01-04T10:41:19Z</time>
      </trkpt>
      <trkpt lat="47.21403" lon="-1.55523">
        <ele>7.3</ele>
        <time>2015-01-04T10:41:23Z</time>
      </trkpt>
      <trkpt lat="47.21392" lon="-1.55512">
        <ele>7.3</ele>
        <time>2015-01-04T10:41:26Z</time>
      </trkpt>
      <trkpt lat="47.21379" lon="-1.55499">
        <ele>7.4</ele>
        <time>2015-01-04T10:41:30Z</time>
      </trkpt>
      <trkpt lat="47.21365" lon="-1.55489">
        <ele>7.4</ele>
        <time>2015-01-04T10:41:34Z</time>
      </trkpt>
      <trkpt lat="47.21352" lon="-1.55498">
        <ele>7.3</ele>
        <time>2015-01-04T10:41:38Z</time>
      </trkpt>
      <trkpt lat="47.21341" lon="-1.55491">
        <ele>7.3</ele>
        <time>2015-01-04T10:41:41Z</time>
      </trkpt>
      <trkpt lat="47.21329" lon="-1.5548">
        <ele>7.3</ele>
        <time>2015-01-04T10:41:44Z</time>
      </trkpt>
      <trkpt lat="47.21317" lon="-1.5547">
        <ele>7.3</ele>
        <time>2015-01-04T10:41:47Z</time>
      </trkpt>
      <trkpt lat="47.21306" lon="-1.55458">
        <ele>7.4</ele>
        <time>2015-01-04T10:41:50Z</time>
      </trkpt>
      <trkpt lat="47.21293" lon="-1.55444">
        <ele>7.5</ele>
        <time>2015-01-04T10:41:54Z</time>
      </trkpt>
      <trkpt lat="47.21281" lon="-1.55428">
        <ele>7.7</ele>
        <time>2015-01-04T10:41:58Z</time>
      </trkpt>
      <trkpt lat="47.21271" lon="-1.55422">
        <ele>7.9</ele>
        <time>2015-01-04T10:42:03Z</time>
      </trkpt>
      <trkpt lat="47.21262" lon="-1.55413">
        <ele>8.4</ele>
        <time>2015-01-04T10:42:12Z</time>
      </trkpt>
      <trkpt lat="47.21251" lon="-1.55398">
        <ele>8.5</ele>
        <time>2015-01-04T10:42:16Z</time>
      </trkpt>
      <trkpt lat="47.21239" lon="-1.55383">
        <ele>8.5</ele>
        <time>2015-01-04T10:42:20Z</time>
      </trkpt>
      <trkpt lat="47.21226" lon="-1.55368">
        <ele>9</ele>
        <time>2015-01-04T10:42:25Z</time>
      </trkpt>
      <trkpt lat="47.21214" lon="-1.55353">
        <ele>9.2</ele>
        <time>2015-01-04T10:42:30Z</time>
      </trkpt>
      <trkpt lat="47.2121" lon="-1.55347">
        <ele>9.3</ele>
        <time>2015-01-04T10:42:32Z</time>
      </trkpt>
      <trkpt lat="47.21203" lon="-1.55339">
        <ele>9.3</ele>
        <time>2015-01-04T10:42:35Z</time>
      </trkpt>
      <trkpt lat="47.2119" lon="-1.55325">
        <ele>9.4</ele>
        <time>2015-01-04T10:42:40Z</time>
      </trkpt>
      <trkpt lat="47.21176" lon="-1.55312">
        <ele>9.5</ele>
        <time>2015-01-04T10:42:45Z</time>
      </trkpt>
      <trkpt lat="47.21164" lon="-1.553">
        <ele>9.5</ele>
        <time>2015-01-04T10:42:49Z</time>
      </trkpt>
      <trkpt lat="47.21153" lon="-1.55287">
        <ele>9.5</ele>
        <time>2015-01-04T10:42:53Z</time>
      </trkpt>
      <trkpt lat="47.2114" lon="-1.55276">
        <ele>9.5</ele>
        <time>2015-01-04T10:42:57Z</time>
      </trkpt>
      <trkpt lat="47.21128" lon="-1.55264">
        <ele>9.5</ele>
        <time>2015-01-04T10:43:01Z</time>
      </trkpt>
      <trkpt lat="47.21122" lon="-1.55259">
        <ele>9.5</ele>
        <time>2015-01-04T10:43:03Z</time>
      </trkpt>
      <trkpt lat="47.21117" lon="-1.55253">
        <ele>9.5</ele>
        <time>2015-01-04T10:43:05Z</time>
      </trkpt>
      <trkpt lat="47.21111" lon="-1.55246">
        <ele>9.5</ele>
        <time>2015-01-04T10:43:07Z</time>
      </trkpt>
      <trkpt lat="47.211" lon="-1.55233">
        <ele>9.5</ele>
        <time>2015-01-04T10:43:10Z</time>
      </trkpt>
      <trkpt lat="47.21091" lon="-1.55225">
        <ele>9.4</ele>
        <time>2015-01-04T10:43:12Z</time>
      </trkpt>
      <trkpt lat="47.2108" lon="-1.5521">
        <ele>9.3</ele>
        <time>2015-01-04T10:43:15Z</time>
      </trkpt>
      <trkpt lat="47.21068" lon="-1.55196">
        <ele>9.2</ele>
        <time>2015-01-04T10:43:18Z</time>
      </trkpt>
      <trkpt lat="47.21061" lon="-1.55188">
        <ele>9.1</ele>
        <time>2015-01-04T10:43:20Z</time>
      </trkpt>
      <trkpt lat="47.21046" lon="-1.55173">
        <ele>8.9</ele>
        <time>2015-01-04T10:43:24Z</time>
      </trkpt>
      <trkpt lat="47.21031" lon="-1.55161">
        <ele>8.8</ele>
        <time>2015-01-04T10:43:28Z</time>
      </trkpt>
      <trkpt lat="47.21018" lon="-1.55148">
        <ele>8.8</ele>
        <time>2015-01-04T10:43:31Z</time>
      </trkpt>
      <trkpt lat="47.21008" lon="-1.55132">
        <ele>8.7</ele>
        <time>2015-01-04T10:43:34Z</time>
      </trkpt>
      <trkpt lat="47.20997" lon="-1.55118">
        <ele>8.6</ele>
        <time>2015-01-04T10:43:37Z</time>
      </trkpt>
      <trkpt lat="47.20986" lon="-1.55104">
        <ele>8.4</ele>
        <time>2015-01-04T10:43:40Z</time>
      </trkpt>
      <trkpt lat="47.20973" lon="-1.55095">
        <ele>8.2</ele>
        <time>2015-01-04T10:43:43Z</time>
      </trkpt>
      <trkpt lat="47.20961" lon="-1.55083">
        <ele>8.2</ele>
        <time>2015-01-04T10:43:46Z</time>
      </trkpt>
      <trkpt lat="47.20948" lon="-1.5507">
        <ele>8.1</ele>
        <time>2015-01-04T10:43:49Z</time>
      </trkpt>
      <trkpt lat="47.20936" lon="-1.55056">
        <ele>8</ele>
        <time>2015-01-04T10:43:52Z</time>
      </trkpt>
      <trkpt lat="47.20925" lon="-1.55042">
        <ele>8</ele>
        <time>2015-01-04T10:43:55Z</time>
      </trkpt>
      <trkpt lat="47.20912" lon="-1.55025">
        <ele>8</ele>
        <time>2015-01-04T10:43:59Z</time>
      </trkpt>
      <trkpt lat="47.20901" lon="-1.55012">
        <ele>7.9</ele>
        <time>2015-01-04T10:44:02Z</time>
      </trkpt>
      <trkpt lat="47.20892" lon="-1.54992">
        <ele>7.9</ele>
        <time>2015-01-04T10:44:06Z</time>
      </trkpt>
      <trkpt lat="47.20884" lon="-1.54969">
        <ele>7.9</ele>
        <time>2015-01-04T10:44:10Z</time>
      </trkpt>
      <trkpt lat="47.20868" lon="-1.54956">
        <ele>7.8</ele>
        <time>2015-01-04T10:44:13Z</time>
      </trkpt>
      <trkpt lat="47.20857" lon="-1.5495">
        <ele>7.8</ele>
        <time>2015-01-04T10:44:15Z</time>
      </trkpt>
      <trkpt lat="47.20829" lon="-1.54935">
        <ele>7.7</ele>
        <time>2015-01-04T10:44:20Z</time>
      </trkpt>
      <trkpt lat="47.20819" lon="-1.5493">
        <ele>7.3</ele>
        <time>2015-01-04T10:44:22Z</time>
      </trkpt>
      <trkpt lat="47.20798" lon="-1.54918">
        <ele>7.3</ele>
        <time>2015-01-04T10:44:26Z</time>
      </trkpt>
      <trkpt lat="47.20788" lon="-1.54911">
        <ele>7.3</ele>
        <time>2015-01-04T10:44:28Z</time>
      </trkpt>
      <trkpt lat="47.20773" lon="-1.54902">
        <ele>7.2</ele>
        <time>2015-01-04T10:44:31Z</time>
      </trkpt>
      <trkpt lat="47.20762" lon="-1.54896">
        <ele>7.2</ele>
        <time>2015-01-04T10:44:33Z</time>
      </trkpt>
      <trkpt lat="47.2075" lon="-1.54889">
        <ele>7.2</ele>
        <time>2015-01-04T10:44:35Z</time>
      </trkpt>
      <trkpt lat="47.20739" lon="-1.54883">
        <ele>6.9</ele>
        <time>2015-01-04T10:44:37Z</time>
      </trkpt>
      <trkpt lat="47.20724" lon="-1.54874">
        <ele>6.9</ele>
        <time>2015-01-04T10:44:40Z</time>
      </trkpt>
      <trkpt lat="47.2071" lon="-1.54867">
        <ele>6.9</ele>
        <time>2015-01-04T10:44:43Z</time>
      </trkpt>
      <trkpt lat="47.20697" lon="-1.54862">
        <ele>6.4</ele>
        <time>2015-01-04T10:44:46Z</time>
      </trkpt>
      <trkpt lat="47.20683" lon="-1.5485">
        <ele>6.4</ele>
        <time>2015-01-04T10:44:49Z</time>
      </trkpt>
      <trkpt lat="47.2067" lon="-1.54838">
        <ele>6.4</ele>
        <time>2015-01-04T10:44:52Z</time>
      </trkpt>
      <trkpt lat="47.20662" lon="-1.54831">
        <ele>6.1</ele>
        <time>2015-01-04T10:44:54Z</time>
      </trkpt>
      <trkpt lat="47.20649" lon="-1.5482">
        <ele>6.2</ele>
        <time>2015-01-04T10:44:57Z</time>
      </trkpt>
      <trkpt lat="47.20635" lon="-1.5481">
        <ele>6.3</ele>
        <time>2015-01-04T10:45:00Z</time>
      </trkpt>
      <trkpt lat="47.20622" lon="-1.54798">
        <ele>6.1</ele>
        <time>2015-01-04T10:45:04Z</time>
      </trkpt>
      <trkpt lat="47.20609" lon="-1.54789">
        <ele>6</ele>
        <time>2015-01-04T10:45:07Z</time>
      </trkpt>
      <trkpt lat="47.20599" lon="-1.54782">
        <ele>6</ele>
        <time>2015-01-04T10:45:09Z</time>
      </trkpt>
      <trkpt lat="47.20584" lon="-1.54773">
        <ele>6</ele>
        <time>2015-01-04T10:45:13Z</time>
      </trkpt>
      <trkpt lat="47.20572" lon="-1.54763">
        <ele>6.1</ele>
        <time>2015-01-04T10:45:16Z</time>
      </trkpt>
      <trkpt lat="47.20559" lon="-1.54755">
        <ele>6.2</ele>
        <time>2015-01-04T10:45:19Z</time>
      </trkpt>
      <trkpt lat="47.20545" lon="-1.54747">
        <ele>6.4</ele>
        <time>2015-01-04T10:45:23Z</time>
      </trkpt>
      <trkpt lat="47.20536" lon="-1.54744">
        <ele>6.7</ele>
        <time>2015-01-04T10:45:26Z</time>
      </trkpt>
      <trkpt lat="47.20522" lon="-1.54744">
        <ele>6.7</ele>
        <time>2015-01-04T10:45:30Z</time>
      </trkpt>
      <trkpt lat="47.20514" lon="-1.54745">
        <ele>6.7</ele>
        <time>2015-01-04T10:45:32Z</time>
      </trkpt>
      <trkpt lat="47.20509" lon="-1.54744">
        <ele>6.7</ele>
        <time>2015-01-04T10:45:33Z</time>
      </trkpt>
      <trkpt lat="47.20504" lon="-1.54741">
        <ele>6.7</ele>
        <time>2015-01-04T10:45:34Z</time>
      </trkpt>
      <trkpt lat="47.205" lon="-1.54737">
        <ele>6.7</ele>
        <time>2015-01-04T10:45:35Z</time>
      </trkpt>
      <trkpt lat="47.20491" lon="-1.54732">
        <ele>6.8</ele>
        <time>2015-01-04T10:45:37Z</time>
      </trkpt>
      <trkpt lat="47.20476" lon="-1.5472">
        <ele>7.2</ele>
        <time>2015-01-04T10:45:41Z</time>
      </trkpt>
      <trkpt lat="47.20467" lon="-1.54712">
        <ele>7.2</ele>
        <time>2015-01-04T10:45:43Z</time>
      </trkpt>
      <trkpt lat="47.20452" lon="-1.54703">
        <ele>7.3</ele>
        <time>2015-01-04T10:45:46Z</time>
      </trkpt>
      <trkpt lat="47.2044" lon="-1.54695">
        <ele>7.3</ele>
        <time>2015-01-04T10:45:48Z</time>
      </trkpt>
      <trkpt lat="47.20428" lon="-1.54684">
        <ele>7.3</ele>
        <time>2015-01-04T10:45:51Z</time>
      </trkpt>
      <trkpt lat="47.20411" lon="-1.54671">
        <ele>7.4</ele>
        <time>2015-01-04T10:45:54Z</time>
      </trkpt>
      <trkpt lat="47.20395" lon="-1.54658">
        <ele>7.4</ele>
        <time>2015-01-04T10:45:57Z</time>
      </trkpt>
      <trkpt lat="47.20382" lon="-1.54652">
        <ele>7.4</ele>
        <time>2015-01-04T10:45:59Z</time>
      </trkpt>
      <trkpt lat="47.20372" lon="-1.54643">
        <ele>7.4</ele>
        <time>2015-01-04T10:46:01Z</time>
      </trkpt>
      <trkpt lat="47.20348" lon="-1.54633">
        <ele>7.4</ele>
        <time>2015-01-04T10:46:04Z</time>
      </trkpt>
      <trkpt lat="47.2032" lon="-1.54616">
        <ele>7.3</ele>
        <time>2015-01-04T10:46:08Z</time>
      </trkpt>
      <trkpt lat="47.20307" lon="-1.54608">
        <ele>7.3</ele>
        <time>2015-01-04T10:46:10Z</time>
      </trkpt>
      <trkpt lat="47.2029" lon="-1.54596">
        <ele>7.3</ele>
        <time>2015-01-04T10:46:13Z</time>
      </trkpt>
      <trkpt lat="47.20283" lon="-1.54587">
        <ele>7.3</ele>
        <time>2015-01-04T10:46:16Z</time>
      </trkpt>
      <trkpt lat="47.2027" lon="-1.54579">
        <ele>7.3</ele>
        <time>2015-01-04T10:46:18Z</time>
      </trkpt>
      <trkpt lat="47.20257" lon="-1.54572">
        <ele>7.3</ele>
        <time>2015-01-04T10:46:20Z</time>
      </trkpt>
      <trkpt lat="47.20244" lon="-1.54566">
        <ele>7.3</ele>
        <time>2015-01-04T10:46:22Z</time>
      </trkpt>
      <trkpt lat="47.20232" lon="-1.54559">
        <ele>7.4</ele>
        <time>2015-01-04T10:46:24Z</time>
      </trkpt>
      <trkpt lat="47.20222" lon="-1.54554">
        <ele>7.4</ele>
        <time>2015-01-04T10:46:25Z</time>
      </trkpt>
      <trkpt lat="47.20211" lon="-1.54547">
        <ele>7.4</ele>
        <time>2015-01-04T10:46:27Z</time>
      </trkpt>
      <trkpt lat="47.20197" lon="-1.54537">
        <ele>7.5</ele>
        <time>2015-01-04T10:46:30Z</time>
      </trkpt>
      <trkpt lat="47.20182" lon="-1.54528">
        <ele>7.5</ele>
        <time>2015-01-04T10:46:33Z</time>
      </trkpt>
      <trkpt lat="47.20167" lon="-1.54521">
        <ele>7.5</ele>
        <time>2015-01-04T10:46:35Z</time>
      </trkpt>
      <trkpt lat="47.20148" lon="-1.54507">
        <ele>7.5</ele>
        <time>2015-01-04T10:46:40Z</time>
      </trkpt>
      <trkpt lat="47.20149" lon="-1.54485">
        <ele>7.5</ele>
        <time>2015-01-04T10:46:45Z</time>
      </trkpt>
      <trkpt lat="47.20138" lon="-1.54476">
        <ele>7.7</ele>
        <time>2015-01-04T10:46:51Z</time>
      </trkpt>
      <trkpt lat="47.20123" lon="-1.54461">
        <ele>7.7</ele>
        <time>2015-01-04T10:46:54Z</time>
      </trkpt>
      <trkpt lat="47.20116" lon="-1.54447">
        <ele>7.7</ele>
        <time>2015-01-04T10:46:56Z</time>
      </trkpt>
      <trkpt lat="47.20101" lon="-1.54432">
        <ele>7.7</ele>
        <time>2015-01-04T10:46:59Z</time>
      </trkpt>
      <trkpt lat="47.20089" lon="-1.54426">
        <ele>7.7</ele>
        <time>2015-01-04T10:47:01Z</time>
      </trkpt>
      <trkpt lat="47.20075" lon="-1.54415">
        <ele>7.7</ele>
        <time>2015-01-04T10:47:04Z</time>
      </trkpt>
      <trkpt lat="47.20066" lon="-1.54407">
        <ele>7.8</ele>
        <time>2015-01-04T10:47:06Z</time>
      </trkpt>
      <trkpt lat="47.20055" lon="-1.54401">
        <ele>7.9</ele>
        <time>2015-01-04T10:47:08Z</time>
      </trkpt>
      <trkpt lat="47.20041" lon="-1.54394">
        <ele>7.9</ele>
        <time>2015-01-04T10:47:11Z</time>
      </trkpt>
      <trkpt lat="47.20026" lon="-1.54376">
        <ele>8</ele>
        <time>2015-01-04T10:47:15Z</time>
      </trkpt>
      <trkpt lat="47.20012" lon="-1.54371">
        <ele>8.3</ele>
        <time>2015-01-04T10:47:17Z</time>
      </trkpt>
      <trkpt lat="47.2" lon="-1.54363">
        <ele>8.3</ele>
        <time>2015-01-04T10:47:19Z</time>
      </trkpt>
      <trkpt lat="47.19992" lon="-1.54357">
        <ele>8.3</ele>
        <time>2015-01-04T10:47:21Z</time>
      </trkpt>
      <trkpt lat="47.19982" lon="-1.54352">
        <ele>8.3</ele>
        <time>2015-01-04T10:47:23Z</time>
      </trkpt>
      <trkpt lat="47.19964" lon="-1.54339">
        <ele>7.9</ele>
        <time>2015-01-04T10:47:27Z</time>
      </trkpt>
      <trkpt lat="47.19953" lon="-1.54332">
        <ele>7.7</ele>
        <time>2015-01-04T10:47:29Z</time>
      </trkpt>
      <trkpt lat="47.19935" lon="-1.54319">
        <ele>7.7</ele>
        <time>2015-01-04T10:47:33Z</time>
      </trkpt>
      <trkpt lat="47.19915" lon="-1.54305">
        <ele>7.7</ele>
        <time>2015-01-04T10:47:37Z</time>
      </trkpt>
      <trkpt lat="47.19904" lon="-1.54298">
        <ele>7.7</ele>
        <time>2015-01-04T10:47:39Z</time>
      </trkpt>
      <trkpt lat="47.19894" lon="-1.54291">
        <ele>7.8</ele>
        <time>2015-01-04T10:47:41Z</time>
      </trkpt>
      <trkpt lat="47.19885" lon="-1.54285">
        <ele>7.8</ele>
        <time>2015-01-04T10:47:43Z</time>
      </trkpt>
      <trkpt lat="47.19871" lon="-1.54275">
        <ele>7.9</ele>
        <time>2015-01-04T10:47:46Z</time>
      </trkpt>
      <trkpt lat="47.19857" lon="-1.54266">
        <ele>7.9</ele>
        <time>2015-01-04T10:47:49Z</time>
      </trkpt>
      <trkpt lat="47.19843" lon="-1.54254">
        <ele>8</ele>
        <time>2015-01-04T10:47:52Z</time>
      </trkpt>
      <trkpt lat="47.19833" lon="-1.54248">
        <ele>8</ele>
        <time>2015-01-04T10:47:54Z</time>
      </trkpt>
      <trkpt lat="47.19823" lon="-1.54241">
        <ele>8</ele>
        <time>2015-01-04T10:47:56Z</time>
      </trkpt>
      <trkpt lat="47.19811" lon="-1.54232">
        <ele>7.9</ele>
        <time>2015-01-04T10:47:58Z</time>
      </trkpt>
      <trkpt lat="47.19804" lon="-1.54225">
        <ele>7.8</ele>
        <time>2015-01-04T10:48:00Z</time>
      </trkpt>
      <trkpt lat="47.19795" lon="-1.54218">
        <ele>7.6</ele>
        <time>2015-01-04T10:48:03Z</time>
      </trkpt>
      <trkpt lat="47.19786" lon="-1.5421">
        <ele>7.5</ele>
        <time>2015-01-04T10:48:06Z</time>
      </trkpt>
      <trkpt lat="47.19777" lon="-1.54204">
        <ele>7.4</ele>
        <time>2015-01-04T10:48:09Z</time>
      </trkpt>
      <trkpt lat="47.19772" lon="-1.54209">
        <ele>7.3</ele>
        <time>2015-01-04T10:48:15Z</time>
      </trkpt>
      <trkpt lat="47.19768" lon="-1.54214">
        <ele>7.4</ele>
        <time>2015-01-04T10:48:17Z</time>
      </trkpt>
      <trkpt lat="47.19763" lon="-1.54219">
        <ele>7.4</ele>
        <time>2015-01-04T10:48:19Z</time>
      </trkpt>
      <trkpt lat="47.19757" lon="-1.54223">
        <ele>7.4</ele>
        <time>2015-01-04T10:48:21Z</time>
      </trkpt>
      <trkpt lat="47.1975" lon="-1.54232">
        <ele>7.5</ele>
        <time>2015-01-04T10:48:24Z</time>
      </trkpt>
      <trkpt lat="47.1974" lon="-1.54246">
        <ele>7.5</ele>
        <time>2015-01-04T10:48:28Z</time>
      </trkpt>
      <trkpt lat="47.19735" lon="-1.54251">
        <ele>7.5</ele>
        <time>2015-01-04T10:48:30Z</time>
      </trkpt>
      <trkpt lat="47.19729" lon="-1.54256">
        <ele>7.5</ele>
        <time>2015-01-04T10:48:32Z</time>
      </trkpt>
      <trkpt lat="47.19722" lon="-1.5426">
        <ele>7.5</ele>
        <time>2015-01-04T10:48:34Z</time>
      </trkpt>
      <trkpt lat="47.19712" lon="-1.54267">
        <ele>7.5</ele>
        <time>2015-01-04T10:48:37Z</time>
      </trkpt>
      <trkpt lat="47.19705" lon="-1.54274">
        <ele>7.2</ele>
        <time>2015-01-04T10:48:40Z</time>
      </trkpt>
      <trkpt lat="47.19699" lon="-1.54277">
        <ele>7.1</ele>
        <time>2015-01-04T10:48:42Z</time>
      </trkpt>
      <trkpt lat="47.19696" lon="-1.54283">
        <ele>7.1</ele>
        <time>2015-01-04T10:48:45Z</time>
      </trkpt>
      <trkpt lat="47.19691" lon="-1.54284">
        <ele>6.7</ele>
        <time>2015-01-04T10:48:50Z</time>
      </trkpt>
      <trkpt lat="47.1968" lon="-1.54288">
        <ele>6.5</ele>
        <time>2015-01-04T10:48:57Z</time>
      </trkpt>
      <trkpt lat="47.19668" lon="-1.543">
        <ele>6.5</ele>
        <time>2015-01-04T10:49:01Z</time>
      </trkpt>
      <trkpt lat="47.19655" lon="-1.54311">
        <ele>6.4</ele>
        <time>2015-01-04T10:49:04Z</time>
      </trkpt>
      <trkpt lat="47.19646" lon="-1.54319">
        <ele>6.3</ele>
        <time>2015-01-04T10:49:07Z</time>
      </trkpt>
      <trkpt lat="47.19634" lon="-1.54332">
        <ele>6.3</ele>
        <time>2015-01-04T10:49:11Z</time>
      </trkpt>
      <trkpt lat="47.19622" lon="-1.54349">
        <ele>6</ele>
        <time>2015-01-04T10:49:15Z</time>
      </trkpt>
      <trkpt lat="47.19612" lon="-1.54358">
        <ele>5.9</ele>
        <time>2015-01-04T10:49:19Z</time>
      </trkpt>
      <trkpt lat="47.196" lon="-1.5437">
        <ele>5.9</ele>
        <time>2015-01-04T10:49:23Z</time>
      </trkpt>
      <trkpt lat="47.19591" lon="-1.54378">
        <ele>5.9</ele>
        <time>2015-01-04T10:49:26Z</time>
      </trkpt>
      <trkpt lat="47.19579" lon="-1.54389">
        <ele>6</ele>
        <time>2015-01-04T10:49:30Z</time>
      </trkpt>
      <trkpt lat="47.19569" lon="-1.54398">
        <ele>6.1</ele>
        <time>2015-01-04T10:49:33Z</time>
      </trkpt>
      <trkpt lat="47.19555" lon="-1.5441">
        <ele>6.1</ele>
        <time>2015-01-04T10:49:37Z</time>
      </trkpt>
      <trkpt lat="47.19544" lon="-1.54416">
        <ele>6.3</ele>
        <time>2015-01-04T10:49:40Z</time>
      </trkpt>
      <trkpt lat="47.19534" lon="-1.54425">
        <ele>6.4</ele>
        <time>2015-01-04T10:49:43Z</time>
      </trkpt>
      <trkpt lat="47.1952" lon="-1.54437">
        <ele>6.5</ele>
        <time>2015-01-04T10:49:47Z</time>
      </trkpt>
      <trkpt lat="47.19509" lon="-1.54445">
        <ele>6.6</ele>
        <time>2015-01-04T10:49:50Z</time>
      </trkpt>
      <trkpt lat="47.19499" lon="-1.54453">
        <ele>6.6</ele>
        <time>2015-01-04T10:49:53Z</time>
      </trkpt>
      <trkpt lat="47.19486" lon="-1.54465">
        <ele>6.6</ele>
        <time>2015-01-04T10:49:57Z</time>
      </trkpt>
      <trkpt lat="47.19472" lon="-1.54476">
        <ele>6.6</ele>
        <time>2015-01-04T10:50:01Z</time>
      </trkpt>
      <trkpt lat="47.19462" lon="-1.54481">
        <ele>6.7</ele>
        <time>2015-01-04T10:50:05Z</time>
      </trkpt>
      <trkpt lat="47.19463" lon="-1.54482">
        <ele>9.3</ele>
        <time>2015-01-04T10:50:09Z</time>
      </trkpt>
      <trkpt lat="47.19463" lon="-1.54482">
        <ele>8</ele>
        <time>2015-01-04T10:50:09Z</time>
      </trkpt>
      <trkpt lat="47.19463" lon="-1.54482">
        <ele>8</ele>
        <time>2015-01-04T10:51:42Z</time>
      </trkpt>
      <trkpt lat="47.19454" lon="-1.54498">
        <ele>10.4</ele>
        <time>2015-01-04T10:51:43Z</time>
      </trkpt>
      <trkpt lat="47.19443" lon="-1.54514">
        <ele>10.7</ele>
        <time>2015-01-04T10:51:47Z</time>
      </trkpt>
      <trkpt lat="47.19434" lon="-1.54529">
        <ele>10.9</ele>
        <time>2015-01-04T10:51:51Z</time>
      </trkpt>
      <trkpt lat="47.19424" lon="-1.54547">
        <ele>11.3</ele>
        <time>2015-01-04T10:51:56Z</time>
      </trkpt>
      <trkpt lat="47.1942" lon="-1.54559">
        <ele>11.5</ele>
        <time>2015-01-04T10:51:59Z</time>
      </trkpt>
      <trkpt lat="47.19411" lon="-1.54571">
        <ele>11.7</ele>
        <time>2015-01-04T10:52:03Z</time>
      </trkpt>
      <trkpt lat="47.19403" lon="-1.54583">
        <ele>11.8</ele>
        <time>2015-01-04T10:52:07Z</time>
      </trkpt>
      <trkpt lat="47.19389" lon="-1.54591">
        <ele>11.8</ele>
        <time>2015-01-04T10:52:11Z</time>
      </trkpt>
      <trkpt lat="47.19381" lon="-1.54597">
        <ele>11.8</ele>
        <time>2015-01-04T10:52:13Z</time>
      </trkpt>
      <trkpt lat="47.19373" lon="-1.54607">
        <ele>11.8</ele>
        <time>2015-01-04T10:52:15Z</time>
      </trkpt>
      <trkpt lat="47.19359" lon="-1.54623">
        <ele>11.7</ele>
        <time>2015-01-04T10:52:19Z</time>
      </trkpt>
      <trkpt lat="47.19348" lon="-1.54636">
        <ele>11.7</ele>
        <time>2015-01-04T10:52:22Z</time>
      </trkpt>
      <trkpt lat="47.19336" lon="-1.54647">
        <ele>11.8</ele>
        <time>2015-01-04T10:52:25Z</time>
      </trkpt>
      <trkpt lat="47.19325" lon="-1.5466">
        <ele>11.8</ele>
        <time>2015-01-04T10:52:28Z</time>
      </trkpt>
      <trkpt lat="47.19314" lon="-1.54672">
        <ele>11.9</ele>
        <time>2015-01-04T10:52:31Z</time>
      </trkpt>
      <trkpt lat="47.19302" lon="-1.5469">
        <ele>11.9</ele>
        <time>2015-01-04T10:52:35Z</time>
      </trkpt>
      <trkpt lat="47.19289" lon="-1.54707">
        <ele>11.9</ele>
        <time>2015-01-04T10:52:39Z</time>
      </trkpt>
      <trkpt lat="47.19279" lon="-1.54723">
        <ele>11.9</ele>
        <time>2015-01-04T10:52:42Z</time>
      </trkpt>
      <trkpt lat="47.19255" lon="-1.54738">
        <ele>11.9</ele>
        <time>2015-01-04T10:52:48Z</time>
      </trkpt>
      <trkpt lat="47.19245" lon="-1.54748">
        <ele>11.9</ele>
        <time>2015-01-04T10:52:51Z</time>
      </trkpt>
      <trkpt lat="47.19232" lon="-1.54761">
        <ele>11.9</ele>
        <time>2015-01-04T10:52:56Z</time>
      </trkpt>
      <trkpt lat="47.19218" lon="-1.54773">
        <ele>11.5</ele>
        <time>2015-01-04T10:53:01Z</time>
      </trkpt>
      <trkpt lat="47.19207" lon="-1.54782">
        <ele>11.3</ele>
        <time>2015-01-04T10:53:04Z</time>
      </trkpt>
      <trkpt lat="47.19192" lon="-1.54796">
        <ele>10.9</ele>
        <time>2015-01-04T10:53:07Z</time>
      </trkpt>
      <trkpt lat="47.19185" lon="-1.5481">
        <ele>10.6</ele>
        <time>2015-01-04T10:53:12Z</time>
      </trkpt>
      <trkpt lat="47.19179" lon="-1.54828">
        <ele>11.2</ele>
        <time>2015-01-04T10:53:16Z</time>
      </trkpt>
      <trkpt lat="47.19174" lon="-1.54849">
        <ele>11.4</ele>
        <time>2015-01-04T10:53:18Z</time>
      </trkpt>
      <trkpt lat="47.19169" lon="-1.54867">
        <ele>11.8</ele>
        <time>2015-01-04T10:53:23Z</time>
      </trkpt>
      <trkpt lat="47.19163" lon="-1.54883">
        <ele>12</ele>
        <time>2015-01-04T10:53:28Z</time>
      </trkpt>
      <trkpt lat="47.19156" lon="-1.54905">
        <ele>12.6</ele>
        <time>2015-01-04T10:53:32Z</time>
      </trkpt>
      <trkpt lat="47.19153" lon="-1.54918">
        <ele>13.3</ele>
        <time>2015-01-04T10:53:37Z</time>
      </trkpt>
      <trkpt lat="47.19144" lon="-1.54934">
        <ele>14.2</ele>
        <time>2015-01-04T10:53:41Z</time>
      </trkpt>
      <trkpt lat="47.19135" lon="-1.54951">
        <ele>15</ele>
        <time>2015-01-04T10:53:45Z</time>
      </trkpt>
      <trkpt lat="47.19124" lon="-1.5497">
        <ele>15.4</ele>
        <time>2015-01-04T10:53:50Z</time>
      </trkpt>
      <trkpt lat="47.19114" lon="-1.54987">
        <ele>15.5</ele>
        <time>2015-01-04T10:53:53Z</time>
      </trkpt>
      <trkpt lat="47.19104" lon="-1.55003">
        <ele>15.5</ele>
        <time>2015-01-04T10:53:56Z</time>
      </trkpt>
      <trkpt lat="47.19092" lon="-1.55018">
        <ele>15.5</ele>
        <time>2015-01-04T10:53:59Z</time>
      </trkpt>
      <trkpt lat="47.19081" lon="-1.5503">
        <ele>15.5</ele>
        <time>2015-01-04T10:54:03Z</time>
      </trkpt>
      <trkpt lat="47.1907" lon="-1.5504">
        <ele>15.6</ele>
        <time>2015-01-04T10:54:08Z</time>
      </trkpt>
      <trkpt lat="47.19057" lon="-1.5505">
        <ele>15.7</ele>
        <time>2015-01-04T10:54:09Z</time>
      </trkpt>
      <trkpt lat="47.19044" lon="-1.5506">
        <ele>15.9</ele>
        <time>2015-01-04T10:54:13Z</time>
      </trkpt>
      <trkpt lat="47.1903" lon="-1.55069">
        <ele>15.9</ele>
        <time>2015-01-04T10:54:16Z</time>
      </trkpt>
      <trkpt lat="47.19018" lon="-1.55078">
        <ele>15.7</ele>
        <time>2015-01-04T10:54:19Z</time>
      </trkpt>
      <trkpt lat="47.19007" lon="-1.55085">
        <ele>15.6</ele>
        <time>2015-01-04T10:54:24Z</time>
      </trkpt>
      <trkpt lat="47.18992" lon="-1.5509">
        <ele>15.6</ele>
        <time>2015-01-04T10:54:25Z</time>
      </trkpt>
      <trkpt lat="47.18986" lon="-1.5509">
        <ele>14.8</ele>
        <time>2015-01-04T10:54:37Z</time>
      </trkpt>
      <trkpt lat="47.18976" lon="-1.55094">
        <ele>14.5</ele>
        <time>2015-01-04T10:54:40Z</time>
      </trkpt>
      <trkpt lat="47.18964" lon="-1.55097">
        <ele>14.5</ele>
        <time>2015-01-04T10:54:43Z</time>
      </trkpt>
      <trkpt lat="47.18952" lon="-1.55101">
        <ele>14.4</ele>
        <time>2015-01-04T10:54:46Z</time>
      </trkpt>
      <trkpt lat="47.18938" lon="-1.55106">
        <ele>14.2</ele>
        <time>2015-01-04T10:54:49Z</time>
      </trkpt>
      <trkpt lat="47.18928" lon="-1.55111">
        <ele>13.9</ele>
        <time>2015-01-04T10:54:52Z</time>
      </trkpt>
      <trkpt lat="47.18912" lon="-1.55116">
        <ele>13.8</ele>
        <time>2015-01-04T10:54:54Z</time>
      </trkpt>
      <trkpt lat="47.18897" lon="-1.5512">
        <ele>14.1</ele>
        <time>2015-01-04T10:54:58Z</time>
      </trkpt>
      <trkpt lat="47.18878" lon="-1.5513">
        <ele>14.2</ele>
        <time>2015-01-04T10:55:03Z</time>
      </trkpt>
      <trkpt lat="47.18867" lon="-1.55138">
        <ele>13.8</ele>
        <time>2015-01-04T10:55:07Z</time>
      </trkpt>
      <trkpt lat="47.18847" lon="-1.5514">
        <ele>13.7</ele>
        <time>2015-01-04T10:55:12Z</time>
      </trkpt>
      <trkpt lat="47.18836" lon="-1.55143">
        <ele>13.7</ele>
        <time>2015-01-04T10:55:15Z</time>
      </trkpt>
      <trkpt lat="47.18815" lon="-1.55151">
        <ele>13.7</ele>
        <time>2015-01-04T10:55:20Z</time>
      </trkpt>
      <trkpt lat="47.18806" lon="-1.55156">
        <ele>13.8</ele>
        <time>2015-01-04T10:55:22Z</time>
      </trkpt>
      <trkpt lat="47.18791" lon="-1.55163">
        <ele>14</ele>
        <time>2015-01-04T10:55:26Z</time>
      </trkpt>
      <trkpt lat="47.18777" lon="-1.55176">
        <ele>14.2</ele>
        <time>2015-01-04T10:55:30Z</time>
      </trkpt>
      <trkpt lat="47.18768" lon="-1.5518">
        <ele>14.3</ele>
        <time>2015-01-04T10:55:33Z</time>
      </trkpt>
      <trkpt lat="47.18753" lon="-1.55189">
        <ele>14.3</ele>
        <time>2015-01-04T10:55:37Z</time>
      </trkpt>
      <trkpt lat="47.18741" lon="-1.55198">
        <ele>14.4</ele>
        <time>2015-01-04T10:55:40Z</time>
      </trkpt>
      <trkpt lat="47.18729" lon="-1.55208">
        <ele>14.5</ele>
        <time>2015-01-04T10:55:43Z</time>
      </trkpt>
      <trkpt lat="47.18717" lon="-1.55219">
        <ele>14.5</ele>
        <time>2015-01-04T10:55:46Z</time>
      </trkpt>
      <trkpt lat="47.18703" lon="-1.55231">
        <ele>14.5</ele>
        <time>2015-01-04T10:55:49Z</time>
      </trkpt>
      <trkpt lat="47.18688" lon="-1.55239">
        <ele>14.5</ele>
        <time>2015-01-04T10:55:52Z</time>
      </trkpt>
      <trkpt lat="47.18678" lon="-1.55247">
        <ele>14.5</ele>
        <time>2015-01-04T10:55:54Z</time>
      </trkpt>
      <trkpt lat="47.18669" lon="-1.55253">
        <ele>14.5</ele>
        <time>2015-01-04T10:55:56Z</time>
      </trkpt>
      <trkpt lat="47.18656" lon="-1.55262">
        <ele>14.2</ele>
        <time>2015-01-04T10:55:59Z</time>
      </trkpt>
      <trkpt lat="47.18636" lon="-1.55275">
        <ele>13.7</ele>
        <time>2015-01-04T10:56:04Z</time>
      </trkpt>
      <trkpt lat="47.18624" lon="-1.5528">
        <ele>13.7</ele>
        <time>2015-01-04T10:56:06Z</time>
      </trkpt>
      <trkpt lat="47.18616" lon="-1.55287">
        <ele>13.7</ele>
        <time>2015-01-04T10:56:09Z</time>
      </trkpt>
      <trkpt lat="47.18608" lon="-1.55293">
        <ele>13.7</ele>
        <time>2015-01-04T10:56:11Z</time>
      </trkpt>
      <trkpt lat="47.18587" lon="-1.55305">
        <ele>13.5</ele>
        <time>2015-01-04T10:56:16Z</time>
      </trkpt>
      <trkpt lat="47.1857" lon="-1.55317">
        <ele>13.1</ele>
        <time>2015-01-04T10:56:21Z</time>
      </trkpt>
      <trkpt lat="47.18564" lon="-1.55329">
        <ele>13</ele>
        <time>2015-01-04T10:56:24Z</time>
      </trkpt>
      <trkpt lat="47.18564" lon="-1.55351">
        <ele>13</ele>
        <time>2015-01-04T10:56:27Z</time>
      </trkpt>
      <trkpt lat="47.1855" lon="-1.55365">
        <ele>13</ele>
        <time>2015-01-04T10:56:31Z</time>
      </trkpt>
      <trkpt lat="47.18526" lon="-1.55375">
        <ele>13</ele>
        <time>2015-01-04T10:56:36Z</time>
      </trkpt>
      <trkpt lat="47.18513" lon="-1.55393">
        <ele>13</ele>
        <time>2015-01-04T10:56:40Z</time>
      </trkpt>
      <trkpt lat="47.185" lon="-1.5541">
        <ele>13.1</ele>
        <time>2015-01-04T10:56:44Z</time>
      </trkpt>
      <trkpt lat="47.18489" lon="-1.55422">
        <ele>13.4</ele>
        <time>2015-01-04T10:56:47Z</time>
      </trkpt>
      <trkpt lat="47.18476" lon="-1.55433">
        <ele>14.2</ele>
        <time>2015-01-04T10:56:50Z</time>
      </trkpt>
      <trkpt lat="47.18463" lon="-1.55443">
        <ele>14.7</ele>
        <time>2015-01-04T10:56:53Z</time>
      </trkpt>
      <trkpt lat="47.18449" lon="-1.55457">
        <ele>14.9</ele>
        <time>2015-01-04T10:56:57Z</time>
      </trkpt>
      <trkpt lat="47.18434" lon="-1.5547">
        <ele>15.3</ele>
        <time>2015-01-04T10:57:01Z</time>
      </trkpt>
      <trkpt lat="47.18425" lon="-1.55477">
        <ele>15.5</ele>
        <time>2015-01-04T10:57:03Z</time>
      </trkpt>
      <trkpt lat="47.1841" lon="-1.55492">
        <ele>15.8</ele>
        <time>2015-01-04T10:57:07Z</time>
      </trkpt>
      <trkpt lat="47.18387" lon="-1.55511">
        <ele>15.8</ele>
        <time>2015-01-04T10:57:13Z</time>
      </trkpt>
      <trkpt lat="47.18377" lon="-1.55516">
        <ele>15.9</ele>
        <time>2015-01-04T10:57:15Z</time>
      </trkpt>
      <trkpt lat="47.18367" lon="-1.55522">
        <ele>15.9</ele>
        <time>2015-01-04T10:57:17Z</time>
      </trkpt>
      <trkpt lat="47.18342" lon="-1.5554">
        <ele>15.9</ele>
        <time>2015-01-04T10:57:22Z</time>
      </trkpt>
      <trkpt lat="47.18332" lon="-1.55546">
        <ele>15.9</ele>
        <time>2015-01-04T10:57:24Z</time>
      </trkpt>
      <trkpt lat="47.18325" lon="-1.55549">
        <ele>15.9</ele>
        <time>2015-01-04T10:57:25Z</time>
      </trkpt>
      <trkpt lat="47.18321" lon="-1.55551">
        <ele>15.9</ele>
        <time>2015-01-04T10:57:26Z</time>
      </trkpt>
      <trkpt lat="47.18316" lon="-1.55553">
        <ele>15.9</ele>
        <time>2015-01-04T10:57:27Z</time>
      </trkpt>
      <trkpt lat="47.1831" lon="-1.55555">
        <ele>15.9</ele>
        <time>2015-01-04T10:57:28Z</time>
      </trkpt>
      <trkpt lat="47.18297" lon="-1.55558">
        <ele>15.9</ele>
        <time>2015-01-04T10:57:30Z</time>
      </trkpt>
      <trkpt lat="47.18286" lon="-1.55562">
        <ele>15.9</ele>
        <time>2015-01-04T10:57:32Z</time>
      </trkpt>
      <trkpt lat="47.18276" lon="-1.55568">
        <ele>16</ele>
        <time>2015-01-04T10:57:34Z</time>
      </trkpt>
      <trkpt lat="47.18264" lon="-1.55575">
        <ele>16</ele>
        <time>2015-01-04T10:57:36Z</time>
      </trkpt>
      <trkpt lat="47.18253" lon="-1.55586">
        <ele>16.1</ele>
        <time>2015-01-04T10:57:38Z</time>
      </trkpt>
      <trkpt lat="47.18235" lon="-1.55595">
        <ele>16.2</ele>
        <time>2015-01-04T10:57:41Z</time>
      </trkpt>
      <trkpt lat="47.18209" lon="-1.55606">
        <ele>16.3</ele>
        <time>2015-01-04T10:57:45Z</time>
      </trkpt>
      <trkpt lat="47.18187" lon="-1.55616">
        <ele>16.3</ele>
        <time>2015-01-04T10:57:48Z</time>
      </trkpt>
      <trkpt lat="47.18175" lon="-1.55624">
        <ele>16.3</ele>
        <time>2015-01-04T10:57:50Z</time>
      </trkpt>
      <trkpt lat="47.18163" lon="-1.55632">
        <ele>16.3</ele>
        <time>2015-01-04T10:57:52Z</time>
      </trkpt>
      <trkpt lat="47.18152" lon="-1.55639">
        <ele>16.3</ele>
        <time>2015-01-04T10:57:54Z</time>
      </trkpt>
      <trkpt lat="47.18143" lon="-1.55646">
        <ele>16.3</ele>
        <time>2015-01-04T10:57:56Z</time>
      </trkpt>
      <trkpt lat="47.18127" lon="-1.5566">
        <ele>16.5</ele>
        <time>2015-01-04T10:57:59Z</time>
      </trkpt>
      <trkpt lat="47.18111" lon="-1.55678">
        <ele>16.8</ele>
        <time>2015-01-04T10:58:02Z</time>
      </trkpt>
      <trkpt lat="47.18101" lon="-1.55692">
        <ele>18.8</ele>
        <time>2015-01-04T10:58:04Z</time>
      </trkpt>
      <trkpt lat="47.18086" lon="-1.55708">
        <ele>19.5</ele>
        <time>2015-01-04T10:58:07Z</time>
      </trkpt>
      <trkpt lat="47.18072" lon="-1.55722">
        <ele>20.1</ele>
        <time>2015-01-04T10:58:10Z</time>
      </trkpt>
      <trkpt lat="47.1806" lon="-1.55737">
        <ele>20.2</ele>
        <time>2015-01-04T10:58:13Z</time>
      </trkpt>
      <trkpt lat="47.18047" lon="-1.55756">
        <ele>20.8</ele>
        <time>2015-01-04T10:58:16Z</time>
      </trkpt>
      <trkpt lat="47.18034" lon="-1.55775">
        <ele>22.3</ele>
        <time>2015-01-04T10:58:19Z</time>
      </trkpt>
      <trkpt lat="47.18023" lon="-1.5579">
        <ele>22.7</ele>
        <time>2015-01-04T10:58:22Z</time>
      </trkpt>
      <trkpt lat="47.18012" lon="-1.55806">
        <ele>23.2</ele>
        <time>2015-01-04T10:58:25Z</time>
      </trkpt>
      <trkpt lat="47.18001" lon="-1.55821">
        <ele>25.8</ele>
        <time>2015-01-04T10:58:28Z</time>
      </trkpt>
      <trkpt lat="47.1799" lon="-1.55839">
        <ele>28.5</ele>
        <time>2015-01-04T10:58:32Z</time>
      </trkpt>
      <trkpt lat="47.17983" lon="-1.55851">
        <ele>29.2</ele>
        <time>2015-01-04T10:58:36Z</time>
      </trkpt>
      <trkpt lat="47.17983" lon="-1.55856">
        <ele>29.4</ele>
        <time>2015-01-04T10:58:38Z</time>
      </trkpt>
      <trkpt lat="47.17983" lon="-1.55857">
        <ele>28.7</ele>
        <time>2015-01-04T10:58:42Z</time>
      </trkpt>
      <trkpt lat="47.17983" lon="-1.55857">
        <ele>30</ele>
        <time>2015-01-04T10:58:42Z</time>
      </trkpt>
      <trkpt lat="47.17983" lon="-1.55857">
        <ele>30</ele>
        <time>2015-01-04T11:02:46Z</time>
      </trkpt>
      <trkpt lat="47.17974" lon="-1.55869">
        <ele>28.5</ele>
        <time>2015-01-04T11:02:47Z</time>
      </trkpt>
      <trkpt lat="47.17963" lon="-1.55871">
        <ele>28.7</ele>
        <time>2015-01-04T11:02:50Z</time>
      </trkpt>
      <trkpt lat="47.17953" lon="-1.55879">
        <ele>28.7</ele>
        <time>2015-01-04T11:02:53Z</time>
      </trkpt>
      <trkpt lat="47.17942" lon="-1.55896">
        <ele>28.8</ele>
        <time>2015-01-04T11:02:57Z</time>
      </trkpt>
      <trkpt lat="47.1793" lon="-1.55913">
        <ele>29</ele>
        <time>2015-01-04T11:03:01Z</time>
      </trkpt>
      <trkpt lat="47.17917" lon="-1.55931">
        <ele>29.1</ele>
        <time>2015-01-04T11:03:05Z</time>
      </trkpt>
      <trkpt lat="47.17906" lon="-1.55943">
        <ele>29.3</ele>
        <time>2015-01-04T11:03:09Z</time>
      </trkpt>
      <trkpt lat="47.17898" lon="-1.55952">
        <ele>29.8</ele>
        <time>2015-01-04T11:03:12Z</time>
      </trkpt>
      <trkpt lat="47.17881" lon="-1.55949">
        <ele>30.9</ele>
        <time>2015-01-04T11:03:17Z</time>
      </trkpt>
      <trkpt lat="47.17865" lon="-1.55942">
        <ele>32.2</ele>
        <time>2015-01-04T11:03:21Z</time>
      </trkpt>
      <trkpt lat="47.17844" lon="-1.55931">
        <ele>36.1</ele>
        <time>2015-01-04T11:03:25Z</time>
      </trkpt>
      <trkpt lat="47.17824" lon="-1.55926">
        <ele>36.8</ele>
        <time>2015-01-04T11:03:29Z</time>
      </trkpt>
      <trkpt lat="47.17814" lon="-1.55921">
        <ele>37</ele>
        <time>2015-01-04T11:03:31Z</time>
      </trkpt>
      <trkpt lat="47.17804" lon="-1.55916">
        <ele>37.3</ele>
        <time>2015-01-04T11:03:33Z</time>
      </trkpt>
      <trkpt lat="47.17796" lon="-1.5591">
        <ele>37.4</ele>
        <time>2015-01-04T11:03:35Z</time>
      </trkpt>
      <trkpt lat="47.17787" lon="-1.55903">
        <ele>37.4</ele>
        <time>2015-01-04T11:03:37Z</time>
      </trkpt>
      <trkpt lat="47.17778" lon="-1.55897">
        <ele>37.6</ele>
        <time>2015-01-04T11:03:39Z</time>
      </trkpt>
      <trkpt lat="47.17767" lon="-1.55886">
        <ele>37.6</ele>
        <time>2015-01-04T11:03:42Z</time>
      </trkpt>
      <trkpt lat="47.17754" lon="-1.55877">
        <ele>37.7</ele>
        <time>2015-01-04T11:03:45Z</time>
      </trkpt>
      <trkpt lat="47.17746" lon="-1.55868">
        <ele>38</ele>
        <time>2015-01-04T11:03:47Z</time>
      </trkpt>
      <trkpt lat="47.17736" lon="-1.55861">
        <ele>38.1</ele>
        <time>2015-01-04T11:03:49Z</time>
      </trkpt>
      <trkpt lat="47.17723" lon="-1.55852">
        <ele>38.2</ele>
        <time>2015-01-04T11:03:52Z</time>
      </trkpt>
      <trkpt lat="47.17704" lon="-1.5583">
        <ele>38.6</ele>
        <time>2015-01-04T11:03:57Z</time>
      </trkpt>
      <trkpt lat="47.17691" lon="-1.55818">
        <ele>39.5</ele>
        <time>2015-01-04T11:04:00Z</time>
      </trkpt>
      <trkpt lat="47.17676" lon="-1.55803">
        <ele>40</ele>
        <time>2015-01-04T11:04:03Z</time>
      </trkpt>
      <trkpt lat="47.17664" lon="-1.55792">
        <ele>41.6</ele>
        <time>2015-01-04T11:04:06Z</time>
      </trkpt>
      <trkpt lat="47.17649" lon="-1.55779">
        <ele>42.6</ele>
        <time>2015-01-04T11:04:09Z</time>
      </trkpt>
      <trkpt lat="47.17635" lon="-1.55768">
        <ele>43.1</ele>
        <time>2015-01-04T11:04:12Z</time>
      </trkpt>
      <trkpt lat="47.1762" lon="-1.55756">
        <ele>43.3</ele>
        <time>2015-01-04T11:04:15Z</time>
      </trkpt>
      <trkpt lat="47.17608" lon="-1.55741">
        <ele>43.7</ele>
        <time>2015-01-04T11:04:18Z</time>
      </trkpt>
      <trkpt lat="47.17594" lon="-1.55732">
        <ele>44</ele>
        <time>2015-01-04T11:04:21Z</time>
      </trkpt>
      <trkpt lat="47.17573" lon="-1.55715">
        <ele>44.6</ele>
        <time>2015-01-04T11:04:25Z</time>
      </trkpt>
      <trkpt lat="47.17557" lon="-1.557">
        <ele>44.9</ele>
        <time>2015-01-04T11:04:28Z</time>
      </trkpt>
      <trkpt lat="47.1754" lon="-1.55685">
        <ele>45</ele>
        <time>2015-01-04T11:04:31Z</time>
      </trkpt>
      <trkpt lat="47.17526" lon="-1.5567">
        <ele>45.1</ele>
        <time>2015-01-04T11:04:34Z</time>
      </trkpt>
      <trkpt lat="47.1751" lon="-1.55657">
        <ele>45.1</ele>
        <time>2015-01-04T11:04:37Z</time>
      </trkpt>
      <trkpt lat="47.17495" lon="-1.55644">
        <ele>45.2</ele>
        <time>2015-01-04T11:04:40Z</time>
      </trkpt>
      <trkpt lat="47.17479" lon="-1.55632">
        <ele>45.3</ele>
        <time>2015-01-04T11:04:43Z</time>
      </trkpt>
      <trkpt lat="47.17463" lon="-1.55618">
        <ele>45.3</ele>
        <time>2015-01-04T11:04:46Z</time>
      </trkpt>
      <trkpt lat="47.17451" lon="-1.55609">
        <ele>45.1</ele>
        <time>2015-01-04T11:04:48Z</time>
      </trkpt>
      <trkpt lat="47.1744" lon="-1.55598">
        <ele>45.1</ele>
        <time>2015-01-04T11:04:50Z</time>
      </trkpt>
      <trkpt lat="47.17425" lon="-1.55585">
        <ele>45.1</ele>
        <time>2015-01-04T11:04:53Z</time>
      </trkpt>
      <trkpt lat="47.1741" lon="-1.5557">
        <ele>45.1</ele>
        <time>2015-01-04T11:04:56Z</time>
      </trkpt>
      <trkpt lat="47.17398" lon="-1.55547">
        <ele>45.3</ele>
        <time>2015-01-04T11:04:59Z</time>
      </trkpt>
      <trkpt lat="47.17383" lon="-1.55533">
        <ele>45.3</ele>
        <time>2015-01-04T11:05:02Z</time>
      </trkpt>
      <trkpt lat="47.17371" lon="-1.55523">
        <ele>45.1</ele>
        <time>2015-01-04T11:05:04Z</time>
      </trkpt>
      <trkpt lat="47.17356" lon="-1.55509">
        <ele>45</ele>
        <time>2015-01-04T11:05:07Z</time>
      </trkpt>
      <trkpt lat="47.17341" lon="-1.55496">
        <ele>45</ele>
        <time>2015-01-04T11:05:10Z</time>
      </trkpt>
      <trkpt lat="47.17332" lon="-1.555">
        <ele>45</ele>
        <time>2015-01-04T11:05:11Z</time>
      </trkpt>
      <trkpt lat="47.17324" lon="-1.5548">
        <ele>45.3</ele>
        <time>2015-01-04T11:05:14Z</time>
      </trkpt>
      <trkpt lat="47.17303" lon="-1.55474">
        <ele>45.2</ele>
        <time>2015-01-04T11:05:22Z</time>
      </trkpt>
      <trkpt lat="47.17293" lon="-1.55453">
        <ele>44.7</ele>
        <time>2015-01-04T11:05:25Z</time>
      </trkpt>
      <trkpt lat="47.17278" lon="-1.5544">
        <ele>44.4</ele>
        <time>2015-01-04T11:05:28Z</time>
      </trkpt>
      <trkpt lat="47.17263" lon="-1.55426">
        <ele>43.7</ele>
        <time>2015-01-04T11:05:31Z</time>
      </trkpt>
      <trkpt lat="47.17248" lon="-1.55411">
        <ele>43.9</ele>
        <time>2015-01-04T11:05:34Z</time>
      </trkpt>
      <trkpt lat="47.17232" lon="-1.55396">
        <ele>44</ele>
        <time>2015-01-04T11:05:37Z</time>
      </trkpt>
      <trkpt lat="47.17215" lon="-1.55381">
        <ele>43.6</ele>
        <time>2015-01-04T11:05:40Z</time>
      </trkpt>
      <trkpt lat="47.17192" lon="-1.55359">
        <ele>43</ele>
        <time>2015-01-04T11:05:44Z</time>
      </trkpt>
      <trkpt lat="47.17175" lon="-1.55344">
        <ele>42.9</ele>
        <time>2015-01-04T11:05:47Z</time>
      </trkpt>
      <trkpt lat="47.17163" lon="-1.55333">
        <ele>42.9</ele>
        <time>2015-01-04T11:05:49Z</time>
      </trkpt>
      <trkpt lat="47.17152" lon="-1.55322">
        <ele>42.9</ele>
        <time>2015-01-04T11:05:51Z</time>
      </trkpt>
      <trkpt lat="47.1714" lon="-1.55312">
        <ele>42.8</ele>
        <time>2015-01-04T11:05:53Z</time>
      </trkpt>
      <trkpt lat="47.17127" lon="-1.55301">
        <ele>42.8</ele>
        <time>2015-01-04T11:05:55Z</time>
      </trkpt>
      <trkpt lat="47.17099" lon="-1.5528">
        <ele>42.6</ele>
        <time>2015-01-04T11:05:59Z</time>
      </trkpt>
      <trkpt lat="47.17086" lon="-1.5527">
        <ele>42.3</ele>
        <time>2015-01-04T11:06:01Z</time>
      </trkpt>
      <trkpt lat="47.17061" lon="-1.55248">
        <ele>42.3</ele>
        <time>2015-01-04T11:06:05Z</time>
      </trkpt>
      <trkpt lat="47.17042" lon="-1.5523">
        <ele>42</ele>
        <time>2015-01-04T11:06:08Z</time>
      </trkpt>
      <trkpt lat="47.1703" lon="-1.55219">
        <ele>41.8</ele>
        <time>2015-01-04T11:06:10Z</time>
      </trkpt>
      <trkpt lat="47.17018" lon="-1.55208">
        <ele>41.8</ele>
        <time>2015-01-04T11:06:12Z</time>
      </trkpt>
      <trkpt lat="47.17005" lon="-1.55196">
        <ele>41.8</ele>
        <time>2015-01-04T11:06:14Z</time>
      </trkpt>
      <trkpt lat="47.16993" lon="-1.55184">
        <ele>41.7</ele>
        <time>2015-01-04T11:06:16Z</time>
      </trkpt>
      <trkpt lat="47.16979" lon="-1.55172">
        <ele>41.7</ele>
        <time>2015-01-04T11:06:18Z</time>
      </trkpt>
      <trkpt lat="47.16967" lon="-1.5516">
        <ele>41.7</ele>
        <time>2015-01-04T11:06:20Z</time>
      </trkpt>
      <trkpt lat="47.1695" lon="-1.55145">
        <ele>41.8</ele>
        <time>2015-01-04T11:06:23Z</time>
      </trkpt>
      <trkpt lat="47.16938" lon="-1.55134">
        <ele>41.9</ele>
        <time>2015-01-04T11:06:25Z</time>
      </trkpt>
      <trkpt lat="47.16922" lon="-1.55129">
        <ele>42</ele>
        <time>2015-01-04T11:06:27Z</time>
      </trkpt>
      <trkpt lat="47.16898" lon="-1.5513">
        <ele>42</ele>
        <time>2015-01-04T11:06:30Z</time>
      </trkpt>
      <trkpt lat="47.16877" lon="-1.5514">
        <ele>42</ele>
        <time>2015-01-04T11:06:33Z</time>
      </trkpt>
      <trkpt lat="47.16861" lon="-1.55148">
        <ele>42.5</ele>
        <time>2015-01-04T11:06:35Z</time>
      </trkpt>
      <trkpt lat="47.16846" lon="-1.55155">
        <ele>42.7</ele>
        <time>2015-01-04T11:06:37Z</time>
      </trkpt>
      <trkpt lat="47.16832" lon="-1.55161">
        <ele>42.8</ele>
        <time>2015-01-04T11:06:39Z</time>
      </trkpt>
      <trkpt lat="47.16809" lon="-1.55172">
        <ele>42.9</ele>
        <time>2015-01-04T11:06:42Z</time>
      </trkpt>
      <trkpt lat="47.16795" lon="-1.55178">
        <ele>44.1</ele>
        <time>2015-01-04T11:06:44Z</time>
      </trkpt>
      <trkpt lat="47.1678" lon="-1.55185">
        <ele>44.8</ele>
        <time>2015-01-04T11:06:46Z</time>
      </trkpt>
      <trkpt lat="47.16761" lon="-1.55194">
        <ele>45.2</ele>
        <time>2015-01-04T11:06:49Z</time>
      </trkpt>
      <trkpt lat="47.16736" lon="-1.55205">
        <ele>45.7</ele>
        <time>2015-01-04T11:06:53Z</time>
      </trkpt>
      <trkpt lat="47.16718" lon="-1.55212">
        <ele>45.8</ele>
        <time>2015-01-04T11:06:57Z</time>
      </trkpt>
      <trkpt lat="47.16697" lon="-1.5521">
        <ele>45.8</ele>
        <time>2015-01-04T11:06:59Z</time>
      </trkpt>
      <trkpt lat="47.16686" lon="-1.55206">
        <ele>46.6</ele>
        <time>2015-01-04T11:07:01Z</time>
      </trkpt>
      <trkpt lat="47.16681" lon="-1.55202">
        <ele>46.6</ele>
        <time>2015-01-04T11:07:02Z</time>
      </trkpt>
      <trkpt lat="47.1667" lon="-1.55192">
        <ele>46.6</ele>
        <time>2015-01-04T11:07:04Z</time>
      </trkpt>
      <trkpt lat="47.16665" lon="-1.55187">
        <ele>46.6</ele>
        <time>2015-01-04T11:07:05Z</time>
      </trkpt>
      <trkpt lat="47.16648" lon="-1.55186">
        <ele>46.8</ele>
        <time>2015-01-04T11:07:07Z</time>
      </trkpt>
      <trkpt lat="47.16659" lon="-1.55158">
        <ele>46.9</ele>
        <time>2015-01-04T11:07:11Z</time>
      </trkpt>
      <trkpt lat="47.16666" lon="-1.55138">
        <ele>46.9</ele>
        <time>2015-01-04T11:07:14Z</time>
      </trkpt>
      <trkpt lat="47.16671" lon="-1.55114">
        <ele>46.9</ele>
        <time>2015-01-04T11:07:17Z</time>
      </trkpt>
      <trkpt lat="47.16673" lon="-1.55082">
        <ele>46.9</ele>
        <time>2015-01-04T11:07:20Z</time>
      </trkpt>
      <trkpt lat="47.1667" lon="-1.55054">
        <ele>46.9</ele>
        <time>2015-01-04T11:07:23Z</time>
      </trkpt>
      <trkpt lat="47.16666" lon="-1.55034">
        <ele>46.6</ele>
        <time>2015-01-04T11:07:25Z</time>
      </trkpt>
      <trkpt lat="47.16661" lon="-1.55015">
        <ele>46.3</ele>
        <time>2015-01-04T11:07:27Z</time>
      </trkpt>
      <trkpt lat="47.16657" lon="-1.54996">
        <ele>46</ele>
        <time>2015-01-04T11:07:29Z</time>
      </trkpt>
      <trkpt lat="47.16653" lon="-1.54976">
        <ele>45.9</ele>
        <time>2015-01-04T11:07:31Z</time>
      </trkpt>
      <trkpt lat="47.16647" lon="-1.54951">
        <ele>45.7</ele>
        <time>2015-01-04T11:07:34Z</time>
      </trkpt>
      <trkpt lat="47.16638" lon="-1.54936">
        <ele>45.6</ele>
        <time>2015-01-04T11:07:35Z</time>
      </trkpt>
      <trkpt lat="47.16615" lon="-1.54933">
        <ele>45.4</ele>
        <time>2015-01-04T11:07:38Z</time>
      </trkpt>
      <trkpt lat="47.16593" lon="-1.54937">
        <ele>44.5</ele>
        <time>2015-01-04T11:07:42Z</time>
      </trkpt>
      <trkpt lat="47.16582" lon="-1.5494">
        <ele>44.3</ele>
        <time>2015-01-04T11:07:44Z</time>
      </trkpt>
      <trkpt lat="47.16568" lon="-1.54943">
        <ele>41.5</ele>
        <time>2015-01-04T11:07:46Z</time>
      </trkpt>
      <trkpt lat="47.16548" lon="-1.54947">
        <ele>41</ele>
        <time>2015-01-04T11:07:49Z</time>
      </trkpt>
      <trkpt lat="47.16534" lon="-1.54949">
        <ele>40.9</ele>
        <time>2015-01-04T11:07:51Z</time>
      </trkpt>
      <trkpt lat="47.16519" lon="-1.54952">
        <ele>40.9</ele>
        <time>2015-01-04T11:07:53Z</time>
      </trkpt>
      <trkpt lat="47.16505" lon="-1.54955">
        <ele>40.7</ele>
        <time>2015-01-04T11:07:55Z</time>
      </trkpt>
      <trkpt lat="47.16491" lon="-1.54959">
        <ele>40.6</ele>
        <time>2015-01-04T11:07:57Z</time>
      </trkpt>
      <trkpt lat="47.16476" lon="-1.54963">
        <ele>40.4</ele>
        <time>2015-01-04T11:07:59Z</time>
      </trkpt>
      <trkpt lat="47.16462" lon="-1.54969">
        <ele>40.2</ele>
        <time>2015-01-04T11:08:01Z</time>
      </trkpt>
      <trkpt lat="47.1645" lon="-1.54974">
        <ele>39.9</ele>
        <time>2015-01-04T11:08:03Z</time>
      </trkpt>
      <trkpt lat="47.16437" lon="-1.5498">
        <ele>39.2</ele>
        <time>2015-01-04T11:08:05Z</time>
      </trkpt>
      <trkpt lat="47.1643" lon="-1.54983">
        <ele>39.2</ele>
        <time>2015-01-04T11:08:06Z</time>
      </trkpt>
      <trkpt lat="47.16423" lon="-1.54986">
        <ele>39.2</ele>
        <time>2015-01-04T11:08:07Z</time>
      </trkpt>
      <trkpt lat="47.16416" lon="-1.54988">
        <ele>39.2</ele>
        <time>2015-01-04T11:08:08Z</time>
      </trkpt>
      <trkpt lat="47.16404" lon="-1.54991">
        <ele>39.2</ele>
        <time>2015-01-04T11:08:10Z</time>
      </trkpt>
      <trkpt lat="47.16386" lon="-1.54994">
        <ele>38.3</ele>
        <time>2015-01-04T11:08:13Z</time>
      </trkpt>
      <trkpt lat="47.16367" lon="-1.54997">
        <ele>38.2</ele>
        <time>2015-01-04T11:08:16Z</time>
      </trkpt>
      <trkpt lat="47.16353" lon="-1.54998">
        <ele>37.9</ele>
        <time>2015-01-04T11:08:18Z</time>
      </trkpt>
      <trkpt lat="47.16333" lon="-1.55">
        <ele>37.8</ele>
        <time>2015-01-04T11:08:21Z</time>
      </trkpt>
      <trkpt lat="47.16312" lon="-1.55">
        <ele>37.5</ele>
        <time>2015-01-04T11:08:24Z</time>
      </trkpt>
      <trkpt lat="47.16296" lon="-1.55001">
        <ele>36.7</ele>
        <time>2015-01-04T11:08:26Z</time>
      </trkpt>
      <trkpt lat="47.1629" lon="-1.55001">
        <ele>36.6</ele>
        <time>2015-01-04T11:08:27Z</time>
      </trkpt>
      <trkpt lat="47.16283" lon="-1.55001">
        <ele>36.6</ele>
        <time>2015-01-04T11:08:28Z</time>
      </trkpt>
      <trkpt lat="47.16263" lon="-1.54999">
        <ele>36.6</ele>
        <time>2015-01-04T11:08:31Z</time>
      </trkpt>
      <trkpt lat="47.16249" lon="-1.54998">
        <ele>34.5</ele>
        <time>2015-01-04T11:08:33Z</time>
      </trkpt>
      <trkpt lat="47.16234" lon="-1.54995">
        <ele>34.4</ele>
        <time>2015-01-04T11:08:35Z</time>
      </trkpt>
      <trkpt lat="47.16219" lon="-1.54992">
        <ele>34.4</ele>
        <time>2015-01-04T11:08:37Z</time>
      </trkpt>
      <trkpt lat="47.16195" lon="-1.54988">
        <ele>34.3</ele>
        <time>2015-01-04T11:08:41Z</time>
      </trkpt>
      <trkpt lat="47.16177" lon="-1.54984">
        <ele>34.3</ele>
        <time>2015-01-04T11:08:44Z</time>
      </trkpt>
      <trkpt lat="47.16162" lon="-1.55001">
        <ele>34.3</ele>
        <time>2015-01-04T11:08:46Z</time>
      </trkpt>
      <trkpt lat="47.16146" lon="-1.54999">
        <ele>34.3</ele>
        <time>2015-01-04T11:08:49Z</time>
      </trkpt>
      <trkpt lat="47.16128" lon="-1.54987">
        <ele>34.3</ele>
        <time>2015-01-04T11:08:51Z</time>
      </trkpt>
      <trkpt lat="47.1612" lon="-1.54991">
        <ele>34.3</ele>
        <time>2015-01-04T11:08:53Z</time>
      </trkpt>
      <trkpt lat="47.16101" lon="-1.55002">
        <ele>34.3</ele>
        <time>2015-01-04T11:08:56Z</time>
      </trkpt>
      <trkpt lat="47.1608" lon="-1.55013">
        <ele>34.3</ele>
        <time>2015-01-04T11:08:59Z</time>
      </trkpt>
      <trkpt lat="47.16072" lon="-1.55017">
        <ele>34.3</ele>
        <time>2015-01-04T11:09:00Z</time>
      </trkpt>
      <trkpt lat="47.16061" lon="-1.55015">
        <ele>34.3</ele>
        <time>2015-01-04T11:09:02Z</time>
      </trkpt>
      <trkpt lat="47.16049" lon="-1.55003">
        <ele>38.1</ele>
        <time>2015-01-04T11:09:04Z</time>
      </trkpt>
      <trkpt lat="47.16044" lon="-1.54995">
        <ele>38.1</ele>
        <time>2015-01-04T11:09:05Z</time>
      </trkpt>
      <trkpt lat="47.16039" lon="-1.54986">
        <ele>38.1</ele>
        <time>2015-01-04T11:09:06Z</time>
      </trkpt>
      <trkpt lat="47.16035" lon="-1.54978">
        <ele>38.1</ele>
        <time>2015-01-04T11:09:07Z</time>
      </trkpt>
      <trkpt lat="47.16032" lon="-1.5497">
        <ele>38.1</ele>
        <time>2015-01-04T11:09:08Z</time>
      </trkpt>
      <trkpt lat="47.16024" lon="-1.54951">
        <ele>39.1</ele>
        <time>2015-01-04T11:09:10Z</time>
      </trkpt>
      <trkpt lat="47.16017" lon="-1.54932">
        <ele>39.3</ele>
        <time>2015-01-04T11:09:12Z</time>
      </trkpt>
      <trkpt lat="47.16011" lon="-1.54914">
        <ele>39.3</ele>
        <time>2015-01-04T11:09:14Z</time>
      </trkpt>
      <trkpt lat="47.16005" lon="-1.54895">
        <ele>39.4</ele>
        <time>2015-01-04T11:09:16Z</time>
      </trkpt>
      <trkpt lat="47.15998" lon="-1.54878">
        <ele>39.4</ele>
        <time>2015-01-04T11:09:18Z</time>
      </trkpt>
      <trkpt lat="47.15992" lon="-1.5485">
        <ele>39.4</ele>
        <time>2015-01-04T11:09:21Z</time>
      </trkpt>
      <trkpt lat="47.15987" lon="-1.54822">
        <ele>39.4</ele>
        <time>2015-01-04T11:09:24Z</time>
      </trkpt>
      <trkpt lat="47.15984" lon="-1.54803">
        <ele>39.4</ele>
        <time>2015-01-04T11:09:26Z</time>
      </trkpt>
      <trkpt lat="47.1598" lon="-1.54784">
        <ele>39.4</ele>
        <time>2015-01-04T11:09:28Z</time>
      </trkpt>
      <trkpt lat="47.15975" lon="-1.54756">
        <ele>39.4</ele>
        <time>2015-01-04T11:09:31Z</time>
      </trkpt>
      <trkpt lat="47.15971" lon="-1.54726">
        <ele>39.6</ele>
        <time>2015-01-04T11:09:34Z</time>
      </trkpt>
      <trkpt lat="47.15967" lon="-1.54702">
        <ele>39.8</ele>
        <time>2015-01-04T11:09:37Z</time>
      </trkpt>
      <trkpt lat="47.15964" lon="-1.54677">
        <ele>39.9</ele>
        <time>2015-01-04T11:09:40Z</time>
      </trkpt>
      <trkpt lat="47.15963" lon="-1.54657">
        <ele>39.8</ele>
        <time>2015-01-04T11:09:45Z</time>
      </trkpt>
      <trkpt lat="47.15962" lon="-1.54645">
        <ele>39.7</ele>
        <time>2015-01-04T11:09:47Z</time>
      </trkpt>
      <trkpt lat="47.15964" lon="-1.54627">
        <ele>39.7</ele>
        <time>2015-01-04T11:09:50Z</time>
      </trkpt>
      <trkpt lat="47.15968" lon="-1.54605">
        <ele>39.7</ele>
        <time>2015-01-04T11:09:54Z</time>
      </trkpt>
      <trkpt lat="47.15971" lon="-1.54587">
        <ele>39.7</ele>
        <time>2015-01-04T11:09:58Z</time>
      </trkpt>
      <trkpt lat="47.15965" lon="-1.54578">
        <ele>39.7</ele>
        <time>2015-01-04T11:10:01Z</time>
      </trkpt>
      <trkpt lat="47.15965" lon="-1.54578">
        <ele>39.7</ele>
        <time>2015-01-04T11:10:02Z</time>
      </trkpt>
      <trkpt lat="47.15965" lon="-1.54578">
        <ele>47.2</ele>
        <time>2015-01-04T11:10:06Z</time>
      </trkpt>
      <trkpt lat="47.15965" lon="-1.54578">
        <ele>31.1</ele>
        <time>2015-01-04T11:10:06Z</time>
      </trkpt>
      <trkpt lat="47.15965" lon="-1.54578">
        <ele>31.1</ele>
        <time>2015-01-04T11:10:38Z</time>
      </trkpt>
      <trkpt lat="47.15952" lon="-1.54559">
        <ele>45.3</ele>
        <time>2015-01-04T11:10:39Z</time>
      </trkpt>
      <trkpt lat="47.15956" lon="-1.54557">
        <ele>45.7</ele>
        <time>2015-01-04T11:10:43Z</time>
      </trkpt>
      <trkpt lat="47.15955" lon="-1.54558">
        <ele>50.1</ele>
        <time>2015-01-04T11:10:47Z</time>
      </trkpt>
      <trkpt lat="47.15955" lon="-1.54558">
        <ele>31.3</ele>
        <time>2015-01-04T11:10:47Z</time>
      </trkpt>
      <trkpt lat="47.15955" lon="-1.54558">
        <ele>31.3</ele>
        <time>2015-01-04T11:11:10Z</time>
      </trkpt>
      <trkpt lat="47.1596" lon="-1.54587">
        <ele>44.6</ele>
        <time>2015-01-04T11:11:11Z</time>
      </trkpt>
      <trkpt lat="47.15962" lon="-1.54588">
        <ele>44.9</ele>
        <time>2015-01-04T11:11:12Z</time>
      </trkpt>
      <trkpt lat="47.15961" lon="-1.54589">
        <ele>51.8</ele>
        <time>2015-01-04T11:11:15Z</time>
      </trkpt>
      <trkpt lat="47.15961" lon="-1.54589">
        <ele>31</ele>
        <time>2015-01-04T11:11:15Z</time>
      </trkpt>
      <trkpt lat="47.15961" lon="-1.54589">
        <ele>31</ele>
        <time>2015-01-04T11:15:14Z</time>
      </trkpt>
      <trkpt lat="47.15953" lon="-1.54578">
        <ele>36</ele>
        <time>2015-01-04T11:15:15Z</time>
      </trkpt>
      <trkpt lat="47.15952" lon="-1.54587">
        <ele>37</ele>
        <time>2015-01-04T11:15:17Z</time>
      </trkpt>
      <trkpt lat="47.15955" lon="-1.54594">
        <ele>37</ele>
        <time>2015-01-04T11:15:19Z</time>
      </trkpt>
      <trkpt lat="47.15969" lon="-1.54598">
        <ele>37.4</ele>
        <time>2015-01-04T11:15:23Z</time>
      </trkpt>
      <trkpt lat="47.15973" lon="-1.54575">
        <ele>37.5</ele>
        <time>2015-01-04T11:15:27Z</time>
      </trkpt>
      <trkpt lat="47.15978" lon="-1.54552">
        <ele>37.5</ele>
        <time>2015-01-04T11:15:30Z</time>
      </trkpt>
      <trkpt lat="47.15982" lon="-1.54532">
        <ele>37.5</ele>
        <time>2015-01-04T11:15:33Z</time>
      </trkpt>
      <trkpt lat="47.15987" lon="-1.5451">
        <ele>37.5</ele>
        <time>2015-01-04T11:15:36Z</time>
      </trkpt>
      <trkpt lat="47.15993" lon="-1.54487">
        <ele>37.3</ele>
        <time>2015-01-04T11:15:39Z</time>
      </trkpt>
      <trkpt lat="47.15999" lon="-1.54464">
        <ele>36.7</ele>
        <time>2015-01-04T11:15:42Z</time>
      </trkpt>
      <trkpt lat="47.16002" lon="-1.54441">
        <ele>36</ele>
        <time>2015-01-04T11:15:45Z</time>
      </trkpt>
      <trkpt lat="47.16002" lon="-1.54416">
        <ele>35.5</ele>
        <time>2015-01-04T11:15:48Z</time>
      </trkpt>
      <trkpt lat="47.16009" lon="-1.5439">
        <ele>34.7</ele>
        <time>2015-01-04T11:15:51Z</time>
      </trkpt>
      <trkpt lat="47.16021" lon="-1.54391">
        <ele>34.3</ele>
        <time>2015-01-04T11:15:55Z</time>
      </trkpt>
      <trkpt lat="47.1604" lon="-1.54396">
        <ele>34.3</ele>
        <time>2015-01-04T11:15:57Z</time>
      </trkpt>
      <trkpt lat="47.1605" lon="-1.5438">
        <ele>33.6</ele>
        <time>2015-01-04T11:16:00Z</time>
      </trkpt>
      <trkpt lat="47.16061" lon="-1.54363">
        <ele>33.1</ele>
        <time>2015-01-04T11:16:03Z</time>
      </trkpt>
      <trkpt lat="47.16075" lon="-1.54345">
        <ele>32.7</ele>
        <time>2015-01-04T11:16:06Z</time>
      </trkpt>
      <trkpt lat="47.16087" lon="-1.54329">
        <ele>32.3</ele>
        <time>2015-01-04T11:16:09Z</time>
      </trkpt>
      <trkpt lat="47.16094" lon="-1.54317">
        <ele>32.2</ele>
        <time>2015-01-04T11:16:11Z</time>
      </trkpt>
      <trkpt lat="47.16125" lon="-1.54286">
        <ele>32.1</ele>
        <time>2015-01-04T11:16:17Z</time>
      </trkpt>
      <trkpt lat="47.1614" lon="-1.54273">
        <ele>31.9</ele>
        <time>2015-01-04T11:16:20Z</time>
      </trkpt>
      <trkpt lat="47.16155" lon="-1.54261">
        <ele>31.8</ele>
        <time>2015-01-04T11:16:23Z</time>
      </trkpt>
      <trkpt lat="47.16166" lon="-1.54256">
        <ele>31.8</ele>
        <time>2015-01-04T11:16:25Z</time>
      </trkpt>
      <trkpt lat="47.16177" lon="-1.54252">
        <ele>31.7</ele>
        <time>2015-01-04T11:16:27Z</time>
      </trkpt>
      <trkpt lat="47.16199" lon="-1.54242">
        <ele>31.8</ele>
        <time>2015-01-04T11:16:31Z</time>
      </trkpt>
      <trkpt lat="47.1621" lon="-1.54239">
        <ele>31.8</ele>
        <time>2015-01-04T11:16:33Z</time>
      </trkpt>
      <trkpt lat="47.16233" lon="-1.54228">
        <ele>31.8</ele>
        <time>2015-01-04T11:16:37Z</time>
      </trkpt>
      <trkpt lat="47.16238" lon="-1.54228">
        <ele>31.9</ele>
        <time>2015-01-04T11:16:38Z</time>
      </trkpt>
      <trkpt lat="47.16259" lon="-1.5423">
        <ele>31.9</ele>
        <time>2015-01-04T11:16:42Z</time>
      </trkpt>
      <trkpt lat="47.16275" lon="-1.54233">
        <ele>32</ele>
        <time>2015-01-04T11:16:45Z</time>
      </trkpt>
      <trkpt lat="47.16295" lon="-1.54238">
        <ele>32.4</ele>
        <time>2015-01-04T11:16:49Z</time>
      </trkpt>
      <trkpt lat="47.16313" lon="-1.5424">
        <ele>32.5</ele>
        <time>2015-01-04T11:16:53Z</time>
      </trkpt>
      <trkpt lat="47.16331" lon="-1.5424">
        <ele>32.9</ele>
        <time>2015-01-04T11:16:57Z</time>
      </trkpt>
      <trkpt lat="47.16341" lon="-1.54243">
        <ele>33.5</ele>
        <time>2015-01-04T11:17:00Z</time>
      </trkpt>
      <trkpt lat="47.16351" lon="-1.54241">
        <ele>34.5</ele>
        <time>2015-01-04T11:17:03Z</time>
      </trkpt>
      <trkpt lat="47.16366" lon="-1.54235">
        <ele>34.5</ele>
        <time>2015-01-04T11:17:06Z</time>
      </trkpt>
      <trkpt lat="47.16388" lon="-1.54236">
        <ele>36</ele>
        <time>2015-01-04T11:17:10Z</time>
      </trkpt>
      <trkpt lat="47.16402" lon="-1.54237">
        <ele>36.6</ele>
        <time>2015-01-04T11:17:13Z</time>
      </trkpt>
      <trkpt lat="47.1642" lon="-1.54238">
        <ele>36.9</ele>
        <time>2015-01-04T11:17:15Z</time>
      </trkpt>
      <trkpt lat="47.16444" lon="-1.5424">
        <ele>37</ele>
        <time>2015-01-04T11:17:19Z</time>
      </trkpt>
      <trkpt lat="47.16456" lon="-1.54241">
        <ele>37.1</ele>
        <time>2015-01-04T11:17:21Z</time>
      </trkpt>
      <trkpt lat="47.16468" lon="-1.54242">
        <ele>37.1</ele>
        <time>2015-01-04T11:17:23Z</time>
      </trkpt>
      <trkpt lat="47.16496" lon="-1.54244">
        <ele>37.1</ele>
        <time>2015-01-04T11:17:27Z</time>
      </trkpt>
      <trkpt lat="47.16516" lon="-1.54246">
        <ele>37.2</ele>
        <time>2015-01-04T11:17:30Z</time>
      </trkpt>
      <trkpt lat="47.16536" lon="-1.5425">
        <ele>37.3</ele>
        <time>2015-01-04T11:17:33Z</time>
      </trkpt>
      <trkpt lat="47.16556" lon="-1.54253">
        <ele>37.4</ele>
        <time>2015-01-04T11:17:36Z</time>
      </trkpt>
      <trkpt lat="47.16563" lon="-1.54257">
        <ele>37.4</ele>
        <time>2015-01-04T11:17:37Z</time>
      </trkpt>
      <trkpt lat="47.1657" lon="-1.54259">
        <ele>37.4</ele>
        <time>2015-01-04T11:17:38Z</time>
      </trkpt>
      <trkpt lat="47.16576" lon="-1.5426">
        <ele>37.4</ele>
        <time>2015-01-04T11:17:39Z</time>
      </trkpt>
      <trkpt lat="47.16582" lon="-1.54261">
        <ele>37.4</ele>
        <time>2015-01-04T11:17:40Z</time>
      </trkpt>
      <trkpt lat="47.16589" lon="-1.54261">
        <ele>37.4</ele>
        <time>2015-01-04T11:17:41Z</time>
      </trkpt>
      <trkpt lat="47.16603" lon="-1.5426">
        <ele>37.4</ele>
        <time>2015-01-04T11:17:43Z</time>
      </trkpt>
      <trkpt lat="47.16616" lon="-1.54277">
        <ele>37.4</ele>
        <time>2015-01-04T11:17:47Z</time>
      </trkpt>
      <trkpt lat="47.16616" lon="-1.54298">
        <ele>37.3</ele>
        <time>2015-01-04T11:17:50Z</time>
      </trkpt>
      <trkpt lat="47.16596" lon="-1.54323">
        <ele>37.3</ele>
        <time>2015-01-04T11:17:53Z</time>
      </trkpt>
      <trkpt lat="47.16594" lon="-1.54347">
        <ele>37.3</ele>
        <time>2015-01-04T11:17:56Z</time>
      </trkpt>
      <trkpt lat="47.16592" lon="-1.54369">
        <ele>37.1</ele>
        <time>2015-01-04T11:17:58Z</time>
      </trkpt>
      <trkpt lat="47.1659" lon="-1.54389">
        <ele>36.7</ele>
        <time>2015-01-04T11:18:00Z</time>
      </trkpt>
      <trkpt lat="47.16588" lon="-1.5441">
        <ele>36.6</ele>
        <time>2015-01-04T11:18:02Z</time>
      </trkpt>
      <trkpt lat="47.16584" lon="-1.54451">
        <ele>36.2</ele>
        <time>2015-01-04T11:18:06Z</time>
      </trkpt>
      <trkpt lat="47.16581" lon="-1.54471">
        <ele>35.9</ele>
        <time>2015-01-04T11:18:08Z</time>
      </trkpt>
      <trkpt lat="47.16579" lon="-1.54491">
        <ele>35.8</ele>
        <time>2015-01-04T11:18:10Z</time>
      </trkpt>
      <trkpt lat="47.16574" lon="-1.5452">
        <ele>35.7</ele>
        <time>2015-01-04T11:18:13Z</time>
      </trkpt>
      <trkpt lat="47.16573" lon="-1.54544">
        <ele>35.5</ele>
        <time>2015-01-04T11:18:15Z</time>
      </trkpt>
      <trkpt lat="47.16576" lon="-1.54566">
        <ele>35.3</ele>
        <time>2015-01-04T11:18:17Z</time>
      </trkpt>
      <trkpt lat="47.16579" lon="-1.54587">
        <ele>35.3</ele>
        <time>2015-01-04T11:18:19Z</time>
      </trkpt>
      <trkpt lat="47.16583" lon="-1.54609">
        <ele>35.2</ele>
        <time>2015-01-04T11:18:21Z</time>
      </trkpt>
      <trkpt lat="47.16589" lon="-1.54637">
        <ele>35.1</ele>
        <time>2015-01-04T11:18:24Z</time>
      </trkpt>
      <trkpt lat="47.16592" lon="-1.54657">
        <ele>35.1</ele>
        <time>2015-01-04T11:18:26Z</time>
      </trkpt>
      <trkpt lat="47.16597" lon="-1.5468">
        <ele>34.9</ele>
        <time>2015-01-04T11:18:28Z</time>
      </trkpt>
      <trkpt lat="47.16601" lon="-1.54701">
        <ele>34.7</ele>
        <time>2015-01-04T11:18:30Z</time>
      </trkpt>
      <trkpt lat="47.16606" lon="-1.54722">
        <ele>34.7</ele>
        <time>2015-01-04T11:18:32Z</time>
      </trkpt>
      <trkpt lat="47.1661" lon="-1.54741">
        <ele>34.5</ele>
        <time>2015-01-04T11:18:34Z</time>
      </trkpt>
      <trkpt lat="47.16616" lon="-1.54767">
        <ele>34.4</ele>
        <time>2015-01-04T11:18:37Z</time>
      </trkpt>
      <trkpt lat="47.16642" lon="-1.54777">
        <ele>34.3</ele>
        <time>2015-01-04T11:18:41Z</time>
      </trkpt>
      <trkpt lat="47.16654" lon="-1.54773">
        <ele>34.1</ele>
        <time>2015-01-04T11:18:44Z</time>
      </trkpt>
      <trkpt lat="47.16673" lon="-1.54766">
        <ele>34</ele>
        <time>2015-01-04T11:18:46Z</time>
      </trkpt>
      <trkpt lat="47.16689" lon="-1.5476">
        <ele>34</ele>
        <time>2015-01-04T11:18:49Z</time>
      </trkpt>
      <trkpt lat="47.16702" lon="-1.54755">
        <ele>34.1</ele>
        <time>2015-01-04T11:18:51Z</time>
      </trkpt>
      <trkpt lat="47.1671" lon="-1.54774">
        <ele>34</ele>
        <time>2015-01-04T11:18:55Z</time>
      </trkpt>
      <trkpt lat="47.16721" lon="-1.54746">
        <ele>34.1</ele>
        <time>2015-01-04T11:18:59Z</time>
      </trkpt>
      <trkpt lat="47.16707" lon="-1.54754">
        <ele>34.1</ele>
        <time>2015-01-04T11:19:01Z</time>
      </trkpt>
      <trkpt lat="47.16691" lon="-1.54759">
        <ele>34.1</ele>
        <time>2015-01-04T11:19:02Z</time>
      </trkpt>
      <trkpt lat="47.1667" lon="-1.54768">
        <ele>34.3</ele>
        <time>2015-01-04T11:19:07Z</time>
      </trkpt>
      <trkpt lat="47.16673" lon="-1.5484">
        <ele>34.4</ele>
        <time>2015-01-04T11:19:10Z</time>
      </trkpt>
      <trkpt lat="47.16672" lon="-1.5486">
        <ele>34.7</ele>
        <time>2015-01-04T11:19:14Z</time>
      </trkpt>
      <trkpt lat="47.16666" lon="-1.54861">
        <ele>35.3</ele>
        <time>2015-01-04T11:19:16Z</time>
      </trkpt>
      <trkpt lat="47.16663" lon="-1.54855">
        <ele>35.3</ele>
        <time>2015-01-04T11:19:18Z</time>
      </trkpt>
      <trkpt lat="47.16663" lon="-1.54846">
        <ele>35.3</ele>
        <time>2015-01-04T11:19:20Z</time>
      </trkpt>
      <trkpt lat="47.16658" lon="-1.54833">
        <ele>35.6</ele>
        <time>2015-01-04T11:19:23Z</time>
      </trkpt>
      <trkpt lat="47.16654" lon="-1.5482">
        <ele>35.8</ele>
        <time>2015-01-04T11:19:26Z</time>
      </trkpt>
      <trkpt lat="47.16649" lon="-1.54804">
        <ele>36</ele>
        <time>2015-01-04T11:19:30Z</time>
      </trkpt>
      <trkpt lat="47.16648" lon="-1.54797">
        <ele>36</ele>
        <time>2015-01-04T11:19:36Z</time>
      </trkpt>
      <trkpt lat="47.16659" lon="-1.54798">
        <ele>36</ele>
        <time>2015-01-04T11:19:44Z</time>
      </trkpt>
      <trkpt lat="47.16656" lon="-1.54803">
        <ele>36</ele>
        <time>2015-01-04T11:19:49Z</time>
      </trkpt>
      <trkpt lat="47.16655" lon="-1.54803">
        <ele>36</ele>
        <time>2015-01-04T11:19:50Z</time>
      </trkpt>
      <trkpt lat="47.16655" lon="-1.54803">
        <ele>36.6</ele>
        <time>2015-01-04T11:19:51Z</time>
      </trkpt>
      <trkpt lat="47.16655" lon="-1.54803">
        <ele>36.6</ele>
        <time>2015-01-04T11:20:29Z</time>
      </trkpt>
      <trkpt lat="47.16636" lon="-1.54805">
        <ele>31.4</ele>
        <time>2015-01-04T11:20:30Z</time>
      </trkpt>
      <trkpt lat="47.16633" lon="-1.54801">
        <ele>31.2</ele>
        <time>2015-01-04T11:20:33Z</time>
      </trkpt>
      <trkpt lat="47.16632" lon="-1.54801">
        <ele>30.3</ele>
        <time>2015-01-04T11:20:37Z</time>
      </trkpt>
      <trkpt lat="47.16632" lon="-1.54801">
        <ele>36</ele>
        <time>2015-01-04T11:20:37Z</time>
      </trkpt>
      <trkpt lat="47.16632" lon="-1.54801">
        <ele>36</ele>
        <time>2015-01-04T11:22:00Z</time>
      </trkpt>
      <trkpt lat="47.16651" lon="-1.54803">
        <ele>30</ele>
        <time>2015-01-04T11:22:01Z</time>
      </trkpt>
      <trkpt lat="47.16651" lon="-1.54802">
        <ele>29.2</ele>
        <time>2015-01-04T11:22:02Z</time>
      </trkpt>
      <trkpt lat="47.16648" lon="-1.54803">
        <ele>21.2</ele>
        <time>2015-01-04T11:22:06Z</time>
      </trkpt>
      <trkpt lat="47.16648" lon="-1.54803">
        <ele>36.3</ele>
        <time>2015-01-04T11:22:06Z</time>
      </trkpt>
      <trkpt lat="47.16648" lon="-1.54803">
        <ele>36.3</ele>
        <time>2015-01-04T11:23:39Z</time>
      </trkpt>
    </trkseg>
  </trk>
</gpx>